<?xml version='1.0' encoding='UTF-8'?>
<gpx version="1.1" creator="https://www.komoot.de" xmlns="http://www.topografix.com/GPX/1/1" xmlns:xsi="http://www.w3.org/2001/XMLSchema-instance" xsi:schemaLocation="http://www.topografix.com/GPX/1/1 http://www.topografix.com/GPX/1/1/gpx.xsd">
  <metadata>
    <name>Radtour 15, Weinradweg - Sylvaner, Start Hobersdorf</name>
    <author>
      <link href="https://www.komoot.de">
        <text>komoot</text>
        <type>text/html</type>
      </link>
    </author>
  </metadata>
  <trk>
    <name>Radtour 15, Weinradweg - Sylvaner, Start Hobersdorf</name>
    <trkseg>
      <trkpt lat="48.583946" lon="16.649073">
        <ele>233.335062</ele>
        <time>2020-08-20T05:15:02.814Z</time>
      </trkpt>
      <trkpt lat="48.584131" lon="16.648942">
        <ele>233.335062</ele>
        <time>2020-08-20T05:15:22.589Z</time>
      </trkpt>
      <trkpt lat="48.584243" lon="16.648838">
        <ele>233.335062</ele>
        <time>2020-08-20T05:15:25.565Z</time>
      </trkpt>
      <trkpt lat="48.584356" lon="16.648733">
        <ele>233.335062</ele>
        <time>2020-08-20T05:15:28.572Z</time>
      </trkpt>
      <trkpt lat="48.584464" lon="16.648640">
        <ele>233.335062</ele>
        <time>2020-08-20T05:15:31.582Z</time>
      </trkpt>
      <trkpt lat="48.584430" lon="16.648484">
        <ele>233.335062</ele>
        <time>2020-08-20T05:15:34.676Z</time>
      </trkpt>
      <trkpt lat="48.584375" lon="16.648374">
        <ele>233.335062</ele>
        <time>2020-08-20T05:15:36.598Z</time>
      </trkpt>
      <trkpt lat="48.584299" lon="16.648220">
        <ele>233.344410</ele>
        <time>2020-08-20T05:15:39.571Z</time>
      </trkpt>
      <trkpt lat="48.584212" lon="16.648068">
        <ele>233.405601</ele>
        <time>2020-08-20T05:15:42.574Z</time>
      </trkpt>
      <trkpt lat="48.584153" lon="16.647960">
        <ele>233.448242</ele>
        <time>2020-08-20T05:15:44.574Z</time>
      </trkpt>
      <trkpt lat="48.584064" lon="16.647804">
        <ele>233.510956</ele>
        <time>2020-08-20T05:15:47.574Z</time>
      </trkpt>
      <trkpt lat="48.583996" lon="16.647699">
        <ele>233.555690</ele>
        <time>2020-08-20T05:15:49.579Z</time>
      </trkpt>
      <trkpt lat="48.583929" lon="16.647587">
        <ele>233.601661</ele>
        <time>2020-08-20T05:15:51.572Z</time>
      </trkpt>
      <trkpt lat="48.583864" lon="16.647470">
        <ele>233.648174</ele>
        <time>2020-08-20T05:15:53.580Z</time>
      </trkpt>
      <trkpt lat="48.583798" lon="16.647350">
        <ele>233.695684</ele>
        <time>2020-08-20T05:15:55.586Z</time>
      </trkpt>
      <trkpt lat="48.583735" lon="16.647234">
        <ele>233.741376</ele>
        <time>2020-08-20T05:15:57.588Z</time>
      </trkpt>
      <trkpt lat="48.583672" lon="16.647121">
        <ele>233.786365</ele>
        <time>2020-08-20T05:15:59.585Z</time>
      </trkpt>
      <trkpt lat="48.583608" lon="16.647004">
        <ele>233.832584</ele>
        <time>2020-08-20T05:16:01.587Z</time>
      </trkpt>
      <trkpt lat="48.583544" lon="16.646879">
        <ele>233.880706</ele>
        <time>2020-08-20T05:16:03.574Z</time>
      </trkpt>
      <trkpt lat="48.583485" lon="16.646755">
        <ele>233.927206</ele>
        <time>2020-08-20T05:16:05.603Z</time>
      </trkpt>
      <trkpt lat="48.583425" lon="16.646635">
        <ele>233.973000</ele>
        <time>2020-08-20T05:16:07.580Z</time>
      </trkpt>
      <trkpt lat="48.583364" lon="16.646514">
        <ele>234.019315</ele>
        <time>2020-08-20T05:16:09.584Z</time>
      </trkpt>
      <trkpt lat="48.583307" lon="16.646392">
        <ele>234.064786</ele>
        <time>2020-08-20T05:16:11.562Z</time>
      </trkpt>
      <trkpt lat="48.583248" lon="16.646266">
        <ele>234.111783</ele>
        <time>2020-08-20T05:16:13.575Z</time>
      </trkpt>
      <trkpt lat="48.583195" lon="16.646139">
        <ele>234.157497</ele>
        <time>2020-08-20T05:16:15.583Z</time>
      </trkpt>
      <trkpt lat="48.583145" lon="16.646017">
        <ele>234.141823</ele>
        <time>2020-08-20T05:16:17.569Z</time>
      </trkpt>
      <trkpt lat="48.583101" lon="16.645890">
        <ele>234.117961</ele>
        <time>2020-08-20T05:16:19.587Z</time>
      </trkpt>
      <trkpt lat="48.583059" lon="16.645769">
        <ele>234.095217</ele>
        <time>2020-08-20T05:16:21.565Z</time>
      </trkpt>
      <trkpt lat="48.582999" lon="16.645600">
        <ele>234.063292</ele>
        <time>2020-08-20T05:16:24.565Z</time>
      </trkpt>
      <trkpt lat="48.582946" lon="16.645475">
        <ele>234.038579</ele>
        <time>2020-08-20T05:16:31.564Z</time>
      </trkpt>
      <trkpt lat="48.582989" lon="16.645351">
        <ele>234.015276</ele>
        <time>2020-08-20T05:16:36.566Z</time>
      </trkpt>
      <trkpt lat="48.583084" lon="16.645306">
        <ele>233.990227</ele>
        <time>2020-08-20T05:16:39.600Z</time>
      </trkpt>
      <trkpt lat="48.583074" lon="16.645117">
        <ele>233.958668</ele>
        <time>2020-08-20T05:16:44.633Z</time>
      </trkpt>
      <trkpt lat="48.583003" lon="16.644979">
        <ele>233.929569</ele>
        <time>2020-08-20T05:16:46.573Z</time>
      </trkpt>
      <trkpt lat="48.582936" lon="16.644826">
        <ele>233.899028</ele>
        <time>2020-08-20T05:16:48.587Z</time>
      </trkpt>
      <trkpt lat="48.582874" lon="16.644673">
        <ele>233.869163</ele>
        <time>2020-08-20T05:16:50.572Z</time>
      </trkpt>
      <trkpt lat="48.582813" lon="16.644524">
        <ele>233.839997</ele>
        <time>2020-08-20T05:16:52.572Z</time>
      </trkpt>
      <trkpt lat="48.582756" lon="16.644376">
        <ele>233.811492</ele>
        <time>2020-08-20T05:16:54.584Z</time>
      </trkpt>
      <trkpt lat="48.582701" lon="16.644228">
        <ele>233.783237</ele>
        <time>2020-08-20T05:16:56.583Z</time>
      </trkpt>
      <trkpt lat="48.582646" lon="16.644086">
        <ele>233.755848</ele>
        <time>2020-08-20T05:16:58.572Z</time>
      </trkpt>
      <trkpt lat="48.582587" lon="16.643945">
        <ele>233.728078</ele>
        <time>2020-08-20T05:17:00.584Z</time>
      </trkpt>
      <trkpt lat="48.582535" lon="16.643803">
        <ele>233.703191</ele>
        <time>2020-08-20T05:17:02.584Z</time>
      </trkpt>
      <trkpt lat="48.582482" lon="16.643662">
        <ele>233.682451</ele>
        <time>2020-08-20T05:17:04.566Z</time>
      </trkpt>
      <trkpt lat="48.582427" lon="16.643523">
        <ele>233.661736</ele>
        <time>2020-08-20T05:17:06.563Z</time>
      </trkpt>
      <trkpt lat="48.582373" lon="16.643385">
        <ele>233.641231</ele>
        <time>2020-08-20T05:17:08.572Z</time>
      </trkpt>
      <trkpt lat="48.582320" lon="16.643246">
        <ele>233.620712</ele>
        <time>2020-08-20T05:17:10.571Z</time>
      </trkpt>
      <trkpt lat="48.582268" lon="16.643107">
        <ele>233.600289</ele>
        <time>2020-08-20T05:17:12.572Z</time>
      </trkpt>
      <trkpt lat="48.582212" lon="16.642970">
        <ele>233.579693</ele>
        <time>2020-08-20T05:17:14.601Z</time>
      </trkpt>
      <trkpt lat="48.582159" lon="16.642834">
        <ele>233.559506</ele>
        <time>2020-08-20T05:17:16.570Z</time>
      </trkpt>
      <trkpt lat="48.582106" lon="16.642698">
        <ele>233.539319</ele>
        <time>2020-08-20T05:17:18.569Z</time>
      </trkpt>
      <trkpt lat="48.582050" lon="16.642562">
        <ele>233.518831</ele>
        <time>2020-08-20T05:17:20.549Z</time>
      </trkpt>
      <trkpt lat="48.582002" lon="16.642414">
        <ele>233.497751</ele>
        <time>2020-08-20T05:17:22.570Z</time>
      </trkpt>
      <trkpt lat="48.581963" lon="16.642274">
        <ele>233.478323</ele>
        <time>2020-08-20T05:17:24.569Z</time>
      </trkpt>
      <trkpt lat="48.581910" lon="16.642101">
        <ele>233.453940</ele>
        <time>2020-08-20T05:17:27.546Z</time>
      </trkpt>
      <trkpt lat="48.581862" lon="16.641969">
        <ele>233.434675</ele>
        <time>2020-08-20T05:17:29.564Z</time>
      </trkpt>
      <trkpt lat="48.581811" lon="16.641836">
        <ele>233.415014</ele>
        <time>2020-08-20T05:17:31.573Z</time>
      </trkpt>
      <trkpt lat="48.581761" lon="16.641706">
        <ele>233.395782</ele>
        <time>2020-08-20T05:17:33.569Z</time>
      </trkpt>
      <trkpt lat="48.581711" lon="16.641576">
        <ele>233.376550</ele>
        <time>2020-08-20T05:17:35.563Z</time>
      </trkpt>
      <trkpt lat="48.581667" lon="16.641445">
        <ele>233.357547</ele>
        <time>2020-08-20T05:17:37.573Z</time>
      </trkpt>
      <trkpt lat="48.581615" lon="16.641321">
        <ele>233.337932</ele>
        <time>2020-08-20T05:17:39.571Z</time>
      </trkpt>
      <trkpt lat="48.581573" lon="16.641190">
        <ele>233.318482</ele>
        <time>2020-08-20T05:17:41.563Z</time>
      </trkpt>
      <trkpt lat="48.581530" lon="16.641060">
        <ele>233.299063</ele>
        <time>2020-08-20T05:17:43.563Z</time>
      </trkpt>
      <trkpt lat="48.581479" lon="16.640931">
        <ele>233.278985</ele>
        <time>2020-08-20T05:17:45.578Z</time>
      </trkpt>
      <trkpt lat="48.581427" lon="16.640798">
        <ele>233.258343</ele>
        <time>2020-08-20T05:17:47.547Z</time>
      </trkpt>
      <trkpt lat="48.581375" lon="16.640667">
        <ele>233.237932</ele>
        <time>2020-08-20T05:17:49.584Z</time>
      </trkpt>
      <trkpt lat="48.581325" lon="16.640533">
        <ele>233.217377</ele>
        <time>2020-08-20T05:17:51.587Z</time>
      </trkpt>
      <trkpt lat="48.581272" lon="16.640393">
        <ele>233.195825</ele>
        <time>2020-08-20T05:17:53.582Z</time>
      </trkpt>
      <trkpt lat="48.581223" lon="16.640256">
        <ele>233.175017</ele>
        <time>2020-08-20T05:17:55.580Z</time>
      </trkpt>
      <trkpt lat="48.581167" lon="16.640119">
        <ele>233.153501</ele>
        <time>2020-08-20T05:17:57.584Z</time>
      </trkpt>
      <trkpt lat="48.581114" lon="16.639985">
        <ele>233.132641</ele>
        <time>2020-08-20T05:17:59.548Z</time>
      </trkpt>
      <trkpt lat="48.581063" lon="16.639853">
        <ele>233.112217</ele>
        <time>2020-08-20T05:18:01.585Z</time>
      </trkpt>
      <trkpt lat="48.581009" lon="16.639726">
        <ele>233.092046</ele>
        <time>2020-08-20T05:18:03.570Z</time>
      </trkpt>
      <trkpt lat="48.580958" lon="16.639598">
        <ele>233.072082</ele>
        <time>2020-08-20T05:18:05.555Z</time>
      </trkpt>
      <trkpt lat="48.580905" lon="16.639473">
        <ele>233.052245</ele>
        <time>2020-08-20T05:18:07.576Z</time>
      </trkpt>
      <trkpt lat="48.580851" lon="16.639346">
        <ele>233.032074</ele>
        <time>2020-08-20T05:18:09.569Z</time>
      </trkpt>
      <trkpt lat="48.580799" lon="16.639215">
        <ele>233.011663</ele>
        <time>2020-08-20T05:18:11.578Z</time>
      </trkpt>
      <trkpt lat="48.580744" lon="16.639087">
        <ele>232.992251</ele>
        <time>2020-08-20T05:18:13.575Z</time>
      </trkpt>
      <trkpt lat="48.580692" lon="16.638958">
        <ele>232.974542</ele>
        <time>2020-08-20T05:18:15.579Z</time>
      </trkpt>
      <trkpt lat="48.580641" lon="16.638830">
        <ele>232.957025</ele>
        <time>2020-08-20T05:18:17.570Z</time>
      </trkpt>
      <trkpt lat="48.580587" lon="16.638718">
        <ele>232.940778</ele>
        <time>2020-08-20T05:18:19.569Z</time>
      </trkpt>
      <trkpt lat="48.580509" lon="16.638646">
        <ele>232.924583</ele>
        <time>2020-08-20T05:18:23.578Z</time>
      </trkpt>
      <trkpt lat="48.580442" lon="16.638534">
        <ele>232.906881</ele>
        <time>2020-08-20T05:18:31.561Z</time>
      </trkpt>
      <trkpt lat="48.580392" lon="16.638379">
        <ele>232.886665</ele>
        <time>2020-08-20T05:18:34.559Z</time>
      </trkpt>
      <trkpt lat="48.580344" lon="16.638189">
        <ele>232.862822</ele>
        <time>2020-08-20T05:18:37.552Z</time>
      </trkpt>
      <trkpt lat="48.580303" lon="16.638057">
        <ele>232.845727</ele>
        <time>2020-08-20T05:18:39.568Z</time>
      </trkpt>
      <trkpt lat="48.580261" lon="16.637918">
        <ele>232.827812</ele>
        <time>2020-08-20T05:18:41.572Z</time>
      </trkpt>
      <trkpt lat="48.580214" lon="16.637786">
        <ele>232.810238</ele>
        <time>2020-08-20T05:18:43.578Z</time>
      </trkpt>
      <trkpt lat="48.580164" lon="16.637652">
        <ele>232.792203</ele>
        <time>2020-08-20T05:18:45.594Z</time>
      </trkpt>
      <trkpt lat="48.580117" lon="16.637514">
        <ele>232.774007</ele>
        <time>2020-08-20T05:18:47.560Z</time>
      </trkpt>
      <trkpt lat="48.580072" lon="16.637374">
        <ele>232.755760</ele>
        <time>2020-08-20T05:18:49.554Z</time>
      </trkpt>
      <trkpt lat="48.580027" lon="16.637235">
        <ele>232.737618</ele>
        <time>2020-08-20T05:18:51.555Z</time>
      </trkpt>
      <trkpt lat="48.579986" lon="16.637102">
        <ele>232.720416</ele>
        <time>2020-08-20T05:18:53.572Z</time>
      </trkpt>
      <trkpt lat="48.579938" lon="16.636970">
        <ele>232.702758</ele>
        <time>2020-08-20T05:18:55.566Z</time>
      </trkpt>
      <trkpt lat="48.579876" lon="16.636846">
        <ele>232.684536</ele>
        <time>2020-08-20T05:18:57.592Z</time>
      </trkpt>
      <trkpt lat="48.579809" lon="16.636722">
        <ele>232.681621</ele>
        <time>2020-08-20T05:18:59.570Z</time>
      </trkpt>
      <trkpt lat="48.579745" lon="16.636607">
        <ele>232.682900</ele>
        <time>2020-08-20T05:19:01.586Z</time>
      </trkpt>
      <trkpt lat="48.579680" lon="16.636492">
        <ele>232.684188</ele>
        <time>2020-08-20T05:19:03.570Z</time>
      </trkpt>
      <trkpt lat="48.579614" lon="16.636375">
        <ele>232.685497</ele>
        <time>2020-08-20T05:19:05.561Z</time>
      </trkpt>
      <trkpt lat="48.579545" lon="16.636259">
        <ele>232.686825</ele>
        <time>2020-08-20T05:19:07.578Z</time>
      </trkpt>
      <trkpt lat="48.579474" lon="16.636149">
        <ele>232.688133</ele>
        <time>2020-08-20T05:19:09.562Z</time>
      </trkpt>
      <trkpt lat="48.579399" lon="16.636039">
        <ele>232.689478</ele>
        <time>2020-08-20T05:19:11.565Z</time>
      </trkpt>
      <trkpt lat="48.579321" lon="16.635929">
        <ele>232.690850</ele>
        <time>2020-08-20T05:19:13.557Z</time>
      </trkpt>
      <trkpt lat="48.579244" lon="16.635820">
        <ele>232.692208</ele>
        <time>2020-08-20T05:19:15.601Z</time>
      </trkpt>
      <trkpt lat="48.579171" lon="16.635714">
        <ele>232.693511</ele>
        <time>2020-08-20T05:19:17.585Z</time>
      </trkpt>
      <trkpt lat="48.579096" lon="16.635602">
        <ele>232.694867</ele>
        <time>2020-08-20T05:19:19.562Z</time>
      </trkpt>
      <trkpt lat="48.579023" lon="16.635489">
        <ele>232.696212</ele>
        <time>2020-08-20T05:19:21.562Z</time>
      </trkpt>
      <trkpt lat="48.578951" lon="16.635373">
        <ele>232.697566</ele>
        <time>2020-08-20T05:19:23.564Z</time>
      </trkpt>
      <trkpt lat="48.578880" lon="16.635257">
        <ele>232.698911</ele>
        <time>2020-08-20T05:19:25.571Z</time>
      </trkpt>
      <trkpt lat="48.578809" lon="16.635142">
        <ele>232.700250</ele>
        <time>2020-08-20T05:19:27.571Z</time>
      </trkpt>
      <trkpt lat="48.578700" lon="16.634975">
        <ele>232.702248</ele>
        <time>2020-08-20T05:19:30.570Z</time>
      </trkpt>
      <trkpt lat="48.578633" lon="16.634862">
        <ele>232.703539</ele>
        <time>2020-08-20T05:19:32.566Z</time>
      </trkpt>
      <trkpt lat="48.578561" lon="16.634751">
        <ele>232.701241</ele>
        <time>2020-08-20T05:19:34.574Z</time>
      </trkpt>
      <trkpt lat="48.578486" lon="16.634641">
        <ele>232.698424</ele>
        <time>2020-08-20T05:19:36.583Z</time>
      </trkpt>
      <trkpt lat="48.578409" lon="16.634530">
        <ele>232.695556</ele>
        <time>2020-08-20T05:19:38.567Z</time>
      </trkpt>
      <trkpt lat="48.578330" lon="16.634423">
        <ele>232.692697</ele>
        <time>2020-08-20T05:19:40.554Z</time>
      </trkpt>
      <trkpt lat="48.578255" lon="16.634315">
        <ele>232.689904</ele>
        <time>2020-08-20T05:19:42.581Z</time>
      </trkpt>
      <trkpt lat="48.578183" lon="16.634204">
        <ele>232.687132</ele>
        <time>2020-08-20T05:19:44.555Z</time>
      </trkpt>
      <trkpt lat="48.578117" lon="16.634084">
        <ele>232.684350</ele>
        <time>2020-08-20T05:19:46.583Z</time>
      </trkpt>
      <trkpt lat="48.578052" lon="16.633951">
        <ele>232.681401</ele>
        <time>2020-08-20T05:19:48.554Z</time>
      </trkpt>
      <trkpt lat="48.577982" lon="16.633826">
        <ele>232.678480</ele>
        <time>2020-08-20T05:19:50.565Z</time>
      </trkpt>
      <trkpt lat="48.577903" lon="16.633712">
        <ele>232.675536</ele>
        <time>2020-08-20T05:19:52.556Z</time>
      </trkpt>
      <trkpt lat="48.577830" lon="16.633592">
        <ele>232.672629</ele>
        <time>2020-08-20T05:19:54.562Z</time>
      </trkpt>
      <trkpt lat="48.577753" lon="16.633480">
        <ele>232.669749</ele>
        <time>2020-08-20T05:19:56.588Z</time>
      </trkpt>
      <trkpt lat="48.577676" lon="16.633370">
        <ele>232.666893</ele>
        <time>2020-08-20T05:19:58.558Z</time>
      </trkpt>
      <trkpt lat="48.577600" lon="16.633259">
        <ele>232.664044</ele>
        <time>2020-08-20T05:20:00.564Z</time>
      </trkpt>
      <trkpt lat="48.577523" lon="16.633151">
        <ele>232.661213</ele>
        <time>2020-08-20T05:20:02.553Z</time>
      </trkpt>
      <trkpt lat="48.577449" lon="16.633039">
        <ele>232.658390</ele>
        <time>2020-08-20T05:20:04.553Z</time>
      </trkpt>
      <trkpt lat="48.577372" lon="16.632924">
        <ele>232.655472</ele>
        <time>2020-08-20T05:20:06.548Z</time>
      </trkpt>
      <trkpt lat="48.577293" lon="16.632810">
        <ele>232.648575</ele>
        <time>2020-08-20T05:20:08.570Z</time>
      </trkpt>
      <trkpt lat="48.577216" lon="16.632698">
        <ele>232.641450</ele>
        <time>2020-08-20T05:20:10.584Z</time>
      </trkpt>
      <trkpt lat="48.577147" lon="16.632584">
        <ele>232.634634</ele>
        <time>2020-08-20T05:20:12.576Z</time>
      </trkpt>
      <trkpt lat="48.577080" lon="16.632472">
        <ele>232.627974</ele>
        <time>2020-08-20T05:20:14.576Z</time>
      </trkpt>
      <trkpt lat="48.577009" lon="16.632364">
        <ele>232.621258</ele>
        <time>2020-08-20T05:20:16.595Z</time>
      </trkpt>
      <trkpt lat="48.576939" lon="16.632253">
        <ele>232.614493</ele>
        <time>2020-08-20T05:20:18.591Z</time>
      </trkpt>
      <trkpt lat="48.576870" lon="16.632138">
        <ele>232.607645</ele>
        <time>2020-08-20T05:20:20.555Z</time>
      </trkpt>
      <trkpt lat="48.576801" lon="16.632021">
        <ele>232.600731</ele>
        <time>2020-08-20T05:20:22.572Z</time>
      </trkpt>
      <trkpt lat="48.576736" lon="16.631905">
        <ele>232.594025</ele>
        <time>2020-08-20T05:20:24.560Z</time>
      </trkpt>
      <trkpt lat="48.576673" lon="16.631790">
        <ele>232.587439</ele>
        <time>2020-08-20T05:20:26.553Z</time>
      </trkpt>
      <trkpt lat="48.576579" lon="16.631660">
        <ele>232.578944</ele>
        <time>2020-08-20T05:20:29.557Z</time>
      </trkpt>
      <trkpt lat="48.576482" lon="16.631722">
        <ele>232.571922</ele>
        <time>2020-08-20T05:20:32.569Z</time>
      </trkpt>
      <trkpt lat="48.576382" lon="16.631862">
        <ele>232.562834</ele>
        <time>2020-08-20T05:20:35.555Z</time>
      </trkpt>
      <trkpt lat="48.576302" lon="16.631958">
        <ele>232.556023</ele>
        <time>2020-08-20T05:20:37.583Z</time>
      </trkpt>
      <trkpt lat="48.576231" lon="16.632060">
        <ele>232.549492</ele>
        <time>2020-08-20T05:20:39.581Z</time>
      </trkpt>
      <trkpt lat="48.576151" lon="16.632166">
        <ele>232.542399</ele>
        <time>2020-08-20T05:20:41.557Z</time>
      </trkpt>
      <trkpt lat="48.576072" lon="16.632267">
        <ele>232.535500</ele>
        <time>2020-08-20T05:20:43.566Z</time>
      </trkpt>
      <trkpt lat="48.575990" lon="16.632376">
        <ele>232.525978</ele>
        <time>2020-08-20T05:20:45.567Z</time>
      </trkpt>
      <trkpt lat="48.575910" lon="16.632488">
        <ele>232.516402</ele>
        <time>2020-08-20T05:20:47.611Z</time>
      </trkpt>
      <trkpt lat="48.575830" lon="16.632601">
        <ele>232.506787</ele>
        <time>2020-08-20T05:20:49.567Z</time>
      </trkpt>
      <trkpt lat="48.575751" lon="16.632709">
        <ele>232.497433</ele>
        <time>2020-08-20T05:20:51.564Z</time>
      </trkpt>
      <trkpt lat="48.575667" lon="16.632803">
        <ele>232.488255</ele>
        <time>2020-08-20T05:20:53.593Z</time>
      </trkpt>
      <trkpt lat="48.575587" lon="16.632897">
        <ele>232.479357</ele>
        <time>2020-08-20T05:20:55.563Z</time>
      </trkpt>
      <trkpt lat="48.575508" lon="16.632989">
        <ele>232.470600</ele>
        <time>2020-08-20T05:20:57.573Z</time>
      </trkpt>
      <trkpt lat="48.575432" lon="16.633069">
        <ele>232.462467</ele>
        <time>2020-08-20T05:20:59.560Z</time>
      </trkpt>
      <trkpt lat="48.575361" lon="16.633154">
        <ele>232.454514</ele>
        <time>2020-08-20T05:21:01.558Z</time>
      </trkpt>
      <trkpt lat="48.575291" lon="16.633242">
        <ele>232.446518</ele>
        <time>2020-08-20T05:21:03.567Z</time>
      </trkpt>
      <trkpt lat="48.575166" lon="16.633247">
        <ele>232.435538</ele>
        <time>2020-08-20T05:21:06.576Z</time>
      </trkpt>
      <trkpt lat="48.575118" lon="16.633122">
        <ele>232.427141</ele>
        <time>2020-08-20T05:21:08.581Z</time>
      </trkpt>
      <trkpt lat="48.575069" lon="16.632992">
        <ele>232.418448</ele>
        <time>2020-08-20T05:21:10.568Z</time>
      </trkpt>
      <trkpt lat="48.575020" lon="16.632856">
        <ele>232.409451</ele>
        <time>2020-08-20T05:21:12.571Z</time>
      </trkpt>
      <trkpt lat="48.574973" lon="16.632712">
        <ele>232.400122</ele>
        <time>2020-08-20T05:21:14.564Z</time>
      </trkpt>
      <trkpt lat="48.574929" lon="16.632573">
        <ele>232.391170</ele>
        <time>2020-08-20T05:21:16.559Z</time>
      </trkpt>
      <trkpt lat="48.574891" lon="16.632439">
        <ele>232.382699</ele>
        <time>2020-08-20T05:21:18.577Z</time>
      </trkpt>
      <trkpt lat="48.574854" lon="16.632308">
        <ele>232.379894</ele>
        <time>2020-08-20T05:21:20.572Z</time>
      </trkpt>
      <trkpt lat="48.574818" lon="16.632176">
        <ele>232.387124</ele>
        <time>2020-08-20T05:21:22.584Z</time>
      </trkpt>
      <trkpt lat="48.574842" lon="16.632045">
        <ele>232.394008</ele>
        <time>2020-08-20T05:21:24.567Z</time>
      </trkpt>
      <trkpt lat="48.574929" lon="16.631977">
        <ele>232.401505</ele>
        <time>2020-08-20T05:21:26.558Z</time>
      </trkpt>
      <trkpt lat="48.575010" lon="16.631913">
        <ele>232.408501</ele>
        <time>2020-08-20T05:21:28.547Z</time>
      </trkpt>
      <trkpt lat="48.575067" lon="16.631747">
        <ele>232.417973</ele>
        <time>2020-08-20T05:21:31.564Z</time>
      </trkpt>
      <trkpt lat="48.575026" lon="16.631614">
        <ele>232.425403</ele>
        <time>2020-08-20T05:21:33.572Z</time>
      </trkpt>
      <trkpt lat="48.574980" lon="16.631479">
        <ele>232.433094</ele>
        <time>2020-08-20T05:21:35.589Z</time>
      </trkpt>
      <trkpt lat="48.574930" lon="16.631347">
        <ele>232.440797</ele>
        <time>2020-08-20T05:21:37.580Z</time>
      </trkpt>
      <trkpt lat="48.574878" lon="16.631215">
        <ele>232.448577</ele>
        <time>2020-08-20T05:21:39.570Z</time>
      </trkpt>
      <trkpt lat="48.574833" lon="16.631077">
        <ele>232.456368</ele>
        <time>2020-08-20T05:21:41.586Z</time>
      </trkpt>
      <trkpt lat="48.574790" lon="16.630945">
        <ele>232.463819</ele>
        <time>2020-08-20T05:21:43.607Z</time>
      </trkpt>
      <trkpt lat="48.574745" lon="16.630812">
        <ele>232.471385</ele>
        <time>2020-08-20T05:21:45.562Z</time>
      </trkpt>
      <trkpt lat="48.574702" lon="16.630683">
        <ele>232.478700</ele>
        <time>2020-08-20T05:21:47.580Z</time>
      </trkpt>
      <trkpt lat="48.574663" lon="16.630551">
        <ele>232.486021</ele>
        <time>2020-08-20T05:21:49.559Z</time>
      </trkpt>
      <trkpt lat="48.574634" lon="16.630411">
        <ele>232.493450</ele>
        <time>2020-08-20T05:21:51.585Z</time>
      </trkpt>
      <trkpt lat="48.574618" lon="16.630266">
        <ele>232.500895</ele>
        <time>2020-08-20T05:21:53.572Z</time>
      </trkpt>
      <trkpt lat="48.574610" lon="16.630118">
        <ele>232.508415</ele>
        <time>2020-08-20T05:21:55.585Z</time>
      </trkpt>
      <trkpt lat="48.574601" lon="16.629975">
        <ele>232.515225</ele>
        <time>2020-08-20T05:21:57.580Z</time>
      </trkpt>
      <trkpt lat="48.574591" lon="16.629826">
        <ele>232.517564</ele>
        <time>2020-08-20T05:21:59.570Z</time>
      </trkpt>
      <trkpt lat="48.574578" lon="16.629675">
        <ele>232.519943</ele>
        <time>2020-08-20T05:22:01.576Z</time>
      </trkpt>
      <trkpt lat="48.574561" lon="16.629527">
        <ele>232.522289</ele>
        <time>2020-08-20T05:22:03.584Z</time>
      </trkpt>
      <trkpt lat="48.574540" lon="16.629375">
        <ele>232.524714</ele>
        <time>2020-08-20T05:22:05.585Z</time>
      </trkpt>
      <trkpt lat="48.574524" lon="16.629221">
        <ele>232.527148</ele>
        <time>2020-08-20T05:22:07.575Z</time>
      </trkpt>
      <trkpt lat="48.574507" lon="16.629070">
        <ele>232.529540</ele>
        <time>2020-08-20T05:22:09.571Z</time>
      </trkpt>
      <trkpt lat="48.574489" lon="16.628917">
        <ele>232.531967</ele>
        <time>2020-08-20T05:22:11.570Z</time>
      </trkpt>
      <trkpt lat="48.574472" lon="16.628765">
        <ele>232.534375</ele>
        <time>2020-08-20T05:22:13.572Z</time>
      </trkpt>
      <trkpt lat="48.574454" lon="16.628618">
        <ele>232.536710</ele>
        <time>2020-08-20T05:22:15.564Z</time>
      </trkpt>
      <trkpt lat="48.574438" lon="16.628464">
        <ele>232.539144</ele>
        <time>2020-08-20T05:22:17.577Z</time>
      </trkpt>
      <trkpt lat="48.574425" lon="16.628310">
        <ele>232.541569</ele>
        <time>2020-08-20T05:22:19.578Z</time>
      </trkpt>
      <trkpt lat="48.574412" lon="16.628166">
        <ele>232.543839</ele>
        <time>2020-08-20T05:22:21.554Z</time>
      </trkpt>
      <trkpt lat="48.574395" lon="16.628012">
        <ele>232.546277</ele>
        <time>2020-08-20T05:22:23.565Z</time>
      </trkpt>
      <trkpt lat="48.574376" lon="16.627860">
        <ele>232.548693</ele>
        <time>2020-08-20T05:22:25.559Z</time>
      </trkpt>
      <trkpt lat="48.574349" lon="16.627726">
        <ele>232.550881</ele>
        <time>2020-08-20T05:22:27.582Z</time>
      </trkpt>
      <trkpt lat="48.574302" lon="16.627543">
        <ele>232.553947</ele>
        <time>2020-08-20T05:22:30.581Z</time>
      </trkpt>
      <trkpt lat="48.574261" lon="16.627364">
        <ele>232.556905</ele>
        <time>2020-08-20T05:22:33.569Z</time>
      </trkpt>
      <trkpt lat="48.574152" lon="16.627303">
        <ele>232.547028</ele>
        <time>2020-08-20T05:22:36.578Z</time>
      </trkpt>
      <trkpt lat="48.574043" lon="16.627366">
        <ele>232.533795</ele>
        <time>2020-08-20T05:22:38.567Z</time>
      </trkpt>
      <trkpt lat="48.573929" lon="16.627390">
        <ele>232.520743</ele>
        <time>2020-08-20T05:22:40.568Z</time>
      </trkpt>
      <trkpt lat="48.573822" lon="16.627339">
        <ele>232.508020</ele>
        <time>2020-08-20T05:22:42.555Z</time>
      </trkpt>
      <trkpt lat="48.573736" lon="16.627244">
        <ele>232.495941</ele>
        <time>2020-08-20T05:22:44.551Z</time>
      </trkpt>
      <trkpt lat="48.573654" lon="16.627142">
        <ele>232.483898</ele>
        <time>2020-08-20T05:22:46.568Z</time>
      </trkpt>
      <trkpt lat="48.573572" lon="16.627040">
        <ele>232.471855</ele>
        <time>2020-08-20T05:22:48.556Z</time>
      </trkpt>
      <trkpt lat="48.573489" lon="16.626948">
        <ele>232.460184</ele>
        <time>2020-08-20T05:22:50.555Z</time>
      </trkpt>
      <trkpt lat="48.573418" lon="16.626851">
        <ele>232.449331</ele>
        <time>2020-08-20T05:22:52.557Z</time>
      </trkpt>
      <trkpt lat="48.573353" lon="16.626681">
        <ele>232.434599</ele>
        <time>2020-08-20T05:22:55.542Z</time>
      </trkpt>
      <trkpt lat="48.573314" lon="16.626489">
        <ele>232.419530</ele>
        <time>2020-08-20T05:22:58.580Z</time>
      </trkpt>
      <trkpt lat="48.573297" lon="16.626317">
        <ele>232.406481</ele>
        <time>2020-08-20T05:23:00.558Z</time>
      </trkpt>
      <trkpt lat="48.573283" lon="16.626152">
        <ele>232.394000</ele>
        <time>2020-08-20T05:23:02.556Z</time>
      </trkpt>
      <trkpt lat="48.573271" lon="16.625998">
        <ele>232.382366</ele>
        <time>2020-08-20T05:23:04.580Z</time>
      </trkpt>
      <trkpt lat="48.573263" lon="16.625848">
        <ele>232.371075</ele>
        <time>2020-08-20T05:23:06.580Z</time>
      </trkpt>
      <trkpt lat="48.573258" lon="16.625694">
        <ele>232.359506</ele>
        <time>2020-08-20T05:23:08.571Z</time>
      </trkpt>
      <trkpt lat="48.573234" lon="16.625554">
        <ele>232.350747</ele>
        <time>2020-08-20T05:23:10.562Z</time>
      </trkpt>
      <trkpt lat="48.573104" lon="16.625547">
        <ele>232.342344</ele>
        <time>2020-08-20T05:23:13.553Z</time>
      </trkpt>
      <trkpt lat="48.573005" lon="16.625433">
        <ele>232.334305</ele>
        <time>2020-08-20T05:23:16.553Z</time>
      </trkpt>
      <trkpt lat="48.572986" lon="16.625298">
        <ele>232.328406</ele>
        <time>2020-08-20T05:23:18.581Z</time>
      </trkpt>
      <trkpt lat="48.572966" lon="16.625154">
        <ele>232.322117</ele>
        <time>2020-08-20T05:23:20.573Z</time>
      </trkpt>
      <trkpt lat="48.572942" lon="16.625010">
        <ele>232.315771</ele>
        <time>2020-08-20T05:23:22.564Z</time>
      </trkpt>
      <trkpt lat="48.572920" lon="16.624872">
        <ele>232.309704</ele>
        <time>2020-08-20T05:23:24.558Z</time>
      </trkpt>
      <trkpt lat="48.572898" lon="16.624726">
        <ele>232.303304</ele>
        <time>2020-08-20T05:23:26.598Z</time>
      </trkpt>
      <trkpt lat="48.572878" lon="16.624578">
        <ele>232.296848</ele>
        <time>2020-08-20T05:23:28.561Z</time>
      </trkpt>
      <trkpt lat="48.572856" lon="16.624426">
        <ele>232.290198</ele>
        <time>2020-08-20T05:23:30.571Z</time>
      </trkpt>
      <trkpt lat="48.572827" lon="16.624275">
        <ele>232.283478</ele>
        <time>2020-08-20T05:23:32.553Z</time>
      </trkpt>
      <trkpt lat="48.572799" lon="16.624124">
        <ele>232.276776</ele>
        <time>2020-08-20T05:23:34.576Z</time>
      </trkpt>
      <trkpt lat="48.572775" lon="16.623962">
        <ele>232.269681</ele>
        <time>2020-08-20T05:23:36.601Z</time>
      </trkpt>
      <trkpt lat="48.572751" lon="16.623809">
        <ele>232.262960</ele>
        <time>2020-08-20T05:23:38.563Z</time>
      </trkpt>
      <trkpt lat="48.572726" lon="16.623657">
        <ele>232.256266</ele>
        <time>2020-08-20T05:23:40.577Z</time>
      </trkpt>
      <trkpt lat="48.572696" lon="16.623500">
        <ele>232.249282</ele>
        <time>2020-08-20T05:23:42.574Z</time>
      </trkpt>
      <trkpt lat="48.572664" lon="16.623350">
        <ele>232.242546</ele>
        <time>2020-08-20T05:23:44.564Z</time>
      </trkpt>
      <trkpt lat="48.572636" lon="16.623202">
        <ele>232.234914</ele>
        <time>2020-08-20T05:23:46.592Z</time>
      </trkpt>
      <trkpt lat="48.572610" lon="16.623056">
        <ele>232.223476</ele>
        <time>2020-08-20T05:23:48.566Z</time>
      </trkpt>
      <trkpt lat="48.572585" lon="16.622913">
        <ele>232.212287</ele>
        <time>2020-08-20T05:23:50.564Z</time>
      </trkpt>
      <trkpt lat="48.572562" lon="16.622779">
        <ele>232.201814</ele>
        <time>2020-08-20T05:23:52.560Z</time>
      </trkpt>
      <trkpt lat="48.572536" lon="16.622611">
        <ele>232.188761</ele>
        <time>2020-08-20T05:23:55.579Z</time>
      </trkpt>
      <trkpt lat="48.572504" lon="16.622460">
        <ele>232.176766</ele>
        <time>2020-08-20T05:23:58.545Z</time>
      </trkpt>
      <trkpt lat="48.572426" lon="16.622377">
        <ele>232.165859</ele>
        <time>2020-08-20T05:24:02.561Z</time>
      </trkpt>
      <trkpt lat="48.572339" lon="16.622413">
        <ele>232.155546</ele>
        <time>2020-08-20T05:24:05.578Z</time>
      </trkpt>
      <trkpt lat="48.572237" lon="16.622460">
        <ele>232.143354</ele>
        <time>2020-08-20T05:24:08.583Z</time>
      </trkpt>
      <trkpt lat="48.572136" lon="16.622504">
        <ele>232.131336</ele>
        <time>2020-08-20T05:24:10.560Z</time>
      </trkpt>
      <trkpt lat="48.572028" lon="16.622434">
        <ele>232.117900</ele>
        <time>2020-08-20T05:24:12.553Z</time>
      </trkpt>
      <trkpt lat="48.571973" lon="16.622269">
        <ele>232.103923</ele>
        <time>2020-08-20T05:24:14.550Z</time>
      </trkpt>
      <trkpt lat="48.571934" lon="16.622100">
        <ele>232.090382</ele>
        <time>2020-08-20T05:24:16.549Z</time>
      </trkpt>
      <trkpt lat="48.571899" lon="16.621937">
        <ele>232.077418</ele>
        <time>2020-08-20T05:24:18.567Z</time>
      </trkpt>
      <trkpt lat="48.571855" lon="16.621781">
        <ele>232.064589</ele>
        <time>2020-08-20T05:24:20.550Z</time>
      </trkpt>
      <trkpt lat="48.571813" lon="16.621628">
        <ele>232.052057</ele>
        <time>2020-08-20T05:24:22.581Z</time>
      </trkpt>
      <trkpt lat="48.571769" lon="16.621475">
        <ele>232.039436</ele>
        <time>2020-08-20T05:24:24.579Z</time>
      </trkpt>
      <trkpt lat="48.571724" lon="16.621324">
        <ele>232.029391</ele>
        <time>2020-08-20T05:24:26.571Z</time>
      </trkpt>
      <trkpt lat="48.571688" lon="16.621176">
        <ele>232.023661</ele>
        <time>2020-08-20T05:24:28.556Z</time>
      </trkpt>
      <trkpt lat="48.571660" lon="16.621021">
        <ele>232.017823</ele>
        <time>2020-08-20T05:24:30.553Z</time>
      </trkpt>
      <trkpt lat="48.571629" lon="16.620871">
        <ele>232.012112</ele>
        <time>2020-08-20T05:24:32.583Z</time>
      </trkpt>
      <trkpt lat="48.571599" lon="16.620718">
        <ele>232.006313</ele>
        <time>2020-08-20T05:24:34.591Z</time>
      </trkpt>
      <trkpt lat="48.571561" lon="16.620571">
        <ele>232.000578</ele>
        <time>2020-08-20T05:24:36.578Z</time>
      </trkpt>
      <trkpt lat="48.571515" lon="16.620433">
        <ele>231.994963</ele>
        <time>2020-08-20T05:24:38.575Z</time>
      </trkpt>
      <trkpt lat="48.571467" lon="16.620295">
        <ele>231.989297</ele>
        <time>2020-08-20T05:24:40.582Z</time>
      </trkpt>
      <trkpt lat="48.571418" lon="16.620158">
        <ele>231.983638</ele>
        <time>2020-08-20T05:24:42.590Z</time>
      </trkpt>
      <trkpt lat="48.571372" lon="16.620017">
        <ele>231.977925</ele>
        <time>2020-08-20T05:24:44.553Z</time>
      </trkpt>
      <trkpt lat="48.571324" lon="16.619878">
        <ele>231.972228</ele>
        <time>2020-08-20T05:24:46.573Z</time>
      </trkpt>
      <trkpt lat="48.571279" lon="16.619737">
        <ele>231.966539</ele>
        <time>2020-08-20T05:24:48.563Z</time>
      </trkpt>
      <trkpt lat="48.571239" lon="16.619594">
        <ele>231.960897</ele>
        <time>2020-08-20T05:24:50.573Z</time>
      </trkpt>
      <trkpt lat="48.571200" lon="16.619446">
        <ele>231.955108</ele>
        <time>2020-08-20T05:24:52.580Z</time>
      </trkpt>
      <trkpt lat="48.571170" lon="16.619297">
        <ele>231.949449</ele>
        <time>2020-08-20T05:24:54.556Z</time>
      </trkpt>
      <trkpt lat="48.571129" lon="16.619158">
        <ele>231.943918</ele>
        <time>2020-08-20T05:24:56.590Z</time>
      </trkpt>
      <trkpt lat="48.571096" lon="16.619011">
        <ele>231.938277</ele>
        <time>2020-08-20T05:24:58.580Z</time>
      </trkpt>
      <trkpt lat="48.571070" lon="16.618867">
        <ele>231.932759</ele>
        <time>2020-08-20T05:25:00.579Z</time>
      </trkpt>
      <trkpt lat="48.571063" lon="16.618717">
        <ele>231.917774</ele>
        <time>2020-08-20T05:25:02.574Z</time>
      </trkpt>
      <trkpt lat="48.571063" lon="16.618568">
        <ele>231.902926</ele>
        <time>2020-08-20T05:25:04.549Z</time>
      </trkpt>
      <trkpt lat="48.571072" lon="16.618421">
        <ele>231.888215</ele>
        <time>2020-08-20T05:25:06.572Z</time>
      </trkpt>
      <trkpt lat="48.571072" lon="16.618265">
        <ele>231.872669</ele>
        <time>2020-08-20T05:25:08.586Z</time>
      </trkpt>
      <trkpt lat="48.571070" lon="16.618115">
        <ele>231.857718</ele>
        <time>2020-08-20T05:25:10.555Z</time>
      </trkpt>
      <trkpt lat="48.571075" lon="16.617964">
        <ele>231.842652</ele>
        <time>2020-08-20T05:25:12.580Z</time>
      </trkpt>
      <trkpt lat="48.571079" lon="16.617810">
        <ele>231.827294</ele>
        <time>2020-08-20T05:25:14.553Z</time>
      </trkpt>
      <trkpt lat="48.571077" lon="16.617655">
        <ele>231.811846</ele>
        <time>2020-08-20T05:25:16.563Z</time>
      </trkpt>
      <trkpt lat="48.571099" lon="16.617504">
        <ele>231.796438</ele>
        <time>2020-08-20T05:25:18.572Z</time>
      </trkpt>
      <trkpt lat="48.571126" lon="16.617360">
        <ele>231.781523</ele>
        <time>2020-08-20T05:25:20.564Z</time>
      </trkpt>
      <trkpt lat="48.571147" lon="16.617226">
        <ele>231.767800</ele>
        <time>2020-08-20T05:25:22.595Z</time>
      </trkpt>
      <trkpt lat="48.571159" lon="16.617089">
        <ele>231.754029</ele>
        <time>2020-08-20T05:25:24.563Z</time>
      </trkpt>
      <trkpt lat="48.571156" lon="16.616894">
        <ele>231.734592</ele>
        <time>2020-08-20T05:25:27.555Z</time>
      </trkpt>
      <trkpt lat="48.571144" lon="16.616705">
        <ele>231.715672</ele>
        <time>2020-08-20T05:25:30.558Z</time>
      </trkpt>
      <trkpt lat="48.571105" lon="16.616506">
        <ele>231.694990</ele>
        <time>2020-08-20T05:25:33.560Z</time>
      </trkpt>
      <trkpt lat="48.571051" lon="16.616319">
        <ele>231.674658</ele>
        <time>2020-08-20T05:25:36.552Z</time>
      </trkpt>
      <trkpt lat="48.570934" lon="16.616240">
        <ele>231.661998</ele>
        <time>2020-08-20T05:25:39.557Z</time>
      </trkpt>
      <trkpt lat="48.570848" lon="16.616167">
        <ele>231.661925</ele>
        <time>2020-08-20T05:25:42.549Z</time>
      </trkpt>
      <trkpt lat="48.570935" lon="16.616055">
        <ele>231.661840</ele>
        <time>2020-08-20T05:25:45.571Z</time>
      </trkpt>
      <trkpt lat="48.570997" lon="16.615906">
        <ele>231.661754</ele>
        <time>2020-08-20T05:25:48.544Z</time>
      </trkpt>
      <trkpt lat="48.570968" lon="16.615713">
        <ele>231.661657</ele>
        <time>2020-08-20T05:25:51.551Z</time>
      </trkpt>
      <trkpt lat="48.570939" lon="16.615581">
        <ele>231.661589</ele>
        <time>2020-08-20T05:25:53.556Z</time>
      </trkpt>
      <trkpt lat="48.570910" lon="16.615441">
        <ele>231.661517</ele>
        <time>2020-08-20T05:25:55.566Z</time>
      </trkpt>
      <trkpt lat="48.570883" lon="16.615305">
        <ele>231.661447</ele>
        <time>2020-08-20T05:25:57.562Z</time>
      </trkpt>
      <trkpt lat="48.570857" lon="16.615165">
        <ele>231.661376</ele>
        <time>2020-08-20T05:25:59.578Z</time>
      </trkpt>
      <trkpt lat="48.570833" lon="16.615024">
        <ele>231.661304</ele>
        <time>2020-08-20T05:26:01.594Z</time>
      </trkpt>
      <trkpt lat="48.570789" lon="16.614830">
        <ele>231.661204</ele>
        <time>2020-08-20T05:26:04.594Z</time>
      </trkpt>
      <trkpt lat="48.570755" lon="16.614699">
        <ele>231.661135</ele>
        <time>2020-08-20T05:26:06.575Z</time>
      </trkpt>
      <trkpt lat="48.570725" lon="16.614562">
        <ele>231.661064</ele>
        <time>2020-08-20T05:26:08.556Z</time>
      </trkpt>
      <trkpt lat="48.570691" lon="16.614427">
        <ele>231.660993</ele>
        <time>2020-08-20T05:26:10.551Z</time>
      </trkpt>
      <trkpt lat="48.570655" lon="16.614290">
        <ele>231.660921</ele>
        <time>2020-08-20T05:26:12.568Z</time>
      </trkpt>
      <trkpt lat="48.570618" lon="16.614148">
        <ele>231.660846</ele>
        <time>2020-08-20T05:26:14.587Z</time>
      </trkpt>
      <trkpt lat="48.570569" lon="16.614009">
        <ele>231.660768</ele>
        <time>2020-08-20T05:26:16.592Z</time>
      </trkpt>
      <trkpt lat="48.570518" lon="16.613875">
        <ele>231.660878</ele>
        <time>2020-08-20T05:26:18.558Z</time>
      </trkpt>
      <trkpt lat="48.570467" lon="16.613743">
        <ele>231.663687</ele>
        <time>2020-08-20T05:26:20.568Z</time>
      </trkpt>
      <trkpt lat="48.570420" lon="16.613609">
        <ele>231.666474</ele>
        <time>2020-08-20T05:26:22.581Z</time>
      </trkpt>
      <trkpt lat="48.570377" lon="16.613474">
        <ele>231.669227</ele>
        <time>2020-08-20T05:26:24.581Z</time>
      </trkpt>
      <trkpt lat="48.570329" lon="16.613343">
        <ele>231.671978</ele>
        <time>2020-08-20T05:26:26.562Z</time>
      </trkpt>
      <trkpt lat="48.570275" lon="16.613215">
        <ele>231.674767</ele>
        <time>2020-08-20T05:26:28.575Z</time>
      </trkpt>
      <trkpt lat="48.570223" lon="16.613089">
        <ele>231.677496</ele>
        <time>2020-08-20T05:26:30.562Z</time>
      </trkpt>
      <trkpt lat="48.570171" lon="16.612966">
        <ele>231.680178</ele>
        <time>2020-08-20T05:26:32.562Z</time>
      </trkpt>
      <trkpt lat="48.570120" lon="16.612845">
        <ele>231.682814</ele>
        <time>2020-08-20T05:26:34.562Z</time>
      </trkpt>
      <trkpt lat="48.570066" lon="16.612720">
        <ele>231.685557</ele>
        <time>2020-08-20T05:26:36.580Z</time>
      </trkpt>
      <trkpt lat="48.570009" lon="16.612599">
        <ele>231.688286</ele>
        <time>2020-08-20T05:26:38.559Z</time>
      </trkpt>
      <trkpt lat="48.569953" lon="16.612478">
        <ele>231.690999</ele>
        <time>2020-08-20T05:26:40.577Z</time>
      </trkpt>
      <trkpt lat="48.569894" lon="16.612360">
        <ele>231.693717</ele>
        <time>2020-08-20T05:26:42.574Z</time>
      </trkpt>
      <trkpt lat="48.569828" lon="16.612246">
        <ele>231.696500</ele>
        <time>2020-08-20T05:26:44.570Z</time>
      </trkpt>
      <trkpt lat="48.569762" lon="16.612133">
        <ele>231.699269</ele>
        <time>2020-08-20T05:26:46.588Z</time>
      </trkpt>
      <trkpt lat="48.569697" lon="16.612019">
        <ele>231.702034</ele>
        <time>2020-08-20T05:26:48.587Z</time>
      </trkpt>
      <trkpt lat="48.569631" lon="16.611911">
        <ele>231.704736</ele>
        <time>2020-08-20T05:26:50.590Z</time>
      </trkpt>
      <trkpt lat="48.569562" lon="16.611800">
        <ele>231.707534</ele>
        <time>2020-08-20T05:26:52.563Z</time>
      </trkpt>
      <trkpt lat="48.569496" lon="16.611684">
        <ele>231.710345</ele>
        <time>2020-08-20T05:26:54.616Z</time>
      </trkpt>
      <trkpt lat="48.569427" lon="16.611575">
        <ele>231.716220</ele>
        <time>2020-08-20T05:26:56.582Z</time>
      </trkpt>
      <trkpt lat="48.569353" lon="16.611472">
        <ele>231.722517</ele>
        <time>2020-08-20T05:26:58.574Z</time>
      </trkpt>
      <trkpt lat="48.569275" lon="16.611373">
        <ele>231.728893</ele>
        <time>2020-08-20T05:27:00.570Z</time>
      </trkpt>
      <trkpt lat="48.569199" lon="16.611271">
        <ele>231.735255</ele>
        <time>2020-08-20T05:27:02.562Z</time>
      </trkpt>
      <trkpt lat="48.569122" lon="16.611171">
        <ele>231.741610</ele>
        <time>2020-08-20T05:27:04.565Z</time>
      </trkpt>
      <trkpt lat="48.569048" lon="16.611071">
        <ele>231.747824</ele>
        <time>2020-08-20T05:27:06.567Z</time>
      </trkpt>
      <trkpt lat="48.568979" lon="16.610963">
        <ele>231.754042</ele>
        <time>2020-08-20T05:27:08.574Z</time>
      </trkpt>
      <trkpt lat="48.568908" lon="16.610867">
        <ele>231.760006</ele>
        <time>2020-08-20T05:27:10.558Z</time>
      </trkpt>
      <trkpt lat="48.568836" lon="16.610771">
        <ele>231.766016</ele>
        <time>2020-08-20T05:27:12.575Z</time>
      </trkpt>
      <trkpt lat="48.568763" lon="16.610675">
        <ele>231.772073</ele>
        <time>2020-08-20T05:27:14.580Z</time>
      </trkpt>
      <trkpt lat="48.568686" lon="16.610579">
        <ele>231.778321</ele>
        <time>2020-08-20T05:27:16.574Z</time>
      </trkpt>
      <trkpt lat="48.568609" lon="16.610479">
        <ele>231.784676</ele>
        <time>2020-08-20T05:27:18.559Z</time>
      </trkpt>
      <trkpt lat="48.568533" lon="16.610388">
        <ele>231.790746</ele>
        <time>2020-08-20T05:27:20.562Z</time>
      </trkpt>
      <trkpt lat="48.568456" lon="16.610299">
        <ele>231.796814</ele>
        <time>2020-08-20T05:27:22.560Z</time>
      </trkpt>
      <trkpt lat="48.568379" lon="16.610203">
        <ele>231.803062</ele>
        <time>2020-08-20T05:27:24.562Z</time>
      </trkpt>
      <trkpt lat="48.568303" lon="16.610101">
        <ele>231.809424</ele>
        <time>2020-08-20T05:27:26.555Z</time>
      </trkpt>
      <trkpt lat="48.568229" lon="16.610004">
        <ele>231.815556</ele>
        <time>2020-08-20T05:27:28.589Z</time>
      </trkpt>
      <trkpt lat="48.568158" lon="16.609906">
        <ele>231.821575</ele>
        <time>2020-08-20T05:27:30.558Z</time>
      </trkpt>
      <trkpt lat="48.568083" lon="16.609814">
        <ele>231.829914</ele>
        <time>2020-08-20T05:27:32.562Z</time>
      </trkpt>
      <trkpt lat="48.568007" lon="16.609721">
        <ele>231.839229</ele>
        <time>2020-08-20T05:27:34.581Z</time>
      </trkpt>
      <trkpt lat="48.567929" lon="16.609623">
        <ele>231.848892</ele>
        <time>2020-08-20T05:27:36.555Z</time>
      </trkpt>
      <trkpt lat="48.567850" lon="16.609528">
        <ele>231.858509</ele>
        <time>2020-08-20T05:27:38.573Z</time>
      </trkpt>
      <trkpt lat="48.567771" lon="16.609425">
        <ele>231.868447</ele>
        <time>2020-08-20T05:27:40.573Z</time>
      </trkpt>
      <trkpt lat="48.567692" lon="16.609318">
        <ele>231.878553</ele>
        <time>2020-08-20T05:27:42.580Z</time>
      </trkpt>
      <trkpt lat="48.567615" lon="16.609218">
        <ele>231.888224</ele>
        <time>2020-08-20T05:27:44.552Z</time>
      </trkpt>
      <trkpt lat="48.567538" lon="16.609120">
        <ele>231.897813</ele>
        <time>2020-08-20T05:27:46.567Z</time>
      </trkpt>
      <trkpt lat="48.567451" lon="16.609023">
        <ele>231.908112</ele>
        <time>2020-08-20T05:27:48.578Z</time>
      </trkpt>
      <trkpt lat="48.567371" lon="16.608912">
        <ele>231.918457</ele>
        <time>2020-08-20T05:27:50.589Z</time>
      </trkpt>
      <trkpt lat="48.567295" lon="16.608820">
        <ele>231.927732</ele>
        <time>2020-08-20T05:27:52.601Z</time>
      </trkpt>
      <trkpt lat="48.567212" lon="16.608720">
        <ele>231.937844</ele>
        <time>2020-08-20T05:27:54.572Z</time>
      </trkpt>
      <trkpt lat="48.567132" lon="16.608614">
        <ele>231.947979</ele>
        <time>2020-08-20T05:27:56.554Z</time>
      </trkpt>
      <trkpt lat="48.567063" lon="16.608496">
        <ele>231.957904</ele>
        <time>2020-08-20T05:27:58.587Z</time>
      </trkpt>
      <trkpt lat="48.567094" lon="16.608335">
        <ele>231.968474</ele>
        <time>2020-08-20T05:28:01.559Z</time>
      </trkpt>
      <trkpt lat="48.567172" lon="16.608188">
        <ele>231.980351</ele>
        <time>2020-08-20T05:28:05.556Z</time>
      </trkpt>
      <trkpt lat="48.567138" lon="16.608055">
        <ele>231.989338</ele>
        <time>2020-08-20T05:28:08.564Z</time>
      </trkpt>
      <trkpt lat="48.567020" lon="16.607967">
        <ele>232.049936</ele>
        <time>2020-08-20T05:28:10.564Z</time>
      </trkpt>
      <trkpt lat="48.566916" lon="16.607822">
        <ele>232.151967</ele>
        <time>2020-08-20T05:28:12.584Z</time>
      </trkpt>
      <trkpt lat="48.566822" lon="16.607686">
        <ele>232.245802</ele>
        <time>2020-08-20T05:28:14.577Z</time>
      </trkpt>
      <trkpt lat="48.566731" lon="16.607566">
        <ele>232.332888</ele>
        <time>2020-08-20T05:28:16.569Z</time>
      </trkpt>
      <trkpt lat="48.566648" lon="16.607439">
        <ele>232.418058</ele>
        <time>2020-08-20T05:28:18.552Z</time>
      </trkpt>
      <trkpt lat="48.566576" lon="16.607313">
        <ele>232.497493</ele>
        <time>2020-08-20T05:28:20.553Z</time>
      </trkpt>
      <trkpt lat="48.566509" lon="16.607190">
        <ele>232.573509</ele>
        <time>2020-08-20T05:28:22.594Z</time>
      </trkpt>
      <trkpt lat="48.566450" lon="16.607086">
        <ele>232.638873</ele>
        <time>2020-08-20T05:28:24.555Z</time>
      </trkpt>
      <trkpt lat="48.566386" lon="16.606968">
        <ele>232.711673</ele>
        <time>2020-08-20T05:28:27.570Z</time>
      </trkpt>
      <trkpt lat="48.566295" lon="16.606840">
        <ele>232.801315</ele>
        <time>2020-08-20T05:28:31.559Z</time>
      </trkpt>
      <trkpt lat="48.566203" lon="16.606716">
        <ele>232.890205</ele>
        <time>2020-08-20T05:28:34.551Z</time>
      </trkpt>
      <trkpt lat="48.566136" lon="16.606622">
        <ele>232.956127</ele>
        <time>2020-08-20T05:28:36.584Z</time>
      </trkpt>
      <trkpt lat="48.566069" lon="16.606510">
        <ele>233.028168</ele>
        <time>2020-08-20T05:28:38.550Z</time>
      </trkpt>
      <trkpt lat="48.566019" lon="16.606395">
        <ele>233.093826</ele>
        <time>2020-08-20T05:28:40.570Z</time>
      </trkpt>
      <trkpt lat="48.565976" lon="16.606268">
        <ele>233.161897</ele>
        <time>2020-08-20T05:28:42.564Z</time>
      </trkpt>
      <trkpt lat="48.565930" lon="16.606132">
        <ele>233.234776</ele>
        <time>2020-08-20T05:28:44.578Z</time>
      </trkpt>
      <trkpt lat="48.565880" lon="16.606001">
        <ele>233.320774</ele>
        <time>2020-08-20T05:28:46.573Z</time>
      </trkpt>
      <trkpt lat="48.565827" lon="16.605858">
        <ele>233.468973</ele>
        <time>2020-08-20T05:28:48.553Z</time>
      </trkpt>
      <trkpt lat="48.565784" lon="16.605716">
        <ele>233.610173</ele>
        <time>2020-08-20T05:28:50.568Z</time>
      </trkpt>
      <trkpt lat="48.565743" lon="16.605551">
        <ele>233.769538</ele>
        <time>2020-08-20T05:28:52.558Z</time>
      </trkpt>
      <trkpt lat="48.565703" lon="16.605384">
        <ele>233.930126</ele>
        <time>2020-08-20T05:28:54.551Z</time>
      </trkpt>
      <trkpt lat="48.565663" lon="16.605206">
        <ele>234.100101</ele>
        <time>2020-08-20T05:28:56.588Z</time>
      </trkpt>
      <trkpt lat="48.565624" lon="16.605023">
        <ele>234.273939</ele>
        <time>2020-08-20T05:28:58.587Z</time>
      </trkpt>
      <trkpt lat="48.565592" lon="16.604841">
        <ele>234.444214</ele>
        <time>2020-08-20T05:29:00.560Z</time>
      </trkpt>
      <trkpt lat="48.565557" lon="16.604668">
        <ele>234.607788</ele>
        <time>2020-08-20T05:29:02.563Z</time>
      </trkpt>
      <trkpt lat="48.565521" lon="16.604507">
        <ele>234.761451</ele>
        <time>2020-08-20T05:29:04.574Z</time>
      </trkpt>
      <trkpt lat="48.565486" lon="16.604344">
        <ele>234.916401</ele>
        <time>2020-08-20T05:29:06.559Z</time>
      </trkpt>
      <trkpt lat="48.565448" lon="16.604168">
        <ele>235.083798</ele>
        <time>2020-08-20T05:29:08.555Z</time>
      </trkpt>
      <trkpt lat="48.565411" lon="16.603992">
        <ele>235.250775</ele>
        <time>2020-08-20T05:29:10.556Z</time>
      </trkpt>
      <trkpt lat="48.565375" lon="16.603828">
        <ele>235.407011</ele>
        <time>2020-08-20T05:29:12.552Z</time>
      </trkpt>
      <trkpt lat="48.565342" lon="16.603669">
        <ele>235.557685</ele>
        <time>2020-08-20T05:29:14.559Z</time>
      </trkpt>
      <trkpt lat="48.565311" lon="16.603517">
        <ele>235.701504</ele>
        <time>2020-08-20T05:29:16.576Z</time>
      </trkpt>
      <trkpt lat="48.565284" lon="16.603372">
        <ele>235.824469</ele>
        <time>2020-08-20T05:29:18.574Z</time>
      </trkpt>
      <trkpt lat="48.565256" lon="16.603226">
        <ele>235.941390</ele>
        <time>2020-08-20T05:29:20.585Z</time>
      </trkpt>
      <trkpt lat="48.565221" lon="16.603081">
        <ele>236.060108</ele>
        <time>2020-08-20T05:29:22.583Z</time>
      </trkpt>
      <trkpt lat="48.565189" lon="16.602937">
        <ele>236.176948</ele>
        <time>2020-08-20T05:29:24.558Z</time>
      </trkpt>
      <trkpt lat="48.565152" lon="16.602792">
        <ele>236.296483</ele>
        <time>2020-08-20T05:29:26.564Z</time>
      </trkpt>
      <trkpt lat="48.565121" lon="16.602641">
        <ele>236.418090</ele>
        <time>2020-08-20T05:29:28.574Z</time>
      </trkpt>
      <trkpt lat="48.565091" lon="16.602492">
        <ele>236.537885</ele>
        <time>2020-08-20T05:29:30.574Z</time>
      </trkpt>
      <trkpt lat="48.565056" lon="16.602349">
        <ele>236.655160</ele>
        <time>2020-08-20T05:29:32.575Z</time>
      </trkpt>
      <trkpt lat="48.565021" lon="16.602201">
        <ele>236.776050</ele>
        <time>2020-08-20T05:29:34.566Z</time>
      </trkpt>
      <trkpt lat="48.564987" lon="16.602052">
        <ele>236.897280</ele>
        <time>2020-08-20T05:29:36.560Z</time>
      </trkpt>
      <trkpt lat="48.564952" lon="16.601894">
        <ele>237.025439</ele>
        <time>2020-08-20T05:29:38.596Z</time>
      </trkpt>
      <trkpt lat="48.564925" lon="16.601735">
        <ele>237.151701</ele>
        <time>2020-08-20T05:29:40.563Z</time>
      </trkpt>
      <trkpt lat="48.564897" lon="16.601579">
        <ele>237.276029</ele>
        <time>2020-08-20T05:29:42.568Z</time>
      </trkpt>
      <trkpt lat="48.564861" lon="16.601424">
        <ele>237.402382</ele>
        <time>2020-08-20T05:29:44.569Z</time>
      </trkpt>
      <trkpt lat="48.564826" lon="16.601277">
        <ele>237.522548</ele>
        <time>2020-08-20T05:29:46.709Z</time>
      </trkpt>
      <trkpt lat="48.564792" lon="16.601131">
        <ele>237.641600</ele>
        <time>2020-08-20T05:29:48.580Z</time>
      </trkpt>
      <trkpt lat="48.564758" lon="16.600983">
        <ele>237.762104</ele>
        <time>2020-08-20T05:29:50.573Z</time>
      </trkpt>
      <trkpt lat="48.564725" lon="16.600832">
        <ele>237.840950</ele>
        <time>2020-08-20T05:29:52.566Z</time>
      </trkpt>
      <trkpt lat="48.564696" lon="16.600679">
        <ele>237.844501</ele>
        <time>2020-08-20T05:29:54.586Z</time>
      </trkpt>
      <trkpt lat="48.564667" lon="16.600529">
        <ele>237.847988</ele>
        <time>2020-08-20T05:29:56.566Z</time>
      </trkpt>
      <trkpt lat="48.564637" lon="16.600381">
        <ele>237.851441</ele>
        <time>2020-08-20T05:29:58.584Z</time>
      </trkpt>
      <trkpt lat="48.564606" lon="16.600236">
        <ele>237.854841</ele>
        <time>2020-08-20T05:30:00.587Z</time>
      </trkpt>
      <trkpt lat="48.564569" lon="16.600090">
        <ele>237.858329</ele>
        <time>2020-08-20T05:30:02.545Z</time>
      </trkpt>
      <trkpt lat="48.564531" lon="16.599946">
        <ele>237.861788</ele>
        <time>2020-08-20T05:30:04.571Z</time>
      </trkpt>
      <trkpt lat="48.564497" lon="16.599801">
        <ele>237.865220</ele>
        <time>2020-08-20T05:30:06.589Z</time>
      </trkpt>
      <trkpt lat="48.564460" lon="16.599660">
        <ele>237.868605</ele>
        <time>2020-08-20T05:30:08.586Z</time>
      </trkpt>
      <trkpt lat="48.564427" lon="16.599516">
        <ele>237.872005</ele>
        <time>2020-08-20T05:30:10.572Z</time>
      </trkpt>
      <trkpt lat="48.564393" lon="16.599376">
        <ele>237.875332</ele>
        <time>2020-08-20T05:30:12.560Z</time>
      </trkpt>
      <trkpt lat="48.564359" lon="16.599233">
        <ele>237.878722</ele>
        <time>2020-08-20T05:30:14.572Z</time>
      </trkpt>
      <trkpt lat="48.564327" lon="16.599092">
        <ele>237.882048</ele>
        <time>2020-08-20T05:30:16.564Z</time>
      </trkpt>
      <trkpt lat="48.564297" lon="16.598950">
        <ele>237.885374</ele>
        <time>2020-08-20T05:30:18.571Z</time>
      </trkpt>
      <trkpt lat="48.564268" lon="16.598806">
        <ele>237.888732</ele>
        <time>2020-08-20T05:30:20.572Z</time>
      </trkpt>
      <trkpt lat="48.564240" lon="16.598665">
        <ele>237.892017</ele>
        <time>2020-08-20T05:30:22.577Z</time>
      </trkpt>
      <trkpt lat="48.564215" lon="16.598522">
        <ele>237.895317</ele>
        <time>2020-08-20T05:30:24.567Z</time>
      </trkpt>
      <trkpt lat="48.564188" lon="16.598375">
        <ele>237.898721</ele>
        <time>2020-08-20T05:30:26.569Z</time>
      </trkpt>
      <trkpt lat="48.564159" lon="16.598223">
        <ele>237.902460</ele>
        <time>2020-08-20T05:30:28.567Z</time>
      </trkpt>
      <trkpt lat="48.564131" lon="16.598069">
        <ele>237.906405</ele>
        <time>2020-08-20T05:30:30.576Z</time>
      </trkpt>
      <trkpt lat="48.564111" lon="16.597912">
        <ele>237.910354</ele>
        <time>2020-08-20T05:30:32.559Z</time>
      </trkpt>
      <trkpt lat="48.564083" lon="16.597757">
        <ele>237.914323</ele>
        <time>2020-08-20T05:30:34.575Z</time>
      </trkpt>
      <trkpt lat="48.564052" lon="16.597601">
        <ele>237.918347</ele>
        <time>2020-08-20T05:30:36.552Z</time>
      </trkpt>
      <trkpt lat="48.564026" lon="16.597445">
        <ele>237.922321</ele>
        <time>2020-08-20T05:30:38.589Z</time>
      </trkpt>
      <trkpt lat="48.563998" lon="16.597288">
        <ele>237.926337</ele>
        <time>2020-08-20T05:30:40.558Z</time>
      </trkpt>
      <trkpt lat="48.563970" lon="16.597126">
        <ele>237.930473</ele>
        <time>2020-08-20T05:30:42.572Z</time>
      </trkpt>
      <trkpt lat="48.563947" lon="16.596976">
        <ele>237.934277</ele>
        <time>2020-08-20T05:30:44.595Z</time>
      </trkpt>
      <trkpt lat="48.563911" lon="16.596811">
        <ele>237.938568</ele>
        <time>2020-08-20T05:30:47.553Z</time>
      </trkpt>
      <trkpt lat="48.563892" lon="16.596658">
        <ele>237.942414</ele>
        <time>2020-08-20T05:30:51.569Z</time>
      </trkpt>
      <trkpt lat="48.563866" lon="16.596525">
        <ele>237.945840</ele>
        <time>2020-08-20T05:30:54.557Z</time>
      </trkpt>
      <trkpt lat="48.563829" lon="16.596340">
        <ele>237.950614</ele>
        <time>2020-08-20T05:30:57.561Z</time>
      </trkpt>
      <trkpt lat="48.563803" lon="16.596185">
        <ele>237.954563</ele>
        <time>2020-08-20T05:30:59.559Z</time>
      </trkpt>
      <trkpt lat="48.563776" lon="16.596012">
        <ele>237.958954</ele>
        <time>2020-08-20T05:31:01.572Z</time>
      </trkpt>
      <trkpt lat="48.563746" lon="16.595837">
        <ele>237.963420</ele>
        <time>2020-08-20T05:31:03.594Z</time>
      </trkpt>
      <trkpt lat="48.563711" lon="16.595672">
        <ele>237.966867</ele>
        <time>2020-08-20T05:31:05.567Z</time>
      </trkpt>
      <trkpt lat="48.563683" lon="16.595514">
        <ele>237.958445</ele>
        <time>2020-08-20T05:31:07.563Z</time>
      </trkpt>
      <trkpt lat="48.563655" lon="16.595360">
        <ele>237.950222</ele>
        <time>2020-08-20T05:31:09.567Z</time>
      </trkpt>
      <trkpt lat="48.563628" lon="16.595205">
        <ele>237.941970</ele>
        <time>2020-08-20T05:31:11.620Z</time>
      </trkpt>
      <trkpt lat="48.563605" lon="16.595053">
        <ele>237.933942</ele>
        <time>2020-08-20T05:31:13.589Z</time>
      </trkpt>
      <trkpt lat="48.563578" lon="16.594907">
        <ele>237.926137</ele>
        <time>2020-08-20T05:31:15.560Z</time>
      </trkpt>
      <trkpt lat="48.563551" lon="16.594760">
        <ele>237.918282</ele>
        <time>2020-08-20T05:31:17.573Z</time>
      </trkpt>
      <trkpt lat="48.563523" lon="16.594615">
        <ele>237.910505</ele>
        <time>2020-08-20T05:31:19.564Z</time>
      </trkpt>
      <trkpt lat="48.563488" lon="16.594472">
        <ele>237.902655</ele>
        <time>2020-08-20T05:31:21.564Z</time>
      </trkpt>
      <trkpt lat="48.563463" lon="16.594328">
        <ele>237.894990</ele>
        <time>2020-08-20T05:31:23.569Z</time>
      </trkpt>
      <trkpt lat="48.563436" lon="16.594183">
        <ele>237.887234</ele>
        <time>2020-08-20T05:31:25.591Z</time>
      </trkpt>
      <trkpt lat="48.563408" lon="16.594037">
        <ele>237.879407</ele>
        <time>2020-08-20T05:31:27.562Z</time>
      </trkpt>
      <trkpt lat="48.563379" lon="16.593896">
        <ele>237.871805</ele>
        <time>2020-08-20T05:31:29.562Z</time>
      </trkpt>
      <trkpt lat="48.563352" lon="16.593757">
        <ele>237.864346</ele>
        <time>2020-08-20T05:31:31.584Z</time>
      </trkpt>
      <trkpt lat="48.563318" lon="16.593621">
        <ele>237.856861</ele>
        <time>2020-08-20T05:31:33.568Z</time>
      </trkpt>
      <trkpt lat="48.563288" lon="16.593480">
        <ele>237.849235</ele>
        <time>2020-08-20T05:31:35.565Z</time>
      </trkpt>
      <trkpt lat="48.563258" lon="16.593337">
        <ele>237.841512</ele>
        <time>2020-08-20T05:31:37.575Z</time>
      </trkpt>
      <trkpt lat="48.563226" lon="16.593199">
        <ele>237.833983</ele>
        <time>2020-08-20T05:31:39.588Z</time>
      </trkpt>
      <trkpt lat="48.563198" lon="16.593054">
        <ele>237.825163</ele>
        <time>2020-08-20T05:31:41.577Z</time>
      </trkpt>
      <trkpt lat="48.563171" lon="16.592908">
        <ele>237.811046</ele>
        <time>2020-08-20T05:31:43.557Z</time>
      </trkpt>
      <trkpt lat="48.563141" lon="16.592764">
        <ele>237.796986</ele>
        <time>2020-08-20T05:31:45.568Z</time>
      </trkpt>
      <trkpt lat="48.563110" lon="16.592624">
        <ele>237.783238</ele>
        <time>2020-08-20T05:31:47.564Z</time>
      </trkpt>
      <trkpt lat="48.563082" lon="16.592488">
        <ele>237.769974</ele>
        <time>2020-08-20T05:31:49.561Z</time>
      </trkpt>
      <trkpt lat="48.563059" lon="16.592352">
        <ele>237.756901</ele>
        <time>2020-08-20T05:31:51.589Z</time>
      </trkpt>
      <trkpt lat="48.563035" lon="16.592215">
        <ele>237.743703</ele>
        <time>2020-08-20T05:31:53.560Z</time>
      </trkpt>
      <trkpt lat="48.563005" lon="16.592078">
        <ele>237.730264</ele>
        <time>2020-08-20T05:31:55.563Z</time>
      </trkpt>
      <trkpt lat="48.562971" lon="16.591947">
        <ele>237.717160</ele>
        <time>2020-08-20T05:31:57.571Z</time>
      </trkpt>
      <trkpt lat="48.562941" lon="16.591811">
        <ele>237.703809</ele>
        <time>2020-08-20T05:31:59.551Z</time>
      </trkpt>
      <trkpt lat="48.562914" lon="16.591678">
        <ele>237.690853</ele>
        <time>2020-08-20T05:32:01.567Z</time>
      </trkpt>
      <trkpt lat="48.562883" lon="16.591542">
        <ele>237.677458</ele>
        <time>2020-08-20T05:32:03.563Z</time>
      </trkpt>
      <trkpt lat="48.562851" lon="16.591403">
        <ele>237.663752</ele>
        <time>2020-08-20T05:32:05.563Z</time>
      </trkpt>
      <trkpt lat="48.562818" lon="16.591272">
        <ele>237.650698</ele>
        <time>2020-08-20T05:32:07.585Z</time>
      </trkpt>
      <trkpt lat="48.562788" lon="16.591133">
        <ele>237.637082</ele>
        <time>2020-08-20T05:32:09.571Z</time>
      </trkpt>
      <trkpt lat="48.562759" lon="16.590995">
        <ele>237.623598</ele>
        <time>2020-08-20T05:32:11.572Z</time>
      </trkpt>
      <trkpt lat="48.562732" lon="16.590856">
        <ele>237.610107</ele>
        <time>2020-08-20T05:32:13.605Z</time>
      </trkpt>
      <trkpt lat="48.562702" lon="16.590720">
        <ele>237.596756</ele>
        <time>2020-08-20T05:32:15.590Z</time>
      </trkpt>
      <trkpt lat="48.562668" lon="16.590580">
        <ele>237.582868</ele>
        <time>2020-08-20T05:32:17.565Z</time>
      </trkpt>
      <trkpt lat="48.562639" lon="16.590439">
        <ele>237.570057</ele>
        <time>2020-08-20T05:32:19.569Z</time>
      </trkpt>
      <trkpt lat="48.562609" lon="16.590298">
        <ele>237.558724</ele>
        <time>2020-08-20T05:32:21.581Z</time>
      </trkpt>
      <trkpt lat="48.562584" lon="16.590157">
        <ele>237.547555</ele>
        <time>2020-08-20T05:32:23.576Z</time>
      </trkpt>
      <trkpt lat="48.562555" lon="16.590023">
        <ele>237.536767</ele>
        <time>2020-08-20T05:32:25.592Z</time>
      </trkpt>
      <trkpt lat="48.562531" lon="16.589886">
        <ele>237.525923</ele>
        <time>2020-08-20T05:32:27.569Z</time>
      </trkpt>
      <trkpt lat="48.562511" lon="16.589751">
        <ele>237.515337</ele>
        <time>2020-08-20T05:32:29.582Z</time>
      </trkpt>
      <trkpt lat="48.562483" lon="16.589618">
        <ele>237.504658</ele>
        <time>2020-08-20T05:32:31.559Z</time>
      </trkpt>
      <trkpt lat="48.562452" lon="16.589488">
        <ele>237.494084</ele>
        <time>2020-08-20T05:32:33.577Z</time>
      </trkpt>
      <trkpt lat="48.562420" lon="16.589361">
        <ele>237.483686</ele>
        <time>2020-08-20T05:32:35.584Z</time>
      </trkpt>
      <trkpt lat="48.562392" lon="16.589220">
        <ele>237.472422</ele>
        <time>2020-08-20T05:32:37.569Z</time>
      </trkpt>
      <trkpt lat="48.562358" lon="16.589078">
        <ele>237.460867</ele>
        <time>2020-08-20T05:32:39.579Z</time>
      </trkpt>
      <trkpt lat="48.562321" lon="16.588943">
        <ele>237.449686</ele>
        <time>2020-08-20T05:32:41.584Z</time>
      </trkpt>
      <trkpt lat="48.562288" lon="16.588814">
        <ele>237.439103</ele>
        <time>2020-08-20T05:32:43.562Z</time>
      </trkpt>
      <trkpt lat="48.562254" lon="16.588688">
        <ele>237.428691</ele>
        <time>2020-08-20T05:32:45.563Z</time>
      </trkpt>
      <trkpt lat="48.562223" lon="16.588555">
        <ele>237.417902</ele>
        <time>2020-08-20T05:32:47.575Z</time>
      </trkpt>
      <trkpt lat="48.562191" lon="16.588420">
        <ele>237.406929</ele>
        <time>2020-08-20T05:32:49.592Z</time>
      </trkpt>
      <trkpt lat="48.562161" lon="16.588282">
        <ele>237.395814</ele>
        <time>2020-08-20T05:32:51.570Z</time>
      </trkpt>
      <trkpt lat="48.562135" lon="16.588144">
        <ele>237.384835</ele>
        <time>2020-08-20T05:32:53.576Z</time>
      </trkpt>
      <trkpt lat="48.562104" lon="16.588004">
        <ele>237.373539</ele>
        <time>2020-08-20T05:32:55.563Z</time>
      </trkpt>
      <trkpt lat="48.562072" lon="16.587870">
        <ele>237.367658</ele>
        <time>2020-08-20T05:32:57.564Z</time>
      </trkpt>
      <trkpt lat="48.562043" lon="16.587734">
        <ele>237.371215</ele>
        <time>2020-08-20T05:32:59.559Z</time>
      </trkpt>
      <trkpt lat="48.562013" lon="16.587600">
        <ele>237.374737</ele>
        <time>2020-08-20T05:33:01.567Z</time>
      </trkpt>
      <trkpt lat="48.561983" lon="16.587459">
        <ele>237.378424</ele>
        <time>2020-08-20T05:33:03.573Z</time>
      </trkpt>
      <trkpt lat="48.561955" lon="16.587327">
        <ele>237.381874</ele>
        <time>2020-08-20T05:33:05.578Z</time>
      </trkpt>
      <trkpt lat="48.561931" lon="16.587188">
        <ele>237.385450</ele>
        <time>2020-08-20T05:33:07.585Z</time>
      </trkpt>
      <trkpt lat="48.561890" lon="16.587059">
        <ele>237.389013</ele>
        <time>2020-08-20T05:33:09.595Z</time>
      </trkpt>
      <trkpt lat="48.561834" lon="16.586933">
        <ele>237.392791</ele>
        <time>2020-08-20T05:33:11.562Z</time>
      </trkpt>
      <trkpt lat="48.561791" lon="16.586761">
        <ele>237.397368</ele>
        <time>2020-08-20T05:33:13.568Z</time>
      </trkpt>
      <trkpt lat="48.561747" lon="16.586565">
        <ele>237.402520</ele>
        <time>2020-08-20T05:33:15.563Z</time>
      </trkpt>
      <trkpt lat="48.561703" lon="16.586373">
        <ele>237.407578</ele>
        <time>2020-08-20T05:33:17.554Z</time>
      </trkpt>
      <trkpt lat="48.561660" lon="16.586205">
        <ele>237.412062</ele>
        <time>2020-08-20T05:33:19.580Z</time>
      </trkpt>
      <trkpt lat="48.561631" lon="16.586063">
        <ele>237.415762</ele>
        <time>2020-08-20T05:33:21.568Z</time>
      </trkpt>
      <trkpt lat="48.561619" lon="16.585888">
        <ele>237.420142</ele>
        <time>2020-08-20T05:33:24.598Z</time>
      </trkpt>
      <trkpt lat="48.561613" lon="16.585722">
        <ele>237.424280</ele>
        <time>2020-08-20T05:33:27.587Z</time>
      </trkpt>
      <trkpt lat="48.561574" lon="16.585555">
        <ele>237.428689</ele>
        <time>2020-08-20T05:33:30.599Z</time>
      </trkpt>
      <trkpt lat="48.561536" lon="16.585365">
        <ele>237.433630</ele>
        <time>2020-08-20T05:33:33.572Z</time>
      </trkpt>
      <trkpt lat="48.561511" lon="16.585226">
        <ele>237.478364</ele>
        <time>2020-08-20T05:33:35.561Z</time>
      </trkpt>
      <trkpt lat="48.561485" lon="16.585089">
        <ele>237.528493</ele>
        <time>2020-08-20T05:33:37.557Z</time>
      </trkpt>
      <trkpt lat="48.561455" lon="16.584952">
        <ele>237.579248</ele>
        <time>2020-08-20T05:33:39.563Z</time>
      </trkpt>
      <trkpt lat="48.561427" lon="16.584815">
        <ele>237.629680</ele>
        <time>2020-08-20T05:33:41.556Z</time>
      </trkpt>
      <trkpt lat="48.561399" lon="16.584675">
        <ele>237.681121</ele>
        <time>2020-08-20T05:33:43.563Z</time>
      </trkpt>
      <trkpt lat="48.561372" lon="16.584537">
        <ele>237.731735</ele>
        <time>2020-08-20T05:33:45.597Z</time>
      </trkpt>
      <trkpt lat="48.561346" lon="16.584397">
        <ele>237.782879</ele>
        <time>2020-08-20T05:33:47.552Z</time>
      </trkpt>
      <trkpt lat="48.561321" lon="16.584256">
        <ele>237.834221</ele>
        <time>2020-08-20T05:33:49.584Z</time>
      </trkpt>
      <trkpt lat="48.561296" lon="16.584117">
        <ele>237.884884</ele>
        <time>2020-08-20T05:33:51.573Z</time>
      </trkpt>
      <trkpt lat="48.561273" lon="16.583975">
        <ele>237.936304</ele>
        <time>2020-08-20T05:33:53.583Z</time>
      </trkpt>
      <trkpt lat="48.561265" lon="16.583821">
        <ele>237.990636</ele>
        <time>2020-08-20T05:33:55.568Z</time>
      </trkpt>
      <trkpt lat="48.561260" lon="16.583668">
        <ele>238.044516</ele>
        <time>2020-08-20T05:33:57.554Z</time>
      </trkpt>
      <trkpt lat="48.561254" lon="16.583516">
        <ele>238.098073</ele>
        <time>2020-08-20T05:33:59.577Z</time>
      </trkpt>
      <trkpt lat="48.561247" lon="16.583370">
        <ele>238.149560</ele>
        <time>2020-08-20T05:34:01.586Z</time>
      </trkpt>
      <trkpt lat="48.561240" lon="16.583230">
        <ele>238.198942</ele>
        <time>2020-08-20T05:34:03.563Z</time>
      </trkpt>
      <trkpt lat="48.561237" lon="16.583085">
        <ele>238.249967</ele>
        <time>2020-08-20T05:34:05.568Z</time>
      </trkpt>
      <trkpt lat="48.561234" lon="16.582932">
        <ele>238.303805</ele>
        <time>2020-08-20T05:34:07.585Z</time>
      </trkpt>
      <trkpt lat="48.561230" lon="16.582783">
        <ele>238.356255</ele>
        <time>2020-08-20T05:34:09.559Z</time>
      </trkpt>
      <trkpt lat="48.561228" lon="16.582635">
        <ele>238.398071</ele>
        <time>2020-08-20T05:34:11.566Z</time>
      </trkpt>
      <trkpt lat="48.561221" lon="16.582487">
        <ele>238.421098</ele>
        <time>2020-08-20T05:34:13.564Z</time>
      </trkpt>
      <trkpt lat="48.561210" lon="16.582343">
        <ele>238.443594</ele>
        <time>2020-08-20T05:34:15.581Z</time>
      </trkpt>
      <trkpt lat="48.561200" lon="16.582191">
        <ele>238.467299</ele>
        <time>2020-08-20T05:34:17.580Z</time>
      </trkpt>
      <trkpt lat="48.561192" lon="16.582043">
        <ele>238.490344</ele>
        <time>2020-08-20T05:34:19.574Z</time>
      </trkpt>
      <trkpt lat="48.561185" lon="16.581897">
        <ele>238.513061</ele>
        <time>2020-08-20T05:34:21.552Z</time>
      </trkpt>
      <trkpt lat="48.561183" lon="16.581753">
        <ele>238.535414</ele>
        <time>2020-08-20T05:34:23.576Z</time>
      </trkpt>
      <trkpt lat="48.561229" lon="16.581606">
        <ele>238.560648</ele>
        <time>2020-08-20T05:34:26.559Z</time>
      </trkpt>
      <trkpt lat="48.561309" lon="16.581521">
        <ele>238.583581</ele>
        <time>2020-08-20T05:34:29.593Z</time>
      </trkpt>
      <trkpt lat="48.561334" lon="16.581357">
        <ele>238.609699</ele>
        <time>2020-08-20T05:34:32.554Z</time>
      </trkpt>
      <trkpt lat="48.561388" lon="16.581241">
        <ele>238.631708</ele>
        <time>2020-08-20T05:34:34.554Z</time>
      </trkpt>
      <trkpt lat="48.561463" lon="16.581144">
        <ele>238.654858</ele>
        <time>2020-08-20T05:34:36.564Z</time>
      </trkpt>
      <trkpt lat="48.561547" lon="16.581063">
        <ele>238.678224</ele>
        <time>2020-08-20T05:34:38.555Z</time>
      </trkpt>
      <trkpt lat="48.561636" lon="16.580993">
        <ele>238.701752</ele>
        <time>2020-08-20T05:34:40.565Z</time>
      </trkpt>
      <trkpt lat="48.561726" lon="16.580938">
        <ele>238.724517</ele>
        <time>2020-08-20T05:34:42.564Z</time>
      </trkpt>
      <trkpt lat="48.561812" lon="16.580892">
        <ele>238.745909</ele>
        <time>2020-08-20T05:34:44.568Z</time>
      </trkpt>
      <trkpt lat="48.561993" lon="16.580834">
        <ele>238.789296</ele>
        <time>2020-08-20T05:35:18.587Z</time>
      </trkpt>
      <trkpt lat="48.562103" lon="16.580809">
        <ele>238.820454</ele>
        <time>2020-08-20T05:35:21.552Z</time>
      </trkpt>
      <trkpt lat="48.562220" lon="16.580771">
        <ele>238.887661</ele>
        <time>2020-08-20T05:35:24.550Z</time>
      </trkpt>
      <trkpt lat="48.562341" lon="16.580720">
        <ele>238.958209</ele>
        <time>2020-08-20T05:35:27.548Z</time>
      </trkpt>
      <trkpt lat="48.562470" lon="16.580676">
        <ele>239.032478</ele>
        <time>2020-08-20T05:35:30.562Z</time>
      </trkpt>
      <trkpt lat="48.562560" lon="16.580639">
        <ele>239.084859</ele>
        <time>2020-08-20T05:35:32.548Z</time>
      </trkpt>
      <trkpt lat="48.562648" lon="16.580607">
        <ele>239.135690</ele>
        <time>2020-08-20T05:35:34.563Z</time>
      </trkpt>
      <trkpt lat="48.562739" lon="16.580571">
        <ele>239.188518</ele>
        <time>2020-08-20T05:35:36.570Z</time>
      </trkpt>
      <trkpt lat="48.562832" lon="16.580541">
        <ele>239.241923</ele>
        <time>2020-08-20T05:35:38.557Z</time>
      </trkpt>
      <trkpt lat="48.562924" lon="16.580503">
        <ele>239.295486</ele>
        <time>2020-08-20T05:35:40.600Z</time>
      </trkpt>
      <trkpt lat="48.563017" lon="16.580463">
        <ele>239.349789</ele>
        <time>2020-08-20T05:35:42.565Z</time>
      </trkpt>
      <trkpt lat="48.563112" lon="16.580428">
        <ele>239.404703</ele>
        <time>2020-08-20T05:35:44.561Z</time>
      </trkpt>
      <trkpt lat="48.563211" lon="16.580393">
        <ele>239.461803</ele>
        <time>2020-08-20T05:35:46.561Z</time>
      </trkpt>
      <trkpt lat="48.563313" lon="16.580355">
        <ele>239.520801</ele>
        <time>2020-08-20T05:35:48.564Z</time>
      </trkpt>
      <trkpt lat="48.563412" lon="16.580306">
        <ele>239.579306</ele>
        <time>2020-08-20T05:35:50.553Z</time>
      </trkpt>
      <trkpt lat="48.563503" lon="16.580261">
        <ele>239.633078</ele>
        <time>2020-08-20T05:35:52.554Z</time>
      </trkpt>
      <trkpt lat="48.563596" lon="16.580223">
        <ele>239.687182</ele>
        <time>2020-08-20T05:35:54.571Z</time>
      </trkpt>
      <trkpt lat="48.563693" lon="16.580192">
        <ele>239.742862</ele>
        <time>2020-08-20T05:35:56.558Z</time>
      </trkpt>
      <trkpt lat="48.563791" lon="16.580161">
        <ele>239.799092</ele>
        <time>2020-08-20T05:35:58.570Z</time>
      </trkpt>
      <trkpt lat="48.563890" lon="16.580128">
        <ele>239.846522</ele>
        <time>2020-08-20T05:36:00.540Z</time>
      </trkpt>
      <trkpt lat="48.563987" lon="16.580095">
        <ele>239.886829</ele>
        <time>2020-08-20T05:36:02.573Z</time>
      </trkpt>
      <trkpt lat="48.564081" lon="16.580068">
        <ele>239.925618</ele>
        <time>2020-08-20T05:36:04.552Z</time>
      </trkpt>
      <trkpt lat="48.564174" lon="16.580043">
        <ele>239.963912</ele>
        <time>2020-08-20T05:36:06.569Z</time>
      </trkpt>
      <trkpt lat="48.564262" lon="16.580015">
        <ele>240.000369</ele>
        <time>2020-08-20T05:36:08.555Z</time>
      </trkpt>
      <trkpt lat="48.564359" lon="16.579971">
        <ele>240.041425</ele>
        <time>2020-08-20T05:36:10.554Z</time>
      </trkpt>
      <trkpt lat="48.564440" lon="16.579865">
        <ele>240.084864</ele>
        <time>2020-08-20T05:36:12.556Z</time>
      </trkpt>
      <trkpt lat="48.564535" lon="16.579767">
        <ele>240.131495</ele>
        <time>2020-08-20T05:36:14.553Z</time>
      </trkpt>
      <trkpt lat="48.564626" lon="16.579678">
        <ele>240.175438</ele>
        <time>2020-08-20T05:36:16.571Z</time>
      </trkpt>
      <trkpt lat="48.564717" lon="16.579594">
        <ele>240.218668</ele>
        <time>2020-08-20T05:36:18.568Z</time>
      </trkpt>
      <trkpt lat="48.564800" lon="16.579487">
        <ele>240.262896</ele>
        <time>2020-08-20T05:36:20.598Z</time>
      </trkpt>
      <trkpt lat="48.564875" lon="16.579412">
        <ele>240.299355</ele>
        <time>2020-08-20T05:36:22.600Z</time>
      </trkpt>
      <trkpt lat="48.564985" lon="16.579305">
        <ele>240.352389</ele>
        <time>2020-08-20T05:36:25.569Z</time>
      </trkpt>
      <trkpt lat="48.565060" lon="16.579228">
        <ele>240.389147</ele>
        <time>2020-08-20T05:36:27.563Z</time>
      </trkpt>
      <trkpt lat="48.565175" lon="16.579121">
        <ele>240.443896</ele>
        <time>2020-08-20T05:36:30.570Z</time>
      </trkpt>
      <trkpt lat="48.565286" lon="16.579012">
        <ele>240.497561</ele>
        <time>2020-08-20T05:36:33.558Z</time>
      </trkpt>
      <trkpt lat="48.565394" lon="16.578902">
        <ele>240.550360</ele>
        <time>2020-08-20T05:36:36.567Z</time>
      </trkpt>
      <trkpt lat="48.565505" lon="16.578809">
        <ele>240.625138</ele>
        <time>2020-08-20T05:36:39.573Z</time>
      </trkpt>
      <trkpt lat="48.565614" lon="16.578719">
        <ele>240.698612</ele>
        <time>2020-08-20T05:36:42.556Z</time>
      </trkpt>
      <trkpt lat="48.565704" lon="16.578629">
        <ele>240.762452</ele>
        <time>2020-08-20T05:36:45.559Z</time>
      </trkpt>
      <trkpt lat="48.565803" lon="16.578525">
        <ele>240.833773</ele>
        <time>2020-08-20T05:36:48.573Z</time>
      </trkpt>
      <trkpt lat="48.565890" lon="16.578397">
        <ele>240.905600</ele>
        <time>2020-08-20T05:36:51.568Z</time>
      </trkpt>
      <trkpt lat="48.565979" lon="16.578258">
        <ele>240.981311</ele>
        <time>2020-08-20T05:36:54.568Z</time>
      </trkpt>
      <trkpt lat="48.566045" lon="16.578156">
        <ele>241.037154</ele>
        <time>2020-08-20T05:36:56.570Z</time>
      </trkpt>
      <trkpt lat="48.566139" lon="16.578013">
        <ele>241.116054</ele>
        <time>2020-08-20T05:36:59.567Z</time>
      </trkpt>
      <trkpt lat="48.566200" lon="16.577914">
        <ele>241.169005</ele>
        <time>2020-08-20T05:37:01.579Z</time>
      </trkpt>
      <trkpt lat="48.566279" lon="16.577754">
        <ele>241.247148</ele>
        <time>2020-08-20T05:37:04.578Z</time>
      </trkpt>
      <trkpt lat="48.566360" lon="16.577591">
        <ele>241.326941</ele>
        <time>2020-08-20T05:37:07.558Z</time>
      </trkpt>
      <trkpt lat="48.566414" lon="16.577480">
        <ele>241.380870</ele>
        <time>2020-08-20T05:37:09.561Z</time>
      </trkpt>
      <trkpt lat="48.566495" lon="16.577324">
        <ele>241.458489</ele>
        <time>2020-08-20T05:37:12.592Z</time>
      </trkpt>
      <trkpt lat="48.566556" lon="16.577219">
        <ele>241.513182</ele>
        <time>2020-08-20T05:37:14.582Z</time>
      </trkpt>
      <trkpt lat="48.566618" lon="16.577107">
        <ele>241.570341</ele>
        <time>2020-08-20T05:37:16.585Z</time>
      </trkpt>
      <trkpt lat="48.566679" lon="16.576993">
        <ele>241.620129</ele>
        <time>2020-08-20T05:37:18.553Z</time>
      </trkpt>
      <trkpt lat="48.566739" lon="16.576876">
        <ele>241.643587</ele>
        <time>2020-08-20T05:37:20.562Z</time>
      </trkpt>
      <trkpt lat="48.566804" lon="16.576775">
        <ele>241.665915</ele>
        <time>2020-08-20T05:37:22.547Z</time>
      </trkpt>
      <trkpt lat="48.566870" lon="16.576674">
        <ele>241.688410</ele>
        <time>2020-08-20T05:37:24.560Z</time>
      </trkpt>
      <trkpt lat="48.566964" lon="16.576533">
        <ele>241.720128</ele>
        <time>2020-08-20T05:37:27.594Z</time>
      </trkpt>
      <trkpt lat="48.567031" lon="16.576431">
        <ele>241.742904</ele>
        <time>2020-08-20T05:37:29.593Z</time>
      </trkpt>
      <trkpt lat="48.567118" lon="16.576288">
        <ele>241.773689</ele>
        <time>2020-08-20T05:37:32.588Z</time>
      </trkpt>
      <trkpt lat="48.567213" lon="16.576173">
        <ele>241.802839</ele>
        <time>2020-08-20T05:37:35.559Z</time>
      </trkpt>
      <trkpt lat="48.567297" lon="16.576083">
        <ele>241.827499</ele>
        <time>2020-08-20T05:37:39.573Z</time>
      </trkpt>
      <trkpt lat="48.567379" lon="16.576012">
        <ele>241.850132</ele>
        <time>2020-08-20T05:37:42.567Z</time>
      </trkpt>
      <trkpt lat="48.567465" lon="16.575935">
        <ele>241.874071</ele>
        <time>2020-08-20T05:37:45.565Z</time>
      </trkpt>
      <trkpt lat="48.567559" lon="16.575847">
        <ele>241.900552</ele>
        <time>2020-08-20T05:37:48.590Z</time>
      </trkpt>
      <trkpt lat="48.567670" lon="16.575746">
        <ele>241.931582</ele>
        <time>2020-08-20T05:37:51.593Z</time>
      </trkpt>
      <trkpt lat="48.567784" lon="16.575637">
        <ele>241.963889</ele>
        <time>2020-08-20T05:37:54.549Z</time>
      </trkpt>
      <trkpt lat="48.567863" lon="16.575563">
        <ele>241.986148</ele>
        <time>2020-08-20T05:37:56.568Z</time>
      </trkpt>
      <trkpt lat="48.567973" lon="16.575447">
        <ele>242.018271</ele>
        <time>2020-08-20T05:37:59.555Z</time>
      </trkpt>
      <trkpt lat="48.568052" lon="16.575348">
        <ele>242.042849</ele>
        <time>2020-08-20T05:38:02.554Z</time>
      </trkpt>
      <trkpt lat="48.568127" lon="16.575249">
        <ele>242.068916</ele>
        <time>2020-08-20T05:38:07.568Z</time>
      </trkpt>
      <trkpt lat="48.568184" lon="16.575138">
        <ele>242.093535</ele>
        <time>2020-08-20T05:38:10.569Z</time>
      </trkpt>
      <trkpt lat="48.568255" lon="16.575001">
        <ele>242.124026</ele>
        <time>2020-08-20T05:38:13.565Z</time>
      </trkpt>
      <trkpt lat="48.568336" lon="16.574849">
        <ele>242.158222</ele>
        <time>2020-08-20T05:38:16.593Z</time>
      </trkpt>
      <trkpt lat="48.568427" lon="16.574705">
        <ele>242.193112</ele>
        <time>2020-08-20T05:38:19.550Z</time>
      </trkpt>
      <trkpt lat="48.568491" lon="16.574597">
        <ele>242.218515</ele>
        <time>2020-08-20T05:38:21.594Z</time>
      </trkpt>
      <trkpt lat="48.568556" lon="16.574488">
        <ele>242.244225</ele>
        <time>2020-08-20T05:38:23.570Z</time>
      </trkpt>
      <trkpt lat="48.568632" lon="16.574390">
        <ele>242.270680</ele>
        <time>2020-08-20T05:38:25.551Z</time>
      </trkpt>
      <trkpt lat="48.568731" lon="16.574277">
        <ele>242.303531</ele>
        <time>2020-08-20T05:38:28.562Z</time>
      </trkpt>
      <trkpt lat="48.568815" lon="16.574205">
        <ele>242.329103</ele>
        <time>2020-08-20T05:38:30.575Z</time>
      </trkpt>
      <trkpt lat="48.568910" lon="16.574151">
        <ele>242.355979</ele>
        <time>2020-08-20T05:38:32.558Z</time>
      </trkpt>
      <trkpt lat="48.569016" lon="16.574108">
        <ele>242.385041</ele>
        <time>2020-08-20T05:38:34.565Z</time>
      </trkpt>
      <trkpt lat="48.569115" lon="16.574071">
        <ele>242.412045</ele>
        <time>2020-08-20T05:38:36.580Z</time>
      </trkpt>
      <trkpt lat="48.569214" lon="16.574039">
        <ele>242.438853</ele>
        <time>2020-08-20T05:38:38.573Z</time>
      </trkpt>
      <trkpt lat="48.569303" lon="16.574000">
        <ele>242.463390</ele>
        <time>2020-08-20T05:38:40.562Z</time>
      </trkpt>
      <trkpt lat="48.569395" lon="16.573960">
        <ele>242.488739</ele>
        <time>2020-08-20T05:38:42.559Z</time>
      </trkpt>
      <trkpt lat="48.569495" lon="16.573915">
        <ele>242.516368</ele>
        <time>2020-08-20T05:38:44.558Z</time>
      </trkpt>
      <trkpt lat="48.569585" lon="16.573873">
        <ele>242.544883</ele>
        <time>2020-08-20T05:38:46.563Z</time>
      </trkpt>
      <trkpt lat="48.569667" lon="16.573762">
        <ele>242.579421</ele>
        <time>2020-08-20T05:38:53.562Z</time>
      </trkpt>
      <trkpt lat="48.569679" lon="16.573609">
        <ele>242.611406</ele>
        <time>2020-08-20T05:38:56.566Z</time>
      </trkpt>
      <trkpt lat="48.569663" lon="16.573431">
        <ele>242.648699</ele>
        <time>2020-08-20T05:38:59.554Z</time>
      </trkpt>
      <trkpt lat="48.569655" lon="16.573232">
        <ele>242.690088</ele>
        <time>2020-08-20T05:39:02.613Z</time>
      </trkpt>
      <trkpt lat="48.569659" lon="16.573029">
        <ele>242.732250</ele>
        <time>2020-08-20T05:39:05.575Z</time>
      </trkpt>
      <trkpt lat="48.569662" lon="16.572862">
        <ele>242.766932</ele>
        <time>2020-08-20T05:39:08.575Z</time>
      </trkpt>
      <trkpt lat="48.569649" lon="16.572701">
        <ele>242.800604</ele>
        <time>2020-08-20T05:39:11.559Z</time>
      </trkpt>
      <trkpt lat="48.569652" lon="16.572550">
        <ele>242.831966</ele>
        <time>2020-08-20T05:39:14.546Z</time>
      </trkpt>
      <trkpt lat="48.569636" lon="16.572392">
        <ele>242.865149</ele>
        <time>2020-08-20T05:39:19.560Z</time>
      </trkpt>
      <trkpt lat="48.569606" lon="16.572245">
        <ele>242.897085</ele>
        <time>2020-08-20T05:39:24.561Z</time>
      </trkpt>
      <trkpt lat="48.569689" lon="16.572191">
        <ele>242.925436</ele>
        <time>2020-08-20T05:39:36.593Z</time>
      </trkpt>
      <trkpt lat="48.569781" lon="16.572212">
        <ele>242.954627</ele>
        <time>2020-08-20T05:39:39.544Z</time>
      </trkpt>
      <trkpt lat="48.569889" lon="16.572221">
        <ele>242.988562</ele>
        <time>2020-08-20T05:39:43.558Z</time>
      </trkpt>
      <trkpt lat="48.570039" lon="16.572243">
        <ele>243.035844</ele>
        <time>2020-08-20T05:40:15.556Z</time>
      </trkpt>
      <trkpt lat="48.570152" lon="16.572270">
        <ele>243.071736</ele>
        <time>2020-08-20T05:40:18.541Z</time>
      </trkpt>
      <trkpt lat="48.570260" lon="16.572294">
        <ele>243.097265</ele>
        <time>2020-08-20T05:40:21.555Z</time>
      </trkpt>
      <trkpt lat="48.570369" lon="16.572233">
        <ele>243.117598</ele>
        <time>2020-08-20T05:40:25.555Z</time>
      </trkpt>
      <trkpt lat="48.570386" lon="16.572085">
        <ele>243.134986</ele>
        <time>2020-08-20T05:40:28.556Z</time>
      </trkpt>
      <trkpt lat="48.570369" lon="16.571932">
        <ele>243.152945</ele>
        <time>2020-08-20T05:40:31.556Z</time>
      </trkpt>
      <trkpt lat="48.570277" lon="16.571846">
        <ele>243.171869</ele>
        <time>2020-08-20T05:40:34.562Z</time>
      </trkpt>
      <trkpt lat="48.570146" lon="16.571838">
        <ele>243.194804</ele>
        <time>2020-08-20T05:40:37.572Z</time>
      </trkpt>
      <trkpt lat="48.570054" lon="16.571828">
        <ele>243.210940</ele>
        <time>2020-08-20T05:40:39.552Z</time>
      </trkpt>
      <trkpt lat="48.569956" lon="16.571815">
        <ele>243.228149</ele>
        <time>2020-08-20T05:40:41.556Z</time>
      </trkpt>
      <trkpt lat="48.569856" lon="16.571805">
        <ele>243.245681</ele>
        <time>2020-08-20T05:40:43.555Z</time>
      </trkpt>
      <trkpt lat="48.569754" lon="16.571790">
        <ele>243.263609</ele>
        <time>2020-08-20T05:40:45.565Z</time>
      </trkpt>
      <trkpt lat="48.569647" lon="16.571795">
        <ele>243.282336</ele>
        <time>2020-08-20T05:40:47.540Z</time>
      </trkpt>
      <trkpt lat="48.569543" lon="16.571799">
        <ele>243.300535</ele>
        <time>2020-08-20T05:40:49.559Z</time>
      </trkpt>
      <trkpt lat="48.569445" lon="16.571784">
        <ele>243.317767</ele>
        <time>2020-08-20T05:40:51.576Z</time>
      </trkpt>
      <trkpt lat="48.569342" lon="16.571780">
        <ele>243.335791</ele>
        <time>2020-08-20T05:40:53.551Z</time>
      </trkpt>
      <trkpt lat="48.569236" lon="16.571781">
        <ele>243.354334</ele>
        <time>2020-08-20T05:40:55.568Z</time>
      </trkpt>
      <trkpt lat="48.569133" lon="16.571781">
        <ele>243.372353</ele>
        <time>2020-08-20T05:40:57.543Z</time>
      </trkpt>
      <trkpt lat="48.569026" lon="16.571785">
        <ele>243.391077</ele>
        <time>2020-08-20T05:40:59.560Z</time>
      </trkpt>
      <trkpt lat="48.568917" lon="16.571790">
        <ele>243.463973</ele>
        <time>2020-08-20T05:41:01.548Z</time>
      </trkpt>
      <trkpt lat="48.568810" lon="16.571794">
        <ele>243.591868</ele>
        <time>2020-08-20T05:41:03.557Z</time>
      </trkpt>
      <trkpt lat="48.568705" lon="16.571796">
        <ele>243.717343</ele>
        <time>2020-08-20T05:41:05.573Z</time>
      </trkpt>
      <trkpt lat="48.568599" lon="16.571806">
        <ele>243.844251</ele>
        <time>2020-08-20T05:41:07.563Z</time>
      </trkpt>
      <trkpt lat="48.568501" lon="16.571810">
        <ele>243.961395</ele>
        <time>2020-08-20T05:41:09.560Z</time>
      </trkpt>
      <trkpt lat="48.568398" lon="16.571740">
        <ele>244.096344</ele>
        <time>2020-08-20T05:41:12.563Z</time>
      </trkpt>
      <trkpt lat="48.568361" lon="16.571561">
        <ele>244.244624</ele>
        <time>2020-08-20T05:41:15.561Z</time>
      </trkpt>
      <trkpt lat="48.568320" lon="16.571387">
        <ele>244.390669</ele>
        <time>2020-08-20T05:41:18.591Z</time>
      </trkpt>
      <trkpt lat="48.568269" lon="16.571221">
        <ele>244.535384</ele>
        <time>2020-08-20T05:41:21.546Z</time>
      </trkpt>
      <trkpt lat="48.568210" lon="16.571075">
        <ele>244.670651</ele>
        <time>2020-08-20T05:41:24.559Z</time>
      </trkpt>
      <trkpt lat="48.568196" lon="16.570933">
        <ele>244.784171</ele>
        <time>2020-08-20T05:41:27.554Z</time>
      </trkpt>
      <trkpt lat="48.568224" lon="16.570867">
        <ele>244.846162</ele>
        <time>2020-08-20T05:41:46.871Z</time>
      </trkpt>
      <trkpt lat="48.568141" lon="16.570748">
        <ele>244.982873</ele>
        <time>2020-08-20T05:43:05.565Z</time>
      </trkpt>
      <trkpt lat="48.568042" lon="16.570780">
        <ele>245.103845</ele>
        <time>2020-08-20T05:43:11.572Z</time>
      </trkpt>
      <trkpt lat="48.567924" lon="16.570754">
        <ele>245.246335</ele>
        <time>2020-08-20T05:43:15.574Z</time>
      </trkpt>
      <trkpt lat="48.567883" lon="16.570591">
        <ele>245.384219</ele>
        <time>2020-08-20T05:43:19.560Z</time>
      </trkpt>
      <trkpt lat="48.567861" lon="16.570419">
        <ele>245.522738</ele>
        <time>2020-08-20T05:43:22.587Z</time>
      </trkpt>
      <trkpt lat="48.567828" lon="16.570242">
        <ele>245.668368</ele>
        <time>2020-08-20T05:43:25.571Z</time>
      </trkpt>
      <trkpt lat="48.567800" lon="16.570060">
        <ele>245.816397</ele>
        <time>2020-08-20T05:43:28.557Z</time>
      </trkpt>
      <trkpt lat="48.567778" lon="16.569896">
        <ele>245.948964</ele>
        <time>2020-08-20T05:43:31.554Z</time>
      </trkpt>
      <trkpt lat="48.567739" lon="16.569728">
        <ele>246.090009</ele>
        <time>2020-08-20T05:43:34.565Z</time>
      </trkpt>
      <trkpt lat="48.567726" lon="16.569592">
        <ele>246.198870</ele>
        <time>2020-08-20T05:43:37.558Z</time>
      </trkpt>
      <trkpt lat="48.567699" lon="16.569429">
        <ele>246.331986</ele>
        <time>2020-08-20T05:43:41.575Z</time>
      </trkpt>
      <trkpt lat="48.567669" lon="16.569266">
        <ele>246.466019</ele>
        <time>2020-08-20T05:43:45.602Z</time>
      </trkpt>
      <trkpt lat="48.567655" lon="16.569117">
        <ele>246.585244</ele>
        <time>2020-08-20T05:43:49.574Z</time>
      </trkpt>
      <trkpt lat="48.567641" lon="16.568970">
        <ele>246.702901</ele>
        <time>2020-08-20T05:43:53.568Z</time>
      </trkpt>
      <trkpt lat="48.567625" lon="16.568807">
        <ele>246.833446</ele>
        <time>2020-08-20T05:43:58.565Z</time>
      </trkpt>
      <trkpt lat="48.567596" lon="16.568660">
        <ele>246.954968</ele>
        <time>2020-08-20T05:44:03.560Z</time>
      </trkpt>
      <trkpt lat="48.567535" lon="16.568552">
        <ele>247.067457</ele>
        <time>2020-08-20T05:44:07.568Z</time>
      </trkpt>
      <trkpt lat="48.567455" lon="16.568424">
        <ele>247.206941</ele>
        <time>2020-08-20T05:44:11.568Z</time>
      </trkpt>
      <trkpt lat="48.567395" lon="16.568307">
        <ele>247.324206</ele>
        <time>2020-08-20T05:44:14.560Z</time>
      </trkpt>
      <trkpt lat="48.567401" lon="16.568158">
        <ele>247.442466</ele>
        <time>2020-08-20T05:44:18.570Z</time>
      </trkpt>
      <trkpt lat="48.567344" lon="16.568047">
        <ele>247.553775</ele>
        <time>2020-08-20T05:44:21.610Z</time>
      </trkpt>
      <trkpt lat="48.567264" lon="16.567910">
        <ele>247.698525</ele>
        <time>2020-08-20T05:44:24.581Z</time>
      </trkpt>
      <trkpt lat="48.567204" lon="16.567802">
        <ele>247.797068</ele>
        <time>2020-08-20T05:44:26.562Z</time>
      </trkpt>
      <trkpt lat="48.567144" lon="16.567692">
        <ele>247.896070</ele>
        <time>2020-08-20T05:44:28.559Z</time>
      </trkpt>
      <trkpt lat="48.567084" lon="16.567576">
        <ele>247.998322</ele>
        <time>2020-08-20T05:44:30.592Z</time>
      </trkpt>
      <trkpt lat="48.567022" lon="16.567455">
        <ele>248.104603</ele>
        <time>2020-08-20T05:44:32.564Z</time>
      </trkpt>
      <trkpt lat="48.566958" lon="16.567336">
        <ele>248.211101</ele>
        <time>2020-08-20T05:44:34.571Z</time>
      </trkpt>
      <trkpt lat="48.566891" lon="16.567217">
        <ele>248.319613</ele>
        <time>2020-08-20T05:44:36.595Z</time>
      </trkpt>
      <trkpt lat="48.566828" lon="16.567109">
        <ele>248.419601</ele>
        <time>2020-08-20T05:44:38.608Z</time>
      </trkpt>
      <trkpt lat="48.566760" lon="16.567013">
        <ele>248.517265</ele>
        <time>2020-08-20T05:44:40.555Z</time>
      </trkpt>
      <trkpt lat="48.566682" lon="16.566864">
        <ele>248.649210</ele>
        <time>2020-08-20T05:44:43.575Z</time>
      </trkpt>
      <trkpt lat="48.566608" lon="16.566733">
        <ele>248.768830</ele>
        <time>2020-08-20T05:44:46.555Z</time>
      </trkpt>
      <trkpt lat="48.566540" lon="16.566633">
        <ele>248.868412</ele>
        <time>2020-08-20T05:44:48.580Z</time>
      </trkpt>
      <trkpt lat="48.566481" lon="16.566524">
        <ele>248.966212</ele>
        <time>2020-08-20T05:44:50.564Z</time>
      </trkpt>
      <trkpt lat="48.566425" lon="16.566409">
        <ele>249.065374</ele>
        <time>2020-08-20T05:44:52.575Z</time>
      </trkpt>
      <trkpt lat="48.566373" lon="16.566296">
        <ele>249.160963</ele>
        <time>2020-08-20T05:44:54.556Z</time>
      </trkpt>
      <trkpt lat="48.566327" lon="16.566175">
        <ele>249.257879</ele>
        <time>2020-08-20T05:44:56.571Z</time>
      </trkpt>
      <trkpt lat="48.566280" lon="16.566054">
        <ele>249.355322</ele>
        <time>2020-08-20T05:44:58.564Z</time>
      </trkpt>
      <trkpt lat="48.566235" lon="16.565936">
        <ele>249.449908</ele>
        <time>2020-08-20T05:45:00.565Z</time>
      </trkpt>
      <trkpt lat="48.566189" lon="16.565818">
        <ele>249.545023</ele>
        <time>2020-08-20T05:45:02.577Z</time>
      </trkpt>
      <trkpt lat="48.566115" lon="16.565665">
        <ele>249.624639</ele>
        <time>2020-08-20T05:45:05.552Z</time>
      </trkpt>
      <trkpt lat="48.566012" lon="16.565610">
        <ele>249.669563</ele>
        <time>2020-08-20T05:45:08.560Z</time>
      </trkpt>
      <trkpt lat="48.565944" lon="16.565468">
        <ele>249.717263</ele>
        <time>2020-08-20T05:45:11.559Z</time>
      </trkpt>
      <trkpt lat="48.565870" lon="16.565314">
        <ele>249.769055</ele>
        <time>2020-08-20T05:45:14.566Z</time>
      </trkpt>
      <trkpt lat="48.565796" lon="16.565156">
        <ele>249.821733</ele>
        <time>2020-08-20T05:45:17.563Z</time>
      </trkpt>
      <trkpt lat="48.565763" lon="16.565017">
        <ele>249.861921</ele>
        <time>2020-08-20T05:45:19.560Z</time>
      </trkpt>
      <trkpt lat="48.565730" lon="16.564882">
        <ele>249.901086</ele>
        <time>2020-08-20T05:45:21.561Z</time>
      </trkpt>
      <trkpt lat="48.565688" lon="16.564746">
        <ele>249.941928</ele>
        <time>2020-08-20T05:45:23.552Z</time>
      </trkpt>
      <trkpt lat="48.565644" lon="16.564619">
        <ele>249.980940</ele>
        <time>2020-08-20T05:45:25.552Z</time>
      </trkpt>
      <trkpt lat="48.565598" lon="16.564491">
        <ele>250.020579</ele>
        <time>2020-08-20T05:45:27.567Z</time>
      </trkpt>
      <trkpt lat="48.565546" lon="16.564360">
        <ele>250.062151</ele>
        <time>2020-08-20T05:45:29.556Z</time>
      </trkpt>
      <trkpt lat="48.565493" lon="16.564227">
        <ele>250.104402</ele>
        <time>2020-08-20T05:45:31.572Z</time>
      </trkpt>
      <trkpt lat="48.565431" lon="16.564110">
        <ele>250.145192</ele>
        <time>2020-08-20T05:45:33.573Z</time>
      </trkpt>
      <trkpt lat="48.565339" lon="16.564104">
        <ele>250.183061</ele>
        <time>2020-08-20T05:45:35.572Z</time>
      </trkpt>
      <trkpt lat="48.565236" lon="16.564166">
        <ele>250.228655</ele>
        <time>2020-08-20T05:45:37.568Z</time>
      </trkpt>
      <trkpt lat="48.565118" lon="16.564231">
        <ele>250.280305</ele>
        <time>2020-08-20T05:45:39.558Z</time>
      </trkpt>
      <trkpt lat="48.564985" lon="16.564322">
        <ele>250.332358</ele>
        <time>2020-08-20T05:45:41.564Z</time>
      </trkpt>
      <trkpt lat="48.564842" lon="16.564413">
        <ele>250.342770</ele>
        <time>2020-08-20T05:45:43.569Z</time>
      </trkpt>
      <trkpt lat="48.564711" lon="16.564487">
        <ele>250.352155</ele>
        <time>2020-08-20T05:45:45.560Z</time>
      </trkpt>
      <trkpt lat="48.564611" lon="16.564547">
        <ele>250.359375</ele>
        <time>2020-08-20T05:45:47.583Z</time>
      </trkpt>
      <trkpt lat="48.564503" lon="16.564573">
        <ele>250.366713</ele>
        <time>2020-08-20T05:45:51.560Z</time>
      </trkpt>
      <trkpt lat="48.564423" lon="16.564454">
        <ele>250.374246</ele>
        <time>2020-08-20T05:45:54.567Z</time>
      </trkpt>
      <trkpt lat="48.564331" lon="16.564312">
        <ele>250.383071</ele>
        <time>2020-08-20T05:45:57.579Z</time>
      </trkpt>
      <trkpt lat="48.564263" lon="16.564221">
        <ele>250.389167</ele>
        <time>2020-08-20T05:45:59.573Z</time>
      </trkpt>
      <trkpt lat="48.564191" lon="16.564132">
        <ele>250.395409</ele>
        <time>2020-08-20T05:46:01.575Z</time>
      </trkpt>
      <trkpt lat="48.564119" lon="16.564041">
        <ele>250.401708</ele>
        <time>2020-08-20T05:46:03.592Z</time>
      </trkpt>
      <trkpt lat="48.564051" lon="16.563946">
        <ele>250.407922</ele>
        <time>2020-08-20T05:46:05.577Z</time>
      </trkpt>
      <trkpt lat="48.563982" lon="16.563845">
        <ele>250.414368</ele>
        <time>2020-08-20T05:46:07.569Z</time>
      </trkpt>
      <trkpt lat="48.563914" lon="16.563742">
        <ele>250.420829</ele>
        <time>2020-08-20T05:46:09.605Z</time>
      </trkpt>
      <trkpt lat="48.563845" lon="16.563640">
        <ele>250.427307</ele>
        <time>2020-08-20T05:46:11.574Z</time>
      </trkpt>
      <trkpt lat="48.563772" lon="16.563541">
        <ele>250.433889</ele>
        <time>2020-08-20T05:46:13.571Z</time>
      </trkpt>
      <trkpt lat="48.563697" lon="16.563435">
        <ele>250.440780</ele>
        <time>2020-08-20T05:46:15.597Z</time>
      </trkpt>
      <trkpt lat="48.563625" lon="16.563324">
        <ele>250.447683</ele>
        <time>2020-08-20T05:46:17.569Z</time>
      </trkpt>
      <trkpt lat="48.563552" lon="16.563216">
        <ele>250.428282</ele>
        <time>2020-08-20T05:46:19.579Z</time>
      </trkpt>
      <trkpt lat="48.563472" lon="16.563114">
        <ele>250.374659</ele>
        <time>2020-08-20T05:46:21.567Z</time>
      </trkpt>
      <trkpt lat="48.563393" lon="16.563014">
        <ele>250.321865</ele>
        <time>2020-08-20T05:46:23.578Z</time>
      </trkpt>
      <trkpt lat="48.563315" lon="16.562904">
        <ele>250.267208</ele>
        <time>2020-08-20T05:46:25.576Z</time>
      </trkpt>
      <trkpt lat="48.563234" lon="16.562797">
        <ele>250.212092</ele>
        <time>2020-08-20T05:46:27.557Z</time>
      </trkpt>
      <trkpt lat="48.563159" lon="16.562691">
        <ele>250.159483</ele>
        <time>2020-08-20T05:46:29.583Z</time>
      </trkpt>
      <trkpt lat="48.563083" lon="16.562582">
        <ele>250.105805</ele>
        <time>2020-08-20T05:46:31.568Z</time>
      </trkpt>
      <trkpt lat="48.563002" lon="16.562478">
        <ele>250.051353</ele>
        <time>2020-08-20T05:46:33.585Z</time>
      </trkpt>
      <trkpt lat="48.562921" lon="16.562375">
        <ele>249.997120</ele>
        <time>2020-08-20T05:46:35.561Z</time>
      </trkpt>
      <trkpt lat="48.562839" lon="16.562270">
        <ele>249.942058</ele>
        <time>2020-08-20T05:46:37.565Z</time>
      </trkpt>
      <trkpt lat="48.562761" lon="16.562160">
        <ele>249.887400</ele>
        <time>2020-08-20T05:46:39.580Z</time>
      </trkpt>
      <trkpt lat="48.562686" lon="16.562054">
        <ele>249.834791</ele>
        <time>2020-08-20T05:46:41.586Z</time>
      </trkpt>
      <trkpt lat="48.562609" lon="16.561947">
        <ele>249.781201</ele>
        <time>2020-08-20T05:46:43.566Z</time>
      </trkpt>
      <trkpt lat="48.562544" lon="16.561832">
        <ele>249.729928</ele>
        <time>2020-08-20T05:46:45.569Z</time>
      </trkpt>
      <trkpt lat="48.562487" lon="16.561724">
        <ele>249.683095</ele>
        <time>2020-08-20T05:46:47.571Z</time>
      </trkpt>
      <trkpt lat="48.562425" lon="16.561580">
        <ele>249.624852</ele>
        <time>2020-08-20T05:46:50.567Z</time>
      </trkpt>
      <trkpt lat="48.562372" lon="16.561460">
        <ele>249.575941</ele>
        <time>2020-08-20T05:46:53.586Z</time>
      </trkpt>
      <trkpt lat="48.562309" lon="16.561340">
        <ele>249.525965</ele>
        <time>2020-08-20T05:46:56.568Z</time>
      </trkpt>
      <trkpt lat="48.562234" lon="16.561195">
        <ele>249.483662</ele>
        <time>2020-08-20T05:46:59.589Z</time>
      </trkpt>
      <trkpt lat="48.562167" lon="16.561090">
        <ele>249.450135</ele>
        <time>2020-08-20T05:47:01.568Z</time>
      </trkpt>
      <trkpt lat="48.562095" lon="16.560980">
        <ele>249.414572</ele>
        <time>2020-08-20T05:47:03.587Z</time>
      </trkpt>
      <trkpt lat="48.562021" lon="16.560862">
        <ele>249.377204</ele>
        <time>2020-08-20T05:47:05.576Z</time>
      </trkpt>
      <trkpt lat="48.561957" lon="16.560733">
        <ele>249.340144</ele>
        <time>2020-08-20T05:47:07.556Z</time>
      </trkpt>
      <trkpt lat="48.561917" lon="16.560594">
        <ele>249.305303</ele>
        <time>2020-08-20T05:47:09.590Z</time>
      </trkpt>
      <trkpt lat="48.561881" lon="16.560467">
        <ele>249.273545</ele>
        <time>2020-08-20T05:47:11.561Z</time>
      </trkpt>
      <trkpt lat="48.561819" lon="16.560287">
        <ele>249.226900</ele>
        <time>2020-08-20T05:47:14.567Z</time>
      </trkpt>
      <trkpt lat="48.561786" lon="16.560159">
        <ele>249.195323</ele>
        <time>2020-08-20T05:47:16.590Z</time>
      </trkpt>
      <trkpt lat="48.561757" lon="16.560027">
        <ele>249.163353</ele>
        <time>2020-08-20T05:47:18.575Z</time>
      </trkpt>
      <trkpt lat="48.561726" lon="16.559888">
        <ele>249.129636</ele>
        <time>2020-08-20T05:47:20.585Z</time>
      </trkpt>
      <trkpt lat="48.561698" lon="16.559754">
        <ele>249.097334</ele>
        <time>2020-08-20T05:47:22.585Z</time>
      </trkpt>
      <trkpt lat="48.561679" lon="16.559620">
        <ele>249.065833</ele>
        <time>2020-08-20T05:47:24.569Z</time>
      </trkpt>
      <trkpt lat="48.561743" lon="16.559457">
        <ele>249.022267</ele>
        <time>2020-08-20T05:47:27.570Z</time>
      </trkpt>
      <trkpt lat="48.561828" lon="16.559372">
        <ele>248.986864</ele>
        <time>2020-08-20T05:47:29.557Z</time>
      </trkpt>
      <trkpt lat="48.561880" lon="16.559246">
        <ele>248.952730</ele>
        <time>2020-08-20T05:47:31.573Z</time>
      </trkpt>
      <trkpt lat="48.561925" lon="16.559113">
        <ele>248.918394</ele>
        <time>2020-08-20T05:47:33.561Z</time>
      </trkpt>
      <trkpt lat="48.561971" lon="16.558983">
        <ele>248.889409</ele>
        <time>2020-08-20T05:47:35.572Z</time>
      </trkpt>
      <trkpt lat="48.562015" lon="16.558846">
        <ele>248.862632</ele>
        <time>2020-08-20T05:47:37.565Z</time>
      </trkpt>
      <trkpt lat="48.562055" lon="16.558710">
        <ele>248.836463</ele>
        <time>2020-08-20T05:47:39.560Z</time>
      </trkpt>
      <trkpt lat="48.562100" lon="16.558574">
        <ele>248.809726</ele>
        <time>2020-08-20T05:47:41.602Z</time>
      </trkpt>
      <trkpt lat="48.562143" lon="16.558439">
        <ele>248.783382</ele>
        <time>2020-08-20T05:47:43.572Z</time>
      </trkpt>
      <trkpt lat="48.562188" lon="16.558302">
        <ele>248.756488</ele>
        <time>2020-08-20T05:47:45.573Z</time>
      </trkpt>
      <trkpt lat="48.562230" lon="16.558165">
        <ele>248.729939</ele>
        <time>2020-08-20T05:47:47.573Z</time>
      </trkpt>
      <trkpt lat="48.562272" lon="16.558037">
        <ele>248.704817</ele>
        <time>2020-08-20T05:47:49.574Z</time>
      </trkpt>
      <trkpt lat="48.562298" lon="16.557855">
        <ele>248.672078</ele>
        <time>2020-08-20T05:47:52.580Z</time>
      </trkpt>
      <trkpt lat="48.562209" lon="16.557725">
        <ele>248.639188</ele>
        <time>2020-08-20T05:47:55.573Z</time>
      </trkpt>
      <trkpt lat="48.562102" lon="16.557632">
        <ele>248.606391</ele>
        <time>2020-08-20T05:47:58.564Z</time>
      </trkpt>
      <trkpt lat="48.561994" lon="16.557537">
        <ele>248.573188</ele>
        <time>2020-08-20T05:48:01.575Z</time>
      </trkpt>
      <trkpt lat="48.561888" lon="16.557438">
        <ele>248.540079</ele>
        <time>2020-08-20T05:48:04.560Z</time>
      </trkpt>
      <trkpt lat="48.561776" lon="16.557334">
        <ele>248.505151</ele>
        <time>2020-08-20T05:48:07.573Z</time>
      </trkpt>
      <trkpt lat="48.561672" lon="16.557208">
        <ele>248.469733</ele>
        <time>2020-08-20T05:48:10.573Z</time>
      </trkpt>
      <trkpt lat="48.561606" lon="16.557029">
        <ele>248.433703</ele>
        <time>2020-08-20T05:48:13.582Z</time>
      </trkpt>
      <trkpt lat="48.561604" lon="16.556882">
        <ele>248.399132</ele>
        <time>2020-08-20T05:48:15.563Z</time>
      </trkpt>
      <trkpt lat="48.561627" lon="16.556744">
        <ele>248.362991</ele>
        <time>2020-08-20T05:48:17.565Z</time>
      </trkpt>
      <trkpt lat="48.561678" lon="16.556613">
        <ele>248.324393</ele>
        <time>2020-08-20T05:48:19.561Z</time>
      </trkpt>
      <trkpt lat="48.561719" lon="16.556480">
        <ele>248.287132</ele>
        <time>2020-08-20T05:48:21.595Z</time>
      </trkpt>
      <trkpt lat="48.561746" lon="16.556337">
        <ele>248.249366</ele>
        <time>2020-08-20T05:48:23.579Z</time>
      </trkpt>
      <trkpt lat="48.561766" lon="16.556186">
        <ele>248.210258</ele>
        <time>2020-08-20T05:48:25.569Z</time>
      </trkpt>
      <trkpt lat="48.561775" lon="16.556035">
        <ele>248.171754</ele>
        <time>2020-08-20T05:48:27.567Z</time>
      </trkpt>
      <trkpt lat="48.561765" lon="16.555880">
        <ele>248.132204</ele>
        <time>2020-08-20T05:48:29.559Z</time>
      </trkpt>
      <trkpt lat="48.561751" lon="16.555725">
        <ele>248.092475</ele>
        <time>2020-08-20T05:48:31.570Z</time>
      </trkpt>
      <trkpt lat="48.561749" lon="16.555570">
        <ele>248.053103</ele>
        <time>2020-08-20T05:48:33.574Z</time>
      </trkpt>
      <trkpt lat="48.561767" lon="16.555424">
        <ele>248.015387</ele>
        <time>2020-08-20T05:48:35.573Z</time>
      </trkpt>
      <trkpt lat="48.561708" lon="16.555282">
        <ele>247.972807</ele>
        <time>2020-08-20T05:48:39.565Z</time>
      </trkpt>
      <trkpt lat="48.561618" lon="16.555242">
        <ele>247.936808</ele>
        <time>2020-08-20T05:48:42.564Z</time>
      </trkpt>
      <trkpt lat="48.561533" lon="16.555184">
        <ele>247.901018</ele>
        <time>2020-08-20T05:48:45.571Z</time>
      </trkpt>
      <trkpt lat="48.561486" lon="16.555036">
        <ele>247.859329</ele>
        <time>2020-08-20T05:48:48.552Z</time>
      </trkpt>
      <trkpt lat="48.561480" lon="16.554889">
        <ele>247.821925</ele>
        <time>2020-08-20T05:48:56.581Z</time>
      </trkpt>
      <trkpt lat="48.561472" lon="16.554710">
        <ele>247.776362</ele>
        <time>2020-08-20T05:49:00.607Z</time>
      </trkpt>
      <trkpt lat="48.561409" lon="16.554596">
        <ele>247.738644</ele>
        <time>2020-08-20T05:49:03.577Z</time>
      </trkpt>
      <trkpt lat="48.561294" lon="16.554627">
        <ele>247.694827</ele>
        <time>2020-08-20T05:49:06.582Z</time>
      </trkpt>
      <trkpt lat="48.561173" lon="16.554637">
        <ele>247.649405</ele>
        <time>2020-08-20T05:49:09.563Z</time>
      </trkpt>
      <trkpt lat="48.561044" lon="16.554662">
        <ele>247.600657</ele>
        <time>2020-08-20T05:49:12.564Z</time>
      </trkpt>
      <trkpt lat="48.560954" lon="16.554689">
        <ele>247.566264</ele>
        <time>2020-08-20T05:49:14.562Z</time>
      </trkpt>
      <trkpt lat="48.560864" lon="16.554716">
        <ele>247.531871</ele>
        <time>2020-08-20T05:49:16.586Z</time>
      </trkpt>
      <trkpt lat="48.560770" lon="16.554739">
        <ele>247.496179</ele>
        <time>2020-08-20T05:49:18.567Z</time>
      </trkpt>
      <trkpt lat="48.560677" lon="16.554766">
        <ele>247.460682</ele>
        <time>2020-08-20T05:49:20.585Z</time>
      </trkpt>
      <trkpt lat="48.560575" lon="16.554796">
        <ele>247.421733</ele>
        <time>2020-08-20T05:49:22.571Z</time>
      </trkpt>
      <trkpt lat="48.560482" lon="16.554832">
        <ele>247.385748</ele>
        <time>2020-08-20T05:49:24.569Z</time>
      </trkpt>
      <trkpt lat="48.560384" lon="16.554875">
        <ele>247.347498</ele>
        <time>2020-08-20T05:49:26.578Z</time>
      </trkpt>
      <trkpt lat="48.560284" lon="16.554914">
        <ele>247.308787</ele>
        <time>2020-08-20T05:49:28.577Z</time>
      </trkpt>
      <trkpt lat="48.560186" lon="16.554960">
        <ele>247.270322</ele>
        <time>2020-08-20T05:49:30.580Z</time>
      </trkpt>
      <trkpt lat="48.560085" lon="16.555017">
        <ele>247.229911</ele>
        <time>2020-08-20T05:49:32.560Z</time>
      </trkpt>
      <trkpt lat="48.559983" lon="16.555084">
        <ele>247.188222</ele>
        <time>2020-08-20T05:49:34.566Z</time>
      </trkpt>
      <trkpt lat="48.559884" lon="16.555153">
        <ele>247.147357</ele>
        <time>2020-08-20T05:49:36.560Z</time>
      </trkpt>
      <trkpt lat="48.559780" lon="16.555221">
        <ele>247.104881</ele>
        <time>2020-08-20T05:49:38.573Z</time>
      </trkpt>
      <trkpt lat="48.559678" lon="16.555293">
        <ele>247.062870</ele>
        <time>2020-08-20T05:49:40.566Z</time>
      </trkpt>
      <trkpt lat="48.559583" lon="16.555367">
        <ele>247.041392</ele>
        <time>2020-08-20T05:49:42.591Z</time>
      </trkpt>
      <trkpt lat="48.559481" lon="16.555450">
        <ele>247.018110</ele>
        <time>2020-08-20T05:49:44.578Z</time>
      </trkpt>
      <trkpt lat="48.559384" lon="16.555530">
        <ele>246.995902</ele>
        <time>2020-08-20T05:49:46.565Z</time>
      </trkpt>
      <trkpt lat="48.559287" lon="16.555612">
        <ele>246.973565</ele>
        <time>2020-08-20T05:49:48.576Z</time>
      </trkpt>
      <trkpt lat="48.559189" lon="16.555693">
        <ele>246.951117</ele>
        <time>2020-08-20T05:49:50.557Z</time>
      </trkpt>
      <trkpt lat="48.559088" lon="16.555770">
        <ele>246.928383</ele>
        <time>2020-08-20T05:49:52.569Z</time>
      </trkpt>
      <trkpt lat="48.558990" lon="16.555848">
        <ele>246.906123</ele>
        <time>2020-08-20T05:49:54.568Z</time>
      </trkpt>
      <trkpt lat="48.558893" lon="16.555923">
        <ele>246.884226</ele>
        <time>2020-08-20T05:49:56.578Z</time>
      </trkpt>
      <trkpt lat="48.558795" lon="16.555999">
        <ele>246.862089</ele>
        <time>2020-08-20T05:49:58.578Z</time>
      </trkpt>
      <trkpt lat="48.558700" lon="16.556076">
        <ele>246.840425</ele>
        <time>2020-08-20T05:50:00.590Z</time>
      </trkpt>
      <trkpt lat="48.558602" lon="16.556158">
        <ele>246.817912</ele>
        <time>2020-08-20T05:50:02.568Z</time>
      </trkpt>
      <trkpt lat="48.558507" lon="16.556238">
        <ele>246.796056</ele>
        <time>2020-08-20T05:50:04.583Z</time>
      </trkpt>
      <trkpt lat="48.558417" lon="16.556317">
        <ele>246.775139</ele>
        <time>2020-08-20T05:50:06.554Z</time>
      </trkpt>
      <trkpt lat="48.558320" lon="16.556396">
        <ele>246.752994</ele>
        <time>2020-08-20T05:50:08.572Z</time>
      </trkpt>
      <trkpt lat="48.558219" lon="16.556472">
        <ele>246.730319</ele>
        <time>2020-08-20T05:50:10.558Z</time>
      </trkpt>
      <trkpt lat="48.558124" lon="16.556543">
        <ele>246.709020</ele>
        <time>2020-08-20T05:50:12.584Z</time>
      </trkpt>
      <trkpt lat="48.558032" lon="16.556618">
        <ele>246.708526</ele>
        <time>2020-08-20T05:50:14.567Z</time>
      </trkpt>
      <trkpt lat="48.557943" lon="16.556687">
        <ele>246.718701</ele>
        <time>2020-08-20T05:50:16.563Z</time>
      </trkpt>
      <trkpt lat="48.557853" lon="16.556755">
        <ele>246.728936</ele>
        <time>2020-08-20T05:50:18.571Z</time>
      </trkpt>
      <trkpt lat="48.557765" lon="16.556822">
        <ele>246.738959</ele>
        <time>2020-08-20T05:50:20.555Z</time>
      </trkpt>
      <trkpt lat="48.557674" lon="16.556884">
        <ele>246.749113</ele>
        <time>2020-08-20T05:50:22.566Z</time>
      </trkpt>
      <trkpt lat="48.557586" lon="16.556950">
        <ele>246.759106</ele>
        <time>2020-08-20T05:50:24.571Z</time>
      </trkpt>
      <trkpt lat="48.557503" lon="16.557009">
        <ele>246.768436</ele>
        <time>2020-08-20T05:50:26.582Z</time>
      </trkpt>
      <trkpt lat="48.557384" lon="16.557096">
        <ele>246.781883</ele>
        <time>2020-08-20T05:50:29.568Z</time>
      </trkpt>
      <trkpt lat="48.557302" lon="16.557157">
        <ele>246.791180</ele>
        <time>2020-08-20T05:50:31.577Z</time>
      </trkpt>
      <trkpt lat="48.557217" lon="16.557214">
        <ele>246.800639</ele>
        <time>2020-08-20T05:50:33.559Z</time>
      </trkpt>
      <trkpt lat="48.557129" lon="16.557267">
        <ele>246.810275</ele>
        <time>2020-08-20T05:50:35.563Z</time>
      </trkpt>
      <trkpt lat="48.557045" lon="16.557318">
        <ele>246.819483</ele>
        <time>2020-08-20T05:50:37.583Z</time>
      </trkpt>
      <trkpt lat="48.556955" lon="16.557355">
        <ele>246.828970</ele>
        <time>2020-08-20T05:50:39.584Z</time>
      </trkpt>
      <trkpt lat="48.556863" lon="16.557350">
        <ele>246.838334</ele>
        <time>2020-08-20T05:50:41.574Z</time>
      </trkpt>
      <trkpt lat="48.556776" lon="16.557315">
        <ele>246.847491</ele>
        <time>2020-08-20T05:50:43.571Z</time>
      </trkpt>
      <trkpt lat="48.556655" lon="16.557220">
        <ele>246.861361</ele>
        <time>2020-08-20T05:50:46.570Z</time>
      </trkpt>
      <trkpt lat="48.556550" lon="16.557111">
        <ele>246.874319</ele>
        <time>2020-08-20T05:50:49.572Z</time>
      </trkpt>
      <trkpt lat="48.556460" lon="16.557131">
        <ele>246.883572</ele>
        <time>2020-08-20T05:50:51.575Z</time>
      </trkpt>
      <trkpt lat="48.556364" lon="16.557144">
        <ele>246.891083</ele>
        <time>2020-08-20T05:50:53.575Z</time>
      </trkpt>
      <trkpt lat="48.556271" lon="16.557094">
        <ele>246.898505</ele>
        <time>2020-08-20T05:50:55.572Z</time>
      </trkpt>
      <trkpt lat="48.556200" lon="16.556994">
        <ele>246.905804</ele>
        <time>2020-08-20T05:50:57.567Z</time>
      </trkpt>
      <trkpt lat="48.556118" lon="16.556847">
        <ele>246.915371</ele>
        <time>2020-08-20T05:51:00.568Z</time>
      </trkpt>
      <trkpt lat="48.556045" lon="16.556713">
        <ele>246.924009</ele>
        <time>2020-08-20T05:51:03.566Z</time>
      </trkpt>
      <trkpt lat="48.556069" lon="16.556506">
        <ele>246.934468</ele>
        <time>2020-08-20T05:51:06.557Z</time>
      </trkpt>
      <trkpt lat="48.556086" lon="16.556339">
        <ele>246.942877</ele>
        <time>2020-08-20T05:51:08.592Z</time>
      </trkpt>
      <trkpt lat="48.556108" lon="16.556175">
        <ele>246.951205</ele>
        <time>2020-08-20T05:51:10.569Z</time>
      </trkpt>
      <trkpt lat="48.556145" lon="16.556018">
        <ele>246.959499</ele>
        <time>2020-08-20T05:51:12.572Z</time>
      </trkpt>
      <trkpt lat="48.556188" lon="16.555868">
        <ele>246.967634</ele>
        <time>2020-08-20T05:51:14.573Z</time>
      </trkpt>
      <trkpt lat="48.556241" lon="16.555726">
        <ele>246.975747</ele>
        <time>2020-08-20T05:51:16.594Z</time>
      </trkpt>
      <trkpt lat="48.556306" lon="16.555592">
        <ele>246.984015</ele>
        <time>2020-08-20T05:51:18.580Z</time>
      </trkpt>
      <trkpt lat="48.556373" lon="16.555467">
        <ele>246.992021</ele>
        <time>2020-08-20T05:51:20.579Z</time>
      </trkpt>
      <trkpt lat="48.556446" lon="16.555349">
        <ele>247.000059</ele>
        <time>2020-08-20T05:51:22.558Z</time>
      </trkpt>
      <trkpt lat="48.556523" lon="16.555236">
        <ele>247.008130</ele>
        <time>2020-08-20T05:51:24.604Z</time>
      </trkpt>
      <trkpt lat="48.556602" lon="16.555121">
        <ele>247.016379</ele>
        <time>2020-08-20T05:51:26.562Z</time>
      </trkpt>
      <trkpt lat="48.556676" lon="16.555005">
        <ele>247.018033</ele>
        <time>2020-08-20T05:51:28.576Z</time>
      </trkpt>
      <trkpt lat="48.556747" lon="16.554891">
        <ele>247.014982</ele>
        <time>2020-08-20T05:51:30.562Z</time>
      </trkpt>
      <trkpt lat="48.556823" lon="16.554776">
        <ele>247.011814</ele>
        <time>2020-08-20T05:51:32.570Z</time>
      </trkpt>
      <trkpt lat="48.556898" lon="16.554661">
        <ele>247.008667</ele>
        <time>2020-08-20T05:51:34.570Z</time>
      </trkpt>
      <trkpt lat="48.556973" lon="16.554552">
        <ele>247.005603</ele>
        <time>2020-08-20T05:51:36.569Z</time>
      </trkpt>
      <trkpt lat="48.557048" lon="16.554443">
        <ele>247.002538</ele>
        <time>2020-08-20T05:51:38.568Z</time>
      </trkpt>
      <trkpt lat="48.557124" lon="16.554339">
        <ele>246.999518</ele>
        <time>2020-08-20T05:51:40.590Z</time>
      </trkpt>
      <trkpt lat="48.557198" lon="16.554231">
        <ele>246.996488</ele>
        <time>2020-08-20T05:51:42.568Z</time>
      </trkpt>
      <trkpt lat="48.557268" lon="16.554125">
        <ele>246.993569</ele>
        <time>2020-08-20T05:51:44.590Z</time>
      </trkpt>
      <trkpt lat="48.557341" lon="16.554021">
        <ele>246.990615</ele>
        <time>2020-08-20T05:51:46.592Z</time>
      </trkpt>
      <trkpt lat="48.557412" lon="16.553916">
        <ele>246.987689</ele>
        <time>2020-08-20T05:51:48.565Z</time>
      </trkpt>
      <trkpt lat="48.557485" lon="16.553810">
        <ele>246.984707</ele>
        <time>2020-08-20T05:51:50.567Z</time>
      </trkpt>
      <trkpt lat="48.557560" lon="16.553708">
        <ele>246.981735</ele>
        <time>2020-08-20T05:51:52.569Z</time>
      </trkpt>
      <trkpt lat="48.557638" lon="16.553607">
        <ele>246.978710</ele>
        <time>2020-08-20T05:51:54.604Z</time>
      </trkpt>
      <trkpt lat="48.557715" lon="16.553493">
        <ele>246.975535</ele>
        <time>2020-08-20T05:51:56.581Z</time>
      </trkpt>
      <trkpt lat="48.557793" lon="16.553379">
        <ele>246.972339</ele>
        <time>2020-08-20T05:51:58.562Z</time>
      </trkpt>
      <trkpt lat="48.557866" lon="16.553274">
        <ele>246.969371</ele>
        <time>2020-08-20T05:52:00.576Z</time>
      </trkpt>
      <trkpt lat="48.557942" lon="16.553169">
        <ele>246.966612</ele>
        <time>2020-08-20T05:52:02.561Z</time>
      </trkpt>
      <trkpt lat="48.558016" lon="16.553064">
        <ele>246.965209</ele>
        <time>2020-08-20T05:52:04.570Z</time>
      </trkpt>
      <trkpt lat="48.558098" lon="16.552954">
        <ele>246.963693</ele>
        <time>2020-08-20T05:52:06.575Z</time>
      </trkpt>
      <trkpt lat="48.558176" lon="16.552850">
        <ele>246.962255</ele>
        <time>2020-08-20T05:52:08.570Z</time>
      </trkpt>
      <trkpt lat="48.558247" lon="16.552741">
        <ele>246.960856</ele>
        <time>2020-08-20T05:52:10.572Z</time>
      </trkpt>
      <trkpt lat="48.558321" lon="16.552641">
        <ele>246.959483</ele>
        <time>2020-08-20T05:52:12.567Z</time>
      </trkpt>
      <trkpt lat="48.558392" lon="16.552536">
        <ele>246.958110</ele>
        <time>2020-08-20T05:52:14.577Z</time>
      </trkpt>
      <trkpt lat="48.558462" lon="16.552427">
        <ele>246.956721</ele>
        <time>2020-08-20T05:52:16.569Z</time>
      </trkpt>
      <trkpt lat="48.558521" lon="16.552311">
        <ele>246.955382</ele>
        <time>2020-08-20T05:52:18.577Z</time>
      </trkpt>
      <trkpt lat="48.558474" lon="16.552161">
        <ele>246.953864</ele>
        <time>2020-08-20T05:52:21.577Z</time>
      </trkpt>
      <trkpt lat="48.558378" lon="16.552052">
        <ele>246.952204</ele>
        <time>2020-08-20T05:52:24.557Z</time>
      </trkpt>
      <trkpt lat="48.558291" lon="16.551968">
        <ele>246.950777</ele>
        <time>2020-08-20T05:52:26.570Z</time>
      </trkpt>
      <trkpt lat="48.558194" lon="16.551868">
        <ele>246.949153</ele>
        <time>2020-08-20T05:52:28.587Z</time>
      </trkpt>
      <trkpt lat="48.558096" lon="16.551771">
        <ele>246.947534</ele>
        <time>2020-08-20T05:52:30.580Z</time>
      </trkpt>
      <trkpt lat="48.557998" lon="16.551679">
        <ele>246.945939</ele>
        <time>2020-08-20T05:52:32.600Z</time>
      </trkpt>
      <trkpt lat="48.557903" lon="16.551586">
        <ele>246.944374</ele>
        <time>2020-08-20T05:52:34.583Z</time>
      </trkpt>
      <trkpt lat="48.557811" lon="16.551497">
        <ele>246.942864</ele>
        <time>2020-08-20T05:52:36.582Z</time>
      </trkpt>
      <trkpt lat="48.557713" lon="16.551411">
        <ele>246.951055</ele>
        <time>2020-08-20T05:52:38.574Z</time>
      </trkpt>
      <trkpt lat="48.557612" lon="16.551329">
        <ele>246.971755</ele>
        <time>2020-08-20T05:52:40.555Z</time>
      </trkpt>
      <trkpt lat="48.557516" lon="16.551257">
        <ele>246.991105</ele>
        <time>2020-08-20T05:52:42.571Z</time>
      </trkpt>
      <trkpt lat="48.557445" lon="16.551138">
        <ele>247.010249</ele>
        <time>2020-08-20T05:52:44.564Z</time>
      </trkpt>
      <trkpt lat="48.557484" lon="16.551000">
        <ele>247.028180</ele>
        <time>2020-08-20T05:52:46.568Z</time>
      </trkpt>
      <trkpt lat="48.557566" lon="16.550916">
        <ele>247.046066</ele>
        <time>2020-08-20T05:52:48.613Z</time>
      </trkpt>
      <trkpt lat="48.557638" lon="16.550816">
        <ele>247.063722</ele>
        <time>2020-08-20T05:52:50.594Z</time>
      </trkpt>
      <trkpt lat="48.557711" lon="16.550710">
        <ele>247.082002</ele>
        <time>2020-08-20T05:52:52.584Z</time>
      </trkpt>
      <trkpt lat="48.557781" lon="16.550609">
        <ele>247.099476</ele>
        <time>2020-08-20T05:52:54.576Z</time>
      </trkpt>
      <trkpt lat="48.557852" lon="16.550505">
        <ele>247.117330</ele>
        <time>2020-08-20T05:52:56.578Z</time>
      </trkpt>
      <trkpt lat="48.557925" lon="16.550397">
        <ele>247.135775</ele>
        <time>2020-08-20T05:52:58.577Z</time>
      </trkpt>
      <trkpt lat="48.557995" lon="16.550287">
        <ele>247.154009</ele>
        <time>2020-08-20T05:53:00.562Z</time>
      </trkpt>
      <trkpt lat="48.558053" lon="16.550163">
        <ele>247.172153</ele>
        <time>2020-08-20T05:53:02.567Z</time>
      </trkpt>
      <trkpt lat="48.558101" lon="16.550041">
        <ele>247.189112</ele>
        <time>2020-08-20T05:53:04.572Z</time>
      </trkpt>
      <trkpt lat="48.558134" lon="16.549906">
        <ele>247.206309</ele>
        <time>2020-08-20T05:53:06.562Z</time>
      </trkpt>
      <trkpt lat="48.558158" lon="16.549773">
        <ele>247.222781</ele>
        <time>2020-08-20T05:53:09.592Z</time>
      </trkpt>
      <trkpt lat="48.558274" lon="16.549703">
        <ele>247.245332</ele>
        <time>2020-08-20T05:53:40.568Z</time>
      </trkpt>
      <trkpt lat="48.558339" lon="16.549859">
        <ele>247.267643</ele>
        <time>2020-08-20T05:53:43.581Z</time>
      </trkpt>
      <trkpt lat="48.558397" lon="16.549967">
        <ele>247.291612</ele>
        <time>2020-08-20T05:53:45.552Z</time>
      </trkpt>
      <trkpt lat="48.558456" lon="16.550069">
        <ele>247.314958</ele>
        <time>2020-08-20T05:53:47.562Z</time>
      </trkpt>
      <trkpt lat="48.558519" lon="16.550172">
        <ele>247.339128</ele>
        <time>2020-08-20T05:53:49.559Z</time>
      </trkpt>
      <trkpt lat="48.558576" lon="16.550284">
        <ele>247.363476</ele>
        <time>2020-08-20T05:53:51.553Z</time>
      </trkpt>
      <trkpt lat="48.558635" lon="16.550395">
        <ele>247.388011</ele>
        <time>2020-08-20T05:53:53.563Z</time>
      </trkpt>
      <trkpt lat="48.558706" lon="16.550498">
        <ele>247.413640</ele>
        <time>2020-08-20T05:53:55.576Z</time>
      </trkpt>
      <trkpt lat="48.558785" lon="16.550588">
        <ele>247.439403</ele>
        <time>2020-08-20T05:53:57.565Z</time>
      </trkpt>
      <trkpt lat="48.558871" lon="16.550660">
        <ele>247.465004</ele>
        <time>2020-08-20T05:53:59.566Z</time>
      </trkpt>
      <trkpt lat="48.558958" lon="16.550737">
        <ele>247.491258</ele>
        <time>2020-08-20T05:54:01.551Z</time>
      </trkpt>
      <trkpt lat="48.559043" lon="16.550819">
        <ele>247.517518</ele>
        <time>2020-08-20T05:54:03.593Z</time>
      </trkpt>
      <trkpt lat="48.559133" lon="16.550882">
        <ele>247.543345</ele>
        <time>2020-08-20T05:54:05.572Z</time>
      </trkpt>
      <trkpt lat="48.559234" lon="16.550830">
        <ele>247.571129</ele>
        <time>2020-08-20T05:54:07.556Z</time>
      </trkpt>
      <trkpt lat="48.559306" lon="16.550716">
        <ele>247.598285</ele>
        <time>2020-08-20T05:54:09.571Z</time>
      </trkpt>
      <trkpt lat="48.559379" lon="16.550604">
        <ele>247.625375</ele>
        <time>2020-08-20T05:54:11.555Z</time>
      </trkpt>
      <trkpt lat="48.559458" lon="16.550491">
        <ele>247.653702</ele>
        <time>2020-08-20T05:54:13.584Z</time>
      </trkpt>
      <trkpt lat="48.559540" lon="16.550381">
        <ele>247.682254</ele>
        <time>2020-08-20T05:54:15.578Z</time>
      </trkpt>
      <trkpt lat="48.559625" lon="16.550265">
        <ele>247.712079</ele>
        <time>2020-08-20T05:54:17.584Z</time>
      </trkpt>
      <trkpt lat="48.559702" lon="16.550153">
        <ele>247.744580</ele>
        <time>2020-08-20T05:54:19.593Z</time>
      </trkpt>
      <trkpt lat="48.559779" lon="16.550038">
        <ele>247.799919</ele>
        <time>2020-08-20T05:54:21.559Z</time>
      </trkpt>
      <trkpt lat="48.559861" lon="16.549920">
        <ele>247.857799</ele>
        <time>2020-08-20T05:54:23.564Z</time>
      </trkpt>
      <trkpt lat="48.559943" lon="16.549806">
        <ele>247.914754</ele>
        <time>2020-08-20T05:54:25.561Z</time>
      </trkpt>
      <trkpt lat="48.560024" lon="16.549697">
        <ele>247.970195</ele>
        <time>2020-08-20T05:54:27.574Z</time>
      </trkpt>
      <trkpt lat="48.560102" lon="16.549600">
        <ele>248.021830</ele>
        <time>2020-08-20T05:54:29.555Z</time>
      </trkpt>
      <trkpt lat="48.560186" lon="16.549536">
        <ele>248.069914</ele>
        <time>2020-08-20T05:54:31.579Z</time>
      </trkpt>
      <trkpt lat="48.560268" lon="16.549460">
        <ele>248.119084</ele>
        <time>2020-08-20T05:54:33.573Z</time>
      </trkpt>
      <trkpt lat="48.560353" lon="16.549361">
        <ele>248.173939</ele>
        <time>2020-08-20T05:54:35.579Z</time>
      </trkpt>
      <trkpt lat="48.560445" lon="16.549245">
        <ele>248.235185</ele>
        <time>2020-08-20T05:54:37.565Z</time>
      </trkpt>
      <trkpt lat="48.560538" lon="16.549117">
        <ele>248.299485</ele>
        <time>2020-08-20T05:54:39.561Z</time>
      </trkpt>
      <trkpt lat="48.560626" lon="16.549002">
        <ele>248.358954</ele>
        <time>2020-08-20T05:54:41.575Z</time>
      </trkpt>
      <trkpt lat="48.560707" lon="16.548873">
        <ele>248.419106</ele>
        <time>2020-08-20T05:54:43.576Z</time>
      </trkpt>
      <trkpt lat="48.560775" lon="16.548760">
        <ele>248.470771</ele>
        <time>2020-08-20T05:54:45.569Z</time>
      </trkpt>
      <trkpt lat="48.560860" lon="16.548621">
        <ele>248.534790</ele>
        <time>2020-08-20T05:54:48.559Z</time>
      </trkpt>
      <trkpt lat="48.560930" lon="16.548498">
        <ele>248.589666</ele>
        <time>2020-08-20T05:54:51.563Z</time>
      </trkpt>
      <trkpt lat="48.561011" lon="16.548363">
        <ele>248.651307</ele>
        <time>2020-08-20T05:54:54.566Z</time>
      </trkpt>
      <trkpt lat="48.561108" lon="16.548215">
        <ele>248.781713</ele>
        <time>2020-08-20T05:54:57.575Z</time>
      </trkpt>
      <trkpt lat="48.561179" lon="16.548117">
        <ele>248.874601</ele>
        <time>2020-08-20T05:54:59.559Z</time>
      </trkpt>
      <trkpt lat="48.561249" lon="16.548025">
        <ele>248.964215</ele>
        <time>2020-08-20T05:55:01.560Z</time>
      </trkpt>
      <trkpt lat="48.561319" lon="16.547934">
        <ele>249.053412</ele>
        <time>2020-08-20T05:55:03.610Z</time>
      </trkpt>
      <trkpt lat="48.561385" lon="16.547840">
        <ele>249.141020</ele>
        <time>2020-08-20T05:55:05.578Z</time>
      </trkpt>
      <trkpt lat="48.561455" lon="16.547746">
        <ele>249.231479</ele>
        <time>2020-08-20T05:55:07.602Z</time>
      </trkpt>
      <trkpt lat="48.561527" lon="16.547650">
        <ele>249.324231</ele>
        <time>2020-08-20T05:55:09.582Z</time>
      </trkpt>
      <trkpt lat="48.561597" lon="16.547552">
        <ele>249.416408</ele>
        <time>2020-08-20T05:55:11.578Z</time>
      </trkpt>
      <trkpt lat="48.561664" lon="16.547452">
        <ele>249.507375</ele>
        <time>2020-08-20T05:55:13.599Z</time>
      </trkpt>
      <trkpt lat="48.561731" lon="16.547356">
        <ele>249.596563</ele>
        <time>2020-08-20T05:55:15.565Z</time>
      </trkpt>
      <trkpt lat="48.561828" lon="16.547219">
        <ele>249.724816</ele>
        <time>2020-08-20T05:55:18.570Z</time>
      </trkpt>
      <trkpt lat="48.561896" lon="16.547127">
        <ele>249.812982</ele>
        <time>2020-08-20T05:55:20.559Z</time>
      </trkpt>
      <trkpt lat="48.561966" lon="16.547034">
        <ele>249.903017</ele>
        <time>2020-08-20T05:55:22.556Z</time>
      </trkpt>
      <trkpt lat="48.562037" lon="16.546937">
        <ele>249.995474</ele>
        <time>2020-08-20T05:55:24.568Z</time>
      </trkpt>
      <trkpt lat="48.562104" lon="16.546835">
        <ele>250.087344</ele>
        <time>2020-08-20T05:55:26.570Z</time>
      </trkpt>
      <trkpt lat="48.562173" lon="16.546734">
        <ele>250.180138</ele>
        <time>2020-08-20T05:55:28.584Z</time>
      </trkpt>
      <trkpt lat="48.562245" lon="16.546635">
        <ele>250.274170</ele>
        <time>2020-08-20T05:55:30.546Z</time>
      </trkpt>
      <trkpt lat="48.562317" lon="16.546540">
        <ele>250.366500</ele>
        <time>2020-08-20T05:55:32.590Z</time>
      </trkpt>
      <trkpt lat="48.562389" lon="16.546437">
        <ele>250.443424</ele>
        <time>2020-08-20T05:55:34.559Z</time>
      </trkpt>
      <trkpt lat="48.562457" lon="16.546329">
        <ele>250.513246</ele>
        <time>2020-08-20T05:55:36.575Z</time>
      </trkpt>
      <trkpt lat="48.562522" lon="16.546220">
        <ele>250.581968</ele>
        <time>2020-08-20T05:55:38.557Z</time>
      </trkpt>
      <trkpt lat="48.562585" lon="16.546110">
        <ele>250.650105</ele>
        <time>2020-08-20T05:55:40.581Z</time>
      </trkpt>
      <trkpt lat="48.562648" lon="16.545997">
        <ele>250.719310</ele>
        <time>2020-08-20T05:55:42.588Z</time>
      </trkpt>
      <trkpt lat="48.562708" lon="16.545880">
        <ele>250.788638</ele>
        <time>2020-08-20T05:55:44.562Z</time>
      </trkpt>
      <trkpt lat="48.562767" lon="16.545763">
        <ele>250.857534</ele>
        <time>2020-08-20T05:55:46.571Z</time>
      </trkpt>
      <trkpt lat="48.562819" lon="16.545637">
        <ele>250.927085</ele>
        <time>2020-08-20T05:55:48.583Z</time>
      </trkpt>
      <trkpt lat="48.562870" lon="16.545509">
        <ele>250.997065</ele>
        <time>2020-08-20T05:55:50.572Z</time>
      </trkpt>
      <trkpt lat="48.562919" lon="16.545376">
        <ele>251.068362</ele>
        <time>2020-08-20T05:55:52.563Z</time>
      </trkpt>
      <trkpt lat="48.562961" lon="16.545238">
        <ele>251.139506</ele>
        <time>2020-08-20T05:55:54.549Z</time>
      </trkpt>
      <trkpt lat="48.562993" lon="16.545089">
        <ele>251.212877</ele>
        <time>2020-08-20T05:55:56.582Z</time>
      </trkpt>
      <trkpt lat="48.563025" lon="16.544946">
        <ele>251.283581</ele>
        <time>2020-08-20T05:55:58.579Z</time>
      </trkpt>
      <trkpt lat="48.563056" lon="16.544797">
        <ele>251.356737</ele>
        <time>2020-08-20T05:56:00.555Z</time>
      </trkpt>
      <trkpt lat="48.563087" lon="16.544644">
        <ele>251.431682</ele>
        <time>2020-08-20T05:56:02.572Z</time>
      </trkpt>
      <trkpt lat="48.563113" lon="16.544497">
        <ele>251.502951</ele>
        <time>2020-08-20T05:56:04.566Z</time>
      </trkpt>
      <trkpt lat="48.563134" lon="16.544346">
        <ele>251.575221</ele>
        <time>2020-08-20T05:56:06.567Z</time>
      </trkpt>
      <trkpt lat="48.563152" lon="16.544197">
        <ele>251.646162</ele>
        <time>2020-08-20T05:56:08.566Z</time>
      </trkpt>
      <trkpt lat="48.563167" lon="16.544048">
        <ele>251.690900</ele>
        <time>2020-08-20T05:56:10.565Z</time>
      </trkpt>
      <trkpt lat="48.563181" lon="16.543901">
        <ele>251.725891</ele>
        <time>2020-08-20T05:56:12.553Z</time>
      </trkpt>
      <trkpt lat="48.563202" lon="16.543752">
        <ele>251.761783</ele>
        <time>2020-08-20T05:56:14.559Z</time>
      </trkpt>
      <trkpt lat="48.563226" lon="16.543601">
        <ele>251.798370</ele>
        <time>2020-08-20T05:56:16.568Z</time>
      </trkpt>
      <trkpt lat="48.563250" lon="16.543453">
        <ele>251.834271</ele>
        <time>2020-08-20T05:56:18.569Z</time>
      </trkpt>
      <trkpt lat="48.563272" lon="16.543305">
        <ele>251.870009</ele>
        <time>2020-08-20T05:56:20.579Z</time>
      </trkpt>
      <trkpt lat="48.563291" lon="16.543155">
        <ele>251.905991</ele>
        <time>2020-08-20T05:56:22.561Z</time>
      </trkpt>
      <trkpt lat="48.563309" lon="16.543000">
        <ele>251.943067</ele>
        <time>2020-08-20T05:56:24.603Z</time>
      </trkpt>
      <trkpt lat="48.563328" lon="16.542852">
        <ele>251.978586</ele>
        <time>2020-08-20T05:56:26.601Z</time>
      </trkpt>
      <trkpt lat="48.563347" lon="16.542708">
        <ele>252.013180</ele>
        <time>2020-08-20T05:56:28.572Z</time>
      </trkpt>
      <trkpt lat="48.563371" lon="16.542556">
        <ele>252.049997</ele>
        <time>2020-08-20T05:56:30.553Z</time>
      </trkpt>
      <trkpt lat="48.563394" lon="16.542408">
        <ele>252.085815</ele>
        <time>2020-08-20T05:56:32.604Z</time>
      </trkpt>
      <trkpt lat="48.563416" lon="16.542261">
        <ele>252.121323</ele>
        <time>2020-08-20T05:56:34.584Z</time>
      </trkpt>
      <trkpt lat="48.563436" lon="16.542117">
        <ele>252.155988</ele>
        <time>2020-08-20T05:56:36.572Z</time>
      </trkpt>
      <trkpt lat="48.563456" lon="16.541977">
        <ele>252.189732</ele>
        <time>2020-08-20T05:56:38.577Z</time>
      </trkpt>
      <trkpt lat="48.563474" lon="16.541838">
        <ele>252.223102</ele>
        <time>2020-08-20T05:56:40.569Z</time>
      </trkpt>
      <trkpt lat="48.563491" lon="16.541699">
        <ele>252.256405</ele>
        <time>2020-08-20T05:56:42.556Z</time>
      </trkpt>
      <trkpt lat="48.563512" lon="16.541565">
        <ele>252.288849</ele>
        <time>2020-08-20T05:56:44.575Z</time>
      </trkpt>
      <trkpt lat="48.563533" lon="16.541430">
        <ele>252.318802</ele>
        <time>2020-08-20T05:56:46.588Z</time>
      </trkpt>
      <trkpt lat="48.563551" lon="16.541291">
        <ele>252.346659</ele>
        <time>2020-08-20T05:56:48.574Z</time>
      </trkpt>
      <trkpt lat="48.563569" lon="16.541155">
        <ele>252.373938</ele>
        <time>2020-08-20T05:56:50.567Z</time>
      </trkpt>
      <trkpt lat="48.563587" lon="16.541018">
        <ele>252.401409</ele>
        <time>2020-08-20T05:56:52.577Z</time>
      </trkpt>
      <trkpt lat="48.563604" lon="16.540881">
        <ele>252.428824</ele>
        <time>2020-08-20T05:56:54.567Z</time>
      </trkpt>
      <trkpt lat="48.563619" lon="16.540746">
        <ele>252.455747</ele>
        <time>2020-08-20T05:56:56.582Z</time>
      </trkpt>
      <trkpt lat="48.563637" lon="16.540549">
        <ele>252.494861</ele>
        <time>2020-08-20T05:56:59.554Z</time>
      </trkpt>
      <trkpt lat="48.563649" lon="16.540370">
        <ele>252.530247</ele>
        <time>2020-08-20T05:57:02.580Z</time>
      </trkpt>
      <trkpt lat="48.563674" lon="16.540199">
        <ele>252.564690</ele>
        <time>2020-08-20T05:57:05.564Z</time>
      </trkpt>
      <trkpt lat="48.563728" lon="16.540090">
        <ele>252.591470</ele>
        <time>2020-08-20T05:57:07.566Z</time>
      </trkpt>
      <trkpt lat="48.563782" lon="16.539979">
        <ele>252.618566</ele>
        <time>2020-08-20T05:57:09.569Z</time>
      </trkpt>
      <trkpt lat="48.563825" lon="16.539853">
        <ele>252.646448</ele>
        <time>2020-08-20T05:57:11.606Z</time>
      </trkpt>
      <trkpt lat="48.563875" lon="16.539665">
        <ele>252.686298</ele>
        <time>2020-08-20T05:57:14.600Z</time>
      </trkpt>
      <trkpt lat="48.563906" lon="16.539532">
        <ele>252.714032</ele>
        <time>2020-08-20T05:57:16.587Z</time>
      </trkpt>
      <trkpt lat="48.563937" lon="16.539401">
        <ele>252.741395</ele>
        <time>2020-08-20T05:57:18.570Z</time>
      </trkpt>
      <trkpt lat="48.563970" lon="16.539263">
        <ele>252.770254</ele>
        <time>2020-08-20T05:57:20.570Z</time>
      </trkpt>
      <trkpt lat="48.564006" lon="16.539124">
        <ele>252.799611</ele>
        <time>2020-08-20T05:57:22.576Z</time>
      </trkpt>
      <trkpt lat="48.564043" lon="16.538987">
        <ele>252.828714</ele>
        <time>2020-08-20T05:57:24.561Z</time>
      </trkpt>
      <trkpt lat="48.564078" lon="16.538847">
        <ele>252.858434</ele>
        <time>2020-08-20T05:57:26.574Z</time>
      </trkpt>
      <trkpt lat="48.564106" lon="16.538714">
        <ele>252.886308</ele>
        <time>2020-08-20T05:57:28.586Z</time>
      </trkpt>
      <trkpt lat="48.564140" lon="16.538578">
        <ele>252.915343</ele>
        <time>2020-08-20T05:57:30.585Z</time>
      </trkpt>
      <trkpt lat="48.564178" lon="16.538443">
        <ele>252.944642</ele>
        <time>2020-08-20T05:57:32.605Z</time>
      </trkpt>
      <trkpt lat="48.564212" lon="16.538306">
        <ele>252.973864</ele>
        <time>2020-08-20T05:57:34.575Z</time>
      </trkpt>
      <trkpt lat="48.564244" lon="16.538168">
        <ele>253.003068</ele>
        <time>2020-08-20T05:57:36.547Z</time>
      </trkpt>
      <trkpt lat="48.564277" lon="16.538026">
        <ele>253.033125</ele>
        <time>2020-08-20T05:57:38.589Z</time>
      </trkpt>
      <trkpt lat="48.564308" lon="16.537883">
        <ele>253.063178</ele>
        <time>2020-08-20T05:57:40.579Z</time>
      </trkpt>
      <trkpt lat="48.564345" lon="16.537744">
        <ele>253.093100</ele>
        <time>2020-08-20T05:57:42.567Z</time>
      </trkpt>
      <trkpt lat="48.564381" lon="16.537605">
        <ele>253.122911</ele>
        <time>2020-08-20T05:57:44.566Z</time>
      </trkpt>
      <trkpt lat="48.564417" lon="16.537467">
        <ele>253.152535</ele>
        <time>2020-08-20T05:57:46.568Z</time>
      </trkpt>
      <trkpt lat="48.564448" lon="16.537329">
        <ele>253.181640</ele>
        <time>2020-08-20T05:57:48.565Z</time>
      </trkpt>
      <trkpt lat="48.564483" lon="16.537194">
        <ele>253.210597</ele>
        <time>2020-08-20T05:57:50.571Z</time>
      </trkpt>
      <trkpt lat="48.564519" lon="16.537057">
        <ele>253.240036</ele>
        <time>2020-08-20T05:57:52.563Z</time>
      </trkpt>
      <trkpt lat="48.564555" lon="16.536922">
        <ele>253.269104</ele>
        <time>2020-08-20T05:57:54.559Z</time>
      </trkpt>
      <trkpt lat="48.564590" lon="16.536788">
        <ele>253.297875</ele>
        <time>2020-08-20T05:57:56.562Z</time>
      </trkpt>
      <trkpt lat="48.564624" lon="16.536649">
        <ele>253.327471</ele>
        <time>2020-08-20T05:57:58.595Z</time>
      </trkpt>
      <trkpt lat="48.564657" lon="16.536515">
        <ele>253.356025</ele>
        <time>2020-08-20T05:58:00.598Z</time>
      </trkpt>
      <trkpt lat="48.564691" lon="16.536383">
        <ele>253.383504</ele>
        <time>2020-08-20T05:58:02.599Z</time>
      </trkpt>
      <trkpt lat="48.564726" lon="16.536249">
        <ele>253.400005</ele>
        <time>2020-08-20T05:58:04.569Z</time>
      </trkpt>
      <trkpt lat="48.564763" lon="16.536114">
        <ele>253.416742</ele>
        <time>2020-08-20T05:58:06.572Z</time>
      </trkpt>
      <trkpt lat="48.564801" lon="16.535983">
        <ele>253.433125</ele>
        <time>2020-08-20T05:58:08.572Z</time>
      </trkpt>
      <trkpt lat="48.564836" lon="16.535847">
        <ele>253.449839</ele>
        <time>2020-08-20T05:58:10.576Z</time>
      </trkpt>
      <trkpt lat="48.564868" lon="16.535706">
        <ele>253.466913</ele>
        <time>2020-08-20T05:58:12.560Z</time>
      </trkpt>
      <trkpt lat="48.564901" lon="16.535569">
        <ele>253.483612</ele>
        <time>2020-08-20T05:58:14.562Z</time>
      </trkpt>
      <trkpt lat="48.564931" lon="16.535429">
        <ele>253.500467</ele>
        <time>2020-08-20T05:58:16.576Z</time>
      </trkpt>
      <trkpt lat="48.564964" lon="16.535285">
        <ele>253.517922</ele>
        <time>2020-08-20T05:58:18.581Z</time>
      </trkpt>
      <trkpt lat="48.564998" lon="16.535148">
        <ele>253.534681</ele>
        <time>2020-08-20T05:58:20.590Z</time>
      </trkpt>
      <trkpt lat="48.565035" lon="16.535016">
        <ele>253.551101</ele>
        <time>2020-08-20T05:58:22.591Z</time>
      </trkpt>
      <trkpt lat="48.565068" lon="16.534878">
        <ele>253.567908</ele>
        <time>2020-08-20T05:58:24.581Z</time>
      </trkpt>
      <trkpt lat="48.565100" lon="16.534742">
        <ele>253.584441</ele>
        <time>2020-08-20T05:58:26.582Z</time>
      </trkpt>
      <trkpt lat="48.565134" lon="16.534603">
        <ele>253.601415</ele>
        <time>2020-08-20T05:58:28.558Z</time>
      </trkpt>
      <trkpt lat="48.565171" lon="16.534467">
        <ele>253.618257</ele>
        <time>2020-08-20T05:58:30.583Z</time>
      </trkpt>
      <trkpt lat="48.565207" lon="16.534334">
        <ele>253.634716</ele>
        <time>2020-08-20T05:58:32.567Z</time>
      </trkpt>
      <trkpt lat="48.565243" lon="16.534209">
        <ele>253.650331</ele>
        <time>2020-08-20T05:58:34.560Z</time>
      </trkpt>
      <trkpt lat="48.565275" lon="16.534079">
        <ele>253.666217</ele>
        <time>2020-08-20T05:58:36.570Z</time>
      </trkpt>
      <trkpt lat="48.565306" lon="16.533942">
        <ele>253.682801</ele>
        <time>2020-08-20T05:58:38.551Z</time>
      </trkpt>
      <trkpt lat="48.565337" lon="16.533808">
        <ele>253.700449</ele>
        <time>2020-08-20T05:58:40.587Z</time>
      </trkpt>
      <trkpt lat="48.565367" lon="16.533679">
        <ele>253.720188</ele>
        <time>2020-08-20T05:58:42.579Z</time>
      </trkpt>
      <trkpt lat="48.565399" lon="16.533548">
        <ele>253.740346</ele>
        <time>2020-08-20T05:58:44.577Z</time>
      </trkpt>
      <trkpt lat="48.565433" lon="16.533417">
        <ele>253.760660</ele>
        <time>2020-08-20T05:58:46.580Z</time>
      </trkpt>
      <trkpt lat="48.565469" lon="16.533285">
        <ele>253.781270</ele>
        <time>2020-08-20T05:58:48.572Z</time>
      </trkpt>
      <trkpt lat="48.565506" lon="16.533153">
        <ele>253.801965</ele>
        <time>2020-08-20T05:58:50.563Z</time>
      </trkpt>
      <trkpt lat="48.565543" lon="16.533026">
        <ele>253.821997</ele>
        <time>2020-08-20T05:58:52.598Z</time>
      </trkpt>
      <trkpt lat="48.565579" lon="16.532898">
        <ele>253.842074</ele>
        <time>2020-08-20T05:58:54.558Z</time>
      </trkpt>
      <trkpt lat="48.565614" lon="16.532770">
        <ele>253.862068</ele>
        <time>2020-08-20T05:58:56.599Z</time>
      </trkpt>
      <trkpt lat="48.565646" lon="16.532642">
        <ele>253.881820</ele>
        <time>2020-08-20T05:58:58.589Z</time>
      </trkpt>
      <trkpt lat="48.565678" lon="16.532509">
        <ele>253.902250</ele>
        <time>2020-08-20T05:59:00.565Z</time>
      </trkpt>
      <trkpt lat="48.565704" lon="16.532372">
        <ele>253.922824</ele>
        <time>2020-08-20T05:59:02.559Z</time>
      </trkpt>
      <trkpt lat="48.565730" lon="16.532236">
        <ele>253.943260</ele>
        <time>2020-08-20T05:59:04.570Z</time>
      </trkpt>
      <trkpt lat="48.565748" lon="16.532101">
        <ele>253.963140</ele>
        <time>2020-08-20T05:59:06.588Z</time>
      </trkpt>
      <trkpt lat="48.565764" lon="16.531968">
        <ele>253.982655</ele>
        <time>2020-08-20T05:59:08.565Z</time>
      </trkpt>
      <trkpt lat="48.565811" lon="16.531782">
        <ele>254.011396</ele>
        <time>2020-08-20T05:59:11.559Z</time>
      </trkpt>
      <trkpt lat="48.565865" lon="16.531669">
        <ele>254.031518</ele>
        <time>2020-08-20T05:59:13.565Z</time>
      </trkpt>
      <trkpt lat="48.565940" lon="16.531509">
        <ele>254.059823</ele>
        <time>2020-08-20T05:59:16.569Z</time>
      </trkpt>
      <trkpt lat="48.565986" lon="16.531392">
        <ele>254.079469</ele>
        <time>2020-08-20T05:59:18.577Z</time>
      </trkpt>
      <trkpt lat="48.566032" lon="16.531273">
        <ele>254.100875</ele>
        <time>2020-08-20T05:59:20.570Z</time>
      </trkpt>
      <trkpt lat="48.566073" lon="16.531144">
        <ele>254.123887</ele>
        <time>2020-08-20T05:59:22.623Z</time>
      </trkpt>
      <trkpt lat="48.566110" lon="16.531013">
        <ele>254.146791</ele>
        <time>2020-08-20T05:59:24.578Z</time>
      </trkpt>
      <trkpt lat="48.566154" lon="16.530889">
        <ele>254.169416</ele>
        <time>2020-08-20T05:59:26.570Z</time>
      </trkpt>
      <trkpt lat="48.566203" lon="16.530768">
        <ele>254.192227</ele>
        <time>2020-08-20T05:59:28.589Z</time>
      </trkpt>
      <trkpt lat="48.566254" lon="16.530646">
        <ele>254.215432</ele>
        <time>2020-08-20T05:59:30.573Z</time>
      </trkpt>
      <trkpt lat="48.566303" lon="16.530518">
        <ele>254.239210</ele>
        <time>2020-08-20T05:59:32.572Z</time>
      </trkpt>
      <trkpt lat="48.566360" lon="16.530396">
        <ele>254.263225</ele>
        <time>2020-08-20T05:59:34.597Z</time>
      </trkpt>
      <trkpt lat="48.566412" lon="16.530276">
        <ele>254.286290</ele>
        <time>2020-08-20T05:59:36.555Z</time>
      </trkpt>
      <trkpt lat="48.566460" lon="16.530149">
        <ele>254.309808</ele>
        <time>2020-08-20T05:59:38.584Z</time>
      </trkpt>
      <trkpt lat="48.566511" lon="16.530023">
        <ele>254.333559</ele>
        <time>2020-08-20T05:59:40.571Z</time>
      </trkpt>
      <trkpt lat="48.566568" lon="16.529911">
        <ele>254.356279</ele>
        <time>2020-08-20T05:59:42.576Z</time>
      </trkpt>
      <trkpt lat="48.566620" lon="16.529788">
        <ele>254.379749</ele>
        <time>2020-08-20T05:59:44.568Z</time>
      </trkpt>
      <trkpt lat="48.566672" lon="16.529667">
        <ele>254.402949</ele>
        <time>2020-08-20T05:59:46.588Z</time>
      </trkpt>
      <trkpt lat="48.566724" lon="16.529547">
        <ele>254.426014</ele>
        <time>2020-08-20T05:59:48.599Z</time>
      </trkpt>
      <trkpt lat="48.566776" lon="16.529428">
        <ele>254.448945</ele>
        <time>2020-08-20T05:59:50.565Z</time>
      </trkpt>
      <trkpt lat="48.566828" lon="16.529307">
        <ele>254.472145</ele>
        <time>2020-08-20T05:59:52.560Z</time>
      </trkpt>
      <trkpt lat="48.566883" lon="16.529184">
        <ele>254.496015</ele>
        <time>2020-08-20T05:59:54.583Z</time>
      </trkpt>
      <trkpt lat="48.566935" lon="16.529068">
        <ele>254.518545</ele>
        <time>2020-08-20T05:59:56.564Z</time>
      </trkpt>
      <trkpt lat="48.566989" lon="16.528954">
        <ele>254.547722</ele>
        <time>2020-08-20T05:59:58.567Z</time>
      </trkpt>
      <trkpt lat="48.567040" lon="16.528832">
        <ele>254.579508</ele>
        <time>2020-08-20T06:00:00.589Z</time>
      </trkpt>
      <trkpt lat="48.567091" lon="16.528708">
        <ele>254.611667</ele>
        <time>2020-08-20T06:00:02.566Z</time>
      </trkpt>
      <trkpt lat="48.567141" lon="16.528585">
        <ele>254.643464</ele>
        <time>2020-08-20T06:00:04.575Z</time>
      </trkpt>
      <trkpt lat="48.567191" lon="16.528465">
        <ele>254.674700</ele>
        <time>2020-08-20T06:00:06.565Z</time>
      </trkpt>
      <trkpt lat="48.567242" lon="16.528347">
        <ele>254.705744</ele>
        <time>2020-08-20T06:00:08.553Z</time>
      </trkpt>
      <trkpt lat="48.567297" lon="16.528229">
        <ele>254.737536</ele>
        <time>2020-08-20T06:00:10.570Z</time>
      </trkpt>
      <trkpt lat="48.567351" lon="16.528112">
        <ele>254.768957</ele>
        <time>2020-08-20T06:00:12.590Z</time>
      </trkpt>
      <trkpt lat="48.567405" lon="16.528000">
        <ele>254.799481</ele>
        <time>2020-08-20T06:00:14.573Z</time>
      </trkpt>
      <trkpt lat="48.567460" lon="16.527885">
        <ele>254.830735</ele>
        <time>2020-08-20T06:00:16.559Z</time>
      </trkpt>
      <trkpt lat="48.567511" lon="16.527771">
        <ele>254.861046</ele>
        <time>2020-08-20T06:00:18.567Z</time>
      </trkpt>
      <trkpt lat="48.567562" lon="16.527645">
        <ele>254.893580</ele>
        <time>2020-08-20T06:00:20.567Z</time>
      </trkpt>
      <trkpt lat="48.567612" lon="16.527524">
        <ele>254.925002</ele>
        <time>2020-08-20T06:00:22.569Z</time>
      </trkpt>
      <trkpt lat="48.567661" lon="16.527404">
        <ele>254.956061</ele>
        <time>2020-08-20T06:00:24.555Z</time>
      </trkpt>
      <trkpt lat="48.567710" lon="16.527285">
        <ele>254.986934</ele>
        <time>2020-08-20T06:00:26.567Z</time>
      </trkpt>
      <trkpt lat="48.567758" lon="16.527168">
        <ele>255.017256</ele>
        <time>2020-08-20T06:00:28.575Z</time>
      </trkpt>
      <trkpt lat="48.567811" lon="16.527050">
        <ele>255.048669</ele>
        <time>2020-08-20T06:00:30.562Z</time>
      </trkpt>
      <trkpt lat="48.567870" lon="16.526929">
        <ele>255.081776</ele>
        <time>2020-08-20T06:00:32.587Z</time>
      </trkpt>
      <trkpt lat="48.567924" lon="16.526817">
        <ele>255.112299</ele>
        <time>2020-08-20T06:00:34.559Z</time>
      </trkpt>
      <trkpt lat="48.567979" lon="16.526704">
        <ele>255.159221</ele>
        <time>2020-08-20T06:00:36.554Z</time>
      </trkpt>
      <trkpt lat="48.568035" lon="16.526586">
        <ele>255.215225</ele>
        <time>2020-08-20T06:00:38.561Z</time>
      </trkpt>
      <trkpt lat="48.568088" lon="16.526463">
        <ele>255.271833</ele>
        <time>2020-08-20T06:00:40.577Z</time>
      </trkpt>
      <trkpt lat="48.568138" lon="16.526338">
        <ele>255.328166</ele>
        <time>2020-08-20T06:00:42.580Z</time>
      </trkpt>
      <trkpt lat="48.568191" lon="16.526216">
        <ele>255.384451</ele>
        <time>2020-08-20T06:00:44.552Z</time>
      </trkpt>
      <trkpt lat="48.568251" lon="16.526099">
        <ele>255.441539</ele>
        <time>2020-08-20T06:00:46.566Z</time>
      </trkpt>
      <trkpt lat="48.568309" lon="16.525985">
        <ele>255.496999</ele>
        <time>2020-08-20T06:00:48.560Z</time>
      </trkpt>
      <trkpt lat="48.568362" lon="16.525868">
        <ele>255.551682</ele>
        <time>2020-08-20T06:00:50.582Z</time>
      </trkpt>
      <trkpt lat="48.568414" lon="16.525746">
        <ele>255.607650</ele>
        <time>2020-08-20T06:00:52.553Z</time>
      </trkpt>
      <trkpt lat="48.568465" lon="16.525628">
        <ele>255.662007</ele>
        <time>2020-08-20T06:00:54.564Z</time>
      </trkpt>
      <trkpt lat="48.568521" lon="16.525515">
        <ele>255.716454</ele>
        <time>2020-08-20T06:00:56.577Z</time>
      </trkpt>
      <trkpt lat="48.568585" lon="16.525403">
        <ele>255.773526</ele>
        <time>2020-08-20T06:00:58.569Z</time>
      </trkpt>
      <trkpt lat="48.568652" lon="16.525275">
        <ele>255.836469</ele>
        <time>2020-08-20T06:01:00.595Z</time>
      </trkpt>
      <trkpt lat="48.568723" lon="16.525143">
        <ele>255.902074</ele>
        <time>2020-08-20T06:01:02.554Z</time>
      </trkpt>
      <trkpt lat="48.568801" lon="16.524996">
        <ele>255.974743</ele>
        <time>2020-08-20T06:01:04.551Z</time>
      </trkpt>
      <trkpt lat="48.568875" lon="16.524844">
        <ele>256.047520</ele>
        <time>2020-08-20T06:01:06.571Z</time>
      </trkpt>
      <trkpt lat="48.568924" lon="16.524706">
        <ele>256.107921</ele>
        <time>2020-08-20T06:01:08.569Z</time>
      </trkpt>
      <trkpt lat="48.568964" lon="16.524571">
        <ele>256.164967</ele>
        <time>2020-08-20T06:01:10.560Z</time>
      </trkpt>
      <trkpt lat="48.569000" lon="16.524403">
        <ele>256.297364</ele>
        <time>2020-08-20T06:01:13.549Z</time>
      </trkpt>
      <trkpt lat="48.568909" lon="16.524469">
        <ele>256.416309</ele>
        <time>2020-08-20T06:01:17.573Z</time>
      </trkpt>
      <trkpt lat="48.568838" lon="16.524598">
        <ele>256.547147</ele>
        <time>2020-08-20T06:01:20.549Z</time>
      </trkpt>
      <trkpt lat="48.568771" lon="16.524731">
        <ele>256.677490</ele>
        <time>2020-08-20T06:01:23.569Z</time>
      </trkpt>
      <trkpt lat="48.568678" lon="16.524809">
        <ele>256.802828</ele>
        <time>2020-08-20T06:01:26.553Z</time>
      </trkpt>
      <trkpt lat="48.568570" lon="16.524789">
        <ele>256.931048</ele>
        <time>2020-08-20T06:01:29.551Z</time>
      </trkpt>
      <trkpt lat="48.568448" lon="16.524775">
        <ele>257.075227</ele>
        <time>2020-08-20T06:01:32.558Z</time>
      </trkpt>
      <trkpt lat="48.568355" lon="16.524780">
        <ele>257.184888</ele>
        <time>2020-08-20T06:01:34.548Z</time>
      </trkpt>
      <trkpt lat="48.568248" lon="16.524772">
        <ele>257.311132</ele>
        <time>2020-08-20T06:01:36.578Z</time>
      </trkpt>
      <trkpt lat="48.568124" lon="16.524752">
        <ele>257.458084</ele>
        <time>2020-08-20T06:01:38.585Z</time>
      </trkpt>
      <trkpt lat="48.567997" lon="16.524713">
        <ele>257.610800</ele>
        <time>2020-08-20T06:01:40.593Z</time>
      </trkpt>
      <trkpt lat="48.567877" lon="16.524695">
        <ele>257.752903</ele>
        <time>2020-08-20T06:01:42.564Z</time>
      </trkpt>
      <trkpt lat="48.567770" lon="16.524680">
        <ele>257.879534</ele>
        <time>2020-08-20T06:01:44.570Z</time>
      </trkpt>
      <trkpt lat="48.567668" lon="16.524659">
        <ele>258.000842</ele>
        <time>2020-08-20T06:01:46.565Z</time>
      </trkpt>
      <trkpt lat="48.567574" lon="16.524643">
        <ele>258.112312</ele>
        <time>2020-08-20T06:01:48.590Z</time>
      </trkpt>
      <trkpt lat="48.567480" lon="16.524635">
        <ele>258.223258</ele>
        <time>2020-08-20T06:01:50.604Z</time>
      </trkpt>
      <trkpt lat="48.567384" lon="16.524631">
        <ele>258.338013</ele>
        <time>2020-08-20T06:01:52.582Z</time>
      </trkpt>
      <trkpt lat="48.567286" lon="16.524633">
        <ele>258.457424</ele>
        <time>2020-08-20T06:01:54.581Z</time>
      </trkpt>
      <trkpt lat="48.567189" lon="16.524642">
        <ele>258.575828</ele>
        <time>2020-08-20T06:01:56.556Z</time>
      </trkpt>
      <trkpt lat="48.567099" lon="16.524658">
        <ele>258.686237</ele>
        <time>2020-08-20T06:01:58.556Z</time>
      </trkpt>
      <trkpt lat="48.567008" lon="16.524685">
        <ele>258.799225</ele>
        <time>2020-08-20T06:02:00.557Z</time>
      </trkpt>
      <trkpt lat="48.566917" lon="16.524717">
        <ele>258.913059</ele>
        <time>2020-08-20T06:02:02.592Z</time>
      </trkpt>
      <trkpt lat="48.566824" lon="16.524752">
        <ele>259.029828</ele>
        <time>2020-08-20T06:02:04.577Z</time>
      </trkpt>
      <trkpt lat="48.566728" lon="16.524792">
        <ele>259.151156</ele>
        <time>2020-08-20T06:02:06.566Z</time>
      </trkpt>
      <trkpt lat="48.566595" lon="16.524776">
        <ele>259.313711</ele>
        <time>2020-08-20T06:02:09.548Z</time>
      </trkpt>
      <trkpt lat="48.566512" lon="16.524711">
        <ele>259.427608</ele>
        <time>2020-08-20T06:02:11.561Z</time>
      </trkpt>
      <trkpt lat="48.566408" lon="16.524588">
        <ele>259.588512</ele>
        <time>2020-08-20T06:02:14.582Z</time>
      </trkpt>
      <trkpt lat="48.566312" lon="16.524467">
        <ele>259.740820</ele>
        <time>2020-08-20T06:02:17.578Z</time>
      </trkpt>
      <trkpt lat="48.566235" lon="16.524312">
        <ele>259.897085</ele>
        <time>2020-08-20T06:02:20.559Z</time>
      </trkpt>
      <trkpt lat="48.566236" lon="16.524119">
        <ele>260.052698</ele>
        <time>2020-08-20T06:02:23.587Z</time>
      </trkpt>
      <trkpt lat="48.566247" lon="16.523922">
        <ele>260.212095</ele>
        <time>2020-08-20T06:02:26.556Z</time>
      </trkpt>
      <trkpt lat="48.566267" lon="16.523786">
        <ele>260.324421</ele>
        <time>2020-08-20T06:02:28.583Z</time>
      </trkpt>
      <trkpt lat="48.566286" lon="16.523652">
        <ele>260.434912</ele>
        <time>2020-08-20T06:02:30.565Z</time>
      </trkpt>
      <trkpt lat="48.566323" lon="16.523528">
        <ele>260.511697</ele>
        <time>2020-08-20T06:02:32.573Z</time>
      </trkpt>
      <trkpt lat="48.566377" lon="16.523346">
        <ele>260.589218</ele>
        <time>2020-08-20T06:02:35.592Z</time>
      </trkpt>
      <trkpt lat="48.566431" lon="16.523164">
        <ele>260.666738</ele>
        <time>2020-08-20T06:02:38.559Z</time>
      </trkpt>
      <trkpt lat="48.566460" lon="16.523034">
        <ele>260.720058</ele>
        <time>2020-08-20T06:02:40.566Z</time>
      </trkpt>
      <trkpt lat="48.566497" lon="16.522844">
        <ele>260.797034</ele>
        <time>2020-08-20T06:02:43.585Z</time>
      </trkpt>
      <trkpt lat="48.566536" lon="16.522651">
        <ele>260.875464</ele>
        <time>2020-08-20T06:02:46.552Z</time>
      </trkpt>
      <trkpt lat="48.566577" lon="16.522459">
        <ele>260.953876</ele>
        <time>2020-08-20T06:02:49.557Z</time>
      </trkpt>
      <trkpt lat="48.566610" lon="16.522281">
        <ele>261.025720</ele>
        <time>2020-08-20T06:02:52.570Z</time>
      </trkpt>
      <trkpt lat="48.566653" lon="16.522107">
        <ele>261.097909</ele>
        <time>2020-08-20T06:02:55.596Z</time>
      </trkpt>
      <trkpt lat="48.566696" lon="16.521924">
        <ele>261.173383</ele>
        <time>2020-08-20T06:02:58.561Z</time>
      </trkpt>
      <trkpt lat="48.566739" lon="16.521741">
        <ele>261.248858</ele>
        <time>2020-08-20T06:03:01.580Z</time>
      </trkpt>
      <trkpt lat="48.566782" lon="16.521565">
        <ele>261.321775</ele>
        <time>2020-08-20T06:03:04.591Z</time>
      </trkpt>
      <trkpt lat="48.566834" lon="16.521391">
        <ele>261.395978</ele>
        <time>2020-08-20T06:03:07.584Z</time>
      </trkpt>
      <trkpt lat="48.566883" lon="16.521219">
        <ele>261.468758</ele>
        <time>2020-08-20T06:03:10.566Z</time>
      </trkpt>
      <trkpt lat="48.566931" lon="16.521048">
        <ele>261.541173</ele>
        <time>2020-08-20T06:03:13.569Z</time>
      </trkpt>
      <trkpt lat="48.566980" lon="16.520885">
        <ele>261.615205</ele>
        <time>2020-08-20T06:03:16.586Z</time>
      </trkpt>
      <trkpt lat="48.567028" lon="16.520717">
        <ele>261.690875</ele>
        <time>2020-08-20T06:03:19.553Z</time>
      </trkpt>
      <trkpt lat="48.567075" lon="16.520555">
        <ele>261.764020</ele>
        <time>2020-08-20T06:03:22.570Z</time>
      </trkpt>
      <trkpt lat="48.567119" lon="16.520399">
        <ele>261.834144</ele>
        <time>2020-08-20T06:03:25.572Z</time>
      </trkpt>
      <trkpt lat="48.567168" lon="16.520251">
        <ele>261.902576</ele>
        <time>2020-08-20T06:03:28.615Z</time>
      </trkpt>
      <trkpt lat="48.567211" lon="16.520087">
        <ele>261.975522</ele>
        <time>2020-08-20T06:03:31.566Z</time>
      </trkpt>
      <trkpt lat="48.567253" lon="16.519935">
        <ele>262.043636</ele>
        <time>2020-08-20T06:03:34.584Z</time>
      </trkpt>
      <trkpt lat="48.567296" lon="16.519792">
        <ele>262.108588</ele>
        <time>2020-08-20T06:03:37.556Z</time>
      </trkpt>
      <trkpt lat="48.567339" lon="16.519640">
        <ele>262.176944</ele>
        <time>2020-08-20T06:03:40.574Z</time>
      </trkpt>
      <trkpt lat="48.567390" lon="16.519486">
        <ele>262.248155</ele>
        <time>2020-08-20T06:03:43.583Z</time>
      </trkpt>
      <trkpt lat="48.567440" lon="16.519328">
        <ele>262.320577</ele>
        <time>2020-08-20T06:03:46.569Z</time>
      </trkpt>
      <trkpt lat="48.567508" lon="16.519175">
        <ele>262.396790</ele>
        <time>2020-08-20T06:03:49.571Z</time>
      </trkpt>
      <trkpt lat="48.567560" lon="16.519009">
        <ele>262.472736</ele>
        <time>2020-08-20T06:03:52.556Z</time>
      </trkpt>
      <trkpt lat="48.567622" lon="16.518842">
        <ele>262.551918</ele>
        <time>2020-08-20T06:03:55.574Z</time>
      </trkpt>
      <trkpt lat="48.567677" lon="16.518662">
        <ele>262.633902</ele>
        <time>2020-08-20T06:03:58.558Z</time>
      </trkpt>
      <trkpt lat="48.567722" lon="16.518484">
        <ele>262.750012</ele>
        <time>2020-08-20T06:04:01.584Z</time>
      </trkpt>
      <trkpt lat="48.567656" lon="16.518337">
        <ele>262.876933</ele>
        <time>2020-08-20T06:04:04.555Z</time>
      </trkpt>
      <trkpt lat="48.567575" lon="16.518225">
        <ele>262.995474</ele>
        <time>2020-08-20T06:04:07.571Z</time>
      </trkpt>
      <trkpt lat="48.567504" lon="16.518133">
        <ele>263.096456</ele>
        <time>2020-08-20T06:04:10.569Z</time>
      </trkpt>
      <trkpt lat="48.567428" lon="16.518029">
        <ele>263.207157</ele>
        <time>2020-08-20T06:04:13.574Z</time>
      </trkpt>
      <trkpt lat="48.567366" lon="16.517886">
        <ele>263.329305</ele>
        <time>2020-08-20T06:04:16.583Z</time>
      </trkpt>
      <trkpt lat="48.567442" lon="16.517792">
        <ele>263.435343</ele>
        <time>2020-08-20T06:04:19.563Z</time>
      </trkpt>
      <trkpt lat="48.567539" lon="16.517752">
        <ele>263.543903</ele>
        <time>2020-08-20T06:04:23.564Z</time>
      </trkpt>
      <trkpt lat="48.567640" lon="16.517734">
        <ele>263.653709</ele>
        <time>2020-08-20T06:04:27.580Z</time>
      </trkpt>
      <trkpt lat="48.567754" lon="16.517707">
        <ele>263.778297</ele>
        <time>2020-08-20T06:04:30.568Z</time>
      </trkpt>
      <trkpt lat="48.567847" lon="16.517653">
        <ele>263.885867</ele>
        <time>2020-08-20T06:04:32.560Z</time>
      </trkpt>
      <trkpt lat="48.567949" lon="16.517573">
        <ele>264.009946</ele>
        <time>2020-08-20T06:04:34.552Z</time>
      </trkpt>
      <trkpt lat="48.568042" lon="16.517491">
        <ele>264.126200</ele>
        <time>2020-08-20T06:04:36.564Z</time>
      </trkpt>
      <trkpt lat="48.568131" lon="16.517370">
        <ele>264.255458</ele>
        <time>2020-08-20T06:04:38.551Z</time>
      </trkpt>
      <trkpt lat="48.568211" lon="16.517224">
        <ele>264.390891</ele>
        <time>2020-08-20T06:04:40.572Z</time>
      </trkpt>
      <trkpt lat="48.568296" lon="16.517080">
        <ele>264.528759</ele>
        <time>2020-08-20T06:04:42.586Z</time>
      </trkpt>
      <trkpt lat="48.568374" lon="16.516936">
        <ele>264.720200</ele>
        <time>2020-08-20T06:04:44.567Z</time>
      </trkpt>
      <trkpt lat="48.568452" lon="16.516794">
        <ele>264.984344</ele>
        <time>2020-08-20T06:04:46.563Z</time>
      </trkpt>
      <trkpt lat="48.568533" lon="16.516661">
        <ele>265.243058</ele>
        <time>2020-08-20T06:04:48.582Z</time>
      </trkpt>
      <trkpt lat="48.568614" lon="16.516540">
        <ele>265.489409</ele>
        <time>2020-08-20T06:04:50.612Z</time>
      </trkpt>
      <trkpt lat="48.568691" lon="16.516421">
        <ele>265.727629</ele>
        <time>2020-08-20T06:04:52.555Z</time>
      </trkpt>
      <trkpt lat="48.568768" lon="16.516308">
        <ele>265.959786</ele>
        <time>2020-08-20T06:04:54.553Z</time>
      </trkpt>
      <trkpt lat="48.568839" lon="16.516197">
        <ele>266.180749</ele>
        <time>2020-08-20T06:04:56.564Z</time>
      </trkpt>
      <trkpt lat="48.568908" lon="16.516085">
        <ele>266.399773</ele>
        <time>2020-08-20T06:04:58.577Z</time>
      </trkpt>
      <trkpt lat="48.568976" lon="16.515975">
        <ele>266.615228</ele>
        <time>2020-08-20T06:05:00.558Z</time>
      </trkpt>
      <trkpt lat="48.569041" lon="16.515866">
        <ele>266.825241</ele>
        <time>2020-08-20T06:05:02.575Z</time>
      </trkpt>
      <trkpt lat="48.569103" lon="16.515764">
        <ele>267.023476</ele>
        <time>2020-08-20T06:05:04.560Z</time>
      </trkpt>
      <trkpt lat="48.569192" lon="16.515618">
        <ele>267.307598</ele>
        <time>2020-08-20T06:05:07.581Z</time>
      </trkpt>
      <trkpt lat="48.569278" lon="16.515480">
        <ele>267.578918</ele>
        <time>2020-08-20T06:05:10.569Z</time>
      </trkpt>
      <trkpt lat="48.569365" lon="16.515338">
        <ele>267.855898</ele>
        <time>2020-08-20T06:05:13.565Z</time>
      </trkpt>
      <trkpt lat="48.569488" lon="16.515148">
        <ele>268.236335</ele>
        <time>2020-08-20T06:05:17.558Z</time>
      </trkpt>
      <trkpt lat="48.569573" lon="16.515012">
        <ele>268.498656</ele>
        <time>2020-08-20T06:05:20.554Z</time>
      </trkpt>
      <trkpt lat="48.569659" lon="16.514882">
        <ele>268.622230</ele>
        <time>2020-08-20T06:05:23.551Z</time>
      </trkpt>
      <trkpt lat="48.569753" lon="16.514745">
        <ele>268.754901</ele>
        <time>2020-08-20T06:05:26.563Z</time>
      </trkpt>
      <trkpt lat="48.569840" lon="16.514619">
        <ele>268.877319</ele>
        <time>2020-08-20T06:05:29.552Z</time>
      </trkpt>
      <trkpt lat="48.569926" lon="16.514498">
        <ele>268.996691</ele>
        <time>2020-08-20T06:05:32.558Z</time>
      </trkpt>
      <trkpt lat="48.570009" lon="16.514373">
        <ele>269.115733</ele>
        <time>2020-08-20T06:05:35.575Z</time>
      </trkpt>
      <trkpt lat="48.570096" lon="16.514248">
        <ele>269.237687</ele>
        <time>2020-08-20T06:05:38.569Z</time>
      </trkpt>
      <trkpt lat="48.570186" lon="16.514101">
        <ele>269.372316</ele>
        <time>2020-08-20T06:05:41.591Z</time>
      </trkpt>
      <trkpt lat="48.570246" lon="16.514000">
        <ele>269.463559</ele>
        <time>2020-08-20T06:05:43.561Z</time>
      </trkpt>
      <trkpt lat="48.570311" lon="16.513889">
        <ele>269.563200</ele>
        <time>2020-08-20T06:05:45.568Z</time>
      </trkpt>
      <trkpt lat="48.570383" lon="16.513779">
        <ele>269.667211</ele>
        <time>2020-08-20T06:05:47.582Z</time>
      </trkpt>
      <trkpt lat="48.570456" lon="16.513663">
        <ele>269.774825</ele>
        <time>2020-08-20T06:05:49.556Z</time>
      </trkpt>
      <trkpt lat="48.570529" lon="16.513540">
        <ele>269.885895</ele>
        <time>2020-08-20T06:05:51.588Z</time>
      </trkpt>
      <trkpt lat="48.570601" lon="16.513416">
        <ele>269.996794</ele>
        <time>2020-08-20T06:05:53.558Z</time>
      </trkpt>
      <trkpt lat="48.570672" lon="16.513292">
        <ele>270.107026</ele>
        <time>2020-08-20T06:05:55.566Z</time>
      </trkpt>
      <trkpt lat="48.570743" lon="16.513172">
        <ele>270.215238</ele>
        <time>2020-08-20T06:05:57.590Z</time>
      </trkpt>
      <trkpt lat="48.570811" lon="16.513057">
        <ele>270.318914</ele>
        <time>2020-08-20T06:05:59.556Z</time>
      </trkpt>
      <trkpt lat="48.570879" lon="16.512946">
        <ele>270.366207</ele>
        <time>2020-08-20T06:06:01.570Z</time>
      </trkpt>
      <trkpt lat="48.570947" lon="16.512837">
        <ele>270.411850</ele>
        <time>2020-08-20T06:06:03.563Z</time>
      </trkpt>
      <trkpt lat="48.571017" lon="16.512727">
        <ele>270.458348</ele>
        <time>2020-08-20T06:06:05.595Z</time>
      </trkpt>
      <trkpt lat="48.571085" lon="16.512616">
        <ele>270.504436</ele>
        <time>2020-08-20T06:06:07.552Z</time>
      </trkpt>
      <trkpt lat="48.571151" lon="16.512501">
        <ele>270.550818</ele>
        <time>2020-08-20T06:06:09.554Z</time>
      </trkpt>
      <trkpt lat="48.571216" lon="16.512383">
        <ele>270.597597</ele>
        <time>2020-08-20T06:06:11.564Z</time>
      </trkpt>
      <trkpt lat="48.571280" lon="16.512257">
        <ele>270.645993</ele>
        <time>2020-08-20T06:06:13.558Z</time>
      </trkpt>
      <trkpt lat="48.571345" lon="16.512131">
        <ele>270.694671</ele>
        <time>2020-08-20T06:06:15.580Z</time>
      </trkpt>
      <trkpt lat="48.571413" lon="16.512003">
        <ele>270.744684</ele>
        <time>2020-08-20T06:06:17.558Z</time>
      </trkpt>
      <trkpt lat="48.571485" lon="16.511875">
        <ele>270.795869</ele>
        <time>2020-08-20T06:06:19.565Z</time>
      </trkpt>
      <trkpt lat="48.571551" lon="16.511754">
        <ele>270.843646</ele>
        <time>2020-08-20T06:06:21.582Z</time>
      </trkpt>
      <trkpt lat="48.571624" lon="16.511638">
        <ele>270.892421</ele>
        <time>2020-08-20T06:06:23.565Z</time>
      </trkpt>
      <trkpt lat="48.571694" lon="16.511514">
        <ele>270.942081</ele>
        <time>2020-08-20T06:06:25.583Z</time>
      </trkpt>
      <trkpt lat="48.571762" lon="16.511394">
        <ele>270.990217</ele>
        <time>2020-08-20T06:06:27.602Z</time>
      </trkpt>
      <trkpt lat="48.571834" lon="16.511271">
        <ele>271.040252</ele>
        <time>2020-08-20T06:06:29.557Z</time>
      </trkpt>
      <trkpt lat="48.571906" lon="16.511145">
        <ele>271.090975</ele>
        <time>2020-08-20T06:06:31.566Z</time>
      </trkpt>
      <trkpt lat="48.571987" lon="16.511020">
        <ele>271.144280</ele>
        <time>2020-08-20T06:06:33.598Z</time>
      </trkpt>
      <trkpt lat="48.572067" lon="16.510894">
        <ele>271.209971</ele>
        <time>2020-08-20T06:06:35.556Z</time>
      </trkpt>
      <trkpt lat="48.572149" lon="16.510761">
        <ele>271.279713</ele>
        <time>2020-08-20T06:06:37.585Z</time>
      </trkpt>
      <trkpt lat="48.572234" lon="16.510632">
        <ele>271.349556</ele>
        <time>2020-08-20T06:06:39.607Z</time>
      </trkpt>
      <trkpt lat="48.572330" lon="16.510506">
        <ele>271.423277</ele>
        <time>2020-08-20T06:06:41.600Z</time>
      </trkpt>
      <trkpt lat="48.572428" lon="16.510363">
        <ele>271.502260</ele>
        <time>2020-08-20T06:06:43.570Z</time>
      </trkpt>
      <trkpt lat="48.572532" lon="16.510190">
        <ele>271.591932</ele>
        <time>2020-08-20T06:06:45.588Z</time>
      </trkpt>
      <trkpt lat="48.572639" lon="16.509983">
        <ele>271.692706</ele>
        <time>2020-08-20T06:06:47.540Z</time>
      </trkpt>
      <trkpt lat="48.572696" lon="16.509872">
        <ele>271.746610</ele>
        <time>2020-08-20T06:06:48.581Z</time>
      </trkpt>
      <trkpt lat="48.572755" lon="16.509758">
        <ele>271.802134</ele>
        <time>2020-08-20T06:06:49.550Z</time>
      </trkpt>
      <trkpt lat="48.572812" lon="16.509637">
        <ele>271.859117</ele>
        <time>2020-08-20T06:06:50.559Z</time>
      </trkpt>
      <trkpt lat="48.572868" lon="16.509525">
        <ele>271.912973</ele>
        <time>2020-08-20T06:06:51.559Z</time>
      </trkpt>
      <trkpt lat="48.572968" lon="16.509337">
        <ele>272.005513</ele>
        <time>2020-08-20T06:06:53.585Z</time>
      </trkpt>
      <trkpt lat="48.573051" lon="16.509178">
        <ele>272.083209</ele>
        <time>2020-08-20T06:06:55.554Z</time>
      </trkpt>
      <trkpt lat="48.573116" lon="16.509041">
        <ele>272.147883</ele>
        <time>2020-08-20T06:06:57.566Z</time>
      </trkpt>
      <trkpt lat="48.573174" lon="16.508927">
        <ele>272.197013</ele>
        <time>2020-08-20T06:06:59.576Z</time>
      </trkpt>
      <trkpt lat="48.573254" lon="16.508767">
        <ele>272.231238</ele>
        <time>2020-08-20T06:07:02.601Z</time>
      </trkpt>
      <trkpt lat="48.573329" lon="16.508605">
        <ele>272.264981</ele>
        <time>2020-08-20T06:07:05.581Z</time>
      </trkpt>
      <trkpt lat="48.573401" lon="16.508440">
        <ele>272.298713</ele>
        <time>2020-08-20T06:07:08.585Z</time>
      </trkpt>
      <trkpt lat="48.573468" lon="16.508273">
        <ele>272.332043</ele>
        <time>2020-08-20T06:07:11.599Z</time>
      </trkpt>
      <trkpt lat="48.573543" lon="16.508112">
        <ele>272.365647</ele>
        <time>2020-08-20T06:07:14.566Z</time>
      </trkpt>
      <trkpt lat="48.573595" lon="16.508000">
        <ele>272.388997</ele>
        <time>2020-08-20T06:07:16.599Z</time>
      </trkpt>
      <trkpt lat="48.573678" lon="16.507845">
        <ele>272.423027</ele>
        <time>2020-08-20T06:07:19.590Z</time>
      </trkpt>
      <trkpt lat="48.573730" lon="16.507731">
        <ele>272.446657</ele>
        <time>2020-08-20T06:07:21.562Z</time>
      </trkpt>
      <trkpt lat="48.573784" lon="16.507612">
        <ele>272.471283</ele>
        <time>2020-08-20T06:07:23.569Z</time>
      </trkpt>
      <trkpt lat="48.573836" lon="16.507486">
        <ele>272.496626</ele>
        <time>2020-08-20T06:07:25.574Z</time>
      </trkpt>
      <trkpt lat="48.573889" lon="16.507364">
        <ele>272.521534</ele>
        <time>2020-08-20T06:07:27.587Z</time>
      </trkpt>
      <trkpt lat="48.573944" lon="16.507237">
        <ele>272.547437</ele>
        <time>2020-08-20T06:07:29.593Z</time>
      </trkpt>
      <trkpt lat="48.574001" lon="16.507111">
        <ele>272.573486</ele>
        <time>2020-08-20T06:07:31.553Z</time>
      </trkpt>
      <trkpt lat="48.574059" lon="16.506985">
        <ele>272.599681</ele>
        <time>2020-08-20T06:07:33.578Z</time>
      </trkpt>
      <trkpt lat="48.574119" lon="16.506846">
        <ele>272.628005</ele>
        <time>2020-08-20T06:07:35.578Z</time>
      </trkpt>
      <trkpt lat="48.574176" lon="16.506712">
        <ele>272.655191</ele>
        <time>2020-08-20T06:07:37.591Z</time>
      </trkpt>
      <trkpt lat="48.574237" lon="16.506580">
        <ele>272.673296</ele>
        <time>2020-08-20T06:07:39.581Z</time>
      </trkpt>
      <trkpt lat="48.574301" lon="16.506447">
        <ele>272.691463</ele>
        <time>2020-08-20T06:07:41.583Z</time>
      </trkpt>
      <trkpt lat="48.574365" lon="16.506316">
        <ele>272.709451</ele>
        <time>2020-08-20T06:07:43.561Z</time>
      </trkpt>
      <trkpt lat="48.574428" lon="16.506178">
        <ele>272.727971</ele>
        <time>2020-08-20T06:07:45.575Z</time>
      </trkpt>
      <trkpt lat="48.574487" lon="16.506040">
        <ele>272.746121</ele>
        <time>2020-08-20T06:07:47.587Z</time>
      </trkpt>
      <trkpt lat="48.574546" lon="16.505901">
        <ele>272.764363</ele>
        <time>2020-08-20T06:07:49.574Z</time>
      </trkpt>
      <trkpt lat="48.574607" lon="16.505766">
        <ele>272.782421</ele>
        <time>2020-08-20T06:07:51.571Z</time>
      </trkpt>
      <trkpt lat="48.574669" lon="16.505631">
        <ele>272.800574</ele>
        <time>2020-08-20T06:07:53.595Z</time>
      </trkpt>
      <trkpt lat="48.574728" lon="16.505497">
        <ele>272.818354</ele>
        <time>2020-08-20T06:07:55.570Z</time>
      </trkpt>
      <trkpt lat="48.574790" lon="16.505364">
        <ele>272.836326</ele>
        <time>2020-08-20T06:07:57.605Z</time>
      </trkpt>
      <trkpt lat="48.574851" lon="16.505232">
        <ele>272.854111</ele>
        <time>2020-08-20T06:07:59.557Z</time>
      </trkpt>
      <trkpt lat="48.574909" lon="16.505095">
        <ele>272.872078</ele>
        <time>2020-08-20T06:08:01.577Z</time>
      </trkpt>
      <trkpt lat="48.574967" lon="16.504961">
        <ele>272.889765</ele>
        <time>2020-08-20T06:08:03.566Z</time>
      </trkpt>
      <trkpt lat="48.575024" lon="16.504830">
        <ele>272.907085</ele>
        <time>2020-08-20T06:08:05.570Z</time>
      </trkpt>
      <trkpt lat="48.575080" lon="16.504702">
        <ele>272.924035</ele>
        <time>2020-08-20T06:08:07.570Z</time>
      </trkpt>
      <trkpt lat="48.575140" lon="16.504575">
        <ele>272.941273</ele>
        <time>2020-08-20T06:08:09.567Z</time>
      </trkpt>
      <trkpt lat="48.575201" lon="16.504444">
        <ele>272.960278</ele>
        <time>2020-08-20T06:08:11.582Z</time>
      </trkpt>
      <trkpt lat="48.575262" lon="16.504315">
        <ele>272.986675</ele>
        <time>2020-08-20T06:08:13.577Z</time>
      </trkpt>
      <trkpt lat="48.575321" lon="16.504190">
        <ele>273.012237</ele>
        <time>2020-08-20T06:08:15.585Z</time>
      </trkpt>
      <trkpt lat="48.575380" lon="16.504060">
        <ele>273.038481</ele>
        <time>2020-08-20T06:08:17.589Z</time>
      </trkpt>
      <trkpt lat="48.575440" lon="16.503926">
        <ele>273.065417</ele>
        <time>2020-08-20T06:08:19.581Z</time>
      </trkpt>
      <trkpt lat="48.575500" lon="16.503788">
        <ele>273.092907</ele>
        <time>2020-08-20T06:08:21.571Z</time>
      </trkpt>
      <trkpt lat="48.575556" lon="16.503646">
        <ele>273.120427</ele>
        <time>2020-08-20T06:08:23.577Z</time>
      </trkpt>
      <trkpt lat="48.575610" lon="16.503508">
        <ele>273.147118</ele>
        <time>2020-08-20T06:08:25.588Z</time>
      </trkpt>
      <trkpt lat="48.575670" lon="16.503377">
        <ele>273.173641</ele>
        <time>2020-08-20T06:08:27.589Z</time>
      </trkpt>
      <trkpt lat="48.575730" lon="16.503243">
        <ele>273.200577</ele>
        <time>2020-08-20T06:08:29.565Z</time>
      </trkpt>
      <trkpt lat="48.575789" lon="16.503109">
        <ele>273.227373</ele>
        <time>2020-08-20T06:08:31.577Z</time>
      </trkpt>
      <trkpt lat="48.575844" lon="16.502978">
        <ele>273.253201</ele>
        <time>2020-08-20T06:08:33.571Z</time>
      </trkpt>
      <trkpt lat="48.575900" lon="16.502844">
        <ele>273.279586</ele>
        <time>2020-08-20T06:08:35.593Z</time>
      </trkpt>
      <trkpt lat="48.575957" lon="16.502709">
        <ele>273.306246</ele>
        <time>2020-08-20T06:08:37.574Z</time>
      </trkpt>
      <trkpt lat="48.576012" lon="16.502569">
        <ele>273.333351</ele>
        <time>2020-08-20T06:08:39.561Z</time>
      </trkpt>
      <trkpt lat="48.576065" lon="16.502431">
        <ele>273.359915</ele>
        <time>2020-08-20T06:08:41.569Z</time>
      </trkpt>
      <trkpt lat="48.576116" lon="16.502297">
        <ele>273.385650</ele>
        <time>2020-08-20T06:08:43.579Z</time>
      </trkpt>
      <trkpt lat="48.576174" lon="16.502163">
        <ele>273.410744</ele>
        <time>2020-08-20T06:08:45.590Z</time>
      </trkpt>
      <trkpt lat="48.576236" lon="16.502029">
        <ele>273.425302</ele>
        <time>2020-08-20T06:08:47.568Z</time>
      </trkpt>
      <trkpt lat="48.576297" lon="16.501896">
        <ele>273.439711</ele>
        <time>2020-08-20T06:08:49.580Z</time>
      </trkpt>
      <trkpt lat="48.576357" lon="16.501761">
        <ele>273.454191</ele>
        <time>2020-08-20T06:08:51.590Z</time>
      </trkpt>
      <trkpt lat="48.576417" lon="16.501621">
        <ele>273.469042</ele>
        <time>2020-08-20T06:08:53.571Z</time>
      </trkpt>
      <trkpt lat="48.576475" lon="16.501483">
        <ele>273.483599</ele>
        <time>2020-08-20T06:08:55.583Z</time>
      </trkpt>
      <trkpt lat="48.576536" lon="16.501347">
        <ele>273.498227</ele>
        <time>2020-08-20T06:08:57.572Z</time>
      </trkpt>
      <trkpt lat="48.576597" lon="16.501210">
        <ele>273.512930</ele>
        <time>2020-08-20T06:08:59.575Z</time>
      </trkpt>
      <trkpt lat="48.576654" lon="16.501072">
        <ele>273.527415</ele>
        <time>2020-08-20T06:09:01.566Z</time>
      </trkpt>
      <trkpt lat="48.576712" lon="16.500937">
        <ele>273.541746</ele>
        <time>2020-08-20T06:09:03.586Z</time>
      </trkpt>
      <trkpt lat="48.576764" lon="16.500794">
        <ele>273.556274</ele>
        <time>2020-08-20T06:09:05.580Z</time>
      </trkpt>
      <trkpt lat="48.576817" lon="16.500660">
        <ele>273.570174</ele>
        <time>2020-08-20T06:09:07.589Z</time>
      </trkpt>
      <trkpt lat="48.576876" lon="16.500520">
        <ele>273.584953</ele>
        <time>2020-08-20T06:09:09.561Z</time>
      </trkpt>
      <trkpt lat="48.576942" lon="16.500363">
        <ele>273.601514</ele>
        <time>2020-08-20T06:09:11.565Z</time>
      </trkpt>
      <trkpt lat="48.577014" lon="16.500207">
        <ele>273.618449</ele>
        <time>2020-08-20T06:09:13.561Z</time>
      </trkpt>
      <trkpt lat="48.577089" lon="16.500051">
        <ele>273.635618</ele>
        <time>2020-08-20T06:09:15.581Z</time>
      </trkpt>
      <trkpt lat="48.577162" lon="16.499902">
        <ele>273.654209</ele>
        <time>2020-08-20T06:09:17.566Z</time>
      </trkpt>
      <trkpt lat="48.577243" lon="16.499758">
        <ele>273.701951</ele>
        <time>2020-08-20T06:09:19.569Z</time>
      </trkpt>
      <trkpt lat="48.577321" lon="16.499604">
        <ele>273.750940</ele>
        <time>2020-08-20T06:09:21.585Z</time>
      </trkpt>
      <trkpt lat="48.577398" lon="16.499446">
        <ele>273.800507</ele>
        <time>2020-08-20T06:09:23.564Z</time>
      </trkpt>
      <trkpt lat="48.577470" lon="16.499274">
        <ele>273.851917</ele>
        <time>2020-08-20T06:09:25.580Z</time>
      </trkpt>
      <trkpt lat="48.577546" lon="16.499096">
        <ele>273.905428</ele>
        <time>2020-08-20T06:09:27.576Z</time>
      </trkpt>
      <trkpt lat="48.577631" lon="16.498912">
        <ele>273.962112</ele>
        <time>2020-08-20T06:09:29.552Z</time>
      </trkpt>
      <trkpt lat="48.577717" lon="16.498730">
        <ele>274.018603</ele>
        <time>2020-08-20T06:09:31.556Z</time>
      </trkpt>
      <trkpt lat="48.577794" lon="16.498579">
        <ele>274.066758</ele>
        <time>2020-08-20T06:09:33.577Z</time>
      </trkpt>
      <trkpt lat="48.577863" lon="16.498443">
        <ele>274.110048</ele>
        <time>2020-08-20T06:09:35.557Z</time>
      </trkpt>
      <trkpt lat="48.577927" lon="16.498311">
        <ele>274.151383</ele>
        <time>2020-08-20T06:09:37.592Z</time>
      </trkpt>
      <trkpt lat="48.577987" lon="16.498178">
        <ele>274.192044</ele>
        <time>2020-08-20T06:09:39.562Z</time>
      </trkpt>
      <trkpt lat="48.578045" lon="16.498046">
        <ele>274.232068</ele>
        <time>2020-08-20T06:09:41.578Z</time>
      </trkpt>
      <trkpt lat="48.578104" lon="16.497923">
        <ele>274.270442</ele>
        <time>2020-08-20T06:09:43.573Z</time>
      </trkpt>
      <trkpt lat="48.578160" lon="16.497809">
        <ele>274.306306</ele>
        <time>2020-08-20T06:09:45.577Z</time>
      </trkpt>
      <trkpt lat="48.578208" lon="16.497690">
        <ele>274.341794</ele>
        <time>2020-08-20T06:09:47.592Z</time>
      </trkpt>
      <trkpt lat="48.578280" lon="16.497526">
        <ele>274.395196</ele>
        <time>2020-08-20T06:09:50.559Z</time>
      </trkpt>
      <trkpt lat="48.578345" lon="16.497365">
        <ele>274.446370</ele>
        <time>2020-08-20T06:09:53.582Z</time>
      </trkpt>
      <trkpt lat="48.578408" lon="16.497222">
        <ele>274.492983</ele>
        <time>2020-08-20T06:09:56.606Z</time>
      </trkpt>
      <trkpt lat="48.578471" lon="16.497088">
        <ele>274.537585</ele>
        <time>2020-08-20T06:09:59.574Z</time>
      </trkpt>
      <trkpt lat="48.578533" lon="16.496960">
        <ele>274.580627</ele>
        <time>2020-08-20T06:10:02.569Z</time>
      </trkpt>
      <trkpt lat="48.578596" lon="16.496847">
        <ele>274.620720</ele>
        <time>2020-08-20T06:10:05.561Z</time>
      </trkpt>
      <trkpt lat="48.578657" lon="16.496735">
        <ele>274.660080</ele>
        <time>2020-08-20T06:10:08.552Z</time>
      </trkpt>
      <trkpt lat="48.578719" lon="16.496626">
        <ele>274.699081</ele>
        <time>2020-08-20T06:10:11.559Z</time>
      </trkpt>
      <trkpt lat="48.578781" lon="16.496517">
        <ele>274.738082</ele>
        <time>2020-08-20T06:10:14.566Z</time>
      </trkpt>
      <trkpt lat="48.578847" lon="16.496413">
        <ele>274.777182</ele>
        <time>2020-08-20T06:10:17.580Z</time>
      </trkpt>
      <trkpt lat="48.578910" lon="16.496310">
        <ele>274.815241</ele>
        <time>2020-08-20T06:10:20.587Z</time>
      </trkpt>
      <trkpt lat="48.578986" lon="16.496189">
        <ele>274.860509</ele>
        <time>2020-08-20T06:10:23.561Z</time>
      </trkpt>
      <trkpt lat="48.579049" lon="16.496089">
        <ele>274.897974</ele>
        <time>2020-08-20T06:10:25.595Z</time>
      </trkpt>
      <trkpt lat="48.579131" lon="16.495973">
        <ele>274.944032</ele>
        <time>2020-08-20T06:10:27.581Z</time>
      </trkpt>
      <trkpt lat="48.579222" lon="16.495878">
        <ele>274.989387</ele>
        <time>2020-08-20T06:10:29.578Z</time>
      </trkpt>
      <trkpt lat="48.579302" lon="16.495799">
        <ele>275.028576</ele>
        <time>2020-08-20T06:10:31.550Z</time>
      </trkpt>
      <trkpt lat="48.579409" lon="16.495690">
        <ele>275.078067</ele>
        <time>2020-08-20T06:10:34.560Z</time>
      </trkpt>
      <trkpt lat="48.579518" lon="16.495597">
        <ele>275.101020</ele>
        <time>2020-08-20T06:10:37.560Z</time>
      </trkpt>
      <trkpt lat="48.579627" lon="16.495498">
        <ele>275.124339</ele>
        <time>2020-08-20T06:10:40.569Z</time>
      </trkpt>
      <trkpt lat="48.579749" lon="16.495391">
        <ele>275.150205</ele>
        <time>2020-08-20T06:10:43.591Z</time>
      </trkpt>
      <trkpt lat="48.579836" lon="16.495315">
        <ele>275.168632</ele>
        <time>2020-08-20T06:10:45.578Z</time>
      </trkpt>
      <trkpt lat="48.579924" lon="16.495246">
        <ele>275.186812</ele>
        <time>2020-08-20T06:10:47.569Z</time>
      </trkpt>
      <trkpt lat="48.580007" lon="16.495165">
        <ele>275.204929</ele>
        <time>2020-08-20T06:10:49.555Z</time>
      </trkpt>
      <trkpt lat="48.580092" lon="16.495083">
        <ele>275.223421</ele>
        <time>2020-08-20T06:10:51.562Z</time>
      </trkpt>
      <trkpt lat="48.580176" lon="16.495004">
        <ele>275.241563</ele>
        <time>2020-08-20T06:10:53.580Z</time>
      </trkpt>
      <trkpt lat="48.580262" lon="16.494924">
        <ele>275.260081</ele>
        <time>2020-08-20T06:10:55.579Z</time>
      </trkpt>
      <trkpt lat="48.580351" lon="16.494844">
        <ele>275.279070</ele>
        <time>2020-08-20T06:10:57.588Z</time>
      </trkpt>
      <trkpt lat="48.580435" lon="16.494757">
        <ele>275.297743</ele>
        <time>2020-08-20T06:10:59.569Z</time>
      </trkpt>
      <trkpt lat="48.580520" lon="16.494673">
        <ele>275.316366</ele>
        <time>2020-08-20T06:11:01.558Z</time>
      </trkpt>
      <trkpt lat="48.580598" lon="16.494588">
        <ele>275.334000</ele>
        <time>2020-08-20T06:11:03.606Z</time>
      </trkpt>
      <trkpt lat="48.580675" lon="16.494509">
        <ele>275.351066</ele>
        <time>2020-08-20T06:11:05.547Z</time>
      </trkpt>
      <trkpt lat="48.580785" lon="16.494405">
        <ele>275.374858</ele>
        <time>2020-08-20T06:11:08.587Z</time>
      </trkpt>
      <trkpt lat="48.580887" lon="16.494505">
        <ele>275.397153</ele>
        <time>2020-08-20T06:11:11.552Z</time>
      </trkpt>
      <trkpt lat="48.580999" lon="16.494555">
        <ele>275.403597</ele>
        <time>2020-08-20T06:11:14.545Z</time>
      </trkpt>
      <trkpt lat="48.581081" lon="16.494492">
        <ele>275.401666</ele>
        <time>2020-08-20T06:11:16.558Z</time>
      </trkpt>
      <trkpt lat="48.581165" lon="16.494414">
        <ele>275.399597</ele>
        <time>2020-08-20T06:11:18.562Z</time>
      </trkpt>
      <trkpt lat="48.581245" lon="16.494333">
        <ele>275.397576</ele>
        <time>2020-08-20T06:11:20.581Z</time>
      </trkpt>
      <trkpt lat="48.581326" lon="16.494261">
        <ele>275.395604</ele>
        <time>2020-08-20T06:11:22.564Z</time>
      </trkpt>
      <trkpt lat="48.581411" lon="16.494184">
        <ele>275.393524</ele>
        <time>2020-08-20T06:11:24.575Z</time>
      </trkpt>
      <trkpt lat="48.581491" lon="16.494117">
        <ele>275.391604</ele>
        <time>2020-08-20T06:11:26.573Z</time>
      </trkpt>
      <trkpt lat="48.581576" lon="16.494053">
        <ele>275.389611</ele>
        <time>2020-08-20T06:11:28.574Z</time>
      </trkpt>
      <trkpt lat="48.581664" lon="16.493978">
        <ele>275.387491</ele>
        <time>2020-08-20T06:11:30.569Z</time>
      </trkpt>
      <trkpt lat="48.581750" lon="16.493906">
        <ele>275.385427</ele>
        <time>2020-08-20T06:11:32.575Z</time>
      </trkpt>
      <trkpt lat="48.581834" lon="16.493841">
        <ele>275.383447</ele>
        <time>2020-08-20T06:11:34.559Z</time>
      </trkpt>
      <trkpt lat="48.581923" lon="16.493797">
        <ele>275.381481</ele>
        <time>2020-08-20T06:11:36.557Z</time>
      </trkpt>
      <trkpt lat="48.582011" lon="16.493747">
        <ele>275.379508</ele>
        <time>2020-08-20T06:11:38.561Z</time>
      </trkpt>
      <trkpt lat="48.582097" lon="16.493680">
        <ele>275.377477</ele>
        <time>2020-08-20T06:11:40.569Z</time>
      </trkpt>
      <trkpt lat="48.582180" lon="16.493617">
        <ele>275.375528</ele>
        <time>2020-08-20T06:11:42.580Z</time>
      </trkpt>
      <trkpt lat="48.582263" lon="16.493561">
        <ele>275.373620</ele>
        <time>2020-08-20T06:11:44.562Z</time>
      </trkpt>
      <trkpt lat="48.582349" lon="16.493498">
        <ele>275.371614</ele>
        <time>2020-08-20T06:11:46.602Z</time>
      </trkpt>
      <trkpt lat="48.582465" lon="16.493397">
        <ele>275.368805</ele>
        <time>2020-08-20T06:11:49.557Z</time>
      </trkpt>
      <trkpt lat="48.582587" lon="16.493311">
        <ele>275.371423</ele>
        <time>2020-08-20T06:11:52.574Z</time>
      </trkpt>
      <trkpt lat="48.582670" lon="16.493250">
        <ele>275.376999</ele>
        <time>2020-08-20T06:11:54.565Z</time>
      </trkpt>
      <trkpt lat="48.582790" lon="16.493162">
        <ele>275.385058</ele>
        <time>2020-08-20T06:11:57.561Z</time>
      </trkpt>
      <trkpt lat="48.582904" lon="16.493061">
        <ele>275.393042</ele>
        <time>2020-08-20T06:12:00.577Z</time>
      </trkpt>
      <trkpt lat="48.582984" lon="16.492986">
        <ele>275.398730</ele>
        <time>2020-08-20T06:12:02.558Z</time>
      </trkpt>
      <trkpt lat="48.583070" lon="16.492910">
        <ele>275.404749</ele>
        <time>2020-08-20T06:12:04.574Z</time>
      </trkpt>
      <trkpt lat="48.583156" lon="16.492836">
        <ele>275.410728</ele>
        <time>2020-08-20T06:12:06.579Z</time>
      </trkpt>
      <trkpt lat="48.583237" lon="16.492749">
        <ele>275.416731</ele>
        <time>2020-08-20T06:12:08.570Z</time>
      </trkpt>
      <trkpt lat="48.583315" lon="16.492661">
        <ele>275.422612</ele>
        <time>2020-08-20T06:12:10.571Z</time>
      </trkpt>
      <trkpt lat="48.583395" lon="16.492571">
        <ele>275.428637</ele>
        <time>2020-08-20T06:12:12.562Z</time>
      </trkpt>
      <trkpt lat="48.583474" lon="16.492478">
        <ele>275.434687</ele>
        <time>2020-08-20T06:12:14.559Z</time>
      </trkpt>
      <trkpt lat="48.583559" lon="16.492401">
        <ele>275.440675</ele>
        <time>2020-08-20T06:12:16.560Z</time>
      </trkpt>
      <trkpt lat="48.583635" lon="16.492306">
        <ele>275.446633</ele>
        <time>2020-08-20T06:12:18.563Z</time>
      </trkpt>
      <trkpt lat="48.583704" lon="16.492195">
        <ele>275.452721</ele>
        <time>2020-08-20T06:12:20.569Z</time>
      </trkpt>
      <trkpt lat="48.583770" lon="16.492082">
        <ele>275.458746</ele>
        <time>2020-08-20T06:12:22.562Z</time>
      </trkpt>
      <trkpt lat="48.583836" lon="16.491977">
        <ele>275.464536</ele>
        <time>2020-08-20T06:12:24.552Z</time>
      </trkpt>
      <trkpt lat="48.583902" lon="16.491871">
        <ele>275.470354</ele>
        <time>2020-08-20T06:12:26.544Z</time>
      </trkpt>
      <trkpt lat="48.583971" lon="16.491761">
        <ele>275.475948</ele>
        <time>2020-08-20T06:12:28.560Z</time>
      </trkpt>
      <trkpt lat="48.584039" lon="16.491658">
        <ele>275.474139</ele>
        <time>2020-08-20T06:12:30.556Z</time>
      </trkpt>
      <trkpt lat="48.584107" lon="16.491561">
        <ele>275.472382</ele>
        <time>2020-08-20T06:12:32.559Z</time>
      </trkpt>
      <trkpt lat="48.584172" lon="16.491461">
        <ele>275.470639</ele>
        <time>2020-08-20T06:12:34.562Z</time>
      </trkpt>
      <trkpt lat="48.584237" lon="16.491367">
        <ele>275.468948</ele>
        <time>2020-08-20T06:12:36.564Z</time>
      </trkpt>
      <trkpt lat="48.584333" lon="16.491246">
        <ele>275.466599</ele>
        <time>2020-08-20T06:12:39.558Z</time>
      </trkpt>
      <trkpt lat="48.584438" lon="16.491316">
        <ele>275.464443</ele>
        <time>2020-08-20T06:12:42.563Z</time>
      </trkpt>
      <trkpt lat="48.584506" lon="16.491424">
        <ele>275.462589</ele>
        <time>2020-08-20T06:12:44.568Z</time>
      </trkpt>
      <trkpt lat="48.584584" lon="16.491542">
        <ele>275.460516</ele>
        <time>2020-08-20T06:12:46.561Z</time>
      </trkpt>
      <trkpt lat="48.584661" lon="16.491654">
        <ele>275.458508</ele>
        <time>2020-08-20T06:12:48.564Z</time>
      </trkpt>
      <trkpt lat="48.584745" lon="16.491772">
        <ele>275.456353</ele>
        <time>2020-08-20T06:12:50.574Z</time>
      </trkpt>
      <trkpt lat="48.584833" lon="16.491890">
        <ele>275.454142</ele>
        <time>2020-08-20T06:12:52.547Z</time>
      </trkpt>
      <trkpt lat="48.584920" lon="16.492013">
        <ele>275.451904</ele>
        <time>2020-08-20T06:12:54.559Z</time>
      </trkpt>
      <trkpt lat="48.585005" lon="16.492145">
        <ele>275.449614</ele>
        <time>2020-08-20T06:12:56.567Z</time>
      </trkpt>
      <trkpt lat="48.585091" lon="16.492267">
        <ele>275.447397</ele>
        <time>2020-08-20T06:12:58.587Z</time>
      </trkpt>
      <trkpt lat="48.585184" lon="16.492392">
        <ele>275.445059</ele>
        <time>2020-08-20T06:13:00.570Z</time>
      </trkpt>
      <trkpt lat="48.585281" lon="16.492517">
        <ele>275.442663</ele>
        <time>2020-08-20T06:13:02.564Z</time>
      </trkpt>
      <trkpt lat="48.585376" lon="16.492640">
        <ele>275.551398</ele>
        <time>2020-08-20T06:13:04.581Z</time>
      </trkpt>
      <trkpt lat="48.585472" lon="16.492754">
        <ele>275.680161</ele>
        <time>2020-08-20T06:13:06.594Z</time>
      </trkpt>
      <trkpt lat="48.585567" lon="16.492850">
        <ele>275.800689</ele>
        <time>2020-08-20T06:13:08.606Z</time>
      </trkpt>
      <trkpt lat="48.585642" lon="16.492929">
        <ele>275.897106</ele>
        <time>2020-08-20T06:13:10.558Z</time>
      </trkpt>
      <trkpt lat="48.585736" lon="16.492990">
        <ele>276.005003</ele>
        <time>2020-08-20T06:13:13.609Z</time>
      </trkpt>
      <trkpt lat="48.585819" lon="16.492909">
        <ele>276.109206</ele>
        <time>2020-08-20T06:13:16.567Z</time>
      </trkpt>
      <trkpt lat="48.585926" lon="16.492825">
        <ele>276.236376</ele>
        <time>2020-08-20T06:13:19.549Z</time>
      </trkpt>
      <trkpt lat="48.586018" lon="16.492800">
        <ele>276.334970</ele>
        <time>2020-08-20T06:13:21.562Z</time>
      </trkpt>
      <trkpt lat="48.586105" lon="16.492760">
        <ele>276.430884</ele>
        <time>2020-08-20T06:13:23.558Z</time>
      </trkpt>
      <trkpt lat="48.586227" lon="16.492679">
        <ele>276.571429</ele>
        <time>2020-08-20T06:13:26.576Z</time>
      </trkpt>
      <trkpt lat="48.586346" lon="16.492605">
        <ele>276.707150</ele>
        <time>2020-08-20T06:13:29.575Z</time>
      </trkpt>
      <trkpt lat="48.586458" lon="16.492539">
        <ele>276.833942</ele>
        <time>2020-08-20T06:13:32.570Z</time>
      </trkpt>
      <trkpt lat="48.586575" lon="16.492465">
        <ele>276.967714</ele>
        <time>2020-08-20T06:13:35.556Z</time>
      </trkpt>
      <trkpt lat="48.586691" lon="16.492389">
        <ele>277.101063</ele>
        <time>2020-08-20T06:13:38.604Z</time>
      </trkpt>
      <trkpt lat="48.586795" lon="16.492305">
        <ele>277.225433</ele>
        <time>2020-08-20T06:13:41.566Z</time>
      </trkpt>
      <trkpt lat="48.586875" lon="16.492213">
        <ele>277.331454</ele>
        <time>2020-08-20T06:13:44.559Z</time>
      </trkpt>
      <trkpt lat="48.586956" lon="16.492116">
        <ele>277.458159</ele>
        <time>2020-08-20T06:13:47.557Z</time>
      </trkpt>
      <trkpt lat="48.587040" lon="16.492017">
        <ele>277.590193</ele>
        <time>2020-08-20T06:13:50.560Z</time>
      </trkpt>
      <trkpt lat="48.587129" lon="16.491921">
        <ele>277.725726</ele>
        <time>2020-08-20T06:13:53.565Z</time>
      </trkpt>
      <trkpt lat="48.587209" lon="16.491811">
        <ele>277.859781</ele>
        <time>2020-08-20T06:13:56.557Z</time>
      </trkpt>
      <trkpt lat="48.587274" lon="16.491690">
        <ele>277.987597</ele>
        <time>2020-08-20T06:13:59.583Z</time>
      </trkpt>
      <trkpt lat="48.587346" lon="16.491559">
        <ele>278.127258</ele>
        <time>2020-08-20T06:14:02.569Z</time>
      </trkpt>
      <trkpt lat="48.587438" lon="16.491452">
        <ele>278.271150</ele>
        <time>2020-08-20T06:14:05.549Z</time>
      </trkpt>
      <trkpt lat="48.587550" lon="16.491383">
        <ele>278.421075</ele>
        <time>2020-08-20T06:14:08.549Z</time>
      </trkpt>
      <trkpt lat="48.587672" lon="16.491356">
        <ele>278.573923</ele>
        <time>2020-08-20T06:14:11.545Z</time>
      </trkpt>
      <trkpt lat="48.587802" lon="16.491343">
        <ele>278.735428</ele>
        <time>2020-08-20T06:14:14.565Z</time>
      </trkpt>
      <trkpt lat="48.587927" lon="16.491323">
        <ele>278.891248</ele>
        <time>2020-08-20T06:14:17.552Z</time>
      </trkpt>
      <trkpt lat="48.588042" lon="16.491295">
        <ele>279.035643</ele>
        <time>2020-08-20T06:14:20.557Z</time>
      </trkpt>
      <trkpt lat="48.588157" lon="16.491279">
        <ele>279.178804</ele>
        <time>2020-08-20T06:14:23.561Z</time>
      </trkpt>
      <trkpt lat="48.588259" lon="16.491286">
        <ele>279.305377</ele>
        <time>2020-08-20T06:14:26.568Z</time>
      </trkpt>
      <trkpt lat="48.588316" lon="16.491396">
        <ele>279.419956</ele>
        <time>2020-08-20T06:14:31.560Z</time>
      </trkpt>
      <trkpt lat="48.588417" lon="16.491482">
        <ele>279.563653</ele>
        <time>2020-08-20T06:14:35.575Z</time>
      </trkpt>
      <trkpt lat="48.588513" lon="16.491557">
        <ele>279.579240</ele>
        <time>2020-08-20T06:14:38.566Z</time>
      </trkpt>
      <trkpt lat="48.588615" lon="16.491666">
        <ele>279.591494</ele>
        <time>2020-08-20T06:14:41.577Z</time>
      </trkpt>
      <trkpt lat="48.588642" lon="16.491852">
        <ele>279.603851</ele>
        <time>2020-08-20T06:14:44.548Z</time>
      </trkpt>
      <trkpt lat="48.588647" lon="16.492056">
        <ele>279.617097</ele>
        <time>2020-08-20T06:14:47.554Z</time>
      </trkpt>
      <trkpt lat="48.588654" lon="16.492252">
        <ele>279.629835</ele>
        <time>2020-08-20T06:14:50.571Z</time>
      </trkpt>
      <trkpt lat="48.588658" lon="16.492395">
        <ele>279.639122</ele>
        <time>2020-08-20T06:14:52.548Z</time>
      </trkpt>
      <trkpt lat="48.588648" lon="16.492549">
        <ele>279.649164</ele>
        <time>2020-08-20T06:14:54.565Z</time>
      </trkpt>
      <trkpt lat="48.588625" lon="16.492714">
        <ele>279.660106</ele>
        <time>2020-08-20T06:14:56.592Z</time>
      </trkpt>
      <trkpt lat="48.588571" lon="16.492872">
        <ele>279.671647</ele>
        <time>2020-08-20T06:14:58.570Z</time>
      </trkpt>
      <trkpt lat="48.588488" lon="16.493009">
        <ele>279.683702</ele>
        <time>2020-08-20T06:15:00.588Z</time>
      </trkpt>
      <trkpt lat="48.588389" lon="16.493135">
        <ele>279.696398</ele>
        <time>2020-08-20T06:15:02.552Z</time>
      </trkpt>
      <trkpt lat="48.588279" lon="16.493244">
        <ele>279.709301</ele>
        <time>2020-08-20T06:15:04.538Z</time>
      </trkpt>
      <trkpt lat="48.588175" lon="16.493294">
        <ele>279.720007</ele>
        <time>2020-08-20T06:15:06.560Z</time>
      </trkpt>
      <trkpt lat="48.588086" lon="16.493335">
        <ele>279.729134</ele>
        <time>2020-08-20T06:15:09.551Z</time>
      </trkpt>
      <trkpt lat="48.588085" lon="16.493516">
        <ele>279.740880</ele>
        <time>2020-08-20T06:15:14.555Z</time>
      </trkpt>
      <trkpt lat="48.588147" lon="16.493628">
        <ele>279.689883</ele>
        <time>2020-08-20T06:15:16.554Z</time>
      </trkpt>
      <trkpt lat="48.588216" lon="16.493760">
        <ele>279.564334</ele>
        <time>2020-08-20T06:15:18.575Z</time>
      </trkpt>
      <trkpt lat="48.588282" lon="16.493894">
        <ele>279.439662</ele>
        <time>2020-08-20T06:15:20.556Z</time>
      </trkpt>
      <trkpt lat="48.588351" lon="16.494023">
        <ele>279.315862</ele>
        <time>2020-08-20T06:15:22.552Z</time>
      </trkpt>
      <trkpt lat="48.588442" lon="16.494099">
        <ele>279.198575</ele>
        <time>2020-08-20T06:15:24.560Z</time>
      </trkpt>
      <trkpt lat="48.588552" lon="16.494077">
        <ele>279.073397</ele>
        <time>2020-08-20T06:15:26.569Z</time>
      </trkpt>
      <trkpt lat="48.588655" lon="16.493991">
        <ele>278.940652</ele>
        <time>2020-08-20T06:15:28.550Z</time>
      </trkpt>
      <trkpt lat="48.588752" lon="16.493904">
        <ele>278.813411</ele>
        <time>2020-08-20T06:15:30.578Z</time>
      </trkpt>
      <trkpt lat="48.588842" lon="16.493817">
        <ele>278.692895</ele>
        <time>2020-08-20T06:15:32.564Z</time>
      </trkpt>
      <trkpt lat="48.588927" lon="16.493731">
        <ele>278.577509</ele>
        <time>2020-08-20T06:15:34.575Z</time>
      </trkpt>
      <trkpt lat="48.589010" lon="16.493643">
        <ele>278.463140</ele>
        <time>2020-08-20T06:15:36.592Z</time>
      </trkpt>
      <trkpt lat="48.589099" lon="16.493569">
        <ele>278.348550</ele>
        <time>2020-08-20T06:15:38.574Z</time>
      </trkpt>
      <trkpt lat="48.589188" lon="16.493492">
        <ele>278.232865</ele>
        <time>2020-08-20T06:15:40.562Z</time>
      </trkpt>
      <trkpt lat="48.589271" lon="16.493418">
        <ele>278.124158</ele>
        <time>2020-08-20T06:15:42.575Z</time>
      </trkpt>
      <trkpt lat="48.589355" lon="16.493348">
        <ele>278.015950</ele>
        <time>2020-08-20T06:15:44.550Z</time>
      </trkpt>
      <trkpt lat="48.589422" lon="16.493240">
        <ele>277.905458</ele>
        <time>2020-08-20T06:15:46.569Z</time>
      </trkpt>
      <trkpt lat="48.589487" lon="16.493134">
        <ele>277.797597</ele>
        <time>2020-08-20T06:15:48.530Z</time>
      </trkpt>
      <trkpt lat="48.589544" lon="16.493009">
        <ele>277.696760</ele>
        <time>2020-08-20T06:15:50.538Z</time>
      </trkpt>
      <trkpt lat="48.589594" lon="16.492880">
        <ele>277.628545</ele>
        <time>2020-08-20T06:15:52.584Z</time>
      </trkpt>
      <trkpt lat="48.589645" lon="16.492751">
        <ele>277.559978</ele>
        <time>2020-08-20T06:15:54.579Z</time>
      </trkpt>
      <trkpt lat="48.589709" lon="16.492628">
        <ele>277.488579</ele>
        <time>2020-08-20T06:15:56.564Z</time>
      </trkpt>
      <trkpt lat="48.589786" lon="16.492538">
        <ele>277.421446</ele>
        <time>2020-08-20T06:15:58.559Z</time>
      </trkpt>
      <trkpt lat="48.589904" lon="16.492503">
        <ele>277.338503</ele>
        <time>2020-08-20T06:16:01.552Z</time>
      </trkpt>
      <trkpt lat="48.589993" lon="16.492481">
        <ele>277.276300</ele>
        <time>2020-08-20T06:16:03.549Z</time>
      </trkpt>
      <trkpt lat="48.590090" lon="16.492474">
        <ele>277.209317</ele>
        <time>2020-08-20T06:16:05.562Z</time>
      </trkpt>
      <trkpt lat="48.590182" lon="16.492420">
        <ele>277.141245</ele>
        <time>2020-08-20T06:16:07.567Z</time>
      </trkpt>
      <trkpt lat="48.590278" lon="16.492353">
        <ele>277.068313</ele>
        <time>2020-08-20T06:16:09.561Z</time>
      </trkpt>
      <trkpt lat="48.590380" lon="16.492287">
        <ele>276.991785</ele>
        <time>2020-08-20T06:16:11.549Z</time>
      </trkpt>
      <trkpt lat="48.590479" lon="16.492222">
        <ele>276.917338</ele>
        <time>2020-08-20T06:16:13.554Z</time>
      </trkpt>
      <trkpt lat="48.590577" lon="16.492143">
        <ele>276.840733</ele>
        <time>2020-08-20T06:16:15.571Z</time>
      </trkpt>
      <trkpt lat="48.590672" lon="16.492067">
        <ele>276.766598</ele>
        <time>2020-08-20T06:16:17.545Z</time>
      </trkpt>
      <trkpt lat="48.590767" lon="16.492011">
        <ele>276.696266</ele>
        <time>2020-08-20T06:16:19.561Z</time>
      </trkpt>
      <trkpt lat="48.590858" lon="16.491947">
        <ele>276.627039</ele>
        <time>2020-08-20T06:16:21.555Z</time>
      </trkpt>
      <trkpt lat="48.590950" lon="16.491882">
        <ele>276.556995</ele>
        <time>2020-08-20T06:16:23.551Z</time>
      </trkpt>
      <trkpt lat="48.591041" lon="16.491820">
        <ele>276.488148</ele>
        <time>2020-08-20T06:16:25.561Z</time>
      </trkpt>
      <trkpt lat="48.591146" lon="16.491817">
        <ele>276.503038</ele>
        <time>2020-08-20T06:16:28.560Z</time>
      </trkpt>
      <trkpt lat="48.591178" lon="16.491984">
        <ele>276.539119</ele>
        <time>2020-08-20T06:16:31.573Z</time>
      </trkpt>
      <trkpt lat="48.591209" lon="16.492159">
        <ele>276.576714</ele>
        <time>2020-08-20T06:16:34.575Z</time>
      </trkpt>
      <trkpt lat="48.591238" lon="16.492346">
        <ele>276.616573</ele>
        <time>2020-08-20T06:16:37.600Z</time>
      </trkpt>
      <trkpt lat="48.591266" lon="16.492542">
        <ele>276.658184</ele>
        <time>2020-08-20T06:16:40.572Z</time>
      </trkpt>
      <trkpt lat="48.591273" lon="16.492740">
        <ele>276.699332</ele>
        <time>2020-08-20T06:16:43.603Z</time>
      </trkpt>
      <trkpt lat="48.591275" lon="16.492879">
        <ele>276.728184</ele>
        <time>2020-08-20T06:16:45.573Z</time>
      </trkpt>
      <trkpt lat="48.591277" lon="16.493020">
        <ele>276.757450</ele>
        <time>2020-08-20T06:16:47.564Z</time>
      </trkpt>
      <trkpt lat="48.591278" lon="16.493158">
        <ele>276.786090</ele>
        <time>2020-08-20T06:16:49.594Z</time>
      </trkpt>
      <trkpt lat="48.591274" lon="16.493296">
        <ele>276.814755</ele>
        <time>2020-08-20T06:16:51.574Z</time>
      </trkpt>
      <trkpt lat="48.591267" lon="16.493435">
        <ele>276.843683</ele>
        <time>2020-08-20T06:16:53.561Z</time>
      </trkpt>
      <trkpt lat="48.591261" lon="16.493577">
        <ele>276.873211</ele>
        <time>2020-08-20T06:16:55.592Z</time>
      </trkpt>
      <trkpt lat="48.591259" lon="16.493725">
        <ele>276.903930</ele>
        <time>2020-08-20T06:16:57.571Z</time>
      </trkpt>
      <trkpt lat="48.591261" lon="16.493873">
        <ele>276.934650</ele>
        <time>2020-08-20T06:16:59.570Z</time>
      </trkpt>
      <trkpt lat="48.591262" lon="16.494012">
        <ele>276.963496</ele>
        <time>2020-08-20T06:17:01.563Z</time>
      </trkpt>
      <trkpt lat="48.591265" lon="16.494162">
        <ele>276.994638</ele>
        <time>2020-08-20T06:17:03.561Z</time>
      </trkpt>
      <trkpt lat="48.591261" lon="16.494304">
        <ele>277.024133</ele>
        <time>2020-08-20T06:17:05.576Z</time>
      </trkpt>
      <trkpt lat="48.591255" lon="16.494452">
        <ele>277.051495</ele>
        <time>2020-08-20T06:17:07.556Z</time>
      </trkpt>
      <trkpt lat="48.591248" lon="16.494592">
        <ele>277.073945</ele>
        <time>2020-08-20T06:17:09.594Z</time>
      </trkpt>
      <trkpt lat="48.591253" lon="16.494733">
        <ele>277.096524</ele>
        <time>2020-08-20T06:17:11.593Z</time>
      </trkpt>
      <trkpt lat="48.591255" lon="16.494868">
        <ele>277.118116</ele>
        <time>2020-08-20T06:17:13.601Z</time>
      </trkpt>
      <trkpt lat="48.591260" lon="16.495006">
        <ele>277.140215</ele>
        <time>2020-08-20T06:17:15.572Z</time>
      </trkpt>
      <trkpt lat="48.591270" lon="16.495199">
        <ele>277.171171</ele>
        <time>2020-08-20T06:17:18.590Z</time>
      </trkpt>
      <trkpt lat="48.591274" lon="16.495392">
        <ele>277.202047</ele>
        <time>2020-08-20T06:17:21.571Z</time>
      </trkpt>
      <trkpt lat="48.591272" lon="16.495527">
        <ele>277.223639</ele>
        <time>2020-08-20T06:17:23.590Z</time>
      </trkpt>
      <trkpt lat="48.591272" lon="16.495668">
        <ele>277.246186</ele>
        <time>2020-08-20T06:17:25.575Z</time>
      </trkpt>
      <trkpt lat="48.591302" lon="16.495798">
        <ele>277.268202</ele>
        <time>2020-08-20T06:17:27.554Z</time>
      </trkpt>
      <trkpt lat="48.591429" lon="16.495819">
        <ele>277.299088</ele>
        <time>2020-08-20T06:17:30.564Z</time>
      </trkpt>
      <trkpt lat="48.591544" lon="16.495826">
        <ele>277.326912</ele>
        <time>2020-08-20T06:17:33.571Z</time>
      </trkpt>
      <trkpt lat="48.591663" lon="16.495863">
        <ele>277.356282</ele>
        <time>2020-08-20T06:17:36.559Z</time>
      </trkpt>
      <trkpt lat="48.591765" lon="16.495967">
        <ele>277.386025</ele>
        <time>2020-08-20T06:17:39.563Z</time>
      </trkpt>
      <trkpt lat="48.591847" lon="16.496093">
        <ele>277.414290</ele>
        <time>2020-08-20T06:17:42.567Z</time>
      </trkpt>
      <trkpt lat="48.591931" lon="16.496218">
        <ele>277.442783</ele>
        <time>2020-08-20T06:17:45.579Z</time>
      </trkpt>
      <trkpt lat="48.592009" lon="16.496360">
        <ele>277.472298</ele>
        <time>2020-08-20T06:17:48.542Z</time>
      </trkpt>
      <trkpt lat="48.592091" lon="16.496493">
        <ele>277.484918</ele>
        <time>2020-08-20T06:17:51.550Z</time>
      </trkpt>
      <trkpt lat="48.592168" lon="16.496624">
        <ele>277.495538</ele>
        <time>2020-08-20T06:17:54.562Z</time>
      </trkpt>
      <trkpt lat="48.592241" lon="16.496756">
        <ele>277.505964</ele>
        <time>2020-08-20T06:17:57.566Z</time>
      </trkpt>
      <trkpt lat="48.592318" lon="16.496893">
        <ele>277.516858</ele>
        <time>2020-08-20T06:18:00.558Z</time>
      </trkpt>
      <trkpt lat="48.592395" lon="16.497032">
        <ele>277.527845</ele>
        <time>2020-08-20T06:18:03.555Z</time>
      </trkpt>
      <trkpt lat="48.592470" lon="16.497160">
        <ele>277.538207</ele>
        <time>2020-08-20T06:18:06.600Z</time>
      </trkpt>
      <trkpt lat="48.592544" lon="16.497291">
        <ele>277.548646</ele>
        <time>2020-08-20T06:18:09.566Z</time>
      </trkpt>
      <trkpt lat="48.592618" lon="16.497418">
        <ele>277.558902</ele>
        <time>2020-08-20T06:18:12.566Z</time>
      </trkpt>
      <trkpt lat="48.592687" lon="16.497550">
        <ele>277.569097</ele>
        <time>2020-08-20T06:18:15.575Z</time>
      </trkpt>
      <trkpt lat="48.592761" lon="16.497694">
        <ele>277.580147</ele>
        <time>2020-08-20T06:18:18.563Z</time>
      </trkpt>
      <trkpt lat="48.592826" lon="16.497846">
        <ele>277.591115</ele>
        <time>2020-08-20T06:18:21.563Z</time>
      </trkpt>
      <trkpt lat="48.592889" lon="16.497998">
        <ele>277.601985</ele>
        <time>2020-08-20T06:18:24.564Z</time>
      </trkpt>
      <trkpt lat="48.592950" lon="16.498155">
        <ele>277.613019</ele>
        <time>2020-08-20T06:18:27.582Z</time>
      </trkpt>
      <trkpt lat="48.593010" lon="16.498312">
        <ele>277.624006</ele>
        <time>2020-08-20T06:18:30.569Z</time>
      </trkpt>
      <trkpt lat="48.593066" lon="16.498463">
        <ele>277.634496</ele>
        <time>2020-08-20T06:18:33.573Z</time>
      </trkpt>
      <trkpt lat="48.593111" lon="16.498616">
        <ele>277.660264</ele>
        <time>2020-08-20T06:18:36.550Z</time>
      </trkpt>
      <trkpt lat="48.593145" lon="16.498779">
        <ele>277.703108</ele>
        <time>2020-08-20T06:18:39.554Z</time>
      </trkpt>
      <trkpt lat="48.593182" lon="16.498942">
        <ele>277.746308</ele>
        <time>2020-08-20T06:18:42.565Z</time>
      </trkpt>
      <trkpt lat="48.593204" lon="16.499100">
        <ele>277.786783</ele>
        <time>2020-08-20T06:18:45.594Z</time>
      </trkpt>
      <trkpt lat="48.593227" lon="16.499260">
        <ele>277.827828</ele>
        <time>2020-08-20T06:18:48.560Z</time>
      </trkpt>
      <trkpt lat="48.593228" lon="16.499415">
        <ele>277.866685</ele>
        <time>2020-08-20T06:18:51.563Z</time>
      </trkpt>
      <trkpt lat="48.593229" lon="16.499576">
        <ele>277.907046</ele>
        <time>2020-08-20T06:18:54.557Z</time>
      </trkpt>
      <trkpt lat="48.593229" lon="16.499721">
        <ele>277.943394</ele>
        <time>2020-08-20T06:18:57.596Z</time>
      </trkpt>
      <trkpt lat="48.593223" lon="16.499874">
        <ele>277.981815</ele>
        <time>2020-08-20T06:19:00.563Z</time>
      </trkpt>
      <trkpt lat="48.593209" lon="16.500037">
        <ele>278.023019</ele>
        <time>2020-08-20T06:19:03.538Z</time>
      </trkpt>
      <trkpt lat="48.593191" lon="16.500193">
        <ele>278.062715</ele>
        <time>2020-08-20T06:19:06.559Z</time>
      </trkpt>
      <trkpt lat="48.593165" lon="16.500333">
        <ele>278.099167</ele>
        <time>2020-08-20T06:19:09.551Z</time>
      </trkpt>
      <trkpt lat="48.593145" lon="16.500471">
        <ele>278.134582</ele>
        <time>2020-08-20T06:19:12.574Z</time>
      </trkpt>
      <trkpt lat="48.593122" lon="16.500611">
        <ele>278.170743</ele>
        <time>2020-08-20T06:19:15.584Z</time>
      </trkpt>
      <trkpt lat="48.593098" lon="16.500761">
        <ele>278.209429</ele>
        <time>2020-08-20T06:19:18.559Z</time>
      </trkpt>
      <trkpt lat="48.593083" lon="16.500935">
        <ele>278.253416</ele>
        <time>2020-08-20T06:19:22.578Z</time>
      </trkpt>
      <trkpt lat="48.593078" lon="16.501089">
        <ele>278.292067</ele>
        <time>2020-08-20T06:19:26.562Z</time>
      </trkpt>
      <trkpt lat="48.593057" lon="16.501251">
        <ele>278.358967</ele>
        <time>2020-08-20T06:19:30.606Z</time>
      </trkpt>
      <trkpt lat="48.593045" lon="16.501390">
        <ele>278.468319</ele>
        <time>2020-08-20T06:19:34.564Z</time>
      </trkpt>
      <trkpt lat="48.593038" lon="16.501526">
        <ele>278.574732</ele>
        <time>2020-08-20T06:19:38.562Z</time>
      </trkpt>
      <trkpt lat="48.593020" lon="16.501659">
        <ele>278.680634</ele>
        <time>2020-08-20T06:19:42.579Z</time>
      </trkpt>
      <trkpt lat="48.593002" lon="16.501824">
        <ele>278.811088</ele>
        <time>2020-08-20T06:19:47.580Z</time>
      </trkpt>
      <trkpt lat="48.592999" lon="16.501969">
        <ele>278.924257</ele>
        <time>2020-08-20T06:19:51.590Z</time>
      </trkpt>
      <trkpt lat="48.592990" lon="16.502135">
        <ele>279.054186</ele>
        <time>2020-08-20T06:19:56.579Z</time>
      </trkpt>
      <trkpt lat="48.592996" lon="16.502289">
        <ele>279.174528</ele>
        <time>2020-08-20T06:20:00.565Z</time>
      </trkpt>
      <trkpt lat="48.593014" lon="16.502446">
        <ele>279.298829</ele>
        <time>2020-08-20T06:20:05.555Z</time>
      </trkpt>
      <trkpt lat="48.593040" lon="16.502613">
        <ele>279.432664</ele>
        <time>2020-08-20T06:20:10.562Z</time>
      </trkpt>
      <trkpt lat="48.593056" lon="16.502774">
        <ele>279.559668</ele>
        <time>2020-08-20T06:20:15.578Z</time>
      </trkpt>
      <trkpt lat="48.593091" lon="16.502935">
        <ele>279.691873</ele>
        <time>2020-08-20T06:20:20.600Z</time>
      </trkpt>
      <trkpt lat="48.593127" lon="16.503092">
        <ele>279.821498</ele>
        <time>2020-08-20T06:20:25.571Z</time>
      </trkpt>
      <trkpt lat="48.593156" lon="16.503227">
        <ele>279.932225</ele>
        <time>2020-08-20T06:20:29.568Z</time>
      </trkpt>
      <trkpt lat="48.593190" lon="16.503371">
        <ele>280.051501</ele>
        <time>2020-08-20T06:20:33.607Z</time>
      </trkpt>
      <trkpt lat="48.593220" lon="16.503499">
        <ele>280.157436</ele>
        <time>2020-08-20T06:20:37.596Z</time>
      </trkpt>
      <trkpt lat="48.593260" lon="16.503641">
        <ele>280.277837</ele>
        <time>2020-08-20T06:20:41.562Z</time>
      </trkpt>
      <trkpt lat="48.593296" lon="16.503782">
        <ele>280.395740</ele>
        <time>2020-08-20T06:20:45.585Z</time>
      </trkpt>
      <trkpt lat="48.593354" lon="16.503929">
        <ele>280.554239</ele>
        <time>2020-08-20T06:20:49.574Z</time>
      </trkpt>
      <trkpt lat="48.593409" lon="16.504065">
        <ele>280.714492</ele>
        <time>2020-08-20T06:20:53.597Z</time>
      </trkpt>
      <trkpt lat="48.593475" lon="16.504213">
        <ele>280.893937</ele>
        <time>2020-08-20T06:20:57.593Z</time>
      </trkpt>
      <trkpt lat="48.593529" lon="16.504336">
        <ele>281.042351</ele>
        <time>2020-08-20T06:21:00.579Z</time>
      </trkpt>
      <trkpt lat="48.593603" lon="16.504476">
        <ele>281.222516</ele>
        <time>2020-08-20T06:21:04.600Z</time>
      </trkpt>
      <trkpt lat="48.593663" lon="16.504589">
        <ele>281.368192</ele>
        <time>2020-08-20T06:21:07.574Z</time>
      </trkpt>
      <trkpt lat="48.593725" lon="16.504699">
        <ele>281.513482</ele>
        <time>2020-08-20T06:21:10.570Z</time>
      </trkpt>
      <trkpt lat="48.593788" lon="16.504797">
        <ele>281.650871</ele>
        <time>2020-08-20T06:21:13.587Z</time>
      </trkpt>
      <trkpt lat="48.593867" lon="16.504886">
        <ele>281.800616</ele>
        <time>2020-08-20T06:21:16.580Z</time>
      </trkpt>
      <trkpt lat="48.593948" lon="16.504971">
        <ele>281.950480</ele>
        <time>2020-08-20T06:21:19.598Z</time>
      </trkpt>
      <trkpt lat="48.594030" lon="16.505044">
        <ele>282.095118</ele>
        <time>2020-08-20T06:21:22.596Z</time>
      </trkpt>
      <trkpt lat="48.594111" lon="16.505108">
        <ele>282.234032</ele>
        <time>2020-08-20T06:21:25.571Z</time>
      </trkpt>
      <trkpt lat="48.594199" lon="16.505170">
        <ele>282.381598</ele>
        <time>2020-08-20T06:21:28.559Z</time>
      </trkpt>
      <trkpt lat="48.594307" lon="16.505240">
        <ele>282.560201</ele>
        <time>2020-08-20T06:21:32.595Z</time>
      </trkpt>
      <trkpt lat="48.594410" lon="16.505314">
        <ele>282.733533</ele>
        <time>2020-08-20T06:21:36.570Z</time>
      </trkpt>
      <trkpt lat="48.594513" lon="16.505386">
        <ele>282.906011</ele>
        <time>2020-08-20T06:21:40.590Z</time>
      </trkpt>
      <trkpt lat="48.594614" lon="16.505455">
        <ele>283.074471</ele>
        <time>2020-08-20T06:21:44.587Z</time>
      </trkpt>
      <trkpt lat="48.594706" lon="16.505522">
        <ele>283.282577</ele>
        <time>2020-08-20T06:21:48.568Z</time>
      </trkpt>
      <trkpt lat="48.594798" lon="16.505589">
        <ele>283.592578</ele>
        <time>2020-08-20T06:21:52.578Z</time>
      </trkpt>
      <trkpt lat="48.594884" lon="16.505652">
        <ele>283.882683</ele>
        <time>2020-08-20T06:21:56.582Z</time>
      </trkpt>
      <trkpt lat="48.594984" lon="16.505732">
        <ele>284.226136</ele>
        <time>2020-08-20T06:22:01.580Z</time>
      </trkpt>
      <trkpt lat="48.595076" lon="16.505811">
        <ele>284.547325</ele>
        <time>2020-08-20T06:22:06.570Z</time>
      </trkpt>
      <trkpt lat="48.595158" lon="16.505892">
        <ele>284.844675</ele>
        <time>2020-08-20T06:22:11.568Z</time>
      </trkpt>
      <trkpt lat="48.595251" lon="16.505961">
        <ele>285.159161</ele>
        <time>2020-08-20T06:22:16.564Z</time>
      </trkpt>
      <trkpt lat="48.595349" lon="16.506022">
        <ele>285.480890</ele>
        <time>2020-08-20T06:22:21.565Z</time>
      </trkpt>
      <trkpt lat="48.595433" lon="16.506084">
        <ele>285.764657</ele>
        <time>2020-08-20T06:22:25.603Z</time>
      </trkpt>
      <trkpt lat="48.595526" lon="16.506161">
        <ele>286.086542</ele>
        <time>2020-08-20T06:22:30.563Z</time>
      </trkpt>
      <trkpt lat="48.595611" lon="16.506206">
        <ele>286.359943</ele>
        <time>2020-08-20T06:22:34.601Z</time>
      </trkpt>
      <trkpt lat="48.595701" lon="16.506262">
        <ele>286.655393</ele>
        <time>2020-08-20T06:22:39.574Z</time>
      </trkpt>
      <trkpt lat="48.595800" lon="16.506310">
        <ele>286.971009</ele>
        <time>2020-08-20T06:22:44.606Z</time>
      </trkpt>
      <trkpt lat="48.595902" lon="16.506364">
        <ele>287.299090</ele>
        <time>2020-08-20T06:22:49.592Z</time>
      </trkpt>
      <trkpt lat="48.595999" lon="16.506416">
        <ele>287.611521</ele>
        <time>2020-08-20T06:22:54.589Z</time>
      </trkpt>
      <trkpt lat="48.596103" lon="16.506448">
        <ele>287.933713</ele>
        <time>2020-08-20T06:22:59.569Z</time>
      </trkpt>
      <trkpt lat="48.596200" lon="16.506474">
        <ele>288.232774</ele>
        <time>2020-08-20T06:23:05.571Z</time>
      </trkpt>
      <trkpt lat="48.596301" lon="16.506476">
        <ele>288.539414</ele>
        <time>2020-08-20T06:23:11.574Z</time>
      </trkpt>
      <trkpt lat="48.596397" lon="16.506481">
        <ele>288.895215</ele>
        <time>2020-08-20T06:23:20.548Z</time>
      </trkpt>
      <trkpt lat="48.596505" lon="16.506490">
        <ele>289.332176</ele>
        <time>2020-08-20T06:23:26.595Z</time>
      </trkpt>
      <trkpt lat="48.596609" lon="16.506475">
        <ele>289.754223</ele>
        <time>2020-08-20T06:23:32.573Z</time>
      </trkpt>
      <trkpt lat="48.596700" lon="16.506466">
        <ele>290.122631</ele>
        <time>2020-08-20T06:23:36.579Z</time>
      </trkpt>
      <trkpt lat="48.596812" lon="16.506456">
        <ele>290.575877</ele>
        <time>2020-08-20T06:23:41.573Z</time>
      </trkpt>
      <trkpt lat="48.596926" lon="16.506477">
        <ele>291.039819</ele>
        <time>2020-08-20T06:25:42.585Z</time>
      </trkpt>
      <trkpt lat="48.597018" lon="16.506483">
        <ele>291.411827</ele>
        <time>2020-08-20T06:25:47.600Z</time>
      </trkpt>
      <trkpt lat="48.597113" lon="16.506474">
        <ele>291.796361</ele>
        <time>2020-08-20T06:25:50.559Z</time>
      </trkpt>
      <trkpt lat="48.597240" lon="16.506471">
        <ele>292.309479</ele>
        <time>2020-08-20T06:25:53.559Z</time>
      </trkpt>
      <trkpt lat="48.597349" lon="16.506465">
        <ele>292.750109</ele>
        <time>2020-08-20T06:25:55.561Z</time>
      </trkpt>
      <trkpt lat="48.597458" lon="16.506464">
        <ele>293.190456</ele>
        <time>2020-08-20T06:25:57.560Z</time>
      </trkpt>
      <trkpt lat="48.597566" lon="16.506476">
        <ele>293.627931</ele>
        <time>2020-08-20T06:25:59.592Z</time>
      </trkpt>
      <trkpt lat="48.597712" lon="16.506502">
        <ele>294.221818</ele>
        <time>2020-08-20T06:26:01.569Z</time>
      </trkpt>
      <trkpt lat="48.597877" lon="16.506562">
        <ele>294.907390</ele>
        <time>2020-08-20T06:26:03.543Z</time>
      </trkpt>
      <trkpt lat="48.597964" lon="16.506603">
        <ele>295.275527</ele>
        <time>2020-08-20T06:26:04.585Z</time>
      </trkpt>
      <trkpt lat="48.598052" lon="16.506657">
        <ele>295.659189</ele>
        <time>2020-08-20T06:26:05.561Z</time>
      </trkpt>
      <trkpt lat="48.598143" lon="16.506727">
        <ele>295.918673</ele>
        <time>2020-08-20T06:26:06.587Z</time>
      </trkpt>
      <trkpt lat="48.598231" lon="16.506801">
        <ele>295.956278</ele>
        <time>2020-08-20T06:26:07.562Z</time>
      </trkpt>
      <trkpt lat="48.598318" lon="16.506883">
        <ele>295.994565</ele>
        <time>2020-08-20T06:26:08.557Z</time>
      </trkpt>
      <trkpt lat="48.598399" lon="16.506979">
        <ele>296.033000</ele>
        <time>2020-08-20T06:26:09.543Z</time>
      </trkpt>
      <trkpt lat="48.598484" lon="16.507080">
        <ele>296.073373</ele>
        <time>2020-08-20T06:26:10.579Z</time>
      </trkpt>
      <trkpt lat="48.598568" lon="16.507184">
        <ele>296.113919</ele>
        <time>2020-08-20T06:26:11.568Z</time>
      </trkpt>
      <trkpt lat="48.598654" lon="16.507286">
        <ele>296.154738</ele>
        <time>2020-08-20T06:26:12.564Z</time>
      </trkpt>
      <trkpt lat="48.598736" lon="16.507392">
        <ele>296.195027</ele>
        <time>2020-08-20T06:26:13.576Z</time>
      </trkpt>
      <trkpt lat="48.598820" lon="16.507498">
        <ele>296.235887</ele>
        <time>2020-08-20T06:26:14.583Z</time>
      </trkpt>
      <trkpt lat="48.598904" lon="16.507605">
        <ele>296.276906</ele>
        <time>2020-08-20T06:26:15.575Z</time>
      </trkpt>
      <trkpt lat="48.598987" lon="16.507712">
        <ele>296.317639</ele>
        <time>2020-08-20T06:26:16.580Z</time>
      </trkpt>
      <trkpt lat="48.599070" lon="16.507818">
        <ele>296.358213</ele>
        <time>2020-08-20T06:26:17.557Z</time>
      </trkpt>
      <trkpt lat="48.599154" lon="16.507925">
        <ele>296.399232</ele>
        <time>2020-08-20T06:26:18.556Z</time>
      </trkpt>
      <trkpt lat="48.599240" lon="16.508027">
        <ele>296.440051</ele>
        <time>2020-08-20T06:26:19.558Z</time>
      </trkpt>
      <trkpt lat="48.599326" lon="16.508129">
        <ele>296.480870</ele>
        <time>2020-08-20T06:26:20.576Z</time>
      </trkpt>
      <trkpt lat="48.599411" lon="16.508225">
        <ele>296.520491</ele>
        <time>2020-08-20T06:26:21.576Z</time>
      </trkpt>
      <trkpt lat="48.599495" lon="16.508324">
        <ele>296.560265</ele>
        <time>2020-08-20T06:26:22.568Z</time>
      </trkpt>
      <trkpt lat="48.599580" lon="16.508418">
        <ele>296.631991</ele>
        <time>2020-08-20T06:26:23.554Z</time>
      </trkpt>
      <trkpt lat="48.599664" lon="16.508515">
        <ele>296.723082</ele>
        <time>2020-08-20T06:26:24.574Z</time>
      </trkpt>
      <trkpt lat="48.599747" lon="16.508610">
        <ele>296.812797</ele>
        <time>2020-08-20T06:26:25.574Z</time>
      </trkpt>
      <trkpt lat="48.599832" lon="16.508694">
        <ele>296.900311</ele>
        <time>2020-08-20T06:26:26.571Z</time>
      </trkpt>
      <trkpt lat="48.599917" lon="16.508774">
        <ele>296.986598</ele>
        <time>2020-08-20T06:26:27.540Z</time>
      </trkpt>
      <trkpt lat="48.600000" lon="16.508857">
        <ele>297.072359</ele>
        <time>2020-08-20T06:26:28.558Z</time>
      </trkpt>
      <trkpt lat="48.600083" lon="16.508935">
        <ele>297.156581</ele>
        <time>2020-08-20T06:26:29.574Z</time>
      </trkpt>
      <trkpt lat="48.600166" lon="16.509013">
        <ele>297.240803</ele>
        <time>2020-08-20T06:26:30.558Z</time>
      </trkpt>
      <trkpt lat="48.600247" lon="16.509091">
        <ele>297.323566</ele>
        <time>2020-08-20T06:26:31.575Z</time>
      </trkpt>
      <trkpt lat="48.600329" lon="16.509163">
        <ele>297.405287</ele>
        <time>2020-08-20T06:26:32.569Z</time>
      </trkpt>
      <trkpt lat="48.600410" lon="16.509230">
        <ele>297.484858</ele>
        <time>2020-08-20T06:26:33.550Z</time>
      </trkpt>
      <trkpt lat="48.600490" lon="16.509297">
        <ele>297.563675</ele>
        <time>2020-08-20T06:26:34.551Z</time>
      </trkpt>
      <trkpt lat="48.600572" lon="16.509357">
        <ele>297.642185</ele>
        <time>2020-08-20T06:26:35.546Z</time>
      </trkpt>
      <trkpt lat="48.600731" lon="16.509473">
        <ele>297.794333</ele>
        <time>2020-08-20T06:26:37.554Z</time>
      </trkpt>
      <trkpt lat="48.600884" lon="16.509572">
        <ele>297.937761</ele>
        <time>2020-08-20T06:26:39.549Z</time>
      </trkpt>
      <trkpt lat="48.601031" lon="16.509664">
        <ele>298.074874</ele>
        <time>2020-08-20T06:26:41.559Z</time>
      </trkpt>
      <trkpt lat="48.601176" lon="16.509754">
        <ele>298.257381</ele>
        <time>2020-08-20T06:26:43.570Z</time>
      </trkpt>
      <trkpt lat="48.601308" lon="16.509846">
        <ele>298.452544</ele>
        <time>2020-08-20T06:26:45.563Z</time>
      </trkpt>
      <trkpt lat="48.601437" lon="16.509930">
        <ele>298.641136</ele>
        <time>2020-08-20T06:26:47.590Z</time>
      </trkpt>
      <trkpt lat="48.601559" lon="16.510009">
        <ele>298.819339</ele>
        <time>2020-08-20T06:26:49.590Z</time>
      </trkpt>
      <trkpt lat="48.601677" lon="16.510084">
        <ele>298.991211</ele>
        <time>2020-08-20T06:26:51.552Z</time>
      </trkpt>
      <trkpt lat="48.601786" lon="16.510159">
        <ele>299.152010</ele>
        <time>2020-08-20T06:26:53.594Z</time>
      </trkpt>
      <trkpt lat="48.601892" lon="16.510222">
        <ele>299.304940</ele>
        <time>2020-08-20T06:26:55.563Z</time>
      </trkpt>
      <trkpt lat="48.601987" lon="16.510290">
        <ele>299.446070</ele>
        <time>2020-08-20T06:26:57.559Z</time>
      </trkpt>
      <trkpt lat="48.602079" lon="16.510354">
        <ele>299.582048</ele>
        <time>2020-08-20T06:26:59.555Z</time>
      </trkpt>
      <trkpt lat="48.602161" lon="16.510411">
        <ele>299.703229</ele>
        <time>2020-08-20T06:27:01.570Z</time>
      </trkpt>
      <trkpt lat="48.602272" lon="16.510488">
        <ele>299.867208</ele>
        <time>2020-08-20T06:27:04.584Z</time>
      </trkpt>
      <trkpt lat="48.602375" lon="16.510555">
        <ele>300.017764</ele>
        <time>2020-08-20T06:27:07.557Z</time>
      </trkpt>
      <trkpt lat="48.602464" lon="16.510612">
        <ele>300.147545</ele>
        <time>2020-08-20T06:27:10.553Z</time>
      </trkpt>
      <trkpt lat="48.602547" lon="16.510668">
        <ele>300.269583</ele>
        <time>2020-08-20T06:27:13.578Z</time>
      </trkpt>
      <trkpt lat="48.602656" lon="16.510731">
        <ele>300.426269</ele>
        <time>2020-08-20T06:27:17.559Z</time>
      </trkpt>
      <trkpt lat="48.602751" lon="16.510779">
        <ele>300.576354</ele>
        <time>2020-08-20T06:27:21.571Z</time>
      </trkpt>
      <trkpt lat="48.602840" lon="16.510809">
        <ele>300.791210</ele>
        <time>2020-08-20T06:27:25.585Z</time>
      </trkpt>
      <trkpt lat="48.602948" lon="16.510819">
        <ele>301.046165</ele>
        <time>2020-08-20T06:27:30.584Z</time>
      </trkpt>
      <trkpt lat="48.603051" lon="16.510800">
        <ele>301.290661</ele>
        <time>2020-08-20T06:27:35.592Z</time>
      </trkpt>
      <trkpt lat="48.603143" lon="16.510780">
        <ele>301.509667</ele>
        <time>2020-08-20T06:27:40.556Z</time>
      </trkpt>
      <trkpt lat="48.603234" lon="16.510758">
        <ele>301.726812</ele>
        <time>2020-08-20T06:27:45.559Z</time>
      </trkpt>
      <trkpt lat="48.603324" lon="16.510739">
        <ele>301.940934</ele>
        <time>2020-08-20T06:27:50.579Z</time>
      </trkpt>
      <trkpt lat="48.603415" lon="16.510708">
        <ele>302.160728</ele>
        <time>2020-08-20T06:27:55.610Z</time>
      </trkpt>
      <trkpt lat="48.603506" lon="16.510674">
        <ele>302.381597</ele>
        <time>2020-08-20T06:28:00.563Z</time>
      </trkpt>
      <trkpt lat="48.603606" lon="16.510649">
        <ele>302.620424</ele>
        <time>2020-08-20T06:28:05.555Z</time>
      </trkpt>
      <trkpt lat="48.603702" lon="16.510632">
        <ele>302.848172</ele>
        <time>2020-08-20T06:28:10.548Z</time>
      </trkpt>
      <trkpt lat="48.603793" lon="16.510602">
        <ele>303.067630</ele>
        <time>2020-08-20T06:28:15.575Z</time>
      </trkpt>
      <trkpt lat="48.603888" lon="16.510592">
        <ele>303.292018</ele>
        <time>2020-08-20T06:28:20.549Z</time>
      </trkpt>
      <trkpt lat="48.603978" lon="16.510589">
        <ele>303.504135</ele>
        <time>2020-08-20T06:28:25.580Z</time>
      </trkpt>
      <trkpt lat="48.604102" lon="16.510608">
        <ele>303.797810</ele>
        <time>2020-08-20T06:28:30.566Z</time>
      </trkpt>
      <trkpt lat="48.604206" lon="16.510602">
        <ele>304.043042</ele>
        <time>2020-08-20T06:28:34.594Z</time>
      </trkpt>
      <trkpt lat="48.604308" lon="16.510612">
        <ele>304.283887</ele>
        <time>2020-08-20T06:28:39.568Z</time>
      </trkpt>
      <trkpt lat="48.604416" lon="16.510633">
        <ele>304.540461</ele>
        <time>2020-08-20T06:28:44.565Z</time>
      </trkpt>
      <trkpt lat="48.604477" lon="16.510767">
        <ele>304.812340</ele>
        <time>2020-08-20T06:28:49.556Z</time>
      </trkpt>
      <trkpt lat="48.604509" lon="16.510896">
        <ele>305.278296</ele>
        <time>2020-08-20T06:28:55.573Z</time>
      </trkpt>
      <trkpt lat="48.604550" lon="16.511042">
        <ele>305.814738</ele>
        <time>2020-08-20T06:29:01.587Z</time>
      </trkpt>
      <trkpt lat="48.604615" lon="16.511171">
        <ele>306.363231</ele>
        <time>2020-08-20T06:29:07.548Z</time>
      </trkpt>
      <trkpt lat="48.604678" lon="16.511282">
        <ele>306.857941</ele>
        <time>2020-08-20T06:29:13.544Z</time>
      </trkpt>
      <trkpt lat="48.604741" lon="16.511415">
        <ele>307.411234</ele>
        <time>2020-08-20T06:29:19.558Z</time>
      </trkpt>
      <trkpt lat="48.604798" lon="16.511524">
        <ele>307.881203</ele>
        <time>2020-08-20T06:29:24.561Z</time>
      </trkpt>
      <trkpt lat="48.604863" lon="16.511638">
        <ele>308.390274</ele>
        <time>2020-08-20T06:29:30.555Z</time>
      </trkpt>
      <trkpt lat="48.604923" lon="16.511762">
        <ele>308.909914</ele>
        <time>2020-08-20T06:29:36.581Z</time>
      </trkpt>
      <trkpt lat="48.604980" lon="16.511889">
        <ele>309.429005</ele>
        <time>2020-08-20T06:29:42.561Z</time>
      </trkpt>
      <trkpt lat="48.605033" lon="16.512003">
        <ele>309.900295</ele>
        <time>2020-08-20T06:29:48.583Z</time>
      </trkpt>
      <trkpt lat="48.605069" lon="16.512129">
        <ele>310.364489</ele>
        <time>2020-08-20T06:29:53.573Z</time>
      </trkpt>
      <trkpt lat="48.605115" lon="16.512249">
        <ele>310.833577</ele>
        <time>2020-08-20T06:29:58.575Z</time>
      </trkpt>
      <trkpt lat="48.605176" lon="16.512382">
        <ele>311.380974</ele>
        <time>2020-08-20T06:30:03.578Z</time>
      </trkpt>
      <trkpt lat="48.605237" lon="16.512490">
        <ele>311.861321</ele>
        <time>2020-08-20T06:30:08.598Z</time>
      </trkpt>
      <trkpt lat="48.605269" lon="16.512627">
        <ele>312.352694</ele>
        <time>2020-08-20T06:30:13.561Z</time>
      </trkpt>
      <trkpt lat="48.605315" lon="16.512764">
        <ele>312.872320</ele>
        <time>2020-08-20T06:30:17.568Z</time>
      </trkpt>
      <trkpt lat="48.605380" lon="16.512904">
        <ele>313.450836</ele>
        <time>2020-08-20T06:30:21.563Z</time>
      </trkpt>
      <trkpt lat="48.605450" lon="16.513050">
        <ele>314.056741</ele>
        <time>2020-08-20T06:30:25.549Z</time>
      </trkpt>
      <trkpt lat="48.605503" lon="16.513168">
        <ele>314.516149</ele>
        <time>2020-08-20T06:30:28.576Z</time>
      </trkpt>
      <trkpt lat="48.605553" lon="16.513294">
        <ele>314.989406</ele>
        <time>2020-08-20T06:30:31.585Z</time>
      </trkpt>
      <trkpt lat="48.605619" lon="16.513417">
        <ele>315.499555</ele>
        <time>2020-08-20T06:30:34.549Z</time>
      </trkpt>
      <trkpt lat="48.605694" lon="16.513534">
        <ele>316.024358</ele>
        <time>2020-08-20T06:30:37.571Z</time>
      </trkpt>
      <trkpt lat="48.605773" lon="16.513665">
        <ele>316.595359</ele>
        <time>2020-08-20T06:30:40.571Z</time>
      </trkpt>
      <trkpt lat="48.605850" lon="16.513793">
        <ele>317.152657</ele>
        <time>2020-08-20T06:30:43.566Z</time>
      </trkpt>
      <trkpt lat="48.605937" lon="16.513911">
        <ele>317.721841</ele>
        <time>2020-08-20T06:30:46.543Z</time>
      </trkpt>
      <trkpt lat="48.606020" lon="16.514038">
        <ele>318.296913</ele>
        <time>2020-08-20T06:30:49.594Z</time>
      </trkpt>
      <trkpt lat="48.606100" lon="16.514157">
        <ele>318.843444</ele>
        <time>2020-08-20T06:30:52.543Z</time>
      </trkpt>
      <trkpt lat="48.606181" lon="16.514270">
        <ele>319.380172</ele>
        <time>2020-08-20T06:30:55.574Z</time>
      </trkpt>
      <trkpt lat="48.606252" lon="16.514392">
        <ele>319.903580</ele>
        <time>2020-08-20T06:30:58.570Z</time>
      </trkpt>
      <trkpt lat="48.606325" lon="16.514503">
        <ele>320.407767</ele>
        <time>2020-08-20T06:31:01.588Z</time>
      </trkpt>
      <trkpt lat="48.606398" lon="16.514599">
        <ele>320.878936</ele>
        <time>2020-08-20T06:31:04.575Z</time>
      </trkpt>
      <trkpt lat="48.606485" lon="16.514670">
        <ele>321.360428</ele>
        <time>2020-08-20T06:31:07.584Z</time>
      </trkpt>
      <trkpt lat="48.606602" lon="16.514701">
        <ele>321.938957</ele>
        <time>2020-08-20T06:31:10.556Z</time>
      </trkpt>
      <trkpt lat="48.606695" lon="16.514749">
        <ele>322.417566</ele>
        <time>2020-08-20T06:31:12.571Z</time>
      </trkpt>
      <trkpt lat="48.606809" lon="16.514786">
        <ele>322.755679</ele>
        <time>2020-08-20T06:31:14.590Z</time>
      </trkpt>
      <trkpt lat="48.606928" lon="16.514837">
        <ele>322.799750</ele>
        <time>2020-08-20T06:31:16.564Z</time>
      </trkpt>
      <trkpt lat="48.607058" lon="16.514883">
        <ele>322.847321</ele>
        <time>2020-08-20T06:31:18.579Z</time>
      </trkpt>
      <trkpt lat="48.607188" lon="16.514934">
        <ele>322.895175</ele>
        <time>2020-08-20T06:31:20.561Z</time>
      </trkpt>
      <trkpt lat="48.607325" lon="16.514992">
        <ele>322.945866</ele>
        <time>2020-08-20T06:31:22.551Z</time>
      </trkpt>
      <trkpt lat="48.607474" lon="16.515050">
        <ele>323.000687</ele>
        <time>2020-08-20T06:31:24.577Z</time>
      </trkpt>
      <trkpt lat="48.607630" lon="16.515106">
        <ele>323.057815</ele>
        <time>2020-08-20T06:31:26.554Z</time>
      </trkpt>
      <trkpt lat="48.607790" lon="16.515171">
        <ele>323.116846</ele>
        <time>2020-08-20T06:31:28.562Z</time>
      </trkpt>
      <trkpt lat="48.607953" lon="16.515240">
        <ele>323.177157</ele>
        <time>2020-08-20T06:31:30.564Z</time>
      </trkpt>
      <trkpt lat="48.608131" lon="16.515291">
        <ele>323.241709</ele>
        <time>2020-08-20T06:31:32.565Z</time>
      </trkpt>
      <trkpt lat="48.608219" lon="16.515326">
        <ele>323.274130</ele>
        <time>2020-08-20T06:31:33.587Z</time>
      </trkpt>
      <trkpt lat="48.608306" lon="16.515359">
        <ele>323.306089</ele>
        <time>2020-08-20T06:31:34.594Z</time>
      </trkpt>
      <trkpt lat="48.608399" lon="16.515378">
        <ele>323.339527</ele>
        <time>2020-08-20T06:31:35.557Z</time>
      </trkpt>
      <trkpt lat="48.608497" lon="16.515381">
        <ele>323.374453</ele>
        <time>2020-08-20T06:31:36.577Z</time>
      </trkpt>
      <trkpt lat="48.608594" lon="16.515384">
        <ele>323.247784</ele>
        <time>2020-08-20T06:31:37.560Z</time>
      </trkpt>
      <trkpt lat="48.608692" lon="16.515390">
        <ele>323.098600</ele>
        <time>2020-08-20T06:31:38.573Z</time>
      </trkpt>
      <trkpt lat="48.608791" lon="16.515385">
        <ele>322.947933</ele>
        <time>2020-08-20T06:31:39.556Z</time>
      </trkpt>
      <trkpt lat="48.608893" lon="16.515379">
        <ele>322.792670</ele>
        <time>2020-08-20T06:31:40.583Z</time>
      </trkpt>
      <trkpt lat="48.608997" lon="16.515367">
        <ele>322.634023</ele>
        <time>2020-08-20T06:31:41.561Z</time>
      </trkpt>
      <trkpt lat="48.609100" lon="16.515356">
        <ele>322.476965</ele>
        <time>2020-08-20T06:31:42.548Z</time>
      </trkpt>
      <trkpt lat="48.609204" lon="16.515339">
        <ele>322.317856</ele>
        <time>2020-08-20T06:31:43.558Z</time>
      </trkpt>
      <trkpt lat="48.609309" lon="16.515320">
        <ele>322.157008</ele>
        <time>2020-08-20T06:31:44.579Z</time>
      </trkpt>
      <trkpt lat="48.609414" lon="16.515291">
        <ele>321.994658</ele>
        <time>2020-08-20T06:31:45.562Z</time>
      </trkpt>
      <trkpt lat="48.609518" lon="16.515258">
        <ele>321.833026</ele>
        <time>2020-08-20T06:31:46.551Z</time>
      </trkpt>
      <trkpt lat="48.609620" lon="16.515211">
        <ele>321.670840</ele>
        <time>2020-08-20T06:31:47.545Z</time>
      </trkpt>
      <trkpt lat="48.609720" lon="16.515155">
        <ele>321.508644</ele>
        <time>2020-08-20T06:31:48.561Z</time>
      </trkpt>
      <trkpt lat="48.609812" lon="16.515073">
        <ele>321.346217</ele>
        <time>2020-08-20T06:31:49.544Z</time>
      </trkpt>
      <trkpt lat="48.609904" lon="16.514979">
        <ele>321.177342</ele>
        <time>2020-08-20T06:31:50.588Z</time>
      </trkpt>
      <trkpt lat="48.609995" lon="16.514887">
        <ele>321.010852</ele>
        <time>2020-08-20T06:31:51.550Z</time>
      </trkpt>
      <trkpt lat="48.610079" lon="16.514791">
        <ele>320.850710</ele>
        <time>2020-08-20T06:31:52.561Z</time>
      </trkpt>
      <trkpt lat="48.610164" lon="16.514692">
        <ele>320.687529</ele>
        <time>2020-08-20T06:31:53.578Z</time>
      </trkpt>
      <trkpt lat="48.610250" lon="16.514591">
        <ele>320.479941</ele>
        <time>2020-08-20T06:31:54.597Z</time>
      </trkpt>
      <trkpt lat="48.610337" lon="16.514495">
        <ele>320.259173</ele>
        <time>2020-08-20T06:31:55.573Z</time>
      </trkpt>
      <trkpt lat="48.610424" lon="16.514408">
        <ele>320.045367</ele>
        <time>2020-08-20T06:31:56.575Z</time>
      </trkpt>
      <trkpt lat="48.610512" lon="16.514322">
        <ele>319.830587</ele>
        <time>2020-08-20T06:31:57.554Z</time>
      </trkpt>
      <trkpt lat="48.610604" lon="16.514246">
        <ele>319.615692</ele>
        <time>2020-08-20T06:31:58.570Z</time>
      </trkpt>
      <trkpt lat="48.610699" lon="16.514193">
        <ele>319.408118</ele>
        <time>2020-08-20T06:31:59.582Z</time>
      </trkpt>
      <trkpt lat="48.610794" lon="16.514138">
        <ele>319.199591</ele>
        <time>2020-08-20T06:32:00.571Z</time>
      </trkpt>
      <trkpt lat="48.610889" lon="16.514111">
        <ele>319.001435</ele>
        <time>2020-08-20T06:32:01.561Z</time>
      </trkpt>
      <trkpt lat="48.610979" lon="16.514090">
        <ele>318.814754</ele>
        <time>2020-08-20T06:32:02.553Z</time>
      </trkpt>
      <trkpt lat="48.611138" lon="16.514061">
        <ele>318.486447</ele>
        <time>2020-08-20T06:32:04.563Z</time>
      </trkpt>
      <trkpt lat="48.611288" lon="16.514068">
        <ele>318.178805</ele>
        <time>2020-08-20T06:32:06.578Z</time>
      </trkpt>
      <trkpt lat="48.611405" lon="16.514080">
        <ele>317.938407</ele>
        <time>2020-08-20T06:32:08.586Z</time>
      </trkpt>
      <trkpt lat="48.611591" lon="16.514123">
        <ele>317.552684</ele>
        <time>2020-08-20T06:32:35.581Z</time>
      </trkpt>
      <trkpt lat="48.611692" lon="16.514141">
        <ele>317.344204</ele>
        <time>2020-08-20T06:32:37.566Z</time>
      </trkpt>
      <trkpt lat="48.611812" lon="16.514153">
        <ele>317.097670</ele>
        <time>2020-08-20T06:32:39.582Z</time>
      </trkpt>
      <trkpt lat="48.611949" lon="16.514174">
        <ele>316.757434</ele>
        <time>2020-08-20T06:32:41.535Z</time>
      </trkpt>
      <trkpt lat="48.612101" lon="16.514206">
        <ele>316.312666</ele>
        <time>2020-08-20T06:32:43.566Z</time>
      </trkpt>
      <trkpt lat="48.612264" lon="16.514244">
        <ele>315.834686</ele>
        <time>2020-08-20T06:32:45.615Z</time>
      </trkpt>
      <trkpt lat="48.612437" lon="16.514306">
        <ele>315.319421</ele>
        <time>2020-08-20T06:32:47.555Z</time>
      </trkpt>
      <trkpt lat="48.612531" lon="16.514332">
        <ele>315.042475</ele>
        <time>2020-08-20T06:32:48.560Z</time>
      </trkpt>
      <trkpt lat="48.612625" lon="16.514368">
        <ele>314.761450</ele>
        <time>2020-08-20T06:32:49.560Z</time>
      </trkpt>
      <trkpt lat="48.612723" lon="16.514393">
        <ele>314.473418</ele>
        <time>2020-08-20T06:32:50.571Z</time>
      </trkpt>
      <trkpt lat="48.612822" lon="16.514414">
        <ele>314.183691</ele>
        <time>2020-08-20T06:32:51.561Z</time>
      </trkpt>
      <trkpt lat="48.612921" lon="16.514439">
        <ele>313.892801</ele>
        <time>2020-08-20T06:32:52.568Z</time>
      </trkpt>
      <trkpt lat="48.613017" lon="16.514468">
        <ele>313.609083</ele>
        <time>2020-08-20T06:32:53.548Z</time>
      </trkpt>
      <trkpt lat="48.613113" lon="16.514505">
        <ele>313.321968</ele>
        <time>2020-08-20T06:32:54.638Z</time>
      </trkpt>
      <trkpt lat="48.613208" lon="16.514543">
        <ele>313.037177</ele>
        <time>2020-08-20T06:32:55.571Z</time>
      </trkpt>
      <trkpt lat="48.613299" lon="16.514586">
        <ele>312.760873</ele>
        <time>2020-08-20T06:32:56.586Z</time>
      </trkpt>
      <trkpt lat="48.613384" lon="16.514640">
        <ele>312.493682</ele>
        <time>2020-08-20T06:32:57.565Z</time>
      </trkpt>
      <trkpt lat="48.613537" lon="16.514757">
        <ele>311.996813</ele>
        <time>2020-08-20T06:32:59.569Z</time>
      </trkpt>
      <trkpt lat="48.613669" lon="16.514889">
        <ele>311.751275</ele>
        <time>2020-08-20T06:33:01.567Z</time>
      </trkpt>
      <trkpt lat="48.613792" lon="16.514997">
        <ele>311.768617</ele>
        <time>2020-08-20T06:33:03.571Z</time>
      </trkpt>
      <trkpt lat="48.613906" lon="16.515079">
        <ele>311.784008</ele>
        <time>2020-08-20T06:33:05.568Z</time>
      </trkpt>
      <trkpt lat="48.614006" lon="16.515145">
        <ele>311.797312</ele>
        <time>2020-08-20T06:33:07.571Z</time>
      </trkpt>
      <trkpt lat="48.614120" lon="16.515208">
        <ele>311.812110</ele>
        <time>2020-08-20T06:33:10.582Z</time>
      </trkpt>
      <trkpt lat="48.614215" lon="16.515250">
        <ele>311.824178</ele>
        <time>2020-08-20T06:33:13.561Z</time>
      </trkpt>
      <trkpt lat="48.614320" lon="16.515265">
        <ele>311.837038</ele>
        <time>2020-08-20T06:33:17.580Z</time>
      </trkpt>
      <trkpt lat="48.614418" lon="16.515274">
        <ele>311.849009</ele>
        <time>2020-08-20T06:33:21.582Z</time>
      </trkpt>
      <trkpt lat="48.614523" lon="16.515278">
        <ele>311.861816</ele>
        <time>2020-08-20T06:33:26.578Z</time>
      </trkpt>
      <trkpt lat="48.614622" lon="16.515292">
        <ele>311.873940</ele>
        <time>2020-08-20T06:33:31.565Z</time>
      </trkpt>
      <trkpt lat="48.614731" lon="16.515299">
        <ele>311.887242</ele>
        <time>2020-08-20T06:33:37.580Z</time>
      </trkpt>
      <trkpt lat="48.614822" lon="16.515284">
        <ele>311.898403</ele>
        <time>2020-08-20T06:33:42.568Z</time>
      </trkpt>
      <trkpt lat="48.614922" lon="16.515271">
        <ele>311.910641</ele>
        <time>2020-08-20T06:33:50.568Z</time>
      </trkpt>
      <trkpt lat="48.615023" lon="16.515243">
        <ele>311.923161</ele>
        <time>2020-08-20T06:33:57.555Z</time>
      </trkpt>
      <trkpt lat="48.615116" lon="16.515233">
        <ele>311.934530</ele>
        <time>2020-08-20T06:34:03.578Z</time>
      </trkpt>
      <trkpt lat="48.615218" lon="16.515209">
        <ele>311.947116</ele>
        <time>2020-08-20T06:34:10.562Z</time>
      </trkpt>
      <trkpt lat="48.615311" lon="16.515184">
        <ele>311.958633</ele>
        <time>2020-08-20T06:34:16.571Z</time>
      </trkpt>
      <trkpt lat="48.615407" lon="16.515157">
        <ele>312.204379</ele>
        <time>2020-08-20T06:34:22.563Z</time>
      </trkpt>
      <trkpt lat="48.615500" lon="16.515137">
        <ele>312.528827</ele>
        <time>2020-08-20T06:34:29.558Z</time>
      </trkpt>
      <trkpt lat="48.615600" lon="16.515099">
        <ele>312.884955</ele>
        <time>2020-08-20T06:34:36.562Z</time>
      </trkpt>
      <trkpt lat="48.615696" lon="16.515080">
        <ele>313.219361</ele>
        <time>2020-08-20T06:34:44.566Z</time>
      </trkpt>
      <trkpt lat="48.615791" lon="16.515053">
        <ele>313.553229</ele>
        <time>2020-08-20T06:34:52.554Z</time>
      </trkpt>
      <trkpt lat="48.615883" lon="16.515040">
        <ele>313.872376</ele>
        <time>2020-08-20T06:35:00.559Z</time>
      </trkpt>
      <trkpt lat="48.615979" lon="16.515037">
        <ele>314.204027</ele>
        <time>2020-08-20T06:35:08.561Z</time>
      </trkpt>
      <trkpt lat="48.616080" lon="16.515028">
        <ele>314.553481</ele>
        <time>2020-08-20T06:35:15.558Z</time>
      </trkpt>
      <trkpt lat="48.616179" lon="16.515028">
        <ele>314.895423</ele>
        <time>2020-08-20T06:35:22.544Z</time>
      </trkpt>
      <trkpt lat="48.616283" lon="16.515044">
        <ele>315.256487</ele>
        <time>2020-08-20T06:35:29.571Z</time>
      </trkpt>
      <trkpt lat="48.616374" lon="16.515066">
        <ele>315.574786</ele>
        <time>2020-08-20T06:35:35.552Z</time>
      </trkpt>
      <trkpt lat="48.616463" lon="16.515079">
        <ele>315.883618</ele>
        <time>2020-08-20T06:35:40.538Z</time>
      </trkpt>
      <trkpt lat="48.616551" lon="16.515112">
        <ele>316.196767</ele>
        <time>2020-08-20T06:35:46.570Z</time>
      </trkpt>
      <trkpt lat="48.616659" lon="16.515148">
        <ele>316.578745</ele>
        <time>2020-08-20T06:35:52.596Z</time>
      </trkpt>
      <trkpt lat="48.616748" lon="16.515195">
        <ele>316.904342</ele>
        <time>2020-08-20T06:35:57.587Z</time>
      </trkpt>
      <trkpt lat="48.616841" lon="16.515248">
        <ele>317.247600</ele>
        <time>2020-08-20T06:36:01.570Z</time>
      </trkpt>
      <trkpt lat="48.616952" lon="16.515313">
        <ele>317.658715</ele>
        <time>2020-08-20T06:36:06.598Z</time>
      </trkpt>
      <trkpt lat="48.617034" lon="16.515377">
        <ele>317.977419</ele>
        <time>2020-08-20T06:36:09.564Z</time>
      </trkpt>
      <trkpt lat="48.617126" lon="16.515442">
        <ele>318.224219</ele>
        <time>2020-08-20T06:36:12.564Z</time>
      </trkpt>
      <trkpt lat="48.617236" lon="16.515513">
        <ele>318.358049</ele>
        <time>2020-08-20T06:36:15.562Z</time>
      </trkpt>
      <trkpt lat="48.617355" lon="16.515594">
        <ele>318.504073</ele>
        <time>2020-08-20T06:36:18.577Z</time>
      </trkpt>
      <trkpt lat="48.617443" lon="16.515656">
        <ele>318.612704</ele>
        <time>2020-08-20T06:36:20.554Z</time>
      </trkpt>
      <trkpt lat="48.617549" lon="16.515718">
        <ele>318.739879</ele>
        <time>2020-08-20T06:36:22.558Z</time>
      </trkpt>
      <trkpt lat="48.617673" lon="16.515793">
        <ele>318.889319</ele>
        <time>2020-08-20T06:36:24.556Z</time>
      </trkpt>
      <trkpt lat="48.617816" lon="16.515869">
        <ele>319.058928</ele>
        <time>2020-08-20T06:36:26.558Z</time>
      </trkpt>
      <trkpt lat="48.617976" lon="16.515964">
        <ele>319.251270</ele>
        <time>2020-08-20T06:36:28.571Z</time>
      </trkpt>
      <trkpt lat="48.618068" lon="16.515996">
        <ele>319.356906</ele>
        <time>2020-08-20T06:36:29.565Z</time>
      </trkpt>
      <trkpt lat="48.618158" lon="16.516036">
        <ele>319.461875</ele>
        <time>2020-08-20T06:36:30.543Z</time>
      </trkpt>
      <trkpt lat="48.618251" lon="16.516072">
        <ele>319.569297</ele>
        <time>2020-08-20T06:36:31.559Z</time>
      </trkpt>
      <trkpt lat="48.618348" lon="16.516096">
        <ele>319.679285</ele>
        <time>2020-08-20T06:36:32.553Z</time>
      </trkpt>
      <trkpt lat="48.618448" lon="16.516117">
        <ele>319.792260</ele>
        <time>2020-08-20T06:36:33.563Z</time>
      </trkpt>
      <trkpt lat="48.618551" lon="16.516130">
        <ele>319.907920</ele>
        <time>2020-08-20T06:36:34.556Z</time>
      </trkpt>
      <trkpt lat="48.618655" lon="16.516137">
        <ele>320.024413</ele>
        <time>2020-08-20T06:36:35.574Z</time>
      </trkpt>
      <trkpt lat="48.618761" lon="16.516140">
        <ele>320.143050</ele>
        <time>2020-08-20T06:36:36.560Z</time>
      </trkpt>
      <trkpt lat="48.618866" lon="16.516147">
        <ele>320.093557</ele>
        <time>2020-08-20T06:36:37.566Z</time>
      </trkpt>
      <trkpt lat="48.618976" lon="16.516140">
        <ele>319.936754</ele>
        <time>2020-08-20T06:36:38.565Z</time>
      </trkpt>
      <trkpt lat="48.619086" lon="16.516132">
        <ele>319.779908</ele>
        <time>2020-08-20T06:36:39.567Z</time>
      </trkpt>
      <trkpt lat="48.619196" lon="16.516122">
        <ele>319.622961</ele>
        <time>2020-08-20T06:36:40.579Z</time>
      </trkpt>
      <trkpt lat="48.619309" lon="16.516104">
        <ele>319.461133</ele>
        <time>2020-08-20T06:36:41.570Z</time>
      </trkpt>
      <trkpt lat="48.619420" lon="16.516082">
        <ele>319.301693</ele>
        <time>2020-08-20T06:36:42.559Z</time>
      </trkpt>
      <trkpt lat="48.619535" lon="16.516070">
        <ele>319.137518</ele>
        <time>2020-08-20T06:36:43.566Z</time>
      </trkpt>
      <trkpt lat="48.619650" lon="16.516060">
        <ele>318.973462</ele>
        <time>2020-08-20T06:36:44.575Z</time>
      </trkpt>
      <trkpt lat="48.619764" lon="16.516036">
        <ele>318.809536</ele>
        <time>2020-08-20T06:36:45.568Z</time>
      </trkpt>
      <trkpt lat="48.619873" lon="16.516014">
        <ele>318.652920</ele>
        <time>2020-08-20T06:36:46.583Z</time>
      </trkpt>
      <trkpt lat="48.619975" lon="16.515998">
        <ele>318.506870</ele>
        <time>2020-08-20T06:36:47.565Z</time>
      </trkpt>
      <trkpt lat="48.620072" lon="16.515988">
        <ele>318.368400</ele>
        <time>2020-08-20T06:36:48.592Z</time>
      </trkpt>
      <trkpt lat="48.620168" lon="16.515990">
        <ele>318.231661</ele>
        <time>2020-08-20T06:36:49.561Z</time>
      </trkpt>
      <trkpt lat="48.620327" lon="16.516020">
        <ele>318.003455</ele>
        <time>2020-08-20T06:36:51.577Z</time>
      </trkpt>
      <trkpt lat="48.620466" lon="16.516068">
        <ele>317.800395</ele>
        <time>2020-08-20T06:36:53.600Z</time>
      </trkpt>
      <trkpt lat="48.620608" lon="16.516105">
        <ele>317.558414</ele>
        <time>2020-08-20T06:36:55.577Z</time>
      </trkpt>
      <trkpt lat="48.620761" lon="16.516189">
        <ele>317.045215</ele>
        <time>2020-08-20T06:36:57.557Z</time>
      </trkpt>
      <trkpt lat="48.620931" lon="16.516217">
        <ele>316.506035</ele>
        <time>2020-08-20T06:36:59.579Z</time>
      </trkpt>
      <trkpt lat="48.621097" lon="16.516297">
        <ele>315.956716</ele>
        <time>2020-08-20T06:37:01.582Z</time>
      </trkpt>
      <trkpt lat="48.621258" lon="16.516385">
        <ele>315.416962</ele>
        <time>2020-08-20T06:37:03.549Z</time>
      </trkpt>
      <trkpt lat="48.621396" lon="16.516469">
        <ele>314.947945</ele>
        <time>2020-08-20T06:37:05.571Z</time>
      </trkpt>
      <trkpt lat="48.621500" lon="16.516539">
        <ele>314.589039</ele>
        <time>2020-08-20T06:37:07.568Z</time>
      </trkpt>
      <trkpt lat="48.621591" lon="16.516594">
        <ele>314.280063</ele>
        <time>2020-08-20T06:37:09.580Z</time>
      </trkpt>
      <trkpt lat="48.621686" lon="16.516446">
        <ele>313.850094</ele>
        <time>2020-08-20T06:37:12.566Z</time>
      </trkpt>
      <trkpt lat="48.621725" lon="16.516286">
        <ele>313.494667</ele>
        <time>2020-08-20T06:37:14.560Z</time>
      </trkpt>
      <trkpt lat="48.621777" lon="16.516160">
        <ele>313.185075</ele>
        <time>2020-08-20T06:37:16.576Z</time>
      </trkpt>
      <trkpt lat="48.621834" lon="16.516030">
        <ele>312.859939</ele>
        <time>2020-08-20T06:37:18.589Z</time>
      </trkpt>
      <trkpt lat="48.621899" lon="16.515902">
        <ele>312.523525</ele>
        <time>2020-08-20T06:37:20.598Z</time>
      </trkpt>
      <trkpt lat="48.621990" lon="16.515796">
        <ele>312.161400</ele>
        <time>2020-08-20T06:37:22.608Z</time>
      </trkpt>
      <trkpt lat="48.622098" lon="16.515727">
        <ele>311.901712</ele>
        <time>2020-08-20T06:37:24.572Z</time>
      </trkpt>
      <trkpt lat="48.622193" lon="16.515653">
        <ele>311.792689</ele>
        <time>2020-08-20T06:37:26.557Z</time>
      </trkpt>
      <trkpt lat="48.622290" lon="16.515600">
        <ele>311.687464</ele>
        <time>2020-08-20T06:37:28.566Z</time>
      </trkpt>
      <trkpt lat="48.622374" lon="16.515535">
        <ele>311.591198</ele>
        <time>2020-08-20T06:37:30.596Z</time>
      </trkpt>
      <trkpt lat="48.622457" lon="16.515471">
        <ele>311.496148</ele>
        <time>2020-08-20T06:37:32.606Z</time>
      </trkpt>
      <trkpt lat="48.622580" lon="16.515406">
        <ele>311.363216</ele>
        <time>2020-08-20T06:37:35.571Z</time>
      </trkpt>
      <trkpt lat="48.622699" lon="16.515391">
        <ele>311.241380</ele>
        <time>2020-08-20T06:37:38.556Z</time>
      </trkpt>
      <trkpt lat="48.622792" lon="16.515399">
        <ele>311.146340</ele>
        <time>2020-08-20T06:37:40.566Z</time>
      </trkpt>
      <trkpt lat="48.622886" lon="16.515400">
        <ele>311.050430</ele>
        <time>2020-08-20T06:37:42.570Z</time>
      </trkpt>
      <trkpt lat="48.622985" lon="16.515406">
        <ele>310.949340</ele>
        <time>2020-08-20T06:37:44.572Z</time>
      </trkpt>
      <trkpt lat="48.623083" lon="16.515401">
        <ele>310.849294</ele>
        <time>2020-08-20T06:37:46.562Z</time>
      </trkpt>
      <trkpt lat="48.623193" lon="16.515405">
        <ele>310.737030</ele>
        <time>2020-08-20T06:37:48.589Z</time>
      </trkpt>
      <trkpt lat="48.623288" lon="16.515415">
        <ele>310.639868</ele>
        <time>2020-08-20T06:37:50.567Z</time>
      </trkpt>
      <trkpt lat="48.623401" lon="16.515445">
        <ele>310.522813</ele>
        <time>2020-08-20T06:37:52.607Z</time>
      </trkpt>
      <trkpt lat="48.623532" lon="16.515459">
        <ele>310.388822</ele>
        <time>2020-08-20T06:37:55.561Z</time>
      </trkpt>
      <trkpt lat="48.623627" lon="16.515465">
        <ele>310.291809</ele>
        <time>2020-08-20T06:37:57.548Z</time>
      </trkpt>
      <trkpt lat="48.623728" lon="16.515488">
        <ele>310.187599</ele>
        <time>2020-08-20T06:37:59.570Z</time>
      </trkpt>
      <trkpt lat="48.623823" lon="16.515509">
        <ele>310.109018</ele>
        <time>2020-08-20T06:38:01.566Z</time>
      </trkpt>
      <trkpt lat="48.623918" lon="16.515529">
        <ele>310.075362</ele>
        <time>2020-08-20T06:38:03.565Z</time>
      </trkpt>
      <trkpt lat="48.624011" lon="16.515548">
        <ele>310.042434</ele>
        <time>2020-08-20T06:38:05.557Z</time>
      </trkpt>
      <trkpt lat="48.624105" lon="16.515564">
        <ele>310.009242</ele>
        <time>2020-08-20T06:38:07.591Z</time>
      </trkpt>
      <trkpt lat="48.624207" lon="16.515577">
        <ele>309.973325</ele>
        <time>2020-08-20T06:38:10.569Z</time>
      </trkpt>
      <trkpt lat="48.624310" lon="16.515586">
        <ele>309.937124</ele>
        <time>2020-08-20T06:38:13.585Z</time>
      </trkpt>
      <trkpt lat="48.624403" lon="16.515590">
        <ele>309.904478</ele>
        <time>2020-08-20T06:38:16.561Z</time>
      </trkpt>
      <trkpt lat="48.624493" lon="16.515598">
        <ele>309.872844</ele>
        <time>2020-08-20T06:38:19.549Z</time>
      </trkpt>
      <trkpt lat="48.624606" lon="16.515582">
        <ele>309.833021</ele>
        <time>2020-08-20T06:38:23.559Z</time>
      </trkpt>
      <trkpt lat="48.624720" lon="16.515590">
        <ele>309.792977</ele>
        <time>2020-08-20T06:38:27.566Z</time>
      </trkpt>
      <trkpt lat="48.624811" lon="16.515603">
        <ele>309.760904</ele>
        <time>2020-08-20T06:38:32.562Z</time>
      </trkpt>
      <trkpt lat="48.624951" lon="16.515636">
        <ele>309.711187</ele>
        <time>2020-08-20T06:39:01.551Z</time>
      </trkpt>
      <trkpt lat="48.625058" lon="16.515626">
        <ele>309.673571</ele>
        <time>2020-08-20T06:39:05.577Z</time>
      </trkpt>
      <trkpt lat="48.625164" lon="16.515632">
        <ele>309.636351</ele>
        <time>2020-08-20T06:39:09.568Z</time>
      </trkpt>
      <trkpt lat="48.625274" lon="16.515643">
        <ele>309.597670</ele>
        <time>2020-08-20T06:39:13.574Z</time>
      </trkpt>
      <trkpt lat="48.625385" lon="16.515651">
        <ele>309.558677</ele>
        <time>2020-08-20T06:39:17.582Z</time>
      </trkpt>
      <trkpt lat="48.625483" lon="16.515644">
        <ele>309.524252</ele>
        <time>2020-08-20T06:39:20.562Z</time>
      </trkpt>
      <trkpt lat="48.625586" lon="16.515660">
        <ele>309.487832</ele>
        <time>2020-08-20T06:39:24.565Z</time>
      </trkpt>
      <trkpt lat="48.625685" lon="16.515670">
        <ele>309.430192</ele>
        <time>2020-08-20T06:39:27.566Z</time>
      </trkpt>
      <trkpt lat="48.625784" lon="16.515684">
        <ele>309.372428</ele>
        <time>2020-08-20T06:39:30.563Z</time>
      </trkpt>
      <trkpt lat="48.625884" lon="16.515696">
        <ele>309.314153</ele>
        <time>2020-08-20T06:39:33.574Z</time>
      </trkpt>
      <trkpt lat="48.626000" lon="16.515703">
        <ele>309.246711</ele>
        <time>2020-08-20T06:39:36.566Z</time>
      </trkpt>
      <trkpt lat="48.626088" lon="16.515736">
        <ele>309.194041</ele>
        <time>2020-08-20T06:39:38.595Z</time>
      </trkpt>
      <trkpt lat="48.626176" lon="16.515803">
        <ele>309.136811</ele>
        <time>2020-08-20T06:39:40.573Z</time>
      </trkpt>
      <trkpt lat="48.626294" lon="16.515892">
        <ele>309.060214</ele>
        <time>2020-08-20T06:39:43.588Z</time>
      </trkpt>
      <trkpt lat="48.626378" lon="16.515945">
        <ele>309.007342</ele>
        <time>2020-08-20T06:39:45.570Z</time>
      </trkpt>
      <trkpt lat="48.626474" lon="16.516005">
        <ele>308.947001</ele>
        <time>2020-08-20T06:39:47.582Z</time>
      </trkpt>
      <trkpt lat="48.626568" lon="16.516067">
        <ele>308.887430</ele>
        <time>2020-08-20T06:39:49.562Z</time>
      </trkpt>
      <trkpt lat="48.626694" lon="16.516120">
        <ele>308.811456</ele>
        <time>2020-08-20T06:39:51.579Z</time>
      </trkpt>
      <trkpt lat="48.626826" lon="16.516184">
        <ele>308.730931</ele>
        <time>2020-08-20T06:39:53.559Z</time>
      </trkpt>
      <trkpt lat="48.626958" lon="16.516242">
        <ele>308.651079</ele>
        <time>2020-08-20T06:39:55.561Z</time>
      </trkpt>
      <trkpt lat="48.627091" lon="16.516287">
        <ele>308.571907</ele>
        <time>2020-08-20T06:39:57.611Z</time>
      </trkpt>
      <trkpt lat="48.627219" lon="16.516336">
        <ele>308.495204</ele>
        <time>2020-08-20T06:39:59.587Z</time>
      </trkpt>
      <trkpt lat="48.627349" lon="16.516367">
        <ele>308.368882</ele>
        <time>2020-08-20T06:40:01.560Z</time>
      </trkpt>
      <trkpt lat="48.627475" lon="16.516376">
        <ele>308.145913</ele>
        <time>2020-08-20T06:40:03.585Z</time>
      </trkpt>
      <trkpt lat="48.627596" lon="16.516376">
        <ele>307.932031</ele>
        <time>2020-08-20T06:40:05.599Z</time>
      </trkpt>
      <trkpt lat="48.627719" lon="16.516359">
        <ele>307.713708</ele>
        <time>2020-08-20T06:40:07.553Z</time>
      </trkpt>
      <trkpt lat="48.627811" lon="16.516346">
        <ele>307.550379</ele>
        <time>2020-08-20T06:40:09.572Z</time>
      </trkpt>
      <trkpt lat="48.627899" lon="16.516389">
        <ele>307.386916</ele>
        <time>2020-08-20T06:40:13.561Z</time>
      </trkpt>
      <trkpt lat="48.627873" lon="16.516569">
        <ele>307.171658</ele>
        <time>2020-08-20T06:40:17.569Z</time>
      </trkpt>
      <trkpt lat="48.627845" lon="16.516699">
        <ele>307.011917</ele>
        <time>2020-08-20T06:40:19.554Z</time>
      </trkpt>
      <trkpt lat="48.627816" lon="16.516851">
        <ele>306.827084</ele>
        <time>2020-08-20T06:40:21.560Z</time>
      </trkpt>
      <trkpt lat="48.627803" lon="16.517017">
        <ele>306.631789</ele>
        <time>2020-08-20T06:40:23.569Z</time>
      </trkpt>
      <trkpt lat="48.627786" lon="16.517177">
        <ele>306.442460</ele>
        <time>2020-08-20T06:40:25.554Z</time>
      </trkpt>
      <trkpt lat="48.627760" lon="16.517336">
        <ele>306.251098</ele>
        <time>2020-08-20T06:40:27.559Z</time>
      </trkpt>
      <trkpt lat="48.627733" lon="16.517507">
        <ele>306.045695</ele>
        <time>2020-08-20T06:40:29.596Z</time>
      </trkpt>
      <trkpt lat="48.627715" lon="16.517676">
        <ele>305.845704</ele>
        <time>2020-08-20T06:40:31.575Z</time>
      </trkpt>
      <trkpt lat="48.627706" lon="16.517841">
        <ele>305.652278</ele>
        <time>2020-08-20T06:40:33.583Z</time>
      </trkpt>
      <trkpt lat="48.627689" lon="16.518003">
        <ele>305.460641</ele>
        <time>2020-08-20T06:40:35.554Z</time>
      </trkpt>
      <trkpt lat="48.627653" lon="16.518146">
        <ele>305.281864</ele>
        <time>2020-08-20T06:40:39.552Z</time>
      </trkpt>
      <trkpt lat="48.627561" lon="16.518139">
        <ele>305.243855</ele>
        <time>2020-08-20T06:40:42.571Z</time>
      </trkpt>
      <trkpt lat="48.627441" lon="16.518133">
        <ele>305.214567</ele>
        <time>2020-08-20T06:40:45.575Z</time>
      </trkpt>
      <trkpt lat="48.627338" lon="16.518145">
        <ele>305.189368</ele>
        <time>2020-08-20T06:40:48.563Z</time>
      </trkpt>
      <trkpt lat="48.627290" lon="16.518273">
        <ele>305.165641</ele>
        <time>2020-08-20T06:40:51.562Z</time>
      </trkpt>
      <trkpt lat="48.627299" lon="16.518427">
        <ele>305.140715</ele>
        <time>2020-08-20T06:40:54.569Z</time>
      </trkpt>
      <trkpt lat="48.627313" lon="16.518608">
        <ele>305.111334</ele>
        <time>2020-08-20T06:40:57.576Z</time>
      </trkpt>
      <trkpt lat="48.627313" lon="16.518781">
        <ele>305.083442</ele>
        <time>2020-08-20T06:41:00.577Z</time>
      </trkpt>
      <trkpt lat="48.627313" lon="16.518947">
        <ele>305.056678</ele>
        <time>2020-08-20T06:41:03.555Z</time>
      </trkpt>
      <trkpt lat="48.627304" lon="16.519114">
        <ele>305.029664</ele>
        <time>2020-08-20T06:41:06.580Z</time>
      </trkpt>
      <trkpt lat="48.627285" lon="16.519276">
        <ele>305.003137</ele>
        <time>2020-08-20T06:41:09.562Z</time>
      </trkpt>
      <trkpt lat="48.627266" lon="16.519428">
        <ele>304.978196</ele>
        <time>2020-08-20T06:41:12.605Z</time>
      </trkpt>
      <trkpt lat="48.627248" lon="16.519571">
        <ele>304.954727</ele>
        <time>2020-08-20T06:41:15.580Z</time>
      </trkpt>
      <trkpt lat="48.627353" lon="16.519654">
        <ele>304.925829</ele>
        <time>2020-08-20T06:41:20.575Z</time>
      </trkpt>
      <trkpt lat="48.627462" lon="16.519684">
        <ele>304.898804</ele>
        <time>2020-08-20T06:41:24.565Z</time>
      </trkpt>
      <trkpt lat="48.627578" lon="16.519737">
        <ele>304.869246</ele>
        <time>2020-08-20T06:41:28.585Z</time>
      </trkpt>
      <trkpt lat="48.627690" lon="16.519767">
        <ele>304.841501</ele>
        <time>2020-08-20T06:41:32.604Z</time>
      </trkpt>
      <trkpt lat="48.627780" lon="16.519795">
        <ele>304.842400</ele>
        <time>2020-08-20T06:41:35.569Z</time>
      </trkpt>
      <trkpt lat="48.627866" lon="16.519837">
        <ele>304.905920</ele>
        <time>2020-08-20T06:41:39.571Z</time>
      </trkpt>
      <trkpt lat="48.627973" lon="16.519858">
        <ele>304.981760</ele>
        <time>2020-08-20T06:41:44.584Z</time>
      </trkpt>
      <trkpt lat="48.628075" lon="16.519894">
        <ele>305.055380</ele>
        <time>2020-08-20T06:41:49.563Z</time>
      </trkpt>
      <trkpt lat="48.628170" lon="16.519916">
        <ele>305.122932</ele>
        <time>2020-08-20T06:41:54.556Z</time>
      </trkpt>
      <trkpt lat="48.628277" lon="16.519924">
        <ele>305.198233</ele>
        <time>2020-08-20T06:41:59.553Z</time>
      </trkpt>
      <trkpt lat="48.628373" lon="16.519927">
        <ele>305.265726</ele>
        <time>2020-08-20T06:42:03.572Z</time>
      </trkpt>
      <trkpt lat="48.628489" lon="16.519924">
        <ele>305.347273</ele>
        <time>2020-08-20T06:42:07.586Z</time>
      </trkpt>
      <trkpt lat="48.628615" lon="16.519897">
        <ele>305.436721</ele>
        <time>2020-08-20T06:42:10.562Z</time>
      </trkpt>
      <trkpt lat="48.628743" lon="16.519874">
        <ele>305.527324</ele>
        <time>2020-08-20T06:42:13.571Z</time>
      </trkpt>
      <trkpt lat="48.628832" lon="16.519853">
        <ele>305.590638</ele>
        <time>2020-08-20T06:42:15.591Z</time>
      </trkpt>
      <trkpt lat="48.628979" lon="16.519797">
        <ele>305.697188</ele>
        <time>2020-08-20T06:42:18.564Z</time>
      </trkpt>
      <trkpt lat="48.629084" lon="16.519758">
        <ele>305.773183</ele>
        <time>2020-08-20T06:42:20.570Z</time>
      </trkpt>
      <trkpt lat="48.629196" lon="16.519714">
        <ele>305.854517</ele>
        <time>2020-08-20T06:42:22.606Z</time>
      </trkpt>
      <trkpt lat="48.629307" lon="16.519669">
        <ele>305.935290</ele>
        <time>2020-08-20T06:42:24.572Z</time>
      </trkpt>
      <trkpt lat="48.629421" lon="16.519637">
        <ele>306.016787</ele>
        <time>2020-08-20T06:42:26.575Z</time>
      </trkpt>
      <trkpt lat="48.629537" lon="16.519616">
        <ele>306.097158</ele>
        <time>2020-08-20T06:42:28.562Z</time>
      </trkpt>
      <trkpt lat="48.629655" lon="16.519612">
        <ele>306.164958</ele>
        <time>2020-08-20T06:42:30.571Z</time>
      </trkpt>
      <trkpt lat="48.629772" lon="16.519613">
        <ele>306.232168</ele>
        <time>2020-08-20T06:42:32.570Z</time>
      </trkpt>
      <trkpt lat="48.629874" lon="16.519606">
        <ele>306.290821</ele>
        <time>2020-08-20T06:42:34.565Z</time>
      </trkpt>
      <trkpt lat="48.629986" lon="16.519639">
        <ele>306.356366</ele>
        <time>2020-08-20T06:42:36.572Z</time>
      </trkpt>
      <trkpt lat="48.630101" lon="16.519676">
        <ele>306.423903</ele>
        <time>2020-08-20T06:42:38.568Z</time>
      </trkpt>
      <trkpt lat="48.630199" lon="16.519694">
        <ele>306.480611</ele>
        <time>2020-08-20T06:42:41.558Z</time>
      </trkpt>
      <trkpt lat="48.630320" lon="16.519710">
        <ele>306.550383</ele>
        <time>2020-08-20T06:42:46.567Z</time>
      </trkpt>
      <trkpt lat="48.630428" lon="16.519740">
        <ele>306.613459</ele>
        <time>2020-08-20T06:42:49.562Z</time>
      </trkpt>
      <trkpt lat="48.630551" lon="16.519761">
        <ele>306.684563</ele>
        <time>2020-08-20T06:42:52.571Z</time>
      </trkpt>
      <trkpt lat="48.630640" lon="16.519774">
        <ele>306.735925</ele>
        <time>2020-08-20T06:42:54.563Z</time>
      </trkpt>
      <trkpt lat="48.630736" lon="16.519792">
        <ele>306.791493</ele>
        <time>2020-08-20T06:42:56.555Z</time>
      </trkpt>
      <trkpt lat="48.630835" lon="16.519800">
        <ele>306.848443</ele>
        <time>2020-08-20T06:42:58.561Z</time>
      </trkpt>
      <trkpt lat="48.630930" lon="16.519821">
        <ele>306.903593</ele>
        <time>2020-08-20T06:43:00.578Z</time>
      </trkpt>
      <trkpt lat="48.630995" lon="16.519916">
        <ele>306.955506</ele>
        <time>2020-08-20T06:43:02.551Z</time>
      </trkpt>
      <trkpt lat="48.631039" lon="16.520091">
        <ele>307.026590</ele>
        <time>2020-08-20T06:43:05.551Z</time>
      </trkpt>
      <trkpt lat="48.631074" lon="16.520218">
        <ele>307.078829</ele>
        <time>2020-08-20T06:43:07.561Z</time>
      </trkpt>
      <trkpt lat="48.631116" lon="16.520357">
        <ele>307.124066</ele>
        <time>2020-08-20T06:43:09.566Z</time>
      </trkpt>
      <trkpt lat="48.631160" lon="16.520503">
        <ele>307.130516</ele>
        <time>2020-08-20T06:43:11.566Z</time>
      </trkpt>
      <trkpt lat="48.631223" lon="16.520621">
        <ele>307.136613</ele>
        <time>2020-08-20T06:43:13.569Z</time>
      </trkpt>
      <trkpt lat="48.631309" lon="16.520724">
        <ele>307.143284</ele>
        <time>2020-08-20T06:43:15.561Z</time>
      </trkpt>
      <trkpt lat="48.631395" lon="16.520803">
        <ele>307.149403</ele>
        <time>2020-08-20T06:43:17.554Z</time>
      </trkpt>
      <trkpt lat="48.631488" lon="16.520886">
        <ele>307.155970</ele>
        <time>2020-08-20T06:43:19.571Z</time>
      </trkpt>
      <trkpt lat="48.631578" lon="16.520974">
        <ele>307.162487</ele>
        <time>2020-08-20T06:43:21.551Z</time>
      </trkpt>
      <trkpt lat="48.631665" lon="16.521064">
        <ele>307.168897</ele>
        <time>2020-08-20T06:43:23.578Z</time>
      </trkpt>
      <trkpt lat="48.631742" lon="16.521159">
        <ele>307.174940</ele>
        <time>2020-08-20T06:43:25.573Z</time>
      </trkpt>
      <trkpt lat="48.631822" lon="16.521251">
        <ele>307.181051</ele>
        <time>2020-08-20T06:43:27.564Z</time>
      </trkpt>
      <trkpt lat="48.631898" lon="16.521338">
        <ele>307.186848</ele>
        <time>2020-08-20T06:43:29.609Z</time>
      </trkpt>
      <trkpt lat="48.631982" lon="16.521421">
        <ele>307.192949</ele>
        <time>2020-08-20T06:43:31.551Z</time>
      </trkpt>
      <trkpt lat="48.632068" lon="16.521486">
        <ele>307.198796</ele>
        <time>2020-08-20T06:43:33.570Z</time>
      </trkpt>
      <trkpt lat="48.632153" lon="16.521530">
        <ele>307.204260</ele>
        <time>2020-08-20T06:43:35.574Z</time>
      </trkpt>
      <trkpt lat="48.632282" lon="16.521574">
        <ele>307.212303</ele>
        <time>2020-08-20T06:43:38.552Z</time>
      </trkpt>
      <trkpt lat="48.632412" lon="16.521594">
        <ele>307.220250</ele>
        <time>2020-08-20T06:43:41.569Z</time>
      </trkpt>
      <trkpt lat="48.632540" lon="16.521614">
        <ele>307.228077</ele>
        <time>2020-08-20T06:43:44.577Z</time>
      </trkpt>
      <trkpt lat="48.632637" lon="16.521617">
        <ele>307.226018</ele>
        <time>2020-08-20T06:43:46.573Z</time>
      </trkpt>
      <trkpt lat="48.632737" lon="16.521614">
        <ele>307.208267</ele>
        <time>2020-08-20T06:43:48.568Z</time>
      </trkpt>
      <trkpt lat="48.632836" lon="16.521568">
        <ele>307.189887</ele>
        <time>2020-08-20T06:43:50.547Z</time>
      </trkpt>
      <trkpt lat="48.632921" lon="16.521466">
        <ele>307.170633</ele>
        <time>2020-08-20T06:43:52.562Z</time>
      </trkpt>
      <trkpt lat="48.632967" lon="16.521335">
        <ele>307.153234</ele>
        <time>2020-08-20T06:43:54.557Z</time>
      </trkpt>
      <trkpt lat="48.632981" lon="16.521175">
        <ele>307.134304</ele>
        <time>2020-08-20T06:43:56.566Z</time>
      </trkpt>
      <trkpt lat="48.632983" lon="16.521013">
        <ele>307.115299</ele>
        <time>2020-08-20T06:43:58.561Z</time>
      </trkpt>
      <trkpt lat="48.632990" lon="16.520853">
        <ele>307.096492</ele>
        <time>2020-08-20T06:44:00.568Z</time>
      </trkpt>
      <trkpt lat="48.633013" lon="16.520717">
        <ele>307.080026</ele>
        <time>2020-08-20T06:44:02.602Z</time>
      </trkpt>
      <trkpt lat="48.633019" lon="16.520577">
        <ele>307.063571</ele>
        <time>2020-08-20T06:44:04.594Z</time>
      </trkpt>
      <trkpt lat="48.633031" lon="16.520429">
        <ele>307.046082</ele>
        <time>2020-08-20T06:44:06.580Z</time>
      </trkpt>
      <trkpt lat="48.633044" lon="16.520249">
        <ele>307.024844</ele>
        <time>2020-08-20T06:44:09.567Z</time>
      </trkpt>
      <trkpt lat="48.633040" lon="16.520098">
        <ele>307.007119</ele>
        <time>2020-08-20T06:44:11.558Z</time>
      </trkpt>
      <trkpt lat="48.633040" lon="16.519954">
        <ele>306.990230</ele>
        <time>2020-08-20T06:44:13.560Z</time>
      </trkpt>
      <trkpt lat="48.633036" lon="16.519798">
        <ele>306.971919</ele>
        <time>2020-08-20T06:44:15.561Z</time>
      </trkpt>
      <trkpt lat="48.633028" lon="16.519649">
        <ele>306.954385</ele>
        <time>2020-08-20T06:44:17.561Z</time>
      </trkpt>
      <trkpt lat="48.633009" lon="16.519468">
        <ele>306.932889</ele>
        <time>2020-08-20T06:44:20.567Z</time>
      </trkpt>
      <trkpt lat="48.632968" lon="16.519293">
        <ele>306.915682</ele>
        <time>2020-08-20T06:44:23.572Z</time>
      </trkpt>
      <trkpt lat="48.632937" lon="16.519135">
        <ele>306.950930</ele>
        <time>2020-08-20T06:44:26.571Z</time>
      </trkpt>
      <trkpt lat="48.632908" lon="16.518988">
        <ele>306.983738</ele>
        <time>2020-08-20T06:44:29.575Z</time>
      </trkpt>
      <trkpt lat="48.633016" lon="16.518944">
        <ele>307.019932</ele>
        <time>2020-08-20T06:44:34.562Z</time>
      </trkpt>
      <trkpt lat="48.633107" lon="16.519030">
        <ele>307.054651</ele>
        <time>2020-08-20T06:44:39.578Z</time>
      </trkpt>
      <trkpt lat="48.633211" lon="16.519086">
        <ele>307.090374</ele>
        <time>2020-08-20T06:44:43.554Z</time>
      </trkpt>
      <trkpt lat="48.633310" lon="16.519133">
        <ele>307.123950</ele>
        <time>2020-08-20T06:44:47.588Z</time>
      </trkpt>
      <trkpt lat="48.633415" lon="16.519180">
        <ele>307.159384</ele>
        <time>2020-08-20T06:44:52.566Z</time>
      </trkpt>
      <trkpt lat="48.633508" lon="16.519225">
        <ele>307.190980</ele>
        <time>2020-08-20T06:44:57.562Z</time>
      </trkpt>
      <trkpt lat="48.633605" lon="16.519281">
        <ele>307.224577</ele>
        <time>2020-08-20T06:45:02.559Z</time>
      </trkpt>
      <trkpt lat="48.633709" lon="16.519314">
        <ele>307.258963</ele>
        <time>2020-08-20T06:45:07.568Z</time>
      </trkpt>
      <trkpt lat="48.633803" lon="16.519332">
        <ele>307.289625</ele>
        <time>2020-08-20T06:45:11.588Z</time>
      </trkpt>
      <trkpt lat="48.633915" lon="16.519386">
        <ele>307.327663</ele>
        <time>2020-08-20T06:45:15.559Z</time>
      </trkpt>
      <trkpt lat="48.634003" lon="16.519450">
        <ele>307.359259</ele>
        <time>2020-08-20T06:45:18.580Z</time>
      </trkpt>
      <trkpt lat="48.634117" lon="16.519563">
        <ele>307.403360</ele>
        <time>2020-08-20T06:45:21.586Z</time>
      </trkpt>
      <trkpt lat="48.634202" lon="16.519653">
        <ele>307.436931</ele>
        <time>2020-08-20T06:45:23.566Z</time>
      </trkpt>
      <trkpt lat="48.634291" lon="16.519740">
        <ele>307.471219</ele>
        <time>2020-08-20T06:45:25.591Z</time>
      </trkpt>
      <trkpt lat="48.634384" lon="16.519830">
        <ele>307.502401</ele>
        <time>2020-08-20T06:45:27.565Z</time>
      </trkpt>
      <trkpt lat="48.634481" lon="16.519924">
        <ele>307.525761</ele>
        <time>2020-08-20T06:45:29.574Z</time>
      </trkpt>
      <trkpt lat="48.634581" lon="16.520028">
        <ele>307.550370</ele>
        <time>2020-08-20T06:45:31.580Z</time>
      </trkpt>
      <trkpt lat="48.634679" lon="16.520129">
        <ele>307.574417</ele>
        <time>2020-08-20T06:45:33.581Z</time>
      </trkpt>
      <trkpt lat="48.634774" lon="16.520216">
        <ele>307.596938</ele>
        <time>2020-08-20T06:45:35.575Z</time>
      </trkpt>
      <trkpt lat="48.634866" lon="16.520277">
        <ele>307.617308</ele>
        <time>2020-08-20T06:45:37.584Z</time>
      </trkpt>
      <trkpt lat="48.634961" lon="16.520337">
        <ele>307.638186</ele>
        <time>2020-08-20T06:45:39.569Z</time>
      </trkpt>
      <trkpt lat="48.635049" lon="16.520400">
        <ele>307.657929</ele>
        <time>2020-08-20T06:45:41.561Z</time>
      </trkpt>
      <trkpt lat="48.635147" lon="16.520468">
        <ele>307.679794</ele>
        <time>2020-08-20T06:45:43.556Z</time>
      </trkpt>
      <trkpt lat="48.635244" lon="16.520534">
        <ele>307.701364</ele>
        <time>2020-08-20T06:45:45.598Z</time>
      </trkpt>
      <trkpt lat="48.635341" lon="16.520600">
        <ele>307.722933</ele>
        <time>2020-08-20T06:45:47.571Z</time>
      </trkpt>
      <trkpt lat="48.635446" lon="16.520654">
        <ele>307.745424</ele>
        <time>2020-08-20T06:45:49.557Z</time>
      </trkpt>
      <trkpt lat="48.635545" lon="16.520733">
        <ele>307.768123</ele>
        <time>2020-08-20T06:45:51.582Z</time>
      </trkpt>
      <trkpt lat="48.635637" lon="16.520773">
        <ele>307.787536</ele>
        <time>2020-08-20T06:45:53.604Z</time>
      </trkpt>
      <trkpt lat="48.635757" lon="16.520815">
        <ele>307.812515</ele>
        <time>2020-08-20T06:45:56.575Z</time>
      </trkpt>
      <trkpt lat="48.635853" lon="16.520838">
        <ele>307.832227</ele>
        <time>2020-08-20T06:45:59.601Z</time>
      </trkpt>
      <trkpt lat="48.635965" lon="16.520864">
        <ele>307.855207</ele>
        <time>2020-08-20T06:46:03.562Z</time>
      </trkpt>
      <trkpt lat="48.636059" lon="16.520875">
        <ele>307.895692</ele>
        <time>2020-08-20T06:46:06.572Z</time>
      </trkpt>
      <trkpt lat="48.636163" lon="16.520892">
        <ele>307.947581</ele>
        <time>2020-08-20T06:46:10.580Z</time>
      </trkpt>
      <trkpt lat="48.636278" lon="16.520898">
        <ele>308.004660</ele>
        <time>2020-08-20T06:46:14.570Z</time>
      </trkpt>
      <trkpt lat="48.636379" lon="16.520906">
        <ele>308.054829</ele>
        <time>2020-08-20T06:46:17.570Z</time>
      </trkpt>
      <trkpt lat="48.636478" lon="16.520913">
        <ele>308.103991</ele>
        <time>2020-08-20T06:46:20.589Z</time>
      </trkpt>
      <trkpt lat="48.636585" lon="16.520916">
        <ele>308.157077</ele>
        <time>2020-08-20T06:46:23.596Z</time>
      </trkpt>
      <trkpt lat="48.636712" lon="16.520910">
        <ele>308.220105</ele>
        <time>2020-08-20T06:46:26.558Z</time>
      </trkpt>
      <trkpt lat="48.636813" lon="16.520902">
        <ele>308.270274</ele>
        <time>2020-08-20T06:46:28.589Z</time>
      </trkpt>
      <trkpt lat="48.636919" lon="16.520889">
        <ele>308.323028</ele>
        <time>2020-08-20T06:46:30.564Z</time>
      </trkpt>
      <trkpt lat="48.637034" lon="16.520879">
        <ele>308.380167</ele>
        <time>2020-08-20T06:46:32.556Z</time>
      </trkpt>
      <trkpt lat="48.637149" lon="16.520863">
        <ele>308.437453</ele>
        <time>2020-08-20T06:46:34.569Z</time>
      </trkpt>
      <trkpt lat="48.637264" lon="16.520839">
        <ele>308.495038</ele>
        <time>2020-08-20T06:46:36.579Z</time>
      </trkpt>
      <trkpt lat="48.637378" lon="16.520809">
        <ele>308.552436</ele>
        <time>2020-08-20T06:46:38.571Z</time>
      </trkpt>
      <trkpt lat="48.637482" lon="16.520744">
        <ele>308.608251</ele>
        <time>2020-08-20T06:46:40.563Z</time>
      </trkpt>
      <trkpt lat="48.637590" lon="16.520707">
        <ele>308.663180</ele>
        <time>2020-08-20T06:46:42.567Z</time>
      </trkpt>
      <trkpt lat="48.637690" lon="16.520664">
        <ele>308.714748</ele>
        <time>2020-08-20T06:46:44.573Z</time>
      </trkpt>
      <trkpt lat="48.637788" lon="16.520622">
        <ele>308.773516</ele>
        <time>2020-08-20T06:46:46.589Z</time>
      </trkpt>
      <trkpt lat="48.637879" lon="16.520570">
        <ele>308.851206</ele>
        <time>2020-08-20T06:46:48.563Z</time>
      </trkpt>
      <trkpt lat="48.637968" lon="16.520530">
        <ele>308.925358</ele>
        <time>2020-08-20T06:46:50.572Z</time>
      </trkpt>
      <trkpt lat="48.638051" lon="16.520434">
        <ele>309.008795</ele>
        <time>2020-08-20T06:46:53.557Z</time>
      </trkpt>
      <trkpt lat="48.638037" lon="16.520260">
        <ele>309.101308</ele>
        <time>2020-08-20T06:46:56.579Z</time>
      </trkpt>
      <trkpt lat="48.638000" lon="16.520134">
        <ele>309.174079</ele>
        <time>2020-08-20T06:46:59.561Z</time>
      </trkpt>
      <trkpt lat="48.637971" lon="16.519986">
        <ele>309.255553</ele>
        <time>2020-08-20T06:47:04.580Z</time>
      </trkpt>
      <trkpt lat="48.637981" lon="16.519823">
        <ele>309.341952</ele>
        <time>2020-08-20T06:47:09.575Z</time>
      </trkpt>
      <trkpt lat="48.638032" lon="16.519699">
        <ele>309.419038</ele>
        <time>2020-08-20T06:47:13.595Z</time>
      </trkpt>
      <trkpt lat="48.638105" lon="16.519586">
        <ele>309.502442</ele>
        <time>2020-08-20T06:47:17.574Z</time>
      </trkpt>
      <trkpt lat="48.638188" lon="16.519471">
        <ele>309.592322</ele>
        <time>2020-08-20T06:47:22.573Z</time>
      </trkpt>
      <trkpt lat="48.638255" lon="16.519355">
        <ele>309.673635</ele>
        <time>2020-08-20T06:47:26.580Z</time>
      </trkpt>
      <trkpt lat="48.638316" lon="16.519239">
        <ele>309.751877</ele>
        <time>2020-08-20T06:47:30.586Z</time>
      </trkpt>
      <trkpt lat="48.638358" lon="16.519098">
        <ele>309.833506</ele>
        <time>2020-08-20T06:47:34.573Z</time>
      </trkpt>
      <trkpt lat="48.638435" lon="16.519006">
        <ele>309.911863</ele>
        <time>2020-08-20T06:47:37.569Z</time>
      </trkpt>
      <trkpt lat="48.638541" lon="16.518966">
        <ele>309.999116</ele>
        <time>2020-08-20T06:47:40.557Z</time>
      </trkpt>
      <trkpt lat="48.638672" lon="16.518920">
        <ele>310.106524</ele>
        <time>2020-08-20T06:47:43.566Z</time>
      </trkpt>
      <trkpt lat="48.638777" lon="16.518878">
        <ele>310.191412</ele>
        <time>2020-08-20T06:47:45.567Z</time>
      </trkpt>
      <trkpt lat="48.638877" lon="16.518855">
        <ele>310.241925</ele>
        <time>2020-08-20T06:47:47.579Z</time>
      </trkpt>
      <trkpt lat="48.638989" lon="16.518821">
        <ele>310.298971</ele>
        <time>2020-08-20T06:47:49.571Z</time>
      </trkpt>
      <trkpt lat="48.639092" lon="16.518781">
        <ele>310.352076</ele>
        <time>2020-08-20T06:47:51.585Z</time>
      </trkpt>
      <trkpt lat="48.639198" lon="16.518723">
        <ele>310.408366</ele>
        <time>2020-08-20T06:47:53.599Z</time>
      </trkpt>
      <trkpt lat="48.639295" lon="16.518653">
        <ele>310.462034</ele>
        <time>2020-08-20T06:47:55.578Z</time>
      </trkpt>
      <trkpt lat="48.639391" lon="16.518584">
        <ele>310.515108</ele>
        <time>2020-08-20T06:47:57.601Z</time>
      </trkpt>
      <trkpt lat="48.639480" lon="16.518510">
        <ele>310.565821</ele>
        <time>2020-08-20T06:47:59.570Z</time>
      </trkpt>
      <trkpt lat="48.639564" lon="16.518419">
        <ele>310.617411</ele>
        <time>2020-08-20T06:48:01.567Z</time>
      </trkpt>
      <trkpt lat="48.639636" lon="16.518338">
        <ele>310.662215</ele>
        <time>2020-08-20T06:48:03.595Z</time>
      </trkpt>
      <trkpt lat="48.639708" lon="16.518239">
        <ele>310.710797</ele>
        <time>2020-08-20T06:48:05.580Z</time>
      </trkpt>
      <trkpt lat="48.639777" lon="16.518133">
        <ele>310.759898</ele>
        <time>2020-08-20T06:48:07.563Z</time>
      </trkpt>
      <trkpt lat="48.639869" lon="16.517981">
        <ele>310.827919</ele>
        <time>2020-08-20T06:48:10.592Z</time>
      </trkpt>
      <trkpt lat="48.639934" lon="16.517872">
        <ele>310.876371</ele>
        <time>2020-08-20T06:48:12.584Z</time>
      </trkpt>
      <trkpt lat="48.640007" lon="16.517757">
        <ele>310.928994</ele>
        <time>2020-08-20T06:48:14.567Z</time>
      </trkpt>
      <trkpt lat="48.640080" lon="16.517651">
        <ele>310.979517</ele>
        <time>2020-08-20T06:48:16.598Z</time>
      </trkpt>
      <trkpt lat="48.640176" lon="16.517517">
        <ele>311.044738</ele>
        <time>2020-08-20T06:48:19.580Z</time>
      </trkpt>
      <trkpt lat="48.640269" lon="16.517375">
        <ele>311.110512</ele>
        <time>2020-08-20T06:48:22.568Z</time>
      </trkpt>
      <trkpt lat="48.640344" lon="16.517235">
        <ele>311.169490</ele>
        <time>2020-08-20T06:48:25.567Z</time>
      </trkpt>
      <trkpt lat="48.640409" lon="16.517098">
        <ele>311.224681</ele>
        <time>2020-08-20T06:48:28.579Z</time>
      </trkpt>
      <trkpt lat="48.640470" lon="16.516981">
        <ele>311.273451</ele>
        <time>2020-08-20T06:48:31.578Z</time>
      </trkpt>
      <trkpt lat="48.640539" lon="16.516854">
        <ele>311.327254</ele>
        <time>2020-08-20T06:48:34.582Z</time>
      </trkpt>
      <trkpt lat="48.640619" lon="16.516713">
        <ele>311.388070</ele>
        <time>2020-08-20T06:48:37.583Z</time>
      </trkpt>
      <trkpt lat="48.640688" lon="16.516576">
        <ele>311.444439</ele>
        <time>2020-08-20T06:48:40.589Z</time>
      </trkpt>
      <trkpt lat="48.640760" lon="16.516434">
        <ele>311.503010</ele>
        <time>2020-08-20T06:48:43.577Z</time>
      </trkpt>
      <trkpt lat="48.640827" lon="16.516297">
        <ele>311.558784</ele>
        <time>2020-08-20T06:48:46.600Z</time>
      </trkpt>
      <trkpt lat="48.640891" lon="16.516158">
        <ele>311.614223</ele>
        <time>2020-08-20T06:48:48.581Z</time>
      </trkpt>
      <trkpt lat="48.640985" lon="16.516069">
        <ele>311.669135</ele>
        <time>2020-08-20T06:48:50.561Z</time>
      </trkpt>
      <trkpt lat="48.641094" lon="16.515960">
        <ele>311.733834</ele>
        <time>2020-08-20T06:48:52.577Z</time>
      </trkpt>
      <trkpt lat="48.641190" lon="16.515863">
        <ele>311.790999</ele>
        <time>2020-08-20T06:48:54.598Z</time>
      </trkpt>
      <trkpt lat="48.641270" lon="16.515735">
        <ele>311.848653</ele>
        <time>2020-08-20T06:48:56.570Z</time>
      </trkpt>
      <trkpt lat="48.641326" lon="16.515612">
        <ele>311.897532</ele>
        <time>2020-08-20T06:48:58.559Z</time>
      </trkpt>
      <trkpt lat="48.641384" lon="16.515486">
        <ele>311.947781</ele>
        <time>2020-08-20T06:49:00.582Z</time>
      </trkpt>
      <trkpt lat="48.641450" lon="16.515349">
        <ele>312.009811</ele>
        <time>2020-08-20T06:49:02.565Z</time>
      </trkpt>
      <trkpt lat="48.641519" lon="16.515212">
        <ele>312.080394</ele>
        <time>2020-08-20T06:49:04.559Z</time>
      </trkpt>
      <trkpt lat="48.641590" lon="16.515091">
        <ele>312.146700</ele>
        <time>2020-08-20T06:49:06.564Z</time>
      </trkpt>
      <trkpt lat="48.641652" lon="16.514961">
        <ele>312.212393</ele>
        <time>2020-08-20T06:49:08.577Z</time>
      </trkpt>
      <trkpt lat="48.641710" lon="16.514834">
        <ele>312.275650</ele>
        <time>2020-08-20T06:49:10.569Z</time>
      </trkpt>
      <trkpt lat="48.641777" lon="16.514705">
        <ele>312.342881</ele>
        <time>2020-08-20T06:49:12.566Z</time>
      </trkpt>
      <trkpt lat="48.641849" lon="16.514586">
        <ele>312.408994</ele>
        <time>2020-08-20T06:49:14.579Z</time>
      </trkpt>
      <trkpt lat="48.641888" lon="16.514434">
        <ele>312.475806</ele>
        <time>2020-08-20T06:49:16.544Z</time>
      </trkpt>
      <trkpt lat="48.641893" lon="16.514274">
        <ele>312.541438</ele>
        <time>2020-08-20T06:49:18.561Z</time>
      </trkpt>
      <trkpt lat="48.641917" lon="16.514133">
        <ele>312.601098</ele>
        <time>2020-08-20T06:49:20.568Z</time>
      </trkpt>
      <trkpt lat="48.642009" lon="16.513999">
        <ele>312.680277</ele>
        <time>2020-08-20T06:49:23.558Z</time>
      </trkpt>
      <trkpt lat="48.642099" lon="16.513873">
        <ele>312.756305</ele>
        <time>2020-08-20T06:49:26.556Z</time>
      </trkpt>
      <trkpt lat="48.642158" lon="16.513763">
        <ele>312.814356</ele>
        <time>2020-08-20T06:49:28.579Z</time>
      </trkpt>
      <trkpt lat="48.642221" lon="16.513665">
        <ele>312.870380</ele>
        <time>2020-08-20T06:49:30.581Z</time>
      </trkpt>
      <trkpt lat="48.642282" lon="16.513563">
        <ele>312.926749</ele>
        <time>2020-08-20T06:49:32.570Z</time>
      </trkpt>
      <trkpt lat="48.642332" lon="16.513445">
        <ele>312.984186</ele>
        <time>2020-08-20T06:49:34.587Z</time>
      </trkpt>
      <trkpt lat="48.642408" lon="16.513298">
        <ele>313.060665</ele>
        <time>2020-08-20T06:49:37.581Z</time>
      </trkpt>
      <trkpt lat="48.642460" lon="16.513186">
        <ele>313.109774</ele>
        <time>2020-08-20T06:49:39.564Z</time>
      </trkpt>
      <trkpt lat="48.642530" lon="16.513078">
        <ele>313.153822</ele>
        <time>2020-08-20T06:49:41.553Z</time>
      </trkpt>
      <trkpt lat="48.642599" lon="16.512961">
        <ele>313.199483</ele>
        <time>2020-08-20T06:49:43.566Z</time>
      </trkpt>
      <trkpt lat="48.642658" lon="16.512850">
        <ele>313.240961</ele>
        <time>2020-08-20T06:49:45.567Z</time>
      </trkpt>
      <trkpt lat="48.642719" lon="16.512742">
        <ele>313.282328</ele>
        <time>2020-08-20T06:49:47.565Z</time>
      </trkpt>
      <trkpt lat="48.642794" lon="16.512626">
        <ele>313.329582</ele>
        <time>2020-08-20T06:49:49.570Z</time>
      </trkpt>
      <trkpt lat="48.642884" lon="16.512544">
        <ele>313.375872</ele>
        <time>2020-08-20T06:49:51.557Z</time>
      </trkpt>
      <trkpt lat="48.642957" lon="16.512445">
        <ele>313.419064</ele>
        <time>2020-08-20T06:49:53.603Z</time>
      </trkpt>
      <trkpt lat="48.643029" lon="16.512348">
        <ele>313.461540</ele>
        <time>2020-08-20T06:49:55.562Z</time>
      </trkpt>
      <trkpt lat="48.643104" lon="16.512243">
        <ele>313.506560</ele>
        <time>2020-08-20T06:49:57.582Z</time>
      </trkpt>
      <trkpt lat="48.643172" lon="16.512121">
        <ele>313.553031</ele>
        <time>2020-08-20T06:49:59.580Z</time>
      </trkpt>
      <trkpt lat="48.643244" lon="16.512011">
        <ele>313.598112</ele>
        <time>2020-08-20T06:50:01.582Z</time>
      </trkpt>
      <trkpt lat="48.643337" lon="16.511869">
        <ele>313.656325</ele>
        <time>2020-08-20T06:50:04.578Z</time>
      </trkpt>
      <trkpt lat="48.643433" lon="16.511724">
        <ele>313.716089</ele>
        <time>2020-08-20T06:50:07.571Z</time>
      </trkpt>
      <trkpt lat="48.643490" lon="16.511605">
        <ele>313.758882</ele>
        <time>2020-08-20T06:50:09.550Z</time>
      </trkpt>
      <trkpt lat="48.643553" lon="16.511493">
        <ele>313.801708</ele>
        <time>2020-08-20T06:50:11.573Z</time>
      </trkpt>
      <trkpt lat="48.643615" lon="16.511383">
        <ele>313.843804</ele>
        <time>2020-08-20T06:50:13.581Z</time>
      </trkpt>
      <trkpt lat="48.643680" lon="16.511284">
        <ele>313.884439</ele>
        <time>2020-08-20T06:50:15.568Z</time>
      </trkpt>
      <trkpt lat="48.643742" lon="16.511183">
        <ele>313.913832</ele>
        <time>2020-08-20T06:50:17.562Z</time>
      </trkpt>
      <trkpt lat="48.643813" lon="16.511089">
        <ele>313.944055</ele>
        <time>2020-08-20T06:50:19.589Z</time>
      </trkpt>
      <trkpt lat="48.643884" lon="16.510984">
        <ele>313.975859</ele>
        <time>2020-08-20T06:50:21.565Z</time>
      </trkpt>
      <trkpt lat="48.643946" lon="16.510866">
        <ele>314.007774</ele>
        <time>2020-08-20T06:50:23.554Z</time>
      </trkpt>
      <trkpt lat="48.644010" lon="16.510752">
        <ele>314.039441</ele>
        <time>2020-08-20T06:50:25.570Z</time>
      </trkpt>
      <trkpt lat="48.644059" lon="16.510628">
        <ele>314.070027</ele>
        <time>2020-08-20T06:50:27.573Z</time>
      </trkpt>
      <trkpt lat="48.644132" lon="16.510542">
        <ele>314.099665</ele>
        <time>2020-08-20T06:50:29.565Z</time>
      </trkpt>
      <trkpt lat="48.644269" lon="16.510497">
        <ele>314.144579</ele>
        <time>2020-08-20T06:50:32.570Z</time>
      </trkpt>
      <trkpt lat="48.644362" lon="16.510470">
        <ele>314.174918</ele>
        <time>2020-08-20T06:50:34.575Z</time>
      </trkpt>
      <trkpt lat="48.644463" lon="16.510433">
        <ele>314.208212</ele>
        <time>2020-08-20T06:50:36.563Z</time>
      </trkpt>
      <trkpt lat="48.644555" lon="16.510395">
        <ele>314.238765</ele>
        <time>2020-08-20T06:50:38.594Z</time>
      </trkpt>
      <trkpt lat="48.644654" lon="16.510358">
        <ele>314.271436</ele>
        <time>2020-08-20T06:50:40.555Z</time>
      </trkpt>
      <trkpt lat="48.644747" lon="16.510324">
        <ele>314.302088</ele>
        <time>2020-08-20T06:50:42.584Z</time>
      </trkpt>
      <trkpt lat="48.644845" lon="16.510288">
        <ele>314.334397</ele>
        <time>2020-08-20T06:50:44.569Z</time>
      </trkpt>
      <trkpt lat="48.644974" lon="16.510251">
        <ele>314.376463</ele>
        <time>2020-08-20T06:50:47.596Z</time>
      </trkpt>
      <trkpt lat="48.645097" lon="16.510205">
        <ele>314.417055</ele>
        <time>2020-08-20T06:50:50.563Z</time>
      </trkpt>
      <trkpt lat="48.645216" lon="16.510147">
        <ele>314.457109</ele>
        <time>2020-08-20T06:50:53.565Z</time>
      </trkpt>
      <trkpt lat="48.645332" lon="16.510076">
        <ele>314.524317</ele>
        <time>2020-08-20T06:50:56.578Z</time>
      </trkpt>
      <trkpt lat="48.645447" lon="16.509999">
        <ele>314.595182</ele>
        <time>2020-08-20T06:50:59.583Z</time>
      </trkpt>
      <trkpt lat="48.645560" lon="16.509916">
        <ele>314.665964</ele>
        <time>2020-08-20T06:51:02.565Z</time>
      </trkpt>
      <trkpt lat="48.645672" lon="16.509818">
        <ele>314.738868</ele>
        <time>2020-08-20T06:51:05.580Z</time>
      </trkpt>
      <trkpt lat="48.645782" lon="16.509739">
        <ele>314.807481</ele>
        <time>2020-08-20T06:51:08.581Z</time>
      </trkpt>
      <trkpt lat="48.645894" lon="16.509666">
        <ele>314.876200</ele>
        <time>2020-08-20T06:51:11.575Z</time>
      </trkpt>
      <trkpt lat="48.646009" lon="16.509582">
        <ele>314.948159</ele>
        <time>2020-08-20T06:51:14.604Z</time>
      </trkpt>
      <trkpt lat="48.646122" lon="16.509500">
        <ele>315.018779</ele>
        <time>2020-08-20T06:51:17.569Z</time>
      </trkpt>
      <trkpt lat="48.646225" lon="16.509430">
        <ele>315.082405</ele>
        <time>2020-08-20T06:51:20.564Z</time>
      </trkpt>
      <trkpt lat="48.646324" lon="16.509366">
        <ele>315.143071</ele>
        <time>2020-08-20T06:51:23.563Z</time>
      </trkpt>
      <trkpt lat="48.646424" lon="16.509319">
        <ele>315.202079</ele>
        <time>2020-08-20T06:51:26.562Z</time>
      </trkpt>
      <trkpt lat="48.646522" lon="16.509268">
        <ele>315.260478</ele>
        <time>2020-08-20T06:51:29.564Z</time>
      </trkpt>
      <trkpt lat="48.646631" lon="16.509222">
        <ele>315.324246</ele>
        <time>2020-08-20T06:51:32.569Z</time>
      </trkpt>
      <trkpt lat="48.646742" lon="16.509169">
        <ele>315.389837</ele>
        <time>2020-08-20T06:51:35.565Z</time>
      </trkpt>
      <trkpt lat="48.646840" lon="16.509125">
        <ele>315.447442</ele>
        <time>2020-08-20T06:51:38.558Z</time>
      </trkpt>
      <trkpt lat="48.646931" lon="16.509056">
        <ele>315.513376</ele>
        <time>2020-08-20T06:51:41.564Z</time>
      </trkpt>
      <trkpt lat="48.647039" lon="16.508994">
        <ele>315.597241</ele>
        <time>2020-08-20T06:51:44.575Z</time>
      </trkpt>
      <trkpt lat="48.647151" lon="16.508949">
        <ele>315.681376</ele>
        <time>2020-08-20T06:51:47.591Z</time>
      </trkpt>
      <trkpt lat="48.647264" lon="16.508899">
        <ele>315.766854</ele>
        <time>2020-08-20T06:51:50.561Z</time>
      </trkpt>
      <trkpt lat="48.647383" lon="16.508840">
        <ele>315.857772</ele>
        <time>2020-08-20T06:51:53.572Z</time>
      </trkpt>
      <trkpt lat="48.647508" lon="16.508789">
        <ele>315.951769</ele>
        <time>2020-08-20T06:51:56.566Z</time>
      </trkpt>
      <trkpt lat="48.647634" lon="16.508736">
        <ele>316.046719</ele>
        <time>2020-08-20T06:51:59.563Z</time>
      </trkpt>
      <trkpt lat="48.647751" lon="16.508683">
        <ele>316.135391</ele>
        <time>2020-08-20T06:52:02.558Z</time>
      </trkpt>
      <trkpt lat="48.647877" lon="16.508632">
        <ele>316.230089</ele>
        <time>2020-08-20T06:52:05.547Z</time>
      </trkpt>
      <trkpt lat="48.648004" lon="16.508587">
        <ele>316.324791</ele>
        <time>2020-08-20T06:52:08.549Z</time>
      </trkpt>
      <trkpt lat="48.648132" lon="16.508531">
        <ele>316.421531</ele>
        <time>2020-08-20T06:52:11.589Z</time>
      </trkpt>
      <trkpt lat="48.648225" lon="16.508531">
        <ele>316.489054</ele>
        <time>2020-08-20T06:52:13.564Z</time>
      </trkpt>
      <trkpt lat="48.648304" lon="16.508610">
        <ele>316.557800</ele>
        <time>2020-08-20T06:52:15.567Z</time>
      </trkpt>
      <trkpt lat="48.648367" lon="16.508712">
        <ele>316.624780</ele>
        <time>2020-08-20T06:52:17.556Z</time>
      </trkpt>
      <trkpt lat="48.648430" lon="16.508810">
        <ele>316.690371</ele>
        <time>2020-08-20T06:52:19.570Z</time>
      </trkpt>
      <trkpt lat="48.648497" lon="16.508907">
        <ele>316.757687</ele>
        <time>2020-08-20T06:52:21.575Z</time>
      </trkpt>
      <trkpt lat="48.648563" lon="16.509003">
        <ele>316.826128</ele>
        <time>2020-08-20T06:52:23.578Z</time>
      </trkpt>
      <trkpt lat="48.648657" lon="16.509146">
        <ele>316.927333</ele>
        <time>2020-08-20T06:52:26.563Z</time>
      </trkpt>
      <trkpt lat="48.648747" lon="16.509286">
        <ele>317.025335</ele>
        <time>2020-08-20T06:52:29.572Z</time>
      </trkpt>
      <trkpt lat="48.648826" lon="16.509423">
        <ele>317.116566</ele>
        <time>2020-08-20T06:52:32.578Z</time>
      </trkpt>
      <trkpt lat="48.648903" lon="16.509554">
        <ele>317.204535</ele>
        <time>2020-08-20T06:52:35.577Z</time>
      </trkpt>
      <trkpt lat="48.648973" lon="16.509681">
        <ele>317.287512</ele>
        <time>2020-08-20T06:52:38.576Z</time>
      </trkpt>
      <trkpt lat="48.649035" lon="16.509793">
        <ele>317.360820</ele>
        <time>2020-08-20T06:52:41.562Z</time>
      </trkpt>
      <trkpt lat="48.649108" lon="16.509935">
        <ele>317.451088</ele>
        <time>2020-08-20T06:52:45.592Z</time>
      </trkpt>
      <trkpt lat="48.649167" lon="16.510058">
        <ele>317.527346</ele>
        <time>2020-08-20T06:52:49.564Z</time>
      </trkpt>
      <trkpt lat="48.649228" lon="16.510192">
        <ele>317.608987</ele>
        <time>2020-08-20T06:52:54.574Z</time>
      </trkpt>
      <trkpt lat="48.649282" lon="16.510308">
        <ele>317.680180</ele>
        <time>2020-08-20T06:52:58.581Z</time>
      </trkpt>
      <trkpt lat="48.649334" lon="16.510448">
        <ele>317.760756</ele>
        <time>2020-08-20T06:53:03.575Z</time>
      </trkpt>
      <trkpt lat="48.649384" lon="16.510572">
        <ele>317.833638</ele>
        <time>2020-08-20T06:53:08.568Z</time>
      </trkpt>
      <trkpt lat="48.649451" lon="16.510697">
        <ele>317.914393</ele>
        <time>2020-08-20T06:53:14.567Z</time>
      </trkpt>
      <trkpt lat="48.649521" lon="16.510812">
        <ele>317.992842</ele>
        <time>2020-08-20T06:53:20.586Z</time>
      </trkpt>
      <trkpt lat="48.649576" lon="16.510948">
        <ele>318.072841</ele>
        <time>2020-08-20T06:53:26.582Z</time>
      </trkpt>
      <trkpt lat="48.649621" lon="16.511071">
        <ele>318.143379</ele>
        <time>2020-08-20T06:53:31.557Z</time>
      </trkpt>
      <trkpt lat="48.649679" lon="16.511199">
        <ele>318.294822</ele>
        <time>2020-08-20T06:53:36.555Z</time>
      </trkpt>
      <trkpt lat="48.649743" lon="16.511299">
        <ele>318.433723</ele>
        <time>2020-08-20T06:53:41.559Z</time>
      </trkpt>
      <trkpt lat="48.649810" lon="16.511390">
        <ele>318.569658</ele>
        <time>2020-08-20T06:53:47.577Z</time>
      </trkpt>
      <trkpt lat="48.649872" lon="16.511519">
        <ele>318.728807</ele>
        <time>2020-08-20T06:53:53.558Z</time>
      </trkpt>
      <trkpt lat="48.649947" lon="16.511616">
        <ele>318.877776</ele>
        <time>2020-08-20T06:53:58.554Z</time>
      </trkpt>
      <trkpt lat="48.650027" lon="16.511713">
        <ele>319.032562</ele>
        <time>2020-08-20T06:54:03.550Z</time>
      </trkpt>
      <trkpt lat="48.650098" lon="16.511811">
        <ele>319.177662</ele>
        <time>2020-08-20T06:54:08.555Z</time>
      </trkpt>
      <trkpt lat="48.650169" lon="16.511912">
        <ele>319.324795</ele>
        <time>2020-08-20T06:54:13.570Z</time>
      </trkpt>
      <trkpt lat="48.650238" lon="16.512021">
        <ele>319.475399</ele>
        <time>2020-08-20T06:54:18.547Z</time>
      </trkpt>
      <trkpt lat="48.650317" lon="16.512115">
        <ele>319.627142</ele>
        <time>2020-08-20T06:54:23.568Z</time>
      </trkpt>
      <trkpt lat="48.650392" lon="16.512217">
        <ele>319.779397</ele>
        <time>2020-08-20T06:54:28.575Z</time>
      </trkpt>
      <trkpt lat="48.650469" lon="16.512306">
        <ele>319.925697</ele>
        <time>2020-08-20T06:54:32.584Z</time>
      </trkpt>
      <trkpt lat="48.650548" lon="16.512396">
        <ele>320.075007</ele>
        <time>2020-08-20T06:54:36.587Z</time>
      </trkpt>
      <trkpt lat="48.650628" lon="16.512500">
        <ele>320.234252</ele>
        <time>2020-08-20T06:54:40.559Z</time>
      </trkpt>
      <trkpt lat="48.650709" lon="16.512611">
        <ele>320.399248</ele>
        <time>2020-08-20T06:54:44.559Z</time>
      </trkpt>
      <trkpt lat="48.650784" lon="16.512691">
        <ele>320.537800</ele>
        <time>2020-08-20T06:54:47.559Z</time>
      </trkpt>
      <trkpt lat="48.650862" lon="16.512777">
        <ele>320.683521</ele>
        <time>2020-08-20T06:54:50.554Z</time>
      </trkpt>
      <trkpt lat="48.650935" lon="16.512880">
        <ele>320.834221</ele>
        <time>2020-08-20T06:54:53.595Z</time>
      </trkpt>
      <trkpt lat="48.651023" lon="16.512980">
        <ele>320.939324</ele>
        <time>2020-08-20T06:54:56.558Z</time>
      </trkpt>
      <trkpt lat="48.651117" lon="16.513092">
        <ele>321.039731</ele>
        <time>2020-08-20T06:54:59.585Z</time>
      </trkpt>
      <trkpt lat="48.651209" lon="16.513211">
        <ele>321.141301</ele>
        <time>2020-08-20T06:55:02.570Z</time>
      </trkpt>
      <trkpt lat="48.651308" lon="16.513344">
        <ele>321.252401</ele>
        <time>2020-08-20T06:55:05.588Z</time>
      </trkpt>
      <trkpt lat="48.651383" lon="16.513438">
        <ele>321.334128</ele>
        <time>2020-08-20T06:55:07.587Z</time>
      </trkpt>
      <trkpt lat="48.651454" lon="16.513535">
        <ele>321.414403</ele>
        <time>2020-08-20T06:55:10.554Z</time>
      </trkpt>
      <trkpt lat="48.651590" lon="16.513725">
        <ele>321.569738</ele>
        <time>2020-08-20T06:55:38.553Z</time>
      </trkpt>
      <trkpt lat="48.651672" lon="16.513828">
        <ele>321.659173</ele>
        <time>2020-08-20T06:55:40.593Z</time>
      </trkpt>
      <trkpt lat="48.651765" lon="16.513958">
        <ele>321.765422</ele>
        <time>2020-08-20T06:55:42.552Z</time>
      </trkpt>
      <trkpt lat="48.651859" lon="16.514089">
        <ele>321.872664</ele>
        <time>2020-08-20T06:55:44.564Z</time>
      </trkpt>
      <trkpt lat="48.651974" lon="16.514232">
        <ele>321.997579</ele>
        <time>2020-08-20T06:55:46.585Z</time>
      </trkpt>
      <trkpt lat="48.652103" lon="16.514382">
        <ele>322.134110</ele>
        <time>2020-08-20T06:55:48.564Z</time>
      </trkpt>
      <trkpt lat="48.652239" lon="16.514554">
        <ele>322.282856</ele>
        <time>2020-08-20T06:55:50.604Z</time>
      </trkpt>
      <trkpt lat="48.652303" lon="16.514664">
        <ele>322.364131</ele>
        <time>2020-08-20T06:55:51.593Z</time>
      </trkpt>
      <trkpt lat="48.652374" lon="16.514769">
        <ele>322.324409</ele>
        <time>2020-08-20T06:55:52.574Z</time>
      </trkpt>
      <trkpt lat="48.652451" lon="16.514868">
        <ele>322.269888</ele>
        <time>2020-08-20T06:55:53.565Z</time>
      </trkpt>
      <trkpt lat="48.652528" lon="16.514974">
        <ele>322.213719</ele>
        <time>2020-08-20T06:55:54.568Z</time>
      </trkpt>
      <trkpt lat="48.652611" lon="16.515074">
        <ele>322.156470</ele>
        <time>2020-08-20T06:55:55.603Z</time>
      </trkpt>
      <trkpt lat="48.652693" lon="16.515181">
        <ele>322.098044</ele>
        <time>2020-08-20T06:55:56.588Z</time>
      </trkpt>
      <trkpt lat="48.652777" lon="16.515287">
        <ele>322.039025</ele>
        <time>2020-08-20T06:55:57.585Z</time>
      </trkpt>
      <trkpt lat="48.652864" lon="16.515393">
        <ele>321.978754</ele>
        <time>2020-08-20T06:55:58.582Z</time>
      </trkpt>
      <trkpt lat="48.652953" lon="16.515498">
        <ele>321.917858</ele>
        <time>2020-08-20T06:55:59.584Z</time>
      </trkpt>
      <trkpt lat="48.653040" lon="16.515611">
        <ele>321.855992</ele>
        <time>2020-08-20T06:56:00.570Z</time>
      </trkpt>
      <trkpt lat="48.653131" lon="16.515722">
        <ele>321.792922</ele>
        <time>2020-08-20T06:56:01.582Z</time>
      </trkpt>
      <trkpt lat="48.653221" lon="16.515835">
        <ele>321.729818</ele>
        <time>2020-08-20T06:56:02.577Z</time>
      </trkpt>
      <trkpt lat="48.653313" lon="16.515947">
        <ele>321.666104</ele>
        <time>2020-08-20T06:56:03.560Z</time>
      </trkpt>
      <trkpt lat="48.653409" lon="16.516056">
        <ele>321.601341</ele>
        <time>2020-08-20T06:56:04.567Z</time>
      </trkpt>
      <trkpt lat="48.653501" lon="16.516175">
        <ele>321.536034</ele>
        <time>2020-08-20T06:56:05.568Z</time>
      </trkpt>
      <trkpt lat="48.653597" lon="16.516285">
        <ele>321.471056</ele>
        <time>2020-08-20T06:56:06.555Z</time>
      </trkpt>
      <trkpt lat="48.653693" lon="16.516400">
        <ele>321.404988</ele>
        <time>2020-08-20T06:56:07.566Z</time>
      </trkpt>
      <trkpt lat="48.653785" lon="16.516525">
        <ele>321.341276</ele>
        <time>2020-08-20T06:56:08.556Z</time>
      </trkpt>
      <trkpt lat="48.653880" lon="16.516645">
        <ele>321.277657</ele>
        <time>2020-08-20T06:56:09.585Z</time>
      </trkpt>
      <trkpt lat="48.653975" lon="16.516767">
        <ele>321.213601</ele>
        <time>2020-08-20T06:56:10.563Z</time>
      </trkpt>
      <trkpt lat="48.654073" lon="16.516886">
        <ele>321.149002</ele>
        <time>2020-08-20T06:56:11.564Z</time>
      </trkpt>
      <trkpt lat="48.654171" lon="16.517001">
        <ele>321.085246</ele>
        <time>2020-08-20T06:56:12.573Z</time>
      </trkpt>
      <trkpt lat="48.654273" lon="16.517120">
        <ele>321.019031</ele>
        <time>2020-08-20T06:56:13.574Z</time>
      </trkpt>
      <trkpt lat="48.654372" lon="16.517241">
        <ele>320.953607</ele>
        <time>2020-08-20T06:56:14.567Z</time>
      </trkpt>
      <trkpt lat="48.654467" lon="16.517357">
        <ele>320.890850</ele>
        <time>2020-08-20T06:56:15.571Z</time>
      </trkpt>
      <trkpt lat="48.654557" lon="16.517474">
        <ele>320.829851</ele>
        <time>2020-08-20T06:56:16.558Z</time>
      </trkpt>
      <trkpt lat="48.654648" lon="16.517593">
        <ele>320.768020</ele>
        <time>2020-08-20T06:56:17.557Z</time>
      </trkpt>
      <trkpt lat="48.654743" lon="16.517700">
        <ele>320.707136</ele>
        <time>2020-08-20T06:56:18.572Z</time>
      </trkpt>
      <trkpt lat="48.654830" lon="16.517792">
        <ele>320.652569</ele>
        <time>2020-08-20T06:56:19.562Z</time>
      </trkpt>
      <trkpt lat="48.654914" lon="16.517872">
        <ele>320.601541</ele>
        <time>2020-08-20T06:56:20.550Z</time>
      </trkpt>
      <trkpt lat="48.655012" lon="16.517908">
        <ele>320.549689</ele>
        <time>2020-08-20T06:56:21.553Z</time>
      </trkpt>
      <trkpt lat="48.655114" lon="16.517910">
        <ele>320.497239</ele>
        <time>2020-08-20T06:56:22.550Z</time>
      </trkpt>
      <trkpt lat="48.655207" lon="16.517850">
        <ele>320.428917</ele>
        <time>2020-08-20T06:56:23.556Z</time>
      </trkpt>
      <trkpt lat="48.655298" lon="16.517781">
        <ele>320.349692</ele>
        <time>2020-08-20T06:56:24.567Z</time>
      </trkpt>
      <trkpt lat="48.655398" lon="16.517747">
        <ele>320.269911</ele>
        <time>2020-08-20T06:56:25.564Z</time>
      </trkpt>
      <trkpt lat="48.655494" lon="16.517701">
        <ele>320.191530</ele>
        <time>2020-08-20T06:56:26.573Z</time>
      </trkpt>
      <trkpt lat="48.655591" lon="16.517668">
        <ele>320.114140</ele>
        <time>2020-08-20T06:56:27.567Z</time>
      </trkpt>
      <trkpt lat="48.655689" lon="16.517670">
        <ele>320.037849</ele>
        <time>2020-08-20T06:56:28.553Z</time>
      </trkpt>
      <trkpt lat="48.655783" lon="16.517694">
        <ele>319.963645</ele>
        <time>2020-08-20T06:56:29.572Z</time>
      </trkpt>
      <trkpt lat="48.655870" lon="16.517744">
        <ele>319.891207</ele>
        <time>2020-08-20T06:56:30.568Z</time>
      </trkpt>
      <trkpt lat="48.655948" lon="16.517818">
        <ele>319.819552</ele>
        <time>2020-08-20T06:56:31.559Z</time>
      </trkpt>
      <trkpt lat="48.656028" lon="16.517884">
        <ele>319.748632</ele>
        <time>2020-08-20T06:56:32.563Z</time>
      </trkpt>
      <trkpt lat="48.656180" lon="16.518006">
        <ele>319.614712</ele>
        <time>2020-08-20T06:56:34.572Z</time>
      </trkpt>
      <trkpt lat="48.656317" lon="16.518121">
        <ele>319.492772</ele>
        <time>2020-08-20T06:56:36.558Z</time>
      </trkpt>
      <trkpt lat="48.656444" lon="16.518234">
        <ele>319.378102</ele>
        <time>2020-08-20T06:56:38.571Z</time>
      </trkpt>
      <trkpt lat="48.656562" lon="16.518336">
        <ele>319.272330</ele>
        <time>2020-08-20T06:56:40.561Z</time>
      </trkpt>
      <trkpt lat="48.656673" lon="16.518439">
        <ele>319.170986</ele>
        <time>2020-08-20T06:56:42.590Z</time>
      </trkpt>
      <trkpt lat="48.656773" lon="16.518553">
        <ele>319.059337</ele>
        <time>2020-08-20T06:56:44.557Z</time>
      </trkpt>
      <trkpt lat="48.656873" lon="16.518660">
        <ele>318.569176</ele>
        <time>2020-08-20T06:56:46.567Z</time>
      </trkpt>
      <trkpt lat="48.656969" lon="16.518758">
        <ele>318.105713</ele>
        <time>2020-08-20T06:56:48.570Z</time>
      </trkpt>
      <trkpt lat="48.657069" lon="16.518852">
        <ele>317.634555</ele>
        <time>2020-08-20T06:56:50.564Z</time>
      </trkpt>
      <trkpt lat="48.657173" lon="16.518943">
        <ele>317.153740</ele>
        <time>2020-08-20T06:56:52.572Z</time>
      </trkpt>
      <trkpt lat="48.657299" lon="16.519052">
        <ele>316.572861</ele>
        <time>2020-08-20T06:56:54.566Z</time>
      </trkpt>
      <trkpt lat="48.657433" lon="16.519166">
        <ele>315.957605</ele>
        <time>2020-08-20T06:56:56.568Z</time>
      </trkpt>
      <trkpt lat="48.657578" lon="16.519280">
        <ele>315.303610</ele>
        <time>2020-08-20T06:56:58.562Z</time>
      </trkpt>
      <trkpt lat="48.657730" lon="16.519335">
        <ele>314.678060</ele>
        <time>2020-08-20T06:57:00.595Z</time>
      </trkpt>
      <trkpt lat="48.657879" lon="16.519328">
        <ele>314.081368</ele>
        <time>2020-08-20T06:57:02.607Z</time>
      </trkpt>
      <trkpt lat="48.658024" lon="16.519203">
        <ele>313.413471</ele>
        <time>2020-08-20T06:57:04.563Z</time>
      </trkpt>
      <trkpt lat="48.658164" lon="16.519076">
        <ele>312.760188</ele>
        <time>2020-08-20T06:57:06.576Z</time>
      </trkpt>
      <trkpt lat="48.658308" lon="16.518943">
        <ele>312.084996</ele>
        <time>2020-08-20T06:57:08.561Z</time>
      </trkpt>
      <trkpt lat="48.658441" lon="16.518808">
        <ele>311.374571</ele>
        <time>2020-08-20T06:57:10.582Z</time>
      </trkpt>
      <trkpt lat="48.658571" lon="16.518680">
        <ele>310.654351</ele>
        <time>2020-08-20T06:57:12.577Z</time>
      </trkpt>
      <trkpt lat="48.658699" lon="16.518557">
        <ele>309.950239</ele>
        <time>2020-08-20T06:57:14.567Z</time>
      </trkpt>
      <trkpt lat="48.658828" lon="16.518442">
        <ele>309.254971</ele>
        <time>2020-08-20T06:57:16.567Z</time>
      </trkpt>
      <trkpt lat="48.658945" lon="16.518307">
        <ele>308.571758</ele>
        <time>2020-08-20T06:57:18.591Z</time>
      </trkpt>
      <trkpt lat="48.659067" lon="16.518187">
        <ele>307.896068</ele>
        <time>2020-08-20T06:57:20.572Z</time>
      </trkpt>
      <trkpt lat="48.659184" lon="16.518073">
        <ele>307.249873</ele>
        <time>2020-08-20T06:57:22.571Z</time>
      </trkpt>
      <trkpt lat="48.659290" lon="16.517940">
        <ele>306.610480</ele>
        <time>2020-08-20T06:57:24.558Z</time>
      </trkpt>
      <trkpt lat="48.659399" lon="16.517816">
        <ele>305.977260</ele>
        <time>2020-08-20T06:57:26.553Z</time>
      </trkpt>
      <trkpt lat="48.659507" lon="16.517695">
        <ele>305.353266</ele>
        <time>2020-08-20T06:57:28.589Z</time>
      </trkpt>
      <trkpt lat="48.659618" lon="16.517589">
        <ele>304.743761</ele>
        <time>2020-08-20T06:57:30.559Z</time>
      </trkpt>
      <trkpt lat="48.659738" lon="16.517505">
        <ele>304.129756</ele>
        <time>2020-08-20T06:57:32.581Z</time>
      </trkpt>
      <trkpt lat="48.659852" lon="16.517442">
        <ele>303.566137</ele>
        <time>2020-08-20T06:57:34.586Z</time>
      </trkpt>
      <trkpt lat="48.659970" lon="16.517396">
        <ele>303.161462</ele>
        <time>2020-08-20T06:57:36.562Z</time>
      </trkpt>
      <trkpt lat="48.660080" lon="16.517324">
        <ele>302.776181</ele>
        <time>2020-08-20T06:57:38.582Z</time>
      </trkpt>
      <trkpt lat="48.660187" lon="16.517269">
        <ele>302.412895</ele>
        <time>2020-08-20T06:57:40.587Z</time>
      </trkpt>
      <trkpt lat="48.660295" lon="16.517215">
        <ele>302.047235</ele>
        <time>2020-08-20T06:57:42.566Z</time>
      </trkpt>
      <trkpt lat="48.660394" lon="16.517174">
        <ele>301.717262</ele>
        <time>2020-08-20T06:57:44.573Z</time>
      </trkpt>
      <trkpt lat="48.660495" lon="16.517136">
        <ele>301.382675</ele>
        <time>2020-08-20T06:57:46.560Z</time>
      </trkpt>
      <trkpt lat="48.660601" lon="16.517094">
        <ele>301.030413</ele>
        <time>2020-08-20T06:57:48.594Z</time>
      </trkpt>
      <trkpt lat="48.660701" lon="16.517062">
        <ele>300.701816</ele>
        <time>2020-08-20T06:57:50.561Z</time>
      </trkpt>
      <trkpt lat="48.660801" lon="16.517031">
        <ele>300.373651</ele>
        <time>2020-08-20T06:57:52.585Z</time>
      </trkpt>
      <trkpt lat="48.660909" lon="16.516998">
        <ele>300.019435</ele>
        <time>2020-08-20T06:57:54.574Z</time>
      </trkpt>
      <trkpt lat="48.661016" lon="16.516975">
        <ele>299.671986</ele>
        <time>2020-08-20T06:57:56.572Z</time>
      </trkpt>
      <trkpt lat="48.661117" lon="16.516949">
        <ele>299.342616</ele>
        <time>2020-08-20T06:57:58.581Z</time>
      </trkpt>
      <trkpt lat="48.661216" lon="16.516915">
        <ele>299.016250</ele>
        <time>2020-08-20T06:58:00.572Z</time>
      </trkpt>
      <trkpt lat="48.661316" lon="16.516883">
        <ele>298.687653</ele>
        <time>2020-08-20T06:58:02.559Z</time>
      </trkpt>
      <trkpt lat="48.661411" lon="16.516843">
        <ele>298.370641</ele>
        <time>2020-08-20T06:58:04.607Z</time>
      </trkpt>
      <trkpt lat="48.661499" lon="16.516796">
        <ele>298.070638</ele>
        <time>2020-08-20T06:58:06.581Z</time>
      </trkpt>
      <trkpt lat="48.661617" lon="16.516705">
        <ele>297.741031</ele>
        <time>2020-08-20T06:58:09.570Z</time>
      </trkpt>
      <trkpt lat="48.661729" lon="16.516730">
        <ele>297.739037</ele>
        <time>2020-08-20T06:58:12.552Z</time>
      </trkpt>
      <trkpt lat="48.661806" lon="16.516893">
        <ele>297.736707</ele>
        <time>2020-08-20T06:58:15.575Z</time>
      </trkpt>
      <trkpt lat="48.661885" lon="16.517058">
        <ele>297.734337</ele>
        <time>2020-08-20T06:58:18.572Z</time>
      </trkpt>
      <trkpt lat="48.661956" lon="16.517198">
        <ele>297.732284</ele>
        <time>2020-08-20T06:58:21.549Z</time>
      </trkpt>
      <trkpt lat="48.662037" lon="16.517350">
        <ele>297.730013</ele>
        <time>2020-08-20T06:58:24.565Z</time>
      </trkpt>
      <trkpt lat="48.662124" lon="16.517486">
        <ele>297.727812</ele>
        <time>2020-08-20T06:58:27.571Z</time>
      </trkpt>
      <trkpt lat="48.662200" lon="16.517619">
        <ele>297.725766</ele>
        <time>2020-08-20T06:58:30.574Z</time>
      </trkpt>
      <trkpt lat="48.662269" lon="16.517735">
        <ele>297.723951</ele>
        <time>2020-08-20T06:58:33.553Z</time>
      </trkpt>
      <trkpt lat="48.662336" lon="16.517865">
        <ele>297.722034</ele>
        <time>2020-08-20T06:58:37.570Z</time>
      </trkpt>
      <trkpt lat="48.662392" lon="16.517974">
        <ele>297.720428</ele>
        <time>2020-08-20T06:58:41.579Z</time>
      </trkpt>
      <trkpt lat="48.662462" lon="16.518095">
        <ele>297.718557</ele>
        <time>2020-08-20T06:58:46.560Z</time>
      </trkpt>
      <trkpt lat="48.662531" lon="16.518212">
        <ele>297.716733</ele>
        <time>2020-08-20T06:58:52.579Z</time>
      </trkpt>
      <trkpt lat="48.662604" lon="16.518313">
        <ele>297.714992</ele>
        <time>2020-08-20T06:58:57.584Z</time>
      </trkpt>
      <trkpt lat="48.662682" lon="16.518419">
        <ele>297.713147</ele>
        <time>2020-08-20T06:59:02.561Z</time>
      </trkpt>
      <trkpt lat="48.662743" lon="16.518543">
        <ele>297.711349</ele>
        <time>2020-08-20T06:59:08.566Z</time>
      </trkpt>
      <trkpt lat="48.662817" lon="16.518661">
        <ele>297.749812</ele>
        <time>2020-08-20T06:59:14.583Z</time>
      </trkpt>
      <trkpt lat="48.662875" lon="16.518794">
        <ele>297.919524</ele>
        <time>2020-08-20T06:59:20.548Z</time>
      </trkpt>
      <trkpt lat="48.662936" lon="16.518900">
        <ele>298.069234</ele>
        <time>2020-08-20T06:59:26.584Z</time>
      </trkpt>
      <trkpt lat="48.663000" lon="16.519009">
        <ele>298.224537</ele>
        <time>2020-08-20T06:59:32.565Z</time>
      </trkpt>
      <trkpt lat="48.663059" lon="16.519121">
        <ele>298.377089</ele>
        <time>2020-08-20T06:59:37.552Z</time>
      </trkpt>
      <trkpt lat="48.663128" lon="16.519245">
        <ele>298.549747</ele>
        <time>2020-08-20T06:59:43.584Z</time>
      </trkpt>
      <trkpt lat="48.663193" lon="16.519361">
        <ele>298.711735</ele>
        <time>2020-08-20T06:59:48.592Z</time>
      </trkpt>
      <trkpt lat="48.663249" lon="16.519482">
        <ele>298.869066</ele>
        <time>2020-08-20T06:59:53.555Z</time>
      </trkpt>
      <trkpt lat="48.663309" lon="16.519610">
        <ele>299.036206</ele>
        <time>2020-08-20T06:59:59.583Z</time>
      </trkpt>
      <trkpt lat="48.663374" lon="16.519740">
        <ele>299.209830</ele>
        <time>2020-08-20T07:00:05.556Z</time>
      </trkpt>
      <trkpt lat="48.663427" lon="16.519858">
        <ele>299.361784</ele>
        <time>2020-08-20T07:00:10.569Z</time>
      </trkpt>
      <trkpt lat="48.663484" lon="16.519993">
        <ele>299.532403</ele>
        <time>2020-08-20T07:00:15.562Z</time>
      </trkpt>
      <trkpt lat="48.663547" lon="16.520110">
        <ele>299.693147</ele>
        <time>2020-08-20T07:00:19.557Z</time>
      </trkpt>
      <trkpt lat="48.663604" lon="16.520232">
        <ele>299.852277</ele>
        <time>2020-08-20T07:00:22.589Z</time>
      </trkpt>
      <trkpt lat="48.663668" lon="16.520377">
        <ele>300.037984</ele>
        <time>2020-08-20T07:00:25.556Z</time>
      </trkpt>
      <trkpt lat="48.663741" lon="16.520517">
        <ele>300.227921</ele>
        <time>2020-08-20T07:00:28.597Z</time>
      </trkpt>
      <trkpt lat="48.663811" lon="16.520656">
        <ele>300.414052</ele>
        <time>2020-08-20T07:00:31.587Z</time>
      </trkpt>
      <trkpt lat="48.663871" lon="16.520784">
        <ele>300.581190</ele>
        <time>2020-08-20T07:00:34.561Z</time>
      </trkpt>
      <trkpt lat="48.663927" lon="16.520896">
        <ele>300.785105</ele>
        <time>2020-08-20T07:00:37.574Z</time>
      </trkpt>
      <trkpt lat="48.663991" lon="16.521040">
        <ele>301.052889</ele>
        <time>2020-08-20T07:00:41.577Z</time>
      </trkpt>
      <trkpt lat="48.664046" lon="16.521168">
        <ele>301.288485</ele>
        <time>2020-08-20T07:00:45.603Z</time>
      </trkpt>
      <trkpt lat="48.664098" lon="16.521287">
        <ele>301.508626</ele>
        <time>2020-08-20T07:00:49.584Z</time>
      </trkpt>
      <trkpt lat="48.664165" lon="16.521413">
        <ele>301.758195</ele>
        <time>2020-08-20T07:00:54.564Z</time>
      </trkpt>
      <trkpt lat="48.664216" lon="16.521538">
        <ele>301.984877</ele>
        <time>2020-08-20T07:00:59.555Z</time>
      </trkpt>
      <trkpt lat="48.664268" lon="16.521661">
        <ele>302.210190</ele>
        <time>2020-08-20T07:01:04.578Z</time>
      </trkpt>
      <trkpt lat="48.664339" lon="16.521787">
        <ele>302.465721</ele>
        <time>2020-08-20T07:01:09.571Z</time>
      </trkpt>
      <trkpt lat="48.664399" lon="16.521910">
        <ele>302.701635</ele>
        <time>2020-08-20T07:01:14.572Z</time>
      </trkpt>
      <trkpt lat="48.664452" lon="16.522037">
        <ele>302.933409</ele>
        <time>2020-08-20T07:01:21.580Z</time>
      </trkpt>
      <trkpt lat="48.664511" lon="16.522163">
        <ele>303.171702</ele>
        <time>2020-08-20T07:01:28.563Z</time>
      </trkpt>
      <trkpt lat="48.664567" lon="16.522283">
        <ele>303.398390</ele>
        <time>2020-08-20T07:01:34.571Z</time>
      </trkpt>
      <trkpt lat="48.664624" lon="16.522400">
        <ele>303.622694</ele>
        <time>2020-08-20T07:01:40.562Z</time>
      </trkpt>
      <trkpt lat="48.664682" lon="16.522517">
        <ele>303.848391</ele>
        <time>2020-08-20T07:01:46.577Z</time>
      </trkpt>
      <trkpt lat="48.664739" lon="16.522625">
        <ele>304.061679</ele>
        <time>2020-08-20T07:01:52.566Z</time>
      </trkpt>
      <trkpt lat="48.664796" lon="16.522755">
        <ele>304.302417</ele>
        <time>2020-08-20T07:01:59.562Z</time>
      </trkpt>
      <trkpt lat="48.664859" lon="16.522876">
        <ele>304.540127</ele>
        <time>2020-08-20T07:02:06.568Z</time>
      </trkpt>
      <trkpt lat="48.664914" lon="16.523007">
        <ele>304.779613</ele>
        <time>2020-08-20T07:02:13.580Z</time>
      </trkpt>
      <trkpt lat="48.664978" lon="16.523113">
        <ele>305.357178</ele>
        <time>2020-08-20T07:02:20.591Z</time>
      </trkpt>
      <trkpt lat="48.665031" lon="16.523235">
        <ele>306.004737</ele>
        <time>2020-08-20T07:02:27.571Z</time>
      </trkpt>
      <trkpt lat="48.665074" lon="16.523354">
        <ele>306.606265</ele>
        <time>2020-08-20T07:02:34.565Z</time>
      </trkpt>
      <trkpt lat="48.665133" lon="16.523485">
        <ele>307.309404</ele>
        <time>2020-08-20T07:02:42.561Z</time>
      </trkpt>
      <trkpt lat="48.665186" lon="16.523595">
        <ele>307.913211</ele>
        <time>2020-08-20T07:02:49.560Z</time>
      </trkpt>
      <trkpt lat="48.665242" lon="16.523708">
        <ele>308.539694</ele>
        <time>2020-08-20T07:02:56.561Z</time>
      </trkpt>
      <trkpt lat="48.665300" lon="16.523820">
        <ele>309.170831</ele>
        <time>2020-08-20T07:03:02.564Z</time>
      </trkpt>
      <trkpt lat="48.665361" lon="16.523932">
        <ele>309.814592</ele>
        <time>2020-08-20T07:03:08.570Z</time>
      </trkpt>
      <trkpt lat="48.665408" lon="16.524049">
        <ele>310.421864</ele>
        <time>2020-08-20T07:03:13.579Z</time>
      </trkpt>
      <trkpt lat="48.665467" lon="16.524165">
        <ele>311.071126</ele>
        <time>2020-08-20T07:03:18.566Z</time>
      </trkpt>
      <trkpt lat="48.665492" lon="16.524220">
        <ele>311.367205</ele>
        <time>2020-08-20T07:03:40.077Z</time>
      </trkpt>
      <trkpt lat="48.665512" lon="16.524356">
        <ele>311.985067</ele>
        <time>2020-08-20T07:05:12.568Z</time>
      </trkpt>
      <trkpt lat="48.665513" lon="16.524493">
        <ele>312.592631</ele>
        <time>2020-08-20T07:05:15.598Z</time>
      </trkpt>
      <trkpt lat="48.665510" lon="16.524667">
        <ele>313.364497</ele>
        <time>2020-08-20T07:05:18.564Z</time>
      </trkpt>
      <trkpt lat="48.665517" lon="16.524820">
        <ele>314.044602</ele>
        <time>2020-08-20T07:05:20.556Z</time>
      </trkpt>
      <trkpt lat="48.665522" lon="16.525005">
        <ele>314.865671</ele>
        <time>2020-08-20T07:05:22.552Z</time>
      </trkpt>
      <trkpt lat="48.665530" lon="16.525223">
        <ele>315.833884</ele>
        <time>2020-08-20T07:05:24.552Z</time>
      </trkpt>
      <trkpt lat="48.665532" lon="16.525475">
        <ele>316.900506</ele>
        <time>2020-08-20T07:05:26.551Z</time>
      </trkpt>
      <trkpt lat="48.665537" lon="16.525614">
        <ele>317.022661</ele>
        <time>2020-08-20T07:05:27.597Z</time>
      </trkpt>
      <trkpt lat="48.665542" lon="16.525754">
        <ele>317.145692</ele>
        <time>2020-08-20T07:05:28.595Z</time>
      </trkpt>
      <trkpt lat="48.665551" lon="16.525894">
        <ele>317.269124</ele>
        <time>2020-08-20T07:05:29.568Z</time>
      </trkpt>
      <trkpt lat="48.665556" lon="16.526030">
        <ele>317.388650</ele>
        <time>2020-08-20T07:05:30.606Z</time>
      </trkpt>
      <trkpt lat="48.665564" lon="16.526166">
        <ele>317.508464</ele>
        <time>2020-08-20T07:05:31.589Z</time>
      </trkpt>
      <trkpt lat="48.665565" lon="16.526420">
        <ele>317.731355</ele>
        <time>2020-08-20T07:05:33.578Z</time>
      </trkpt>
      <trkpt lat="48.665562" lon="16.526658">
        <ele>317.940241</ele>
        <time>2020-08-20T07:05:35.573Z</time>
      </trkpt>
      <trkpt lat="48.665562" lon="16.526884">
        <ele>318.138558</ele>
        <time>2020-08-20T07:05:37.578Z</time>
      </trkpt>
      <trkpt lat="48.665561" lon="16.527105">
        <ele>318.332492</ele>
        <time>2020-08-20T07:05:39.579Z</time>
      </trkpt>
      <trkpt lat="48.665560" lon="16.527327">
        <ele>318.527304</ele>
        <time>2020-08-20T07:05:41.582Z</time>
      </trkpt>
      <trkpt lat="48.665573" lon="16.527550">
        <ele>318.723750</ele>
        <time>2020-08-20T07:05:43.573Z</time>
      </trkpt>
      <trkpt lat="48.665576" lon="16.527778">
        <ele>318.923862</ele>
        <time>2020-08-20T07:05:45.607Z</time>
      </trkpt>
      <trkpt lat="48.665577" lon="16.528011">
        <ele>319.128326</ele>
        <time>2020-08-20T07:05:47.585Z</time>
      </trkpt>
      <trkpt lat="48.665581" lon="16.528249">
        <ele>319.250916</ele>
        <time>2020-08-20T07:05:49.593Z</time>
      </trkpt>
      <trkpt lat="48.665581" lon="16.528492">
        <ele>319.154988</ele>
        <time>2020-08-20T07:05:51.581Z</time>
      </trkpt>
      <trkpt lat="48.665589" lon="16.528737">
        <ele>319.058152</ele>
        <time>2020-08-20T07:05:53.591Z</time>
      </trkpt>
      <trkpt lat="48.665596" lon="16.528985">
        <ele>318.960161</ele>
        <time>2020-08-20T07:05:55.589Z</time>
      </trkpt>
      <trkpt lat="48.665602" lon="16.529233">
        <ele>318.862194</ele>
        <time>2020-08-20T07:05:57.566Z</time>
      </trkpt>
      <trkpt lat="48.665607" lon="16.529486">
        <ele>318.762274</ele>
        <time>2020-08-20T07:05:59.597Z</time>
      </trkpt>
      <trkpt lat="48.665611" lon="16.529740">
        <ele>318.661975</ele>
        <time>2020-08-20T07:06:01.577Z</time>
      </trkpt>
      <trkpt lat="48.665601" lon="16.529996">
        <ele>318.560738</ele>
        <time>2020-08-20T07:06:03.589Z</time>
      </trkpt>
      <trkpt lat="48.665599" lon="16.530248">
        <ele>318.461251</ele>
        <time>2020-08-20T07:06:05.564Z</time>
      </trkpt>
      <trkpt lat="48.665610" lon="16.530502">
        <ele>318.360765</ele>
        <time>2020-08-20T07:06:07.579Z</time>
      </trkpt>
      <trkpt lat="48.665618" lon="16.530760">
        <ele>318.258803</ele>
        <time>2020-08-20T07:06:09.602Z</time>
      </trkpt>
      <trkpt lat="48.665625" lon="16.531012">
        <ele>318.113790</ele>
        <time>2020-08-20T07:06:11.608Z</time>
      </trkpt>
      <trkpt lat="48.665628" lon="16.531222">
        <ele>317.944009</ele>
        <time>2020-08-20T07:06:13.604Z</time>
      </trkpt>
      <trkpt lat="48.665693" lon="16.531381">
        <ele>317.792863</ele>
        <time>2020-08-20T07:06:15.563Z</time>
      </trkpt>
      <trkpt lat="48.665818" lon="16.531468">
        <ele>317.624494</ele>
        <time>2020-08-20T07:06:17.577Z</time>
      </trkpt>
      <trkpt lat="48.665939" lon="16.531563">
        <ele>317.457685</ele>
        <time>2020-08-20T07:06:19.654Z</time>
      </trkpt>
      <trkpt lat="48.666062" lon="16.531666">
        <ele>317.285664</ele>
        <time>2020-08-20T07:06:21.567Z</time>
      </trkpt>
      <trkpt lat="48.666198" lon="16.531730">
        <ele>317.111367</ele>
        <time>2020-08-20T07:06:23.570Z</time>
      </trkpt>
      <trkpt lat="48.666334" lon="16.531804">
        <ele>316.934504</ele>
        <time>2020-08-20T07:06:25.565Z</time>
      </trkpt>
      <trkpt lat="48.666468" lon="16.531891">
        <ele>316.756068</ele>
        <time>2020-08-20T07:06:27.589Z</time>
      </trkpt>
      <trkpt lat="48.666606" lon="16.531967">
        <ele>316.576353</ele>
        <time>2020-08-20T07:06:29.586Z</time>
      </trkpt>
      <trkpt lat="48.666743" lon="16.532057">
        <ele>316.393586</ele>
        <time>2020-08-20T07:06:31.614Z</time>
      </trkpt>
      <trkpt lat="48.666881" lon="16.532144">
        <ele>316.210641</ele>
        <time>2020-08-20T07:06:33.559Z</time>
      </trkpt>
      <trkpt lat="48.667025" lon="16.532228">
        <ele>316.021782</ele>
        <time>2020-08-20T07:06:35.583Z</time>
      </trkpt>
      <trkpt lat="48.667175" lon="16.532313">
        <ele>315.673908</ele>
        <time>2020-08-20T07:06:37.583Z</time>
      </trkpt>
      <trkpt lat="48.667326" lon="16.532405">
        <ele>315.302426</ele>
        <time>2020-08-20T07:06:39.600Z</time>
      </trkpt>
      <trkpt lat="48.667479" lon="16.532495">
        <ele>314.927807</ele>
        <time>2020-08-20T07:06:41.589Z</time>
      </trkpt>
      <trkpt lat="48.667638" lon="16.532583">
        <ele>314.541438</ele>
        <time>2020-08-20T07:06:43.555Z</time>
      </trkpt>
      <trkpt lat="48.667799" lon="16.532651">
        <ele>314.159959</ele>
        <time>2020-08-20T07:06:45.592Z</time>
      </trkpt>
      <trkpt lat="48.667959" lon="16.532726">
        <ele>313.777692</ele>
        <time>2020-08-20T07:06:47.559Z</time>
      </trkpt>
      <trkpt lat="48.668121" lon="16.532809">
        <ele>313.387366</ele>
        <time>2020-08-20T07:06:49.572Z</time>
      </trkpt>
      <trkpt lat="48.668284" lon="16.532904">
        <ele>312.988743</ele>
        <time>2020-08-20T07:06:51.567Z</time>
      </trkpt>
      <trkpt lat="48.668453" lon="16.532997">
        <ele>312.578351</ele>
        <time>2020-08-20T07:06:53.568Z</time>
      </trkpt>
      <trkpt lat="48.668538" lon="16.533046">
        <ele>312.370771</ele>
        <time>2020-08-20T07:06:54.591Z</time>
      </trkpt>
      <trkpt lat="48.668625" lon="16.533094">
        <ele>312.159440</ele>
        <time>2020-08-20T07:06:55.565Z</time>
      </trkpt>
      <trkpt lat="48.668710" lon="16.533144">
        <ele>311.951320</ele>
        <time>2020-08-20T07:06:56.593Z</time>
      </trkpt>
      <trkpt lat="48.668873" lon="16.533224">
        <ele>311.419182</ele>
        <time>2020-08-20T07:06:58.563Z</time>
      </trkpt>
      <trkpt lat="48.669029" lon="16.533311">
        <ele>310.880488</ele>
        <time>2020-08-20T07:07:00.583Z</time>
      </trkpt>
      <trkpt lat="48.669188" lon="16.533398">
        <ele>310.332662</ele>
        <time>2020-08-20T07:07:02.595Z</time>
      </trkpt>
      <trkpt lat="48.669324" lon="16.533504">
        <ele>309.837018</ele>
        <time>2020-08-20T07:07:04.546Z</time>
      </trkpt>
      <trkpt lat="48.669439" lon="16.533602">
        <ele>309.409416</ele>
        <time>2020-08-20T07:07:06.558Z</time>
      </trkpt>
      <trkpt lat="48.669557" lon="16.533726">
        <ele>308.943997</ele>
        <time>2020-08-20T07:07:08.557Z</time>
      </trkpt>
      <trkpt lat="48.669675" lon="16.533873">
        <ele>308.448863</ele>
        <time>2020-08-20T07:07:10.570Z</time>
      </trkpt>
      <trkpt lat="48.669783" lon="16.534006">
        <ele>307.997779</ele>
        <time>2020-08-20T07:07:12.571Z</time>
      </trkpt>
      <trkpt lat="48.669909" lon="16.534073">
        <ele>307.565049</ele>
        <time>2020-08-20T07:07:14.566Z</time>
      </trkpt>
      <trkpt lat="48.670006" lon="16.534205">
        <ele>307.142456</ele>
        <time>2020-08-20T07:07:16.566Z</time>
      </trkpt>
      <trkpt lat="48.670131" lon="16.534273">
        <ele>306.712064</ele>
        <time>2020-08-20T07:07:18.585Z</time>
      </trkpt>
      <trkpt lat="48.670263" lon="16.534318">
        <ele>306.273629</ele>
        <time>2020-08-20T07:07:20.599Z</time>
      </trkpt>
      <trkpt lat="48.670399" lon="16.534362">
        <ele>305.755591</ele>
        <time>2020-08-20T07:07:22.571Z</time>
      </trkpt>
      <trkpt lat="48.670591" lon="16.534411">
        <ele>304.951117</ele>
        <time>2020-08-20T07:07:25.562Z</time>
      </trkpt>
      <trkpt lat="48.670714" lon="16.534448">
        <ele>304.432987</ele>
        <time>2020-08-20T07:07:27.577Z</time>
      </trkpt>
      <trkpt lat="48.670833" lon="16.534490">
        <ele>303.928135</ele>
        <time>2020-08-20T07:07:29.578Z</time>
      </trkpt>
      <trkpt lat="48.670943" lon="16.534567">
        <ele>303.427437</ele>
        <time>2020-08-20T07:07:31.603Z</time>
      </trkpt>
      <trkpt lat="48.671028" lon="16.534689">
        <ele>302.943552</ele>
        <time>2020-08-20T07:07:33.557Z</time>
      </trkpt>
      <trkpt lat="48.671075" lon="16.534862">
        <ele>302.433138</ele>
        <time>2020-08-20T07:07:35.570Z</time>
      </trkpt>
      <trkpt lat="48.671094" lon="16.535040">
        <ele>301.941162</ele>
        <time>2020-08-20T07:07:37.578Z</time>
      </trkpt>
      <trkpt lat="48.671122" lon="16.535216">
        <ele>301.447208</ele>
        <time>2020-08-20T07:07:39.581Z</time>
      </trkpt>
      <trkpt lat="48.671118" lon="16.535387">
        <ele>300.980343</ele>
        <time>2020-08-20T07:07:41.562Z</time>
      </trkpt>
      <trkpt lat="48.671096" lon="16.535539">
        <ele>300.555767</ele>
        <time>2020-08-20T07:07:43.551Z</time>
      </trkpt>
      <trkpt lat="48.671070" lon="16.535679">
        <ele>300.158960</ele>
        <time>2020-08-20T07:07:45.565Z</time>
      </trkpt>
      <trkpt lat="48.671025" lon="16.535870">
        <ele>299.605643</ele>
        <time>2020-08-20T07:07:48.580Z</time>
      </trkpt>
      <trkpt lat="48.670986" lon="16.536028">
        <ele>299.145409</ele>
        <time>2020-08-20T07:07:51.564Z</time>
      </trkpt>
      <trkpt lat="48.670981" lon="16.536165">
        <ele>298.771034</ele>
        <time>2020-08-20T07:07:57.566Z</time>
      </trkpt>
      <trkpt lat="48.671075" lon="16.536235">
        <ele>298.411968</ele>
        <time>2020-08-20T07:08:12.579Z</time>
      </trkpt>
      <trkpt lat="48.671156" lon="16.536321">
        <ele>298.104259</ele>
        <time>2020-08-20T07:08:17.564Z</time>
      </trkpt>
      <trkpt lat="48.671125" lon="16.536464">
        <ele>297.795100</ele>
        <time>2020-08-20T07:08:20.576Z</time>
      </trkpt>
      <trkpt lat="48.671077" lon="16.536610">
        <ele>297.460091</ele>
        <time>2020-08-20T07:08:23.557Z</time>
      </trkpt>
      <trkpt lat="48.671047" lon="16.536765">
        <ele>297.128312</ele>
        <time>2020-08-20T07:08:26.566Z</time>
      </trkpt>
      <trkpt lat="48.671008" lon="16.536937">
        <ele>296.754760</ele>
        <time>2020-08-20T07:08:29.554Z</time>
      </trkpt>
      <trkpt lat="48.670970" lon="16.537116">
        <ele>296.368543</ele>
        <time>2020-08-20T07:08:32.566Z</time>
      </trkpt>
      <trkpt lat="48.670942" lon="16.537302">
        <ele>295.976677</ele>
        <time>2020-08-20T07:08:35.591Z</time>
      </trkpt>
      <trkpt lat="48.670913" lon="16.537477">
        <ele>295.606063</ele>
        <time>2020-08-20T07:08:38.554Z</time>
      </trkpt>
      <trkpt lat="48.670879" lon="16.537658">
        <ele>295.219520</ele>
        <time>2020-08-20T07:08:41.571Z</time>
      </trkpt>
      <trkpt lat="48.670854" lon="16.537842">
        <ele>294.833646</ele>
        <time>2020-08-20T07:08:44.590Z</time>
      </trkpt>
      <trkpt lat="48.670821" lon="16.538016">
        <ele>294.461783</ele>
        <time>2020-08-20T07:08:47.569Z</time>
      </trkpt>
      <trkpt lat="48.670777" lon="16.538181">
        <ele>294.096264</ele>
        <time>2020-08-20T07:08:50.593Z</time>
      </trkpt>
      <trkpt lat="48.670746" lon="16.538353">
        <ele>293.730034</ele>
        <time>2020-08-20T07:08:53.580Z</time>
      </trkpt>
      <trkpt lat="48.670724" lon="16.538517">
        <ele>293.386278</ele>
        <time>2020-08-20T07:08:56.566Z</time>
      </trkpt>
      <trkpt lat="48.670699" lon="16.538682">
        <ele>293.043354</ele>
        <time>2020-08-20T07:08:59.574Z</time>
      </trkpt>
      <trkpt lat="48.670677" lon="16.538834">
        <ele>293.181178</ele>
        <time>2020-08-20T07:09:02.572Z</time>
      </trkpt>
      <trkpt lat="48.670670" lon="16.538987">
        <ele>293.317016</ele>
        <time>2020-08-20T07:09:05.565Z</time>
      </trkpt>
      <trkpt lat="48.670659" lon="16.539143">
        <ele>293.455973</ele>
        <time>2020-08-20T07:09:08.580Z</time>
      </trkpt>
      <trkpt lat="48.670644" lon="16.539319">
        <ele>293.613151</ele>
        <time>2020-08-20T07:09:12.597Z</time>
      </trkpt>
      <trkpt lat="48.670631" lon="16.539490">
        <ele>293.765608</ele>
        <time>2020-08-20T07:09:16.583Z</time>
      </trkpt>
      <trkpt lat="48.670624" lon="16.539665">
        <ele>293.920891</ele>
        <time>2020-08-20T07:09:20.581Z</time>
      </trkpt>
      <trkpt lat="48.670614" lon="16.539821">
        <ele>294.059712</ele>
        <time>2020-08-20T07:09:24.561Z</time>
      </trkpt>
      <trkpt lat="48.670652" lon="16.539975">
        <ele>294.205322</ele>
        <time>2020-08-20T07:09:29.548Z</time>
      </trkpt>
      <trkpt lat="48.670717" lon="16.540073">
        <ele>294.328343</ele>
        <time>2020-08-20T07:09:34.595Z</time>
      </trkpt>
      <trkpt lat="48.670789" lon="16.540196">
        <ele>294.473923</ele>
        <time>2020-08-20T07:09:40.598Z</time>
      </trkpt>
      <trkpt lat="48.670854" lon="16.540293">
        <ele>294.596321</ele>
        <time>2020-08-20T07:09:45.582Z</time>
      </trkpt>
      <trkpt lat="48.670920" lon="16.540406">
        <ele>294.729935</ele>
        <time>2020-08-20T07:09:51.561Z</time>
      </trkpt>
      <trkpt lat="48.670989" lon="16.540518">
        <ele>294.865598</ele>
        <time>2020-08-20T07:09:57.568Z</time>
      </trkpt>
      <trkpt lat="48.671063" lon="16.540635">
        <ele>295.009087</ele>
        <time>2020-08-20T07:10:03.568Z</time>
      </trkpt>
      <trkpt lat="48.671121" lon="16.540768">
        <ele>295.150253</ele>
        <time>2020-08-20T07:10:08.582Z</time>
      </trkpt>
      <trkpt lat="48.671179" lon="16.540893">
        <ele>295.285562</ele>
        <time>2020-08-20T07:10:12.598Z</time>
      </trkpt>
      <trkpt lat="48.671248" lon="16.540999">
        <ele>295.417389</ele>
        <time>2020-08-20T07:10:15.586Z</time>
      </trkpt>
      <trkpt lat="48.671323" lon="16.541120">
        <ele>295.581028</ele>
        <time>2020-08-20T07:10:19.574Z</time>
      </trkpt>
      <trkpt lat="48.671402" lon="16.541236">
        <ele>295.750939</ele>
        <time>2020-08-20T07:10:23.575Z</time>
      </trkpt>
      <trkpt lat="48.671498" lon="16.541329">
        <ele>295.926907</ele>
        <time>2020-08-20T07:10:27.571Z</time>
      </trkpt>
      <trkpt lat="48.671596" lon="16.541366">
        <ele>296.082858</ele>
        <time>2020-08-20T07:10:30.566Z</time>
      </trkpt>
      <trkpt lat="48.671717" lon="16.541395">
        <ele>296.272015</ele>
        <time>2020-08-20T07:10:33.576Z</time>
      </trkpt>
      <trkpt lat="48.671808" lon="16.541416">
        <ele>296.414148</ele>
        <time>2020-08-20T07:10:35.565Z</time>
      </trkpt>
      <trkpt lat="48.671907" lon="16.541449">
        <ele>296.570670</ele>
        <time>2020-08-20T07:10:37.570Z</time>
      </trkpt>
      <trkpt lat="48.672009" lon="16.541481">
        <ele>296.731509</ele>
        <time>2020-08-20T07:10:39.560Z</time>
      </trkpt>
      <trkpt lat="48.672115" lon="16.541510">
        <ele>296.897829</ele>
        <time>2020-08-20T07:10:41.576Z</time>
      </trkpt>
      <trkpt lat="48.672219" lon="16.541532">
        <ele>297.059971</ele>
        <time>2020-08-20T07:10:43.570Z</time>
      </trkpt>
      <trkpt lat="48.672322" lon="16.541557">
        <ele>297.221040</ele>
        <time>2020-08-20T07:10:45.564Z</time>
      </trkpt>
      <trkpt lat="48.672428" lon="16.541584">
        <ele>297.387010</ele>
        <time>2020-08-20T07:10:47.568Z</time>
      </trkpt>
      <trkpt lat="48.672536" lon="16.541620">
        <ele>297.557761</ele>
        <time>2020-08-20T07:10:49.566Z</time>
      </trkpt>
      <trkpt lat="48.672635" lon="16.541651">
        <ele>297.713858</ele>
        <time>2020-08-20T07:10:51.590Z</time>
      </trkpt>
      <trkpt lat="48.672738" lon="16.541683">
        <ele>297.876209</ele>
        <time>2020-08-20T07:10:53.571Z</time>
      </trkpt>
      <trkpt lat="48.672836" lon="16.541713">
        <ele>298.030588</ele>
        <time>2020-08-20T07:10:55.588Z</time>
      </trkpt>
      <trkpt lat="48.672935" lon="16.541738">
        <ele>298.185561</ele>
        <time>2020-08-20T07:10:57.590Z</time>
      </trkpt>
      <trkpt lat="48.673032" lon="16.541764">
        <ele>298.248052</ele>
        <time>2020-08-20T07:10:59.571Z</time>
      </trkpt>
      <trkpt lat="48.673131" lon="16.541788">
        <ele>298.272224</ele>
        <time>2020-08-20T07:11:01.550Z</time>
      </trkpt>
      <trkpt lat="48.673233" lon="16.541819">
        <ele>298.297306</ele>
        <time>2020-08-20T07:11:03.570Z</time>
      </trkpt>
      <trkpt lat="48.673333" lon="16.541844">
        <ele>298.321742</ele>
        <time>2020-08-20T07:11:05.597Z</time>
      </trkpt>
      <trkpt lat="48.673437" lon="16.541864">
        <ele>298.347017</ele>
        <time>2020-08-20T07:11:07.566Z</time>
      </trkpt>
      <trkpt lat="48.673544" lon="16.541901">
        <ele>298.373478</ele>
        <time>2020-08-20T07:11:09.588Z</time>
      </trkpt>
      <trkpt lat="48.673648" lon="16.541935">
        <ele>298.399130</ele>
        <time>2020-08-20T07:11:11.569Z</time>
      </trkpt>
      <trkpt lat="48.673752" lon="16.541968">
        <ele>298.424748</ele>
        <time>2020-08-20T07:11:13.604Z</time>
      </trkpt>
      <trkpt lat="48.673851" lon="16.541999">
        <ele>298.449122</ele>
        <time>2020-08-20T07:11:15.595Z</time>
      </trkpt>
      <trkpt lat="48.673953" lon="16.542026">
        <ele>298.474086</ele>
        <time>2020-08-20T07:11:17.593Z</time>
      </trkpt>
      <trkpt lat="48.674048" lon="16.542050">
        <ele>298.497307</ele>
        <time>2020-08-20T07:11:19.563Z</time>
      </trkpt>
      <trkpt lat="48.674179" lon="16.542083">
        <ele>298.529324</ele>
        <time>2020-08-20T07:11:22.600Z</time>
      </trkpt>
      <trkpt lat="48.674302" lon="16.542113">
        <ele>298.559361</ele>
        <time>2020-08-20T07:11:25.565Z</time>
      </trkpt>
      <trkpt lat="48.674413" lon="16.542141">
        <ele>298.586491</ele>
        <time>2020-08-20T07:11:28.572Z</time>
      </trkpt>
      <trkpt lat="48.674517" lon="16.542173">
        <ele>298.612077</ele>
        <time>2020-08-20T07:11:31.567Z</time>
      </trkpt>
      <trkpt lat="48.674621" lon="16.542196">
        <ele>298.637417</ele>
        <time>2020-08-20T07:11:34.580Z</time>
      </trkpt>
      <trkpt lat="48.674722" lon="16.542224">
        <ele>298.662173</ele>
        <time>2020-08-20T07:11:37.571Z</time>
      </trkpt>
      <trkpt lat="48.674823" lon="16.542252">
        <ele>298.740329</ele>
        <time>2020-08-20T07:11:40.580Z</time>
      </trkpt>
      <trkpt lat="48.674913" lon="16.542283">
        <ele>298.817058</ele>
        <time>2020-08-20T07:11:43.600Z</time>
      </trkpt>
      <trkpt lat="48.675026" lon="16.542310">
        <ele>298.912158</ele>
        <time>2020-08-20T07:11:47.561Z</time>
      </trkpt>
      <trkpt lat="48.675142" lon="16.542347">
        <ele>299.010705</ele>
        <time>2020-08-20T07:11:51.602Z</time>
      </trkpt>
      <trkpt lat="48.675242" lon="16.542371">
        <ele>299.094874</ele>
        <time>2020-08-20T07:11:55.577Z</time>
      </trkpt>
      <trkpt lat="48.675339" lon="16.542410">
        <ele>299.178304</ele>
        <time>2020-08-20T07:11:59.593Z</time>
      </trkpt>
      <trkpt lat="48.675445" lon="16.542453">
        <ele>299.269530</ele>
        <time>2020-08-20T07:12:04.561Z</time>
      </trkpt>
      <trkpt lat="48.675546" lon="16.542495">
        <ele>299.356600</ele>
        <time>2020-08-20T07:12:09.576Z</time>
      </trkpt>
      <trkpt lat="48.675647" lon="16.542529">
        <ele>299.442612</ele>
        <time>2020-08-20T07:12:14.585Z</time>
      </trkpt>
      <trkpt lat="48.675734" lon="16.542563">
        <ele>299.517305</ele>
        <time>2020-08-20T07:12:19.567Z</time>
      </trkpt>
      <trkpt lat="48.675842" lon="16.542590">
        <ele>299.608301</ele>
        <time>2020-08-20T07:12:25.568Z</time>
      </trkpt>
      <trkpt lat="48.675944" lon="16.542620">
        <ele>299.694679</ele>
        <time>2020-08-20T07:12:30.557Z</time>
      </trkpt>
      <trkpt lat="48.676044" lon="16.542623">
        <ele>299.777827</ele>
        <time>2020-08-20T07:12:35.556Z</time>
      </trkpt>
      <trkpt lat="48.676147" lon="16.542663">
        <ele>299.866222</ele>
        <time>2020-08-20T07:12:41.580Z</time>
      </trkpt>
      <trkpt lat="48.676250" lon="16.542686">
        <ele>299.952773</ele>
        <time>2020-08-20T07:12:47.569Z</time>
      </trkpt>
      <trkpt lat="48.676352" lon="16.542711">
        <ele>300.038670</ele>
        <time>2020-08-20T07:12:54.567Z</time>
      </trkpt>
      <trkpt lat="48.676443" lon="16.542734">
        <ele>300.115365</ele>
        <time>2020-08-20T07:13:00.551Z</time>
      </trkpt>
      <trkpt lat="48.676545" lon="16.542767">
        <ele>300.274040</ele>
        <time>2020-08-20T07:13:07.560Z</time>
      </trkpt>
      <trkpt lat="48.676650" lon="16.542788">
        <ele>300.513937</ele>
        <time>2020-08-20T07:13:14.570Z</time>
      </trkpt>
      <trkpt lat="48.676758" lon="16.542799">
        <ele>300.759116</ele>
        <time>2020-08-20T07:13:20.580Z</time>
      </trkpt>
      <trkpt lat="48.676843" lon="16.542841">
        <ele>300.961635</ele>
        <time>2020-08-20T07:13:24.605Z</time>
      </trkpt>
      <trkpt lat="48.676940" lon="16.542879">
        <ele>301.188579</ele>
        <time>2020-08-20T07:13:28.568Z</time>
      </trkpt>
      <trkpt lat="48.677056" lon="16.542902">
        <ele>301.453568</ele>
        <time>2020-08-20T07:13:32.574Z</time>
      </trkpt>
      <trkpt lat="48.677153" lon="16.542935">
        <ele>301.678755</ele>
        <time>2020-08-20T07:13:35.570Z</time>
      </trkpt>
      <trkpt lat="48.677248" lon="16.542967">
        <ele>301.899195</ele>
        <time>2020-08-20T07:13:38.571Z</time>
      </trkpt>
      <trkpt lat="48.677346" lon="16.542994">
        <ele>302.124814</ele>
        <time>2020-08-20T07:13:41.581Z</time>
      </trkpt>
      <trkpt lat="48.677454" lon="16.543027">
        <ele>302.374371</ele>
        <time>2020-08-20T07:13:44.583Z</time>
      </trkpt>
      <trkpt lat="48.677571" lon="16.543061">
        <ele>302.644218</ele>
        <time>2020-08-20T07:13:47.589Z</time>
      </trkpt>
      <trkpt lat="48.677699" lon="16.543083">
        <ele>302.936007</ele>
        <time>2020-08-20T07:13:50.587Z</time>
      </trkpt>
      <trkpt lat="48.677790" lon="16.543089">
        <ele>303.142324</ele>
        <time>2020-08-20T07:13:52.594Z</time>
      </trkpt>
      <trkpt lat="48.677883" lon="16.543094">
        <ele>303.353107</ele>
        <time>2020-08-20T07:13:54.582Z</time>
      </trkpt>
      <trkpt lat="48.677979" lon="16.543103">
        <ele>303.570970</ele>
        <time>2020-08-20T07:13:56.567Z</time>
      </trkpt>
      <trkpt lat="48.678078" lon="16.543102">
        <ele>303.795216</ele>
        <time>2020-08-20T07:13:58.577Z</time>
      </trkpt>
      <trkpt lat="48.678173" lon="16.543120">
        <ele>304.012075</ele>
        <time>2020-08-20T07:14:01.585Z</time>
      </trkpt>
      <trkpt lat="48.678308" lon="16.543146">
        <ele>304.251736</ele>
        <time>2020-08-20T07:14:41.555Z</time>
      </trkpt>
      <trkpt lat="48.678434" lon="16.543169">
        <ele>304.309764</ele>
        <time>2020-08-20T07:14:44.570Z</time>
      </trkpt>
      <trkpt lat="48.678568" lon="16.543194">
        <ele>304.371497</ele>
        <time>2020-08-20T07:14:47.550Z</time>
      </trkpt>
      <trkpt lat="48.678668" lon="16.543202">
        <ele>304.417285</ele>
        <time>2020-08-20T07:14:49.589Z</time>
      </trkpt>
      <trkpt lat="48.678763" lon="16.543195">
        <ele>304.460773</ele>
        <time>2020-08-20T07:14:51.550Z</time>
      </trkpt>
      <trkpt lat="48.678889" lon="16.543194">
        <ele>304.518386</ele>
        <time>2020-08-20T07:14:54.548Z</time>
      </trkpt>
      <trkpt lat="48.679011" lon="16.543195">
        <ele>304.574169</ele>
        <time>2020-08-20T07:14:57.567Z</time>
      </trkpt>
      <trkpt lat="48.679118" lon="16.543198">
        <ele>304.623102</ele>
        <time>2020-08-20T07:15:00.574Z</time>
      </trkpt>
      <trkpt lat="48.679230" lon="16.543200">
        <ele>304.674316</ele>
        <time>2020-08-20T07:15:03.563Z</time>
      </trkpt>
      <trkpt lat="48.679350" lon="16.543218">
        <ele>304.729453</ele>
        <time>2020-08-20T07:15:06.557Z</time>
      </trkpt>
      <trkpt lat="48.679465" lon="16.543200">
        <ele>304.782315</ele>
        <time>2020-08-20T07:15:09.585Z</time>
      </trkpt>
      <trkpt lat="48.679575" lon="16.543185">
        <ele>304.832814</ele>
        <time>2020-08-20T07:15:12.575Z</time>
      </trkpt>
      <trkpt lat="48.679683" lon="16.543174">
        <ele>304.882307</ele>
        <time>2020-08-20T07:15:15.594Z</time>
      </trkpt>
      <trkpt lat="48.679800" lon="16.543181">
        <ele>304.935846</ele>
        <time>2020-08-20T07:15:18.579Z</time>
      </trkpt>
      <trkpt lat="48.679912" lon="16.543181">
        <ele>304.987056</ele>
        <time>2020-08-20T07:15:21.584Z</time>
      </trkpt>
      <trkpt lat="48.680028" lon="16.543185">
        <ele>305.040109</ele>
        <time>2020-08-20T07:15:24.568Z</time>
      </trkpt>
      <trkpt lat="48.680149" lon="16.543198">
        <ele>305.064595</ele>
        <time>2020-08-20T07:15:27.552Z</time>
      </trkpt>
      <trkpt lat="48.680258" lon="16.543204">
        <ele>305.074628</ele>
        <time>2020-08-20T07:15:30.572Z</time>
      </trkpt>
      <trkpt lat="48.680376" lon="16.543199">
        <ele>305.085487</ele>
        <time>2020-08-20T07:15:33.568Z</time>
      </trkpt>
      <trkpt lat="48.680487" lon="16.543202">
        <ele>305.095699</ele>
        <time>2020-08-20T07:15:36.579Z</time>
      </trkpt>
      <trkpt lat="48.680591" lon="16.543204">
        <ele>305.105267</ele>
        <time>2020-08-20T07:15:39.552Z</time>
      </trkpt>
      <trkpt lat="48.680707" lon="16.543203">
        <ele>305.115937</ele>
        <time>2020-08-20T07:15:42.572Z</time>
      </trkpt>
      <trkpt lat="48.680819" lon="16.543203">
        <ele>305.126240</ele>
        <time>2020-08-20T07:15:45.576Z</time>
      </trkpt>
      <trkpt lat="48.680927" lon="16.543202">
        <ele>305.136174</ele>
        <time>2020-08-20T07:15:48.570Z</time>
      </trkpt>
      <trkpt lat="48.681027" lon="16.543193">
        <ele>305.145389</ele>
        <time>2020-08-20T07:15:51.579Z</time>
      </trkpt>
      <trkpt lat="48.681127" lon="16.543187">
        <ele>305.154595</ele>
        <time>2020-08-20T07:15:54.547Z</time>
      </trkpt>
      <trkpt lat="48.681231" lon="16.543182">
        <ele>305.164167</ele>
        <time>2020-08-20T07:15:57.556Z</time>
      </trkpt>
      <trkpt lat="48.681342" lon="16.543186">
        <ele>305.174380</ele>
        <time>2020-08-20T07:16:00.569Z</time>
      </trkpt>
      <trkpt lat="48.681463" lon="16.543199">
        <ele>305.185538</ele>
        <time>2020-08-20T07:16:03.582Z</time>
      </trkpt>
      <trkpt lat="48.681562" lon="16.543198">
        <ele>305.194645</ele>
        <time>2020-08-20T07:16:05.585Z</time>
      </trkpt>
      <trkpt lat="48.681680" lon="16.543206">
        <ele>305.205511</ele>
        <time>2020-08-20T07:16:07.584Z</time>
      </trkpt>
      <trkpt lat="48.681817" lon="16.543215">
        <ele>305.218125</ele>
        <time>2020-08-20T07:16:09.569Z</time>
      </trkpt>
      <trkpt lat="48.681961" lon="16.543230">
        <ele>305.097712</ele>
        <time>2020-08-20T07:16:11.587Z</time>
      </trkpt>
      <trkpt lat="48.682112" lon="16.543236">
        <ele>304.908757</ele>
        <time>2020-08-20T07:16:13.585Z</time>
      </trkpt>
      <trkpt lat="48.682275" lon="16.543256">
        <ele>304.704188</ele>
        <time>2020-08-20T07:16:15.567Z</time>
      </trkpt>
      <trkpt lat="48.682443" lon="16.543274">
        <ele>304.493507</ele>
        <time>2020-08-20T07:16:17.585Z</time>
      </trkpt>
      <trkpt lat="48.682612" lon="16.543278">
        <ele>304.282074</ele>
        <time>2020-08-20T07:16:19.596Z</time>
      </trkpt>
      <trkpt lat="48.682780" lon="16.543279">
        <ele>304.071917</ele>
        <time>2020-08-20T07:16:21.576Z</time>
      </trkpt>
      <trkpt lat="48.682942" lon="16.543281">
        <ele>303.869260</ele>
        <time>2020-08-20T07:16:23.561Z</time>
      </trkpt>
      <trkpt lat="48.683106" lon="16.543288">
        <ele>303.664026</ele>
        <time>2020-08-20T07:16:25.564Z</time>
      </trkpt>
      <trkpt lat="48.683270" lon="16.543297">
        <ele>303.458739</ele>
        <time>2020-08-20T07:16:27.559Z</time>
      </trkpt>
      <trkpt lat="48.683435" lon="16.543305">
        <ele>303.252230</ele>
        <time>2020-08-20T07:16:29.576Z</time>
      </trkpt>
      <trkpt lat="48.683604" lon="16.543322">
        <ele>303.040358</ele>
        <time>2020-08-20T07:16:31.572Z</time>
      </trkpt>
      <trkpt lat="48.683778" lon="16.543339">
        <ele>302.707127</ele>
        <time>2020-08-20T07:16:33.583Z</time>
      </trkpt>
      <trkpt lat="48.683954" lon="16.543361">
        <ele>302.316709</ele>
        <time>2020-08-20T07:16:35.571Z</time>
      </trkpt>
      <trkpt lat="48.684125" lon="16.543379">
        <ele>301.937756</ele>
        <time>2020-08-20T07:16:37.563Z</time>
      </trkpt>
      <trkpt lat="48.684292" lon="16.543390">
        <ele>301.568208</ele>
        <time>2020-08-20T07:16:39.551Z</time>
      </trkpt>
      <trkpt lat="48.684455" lon="16.543399">
        <ele>301.207613</ele>
        <time>2020-08-20T07:16:41.574Z</time>
      </trkpt>
      <trkpt lat="48.684610" lon="16.543381">
        <ele>300.863938</ele>
        <time>2020-08-20T07:16:43.568Z</time>
      </trkpt>
      <trkpt lat="48.684745" lon="16.543289">
        <ele>300.536668</ele>
        <time>2020-08-20T07:16:45.557Z</time>
      </trkpt>
      <trkpt lat="48.684850" lon="16.543130">
        <ele>300.208430</ele>
        <time>2020-08-20T07:16:47.560Z</time>
      </trkpt>
      <trkpt lat="48.684945" lon="16.542970">
        <ele>299.894352</ele>
        <time>2020-08-20T07:16:49.561Z</time>
      </trkpt>
      <trkpt lat="48.685040" lon="16.542826">
        <ele>299.597227</ele>
        <time>2020-08-20T07:16:51.568Z</time>
      </trkpt>
      <trkpt lat="48.685139" lon="16.542696">
        <ele>299.307565</ele>
        <time>2020-08-20T07:16:53.600Z</time>
      </trkpt>
      <trkpt lat="48.685238" lon="16.542576">
        <ele>299.027247</ele>
        <time>2020-08-20T07:16:55.562Z</time>
      </trkpt>
      <trkpt lat="48.685326" lon="16.542448">
        <ele>298.976217</ele>
        <time>2020-08-20T07:16:57.575Z</time>
      </trkpt>
      <trkpt lat="48.685413" lon="16.542324">
        <ele>298.954425</ele>
        <time>2020-08-20T07:16:59.581Z</time>
      </trkpt>
      <trkpt lat="48.685494" lon="16.542204">
        <ele>298.933757</ele>
        <time>2020-08-20T07:17:01.606Z</time>
      </trkpt>
      <trkpt lat="48.685579" lon="16.542089">
        <ele>298.912967</ele>
        <time>2020-08-20T07:17:03.573Z</time>
      </trkpt>
      <trkpt lat="48.685665" lon="16.541966">
        <ele>298.891391</ele>
        <time>2020-08-20T07:17:05.586Z</time>
      </trkpt>
      <trkpt lat="48.685739" lon="16.541849">
        <ele>298.871878</ele>
        <time>2020-08-20T07:17:07.561Z</time>
      </trkpt>
      <trkpt lat="48.685812" lon="16.541750">
        <ele>298.854004</ele>
        <time>2020-08-20T07:17:09.555Z</time>
      </trkpt>
      <trkpt lat="48.685904" lon="16.541619">
        <ele>298.830971</ele>
        <time>2020-08-20T07:17:12.556Z</time>
      </trkpt>
      <trkpt lat="48.685990" lon="16.541518">
        <ele>298.811120</ele>
        <time>2020-08-20T07:17:15.555Z</time>
      </trkpt>
      <trkpt lat="48.686066" lon="16.541443">
        <ele>298.794573</ele>
        <time>2020-08-20T07:17:18.587Z</time>
      </trkpt>
      <trkpt lat="48.686153" lon="16.541478">
        <ele>298.778153</ele>
        <time>2020-08-20T07:17:21.564Z</time>
      </trkpt>
      <trkpt lat="48.686222" lon="16.541593">
        <ele>298.759438</ele>
        <time>2020-08-20T07:17:24.548Z</time>
      </trkpt>
      <trkpt lat="48.686298" lon="16.541695">
        <ele>298.740916</ele>
        <time>2020-08-20T07:17:27.557Z</time>
      </trkpt>
      <trkpt lat="48.686384" lon="16.541789">
        <ele>298.721570</ele>
        <time>2020-08-20T07:17:30.567Z</time>
      </trkpt>
      <trkpt lat="48.686479" lon="16.541888">
        <ele>298.700535</ele>
        <time>2020-08-20T07:17:33.553Z</time>
      </trkpt>
      <trkpt lat="48.686571" lon="16.541990">
        <ele>298.679738</ele>
        <time>2020-08-20T07:17:36.580Z</time>
      </trkpt>
      <trkpt lat="48.686664" lon="16.542085">
        <ele>298.712310</ele>
        <time>2020-08-20T07:17:39.566Z</time>
      </trkpt>
      <trkpt lat="48.686761" lon="16.542186">
        <ele>298.824719</ele>
        <time>2020-08-20T07:17:42.576Z</time>
      </trkpt>
      <trkpt lat="48.686864" lon="16.542284">
        <ele>298.940879</ele>
        <time>2020-08-20T07:17:45.585Z</time>
      </trkpt>
      <trkpt lat="48.686964" lon="16.542375">
        <ele>299.052286</ele>
        <time>2020-08-20T07:17:48.556Z</time>
      </trkpt>
      <trkpt lat="48.687066" lon="16.542477">
        <ele>299.169008</ele>
        <time>2020-08-20T07:17:51.556Z</time>
      </trkpt>
      <trkpt lat="48.687162" lon="16.542561">
        <ele>299.274884</ele>
        <time>2020-08-20T07:17:54.584Z</time>
      </trkpt>
      <trkpt lat="48.687260" lon="16.542641">
        <ele>299.381199</ele>
        <time>2020-08-20T07:17:57.563Z</time>
      </trkpt>
      <trkpt lat="48.687352" lon="16.542734">
        <ele>299.486826</ele>
        <time>2020-08-20T07:18:00.585Z</time>
      </trkpt>
      <trkpt lat="48.687447" lon="16.542824">
        <ele>299.593832</ele>
        <time>2020-08-20T07:18:03.593Z</time>
      </trkpt>
      <trkpt lat="48.687537" lon="16.542914">
        <ele>299.696822</ele>
        <time>2020-08-20T07:18:06.569Z</time>
      </trkpt>
      <trkpt lat="48.687625" lon="16.543003">
        <ele>299.797871</ele>
        <time>2020-08-20T07:18:09.585Z</time>
      </trkpt>
      <trkpt lat="48.687706" lon="16.543102">
        <ele>299.897266</ele>
        <time>2020-08-20T07:18:12.581Z</time>
      </trkpt>
      <trkpt lat="48.687774" lon="16.543209">
        <ele>299.990902</ele>
        <time>2020-08-20T07:18:15.575Z</time>
      </trkpt>
      <trkpt lat="48.687841" lon="16.543321">
        <ele>300.086191</ele>
        <time>2020-08-20T07:18:18.591Z</time>
      </trkpt>
      <trkpt lat="48.687908" lon="16.543425">
        <ele>300.177804</ele>
        <time>2020-08-20T07:18:21.570Z</time>
      </trkpt>
      <trkpt lat="48.687973" lon="16.543537">
        <ele>300.271820</ele>
        <time>2020-08-20T07:18:24.566Z</time>
      </trkpt>
      <trkpt lat="48.688035" lon="16.543665">
        <ele>300.371910</ele>
        <time>2020-08-20T07:18:27.580Z</time>
      </trkpt>
      <trkpt lat="48.688099" lon="16.543796">
        <ele>300.560744</ele>
        <time>2020-08-20T07:18:30.568Z</time>
      </trkpt>
      <trkpt lat="48.688171" lon="16.543917">
        <ele>300.762583</ele>
        <time>2020-08-20T07:18:33.556Z</time>
      </trkpt>
      <trkpt lat="48.688248" lon="16.544031">
        <ele>300.964666</ele>
        <time>2020-08-20T07:18:36.591Z</time>
      </trkpt>
      <trkpt lat="48.688328" lon="16.544104">
        <ele>301.139956</ele>
        <time>2020-08-20T07:18:39.584Z</time>
      </trkpt>
      <trkpt lat="48.688417" lon="16.544190">
        <ele>301.338092</ele>
        <time>2020-08-20T07:18:42.568Z</time>
      </trkpt>
      <trkpt lat="48.688504" lon="16.544268">
        <ele>301.527838</ele>
        <time>2020-08-20T07:18:45.563Z</time>
      </trkpt>
      <trkpt lat="48.688600" lon="16.544327">
        <ele>301.722285</ele>
        <time>2020-08-20T07:18:48.579Z</time>
      </trkpt>
      <trkpt lat="48.688700" lon="16.544393">
        <ele>301.927015</ele>
        <time>2020-08-20T07:18:51.565Z</time>
      </trkpt>
      <trkpt lat="48.688792" lon="16.544444">
        <ele>302.110888</ele>
        <time>2020-08-20T07:18:54.594Z</time>
      </trkpt>
      <trkpt lat="48.688872" lon="16.544508">
        <ele>302.280692</ele>
        <time>2020-08-20T07:18:57.574Z</time>
      </trkpt>
      <trkpt lat="48.688954" lon="16.544589">
        <ele>302.464428</ele>
        <time>2020-08-20T07:19:00.565Z</time>
      </trkpt>
      <trkpt lat="48.689041" lon="16.544684">
        <ele>302.665720</ele>
        <time>2020-08-20T07:19:03.576Z</time>
      </trkpt>
      <trkpt lat="48.689123" lon="16.544777">
        <ele>302.857981</ele>
        <time>2020-08-20T07:19:06.550Z</time>
      </trkpt>
      <trkpt lat="48.689204" lon="16.544854">
        <ele>303.037465</ele>
        <time>2020-08-20T07:19:09.580Z</time>
      </trkpt>
      <trkpt lat="48.689309" lon="16.544936">
        <ele>303.259186</ele>
        <time>2020-08-20T07:19:13.548Z</time>
      </trkpt>
      <trkpt lat="48.689419" lon="16.544976">
        <ele>303.471509</ele>
        <time>2020-08-20T07:19:17.546Z</time>
      </trkpt>
      <trkpt lat="48.689475" lon="16.545139">
        <ele>303.699181</ele>
        <time>2020-08-20T07:20:06.562Z</time>
      </trkpt>
      <trkpt lat="48.689527" lon="16.545279">
        <ele>303.895239</ele>
        <time>2020-08-20T07:20:10.546Z</time>
      </trkpt>
      <trkpt lat="48.689579" lon="16.545398">
        <ele>304.068213</ele>
        <time>2020-08-20T07:20:13.575Z</time>
      </trkpt>
      <trkpt lat="48.689637" lon="16.545530">
        <ele>304.260408</ele>
        <time>2020-08-20T07:20:16.559Z</time>
      </trkpt>
      <trkpt lat="48.689696" lon="16.545655">
        <ele>304.446662</ele>
        <time>2020-08-20T07:20:19.554Z</time>
      </trkpt>
      <trkpt lat="48.689752" lon="16.545787">
        <ele>304.636846</ele>
        <time>2020-08-20T07:20:22.571Z</time>
      </trkpt>
      <trkpt lat="48.689801" lon="16.545924">
        <ele>304.825706</ele>
        <time>2020-08-20T07:20:25.564Z</time>
      </trkpt>
      <trkpt lat="48.689853" lon="16.546047">
        <ele>305.002743</ele>
        <time>2020-08-20T07:20:28.581Z</time>
      </trkpt>
      <trkpt lat="48.689923" lon="16.546179">
        <ele>305.207967</ele>
        <time>2020-08-20T07:20:32.617Z</time>
      </trkpt>
      <trkpt lat="48.689996" lon="16.546282">
        <ele>305.391136</ele>
        <time>2020-08-20T07:20:35.566Z</time>
      </trkpt>
      <trkpt lat="48.690087" lon="16.546393">
        <ele>305.605654</ele>
        <time>2020-08-20T07:20:38.574Z</time>
      </trkpt>
      <trkpt lat="48.690177" lon="16.546492">
        <ele>305.809874</ele>
        <time>2020-08-20T07:20:41.568Z</time>
      </trkpt>
      <trkpt lat="48.690270" lon="16.546581">
        <ele>306.011850</ele>
        <time>2020-08-20T07:20:44.572Z</time>
      </trkpt>
      <trkpt lat="48.690366" lon="16.546654">
        <ele>306.209076</ele>
        <time>2020-08-20T07:20:47.573Z</time>
      </trkpt>
      <trkpt lat="48.690463" lon="16.546724">
        <ele>306.406354</ele>
        <time>2020-08-20T07:20:50.563Z</time>
      </trkpt>
      <trkpt lat="48.690557" lon="16.546817">
        <ele>306.612495</ele>
        <time>2020-08-20T07:20:53.550Z</time>
      </trkpt>
      <trkpt lat="48.690645" lon="16.546921">
        <ele>306.817425</ele>
        <time>2020-08-20T07:20:56.556Z</time>
      </trkpt>
      <trkpt lat="48.690721" lon="16.547028">
        <ele>307.007929</ele>
        <time>2020-08-20T07:20:59.552Z</time>
      </trkpt>
      <trkpt lat="48.690798" lon="16.547139">
        <ele>307.136357</ele>
        <time>2020-08-20T07:21:02.559Z</time>
      </trkpt>
      <trkpt lat="48.690878" lon="16.547247">
        <ele>307.238841</ele>
        <time>2020-08-20T07:21:05.555Z</time>
      </trkpt>
      <trkpt lat="48.690968" lon="16.547354">
        <ele>307.348259</ele>
        <time>2020-08-20T07:21:08.568Z</time>
      </trkpt>
      <trkpt lat="48.691050" lon="16.547472">
        <ele>307.456426</ele>
        <time>2020-08-20T07:21:12.569Z</time>
      </trkpt>
      <trkpt lat="48.691116" lon="16.547594">
        <ele>307.556009</ele>
        <time>2020-08-20T07:21:15.566Z</time>
      </trkpt>
      <trkpt lat="48.691186" lon="16.547715">
        <ele>307.657584</ele>
        <time>2020-08-20T07:21:18.565Z</time>
      </trkpt>
      <trkpt lat="48.691261" lon="16.547825">
        <ele>307.757423</ele>
        <time>2020-08-20T07:21:21.565Z</time>
      </trkpt>
      <trkpt lat="48.691339" lon="16.547942">
        <ele>307.862404</ele>
        <time>2020-08-20T07:21:24.596Z</time>
      </trkpt>
      <trkpt lat="48.691402" lon="16.548056">
        <ele>307.956267</ele>
        <time>2020-08-20T07:21:27.568Z</time>
      </trkpt>
      <trkpt lat="48.691458" lon="16.548179">
        <ele>308.050599</ele>
        <time>2020-08-20T07:21:30.580Z</time>
      </trkpt>
      <trkpt lat="48.691529" lon="16.548331">
        <ele>308.168155</ele>
        <time>2020-08-20T07:21:34.590Z</time>
      </trkpt>
      <trkpt lat="48.691597" lon="16.548467">
        <ele>308.275865</ele>
        <time>2020-08-20T07:21:38.570Z</time>
      </trkpt>
      <trkpt lat="48.691648" lon="16.548589">
        <ele>308.367032</ele>
        <time>2020-08-20T07:21:41.558Z</time>
      </trkpt>
      <trkpt lat="48.691704" lon="16.548705">
        <ele>308.457760</ele>
        <time>2020-08-20T07:21:44.560Z</time>
      </trkpt>
      <trkpt lat="48.691755" lon="16.548827">
        <ele>308.548927</ele>
        <time>2020-08-20T07:21:47.555Z</time>
      </trkpt>
      <trkpt lat="48.691817" lon="16.548965">
        <ele>308.654314</ele>
        <time>2020-08-20T07:21:51.563Z</time>
      </trkpt>
      <trkpt lat="48.691881" lon="16.549094">
        <ele>308.756191</ele>
        <time>2020-08-20T07:21:55.576Z</time>
      </trkpt>
      <trkpt lat="48.691939" lon="16.549235">
        <ele>308.906064</ele>
        <time>2020-08-20T07:21:59.556Z</time>
      </trkpt>
      <trkpt lat="48.692003" lon="16.549380">
        <ele>309.080464</ele>
        <time>2020-08-20T07:22:03.557Z</time>
      </trkpt>
      <trkpt lat="48.692058" lon="16.549508">
        <ele>309.233169</ele>
        <time>2020-08-20T07:22:07.570Z</time>
      </trkpt>
      <trkpt lat="48.692117" lon="16.549638">
        <ele>309.390906</ele>
        <time>2020-08-20T07:22:11.564Z</time>
      </trkpt>
      <trkpt lat="48.692158" lon="16.549764">
        <ele>309.531360</ele>
        <time>2020-08-20T07:22:15.563Z</time>
      </trkpt>
      <trkpt lat="48.692189" lon="16.549924">
        <ele>309.698083</ele>
        <time>2020-08-20T07:22:20.579Z</time>
      </trkpt>
      <trkpt lat="48.692234" lon="16.550082">
        <ele>309.870135</ele>
        <time>2020-08-20T07:22:25.567Z</time>
      </trkpt>
      <trkpt lat="48.692275" lon="16.550206">
        <ele>310.008798</ele>
        <time>2020-08-20T07:22:29.555Z</time>
      </trkpt>
      <trkpt lat="48.692322" lon="16.550347">
        <ele>310.166730</ele>
        <time>2020-08-20T07:22:34.594Z</time>
      </trkpt>
      <trkpt lat="48.692371" lon="16.550479">
        <ele>310.318146</ele>
        <time>2020-08-20T07:22:38.559Z</time>
      </trkpt>
      <trkpt lat="48.692435" lon="16.550604">
        <ele>310.476313</ele>
        <time>2020-08-20T07:22:42.546Z</time>
      </trkpt>
      <trkpt lat="48.692501" lon="16.550729">
        <ele>310.636355</ele>
        <time>2020-08-20T07:22:46.566Z</time>
      </trkpt>
      <trkpt lat="48.692557" lon="16.550871">
        <ele>310.801739</ele>
        <time>2020-08-20T07:22:51.562Z</time>
      </trkpt>
      <trkpt lat="48.692601" lon="16.551024">
        <ele>310.968601</ele>
        <time>2020-08-20T07:22:56.572Z</time>
      </trkpt>
      <trkpt lat="48.692647" lon="16.551154">
        <ele>311.116076</ele>
        <time>2020-08-20T07:23:01.559Z</time>
      </trkpt>
      <trkpt lat="48.692674" lon="16.551319">
        <ele>311.286041</ele>
        <time>2020-08-20T07:23:06.567Z</time>
      </trkpt>
      <trkpt lat="48.692667" lon="16.551466">
        <ele>311.433398</ele>
        <time>2020-08-20T07:23:11.591Z</time>
      </trkpt>
      <trkpt lat="48.692617" lon="16.551594">
        <ele>311.604598</ele>
        <time>2020-08-20T07:23:17.572Z</time>
      </trkpt>
      <trkpt lat="48.692533" lon="16.551694">
        <ele>311.815768</ele>
        <time>2020-08-20T07:23:23.560Z</time>
      </trkpt>
      <trkpt lat="48.692448" lon="16.551760">
        <ele>312.004566</ele>
        <time>2020-08-20T07:23:29.561Z</time>
      </trkpt>
      <trkpt lat="48.692354" lon="16.551796">
        <ele>312.196215</ele>
        <time>2020-08-20T07:23:35.567Z</time>
      </trkpt>
      <trkpt lat="48.692264" lon="16.551872">
        <ele>312.399883</ele>
        <time>2020-08-20T07:23:40.602Z</time>
      </trkpt>
      <trkpt lat="48.692176" lon="16.551949">
        <ele>312.600757</ele>
        <time>2020-08-20T07:23:44.577Z</time>
      </trkpt>
      <trkpt lat="48.692075" lon="16.552032">
        <ele>312.827879</ele>
        <time>2020-08-20T07:23:48.558Z</time>
      </trkpt>
      <trkpt lat="48.691982" lon="16.552094">
        <ele>313.028719</ele>
        <time>2020-08-20T07:23:51.556Z</time>
      </trkpt>
      <trkpt lat="48.691873" lon="16.552115">
        <ele>313.245907</ele>
        <time>2020-08-20T07:23:54.569Z</time>
      </trkpt>
      <trkpt lat="48.691752" lon="16.552129">
        <ele>313.485777</ele>
        <time>2020-08-20T07:23:57.567Z</time>
      </trkpt>
      <trkpt lat="48.691659" lon="16.552132">
        <ele>313.669645</ele>
        <time>2020-08-20T07:23:59.582Z</time>
      </trkpt>
      <trkpt lat="48.691559" lon="16.552133">
        <ele>313.867313</ele>
        <time>2020-08-20T07:24:01.555Z</time>
      </trkpt>
      <trkpt lat="48.691462" lon="16.552149">
        <ele>314.060180</ele>
        <time>2020-08-20T07:24:03.568Z</time>
      </trkpt>
      <trkpt lat="48.691364" lon="16.552181">
        <ele>314.258339</ele>
        <time>2020-08-20T07:24:05.565Z</time>
      </trkpt>
      <trkpt lat="48.691263" lon="16.552239">
        <ele>314.471841</ele>
        <time>2020-08-20T07:24:07.552Z</time>
      </trkpt>
      <trkpt lat="48.691167" lon="16.552300">
        <ele>314.677615</ele>
        <time>2020-08-20T07:24:09.589Z</time>
      </trkpt>
      <trkpt lat="48.691065" lon="16.552377">
        <ele>314.902878</ele>
        <time>2020-08-20T07:24:11.563Z</time>
      </trkpt>
      <trkpt lat="48.690960" lon="16.552463">
        <ele>315.112352</ele>
        <time>2020-08-20T07:24:13.556Z</time>
      </trkpt>
      <trkpt lat="48.690847" lon="16.552538">
        <ele>315.270386</ele>
        <time>2020-08-20T07:24:15.560Z</time>
      </trkpt>
      <trkpt lat="48.690735" lon="16.552595">
        <ele>315.421735</ele>
        <time>2020-08-20T07:24:17.573Z</time>
      </trkpt>
      <trkpt lat="48.690618" lon="16.552656">
        <ele>315.580237</ele>
        <time>2020-08-20T07:24:19.591Z</time>
      </trkpt>
      <trkpt lat="48.690499" lon="16.552723">
        <ele>315.742861</ele>
        <time>2020-08-20T07:24:21.562Z</time>
      </trkpt>
      <trkpt lat="48.690375" lon="16.552787">
        <ele>315.910669</ele>
        <time>2020-08-20T07:24:23.602Z</time>
      </trkpt>
      <trkpt lat="48.690248" lon="16.552850">
        <ele>316.081853</ele>
        <time>2020-08-20T07:24:25.571Z</time>
      </trkpt>
      <trkpt lat="48.690122" lon="16.552885">
        <ele>316.245947</ele>
        <time>2020-08-20T07:24:27.574Z</time>
      </trkpt>
      <trkpt lat="48.690006" lon="16.552925">
        <ele>316.398342</ele>
        <time>2020-08-20T07:24:29.589Z</time>
      </trkpt>
      <trkpt lat="48.689896" lon="16.552966">
        <ele>316.543452</ele>
        <time>2020-08-20T07:24:31.560Z</time>
      </trkpt>
      <trkpt lat="48.689793" lon="16.553003">
        <ele>316.679051</ele>
        <time>2020-08-20T07:24:33.568Z</time>
      </trkpt>
      <trkpt lat="48.689692" lon="16.553037">
        <ele>316.811586</ele>
        <time>2020-08-20T07:24:35.599Z</time>
      </trkpt>
      <trkpt lat="48.689597" lon="16.553070">
        <ele>316.936437</ele>
        <time>2020-08-20T07:24:37.592Z</time>
      </trkpt>
      <trkpt lat="48.689505" lon="16.553105">
        <ele>317.057947</ele>
        <time>2020-08-20T07:24:39.576Z</time>
      </trkpt>
      <trkpt lat="48.689416" lon="16.553139">
        <ele>317.175523</ele>
        <time>2020-08-20T07:24:41.568Z</time>
      </trkpt>
      <trkpt lat="48.689300" lon="16.553195">
        <ele>317.331479</ele>
        <time>2020-08-20T07:24:44.557Z</time>
      </trkpt>
      <trkpt lat="48.689197" lon="16.553252">
        <ele>317.616933</ele>
        <time>2020-08-20T07:24:47.561Z</time>
      </trkpt>
      <trkpt lat="48.689098" lon="16.553307">
        <ele>317.939751</ele>
        <time>2020-08-20T07:24:50.558Z</time>
      </trkpt>
      <trkpt lat="48.689007" lon="16.553364">
        <ele>318.241215</ele>
        <time>2020-08-20T07:24:53.573Z</time>
      </trkpt>
      <trkpt lat="48.688917" lon="16.553421">
        <ele>318.539852</ele>
        <time>2020-08-20T07:24:56.562Z</time>
      </trkpt>
      <trkpt lat="48.688828" lon="16.553473">
        <ele>318.831881</ele>
        <time>2020-08-20T07:24:59.577Z</time>
      </trkpt>
      <trkpt lat="48.688739" lon="16.553531">
        <ele>319.128489</ele>
        <time>2020-08-20T07:25:02.582Z</time>
      </trkpt>
      <trkpt lat="48.688652" lon="16.553591">
        <ele>319.421134</ele>
        <time>2020-08-20T07:25:05.579Z</time>
      </trkpt>
      <trkpt lat="48.688564" lon="16.553657">
        <ele>319.721749</ele>
        <time>2020-08-20T07:25:08.561Z</time>
      </trkpt>
      <trkpt lat="48.688458" lon="16.553732">
        <ele>320.079911</ele>
        <time>2020-08-20T07:25:12.571Z</time>
      </trkpt>
      <trkpt lat="48.688372" lon="16.553796">
        <ele>320.373247</ele>
        <time>2020-08-20T07:25:15.576Z</time>
      </trkpt>
      <trkpt lat="48.688273" lon="16.553859">
        <ele>320.701983</ele>
        <time>2020-08-20T07:25:19.595Z</time>
      </trkpt>
      <trkpt lat="48.688179" lon="16.553923">
        <ele>321.017486</ele>
        <time>2020-08-20T07:25:23.582Z</time>
      </trkpt>
      <trkpt lat="48.688090" lon="16.553973">
        <ele>321.308085</ele>
        <time>2020-08-20T07:25:27.580Z</time>
      </trkpt>
      <trkpt lat="48.687990" lon="16.554047">
        <ele>321.648801</ele>
        <time>2020-08-20T07:25:32.555Z</time>
      </trkpt>
      <trkpt lat="48.687900" lon="16.554096">
        <ele>321.941583</ele>
        <time>2020-08-20T07:25:37.576Z</time>
      </trkpt>
      <trkpt lat="48.687800" lon="16.554154">
        <ele>322.269396</ele>
        <time>2020-08-20T07:25:43.565Z</time>
      </trkpt>
      <trkpt lat="48.687716" lon="16.554204">
        <ele>322.545695</ele>
        <time>2020-08-20T07:25:47.556Z</time>
      </trkpt>
      <trkpt lat="48.687622" lon="16.554257">
        <ele>322.852755</ele>
        <time>2020-08-20T07:25:51.555Z</time>
      </trkpt>
      <trkpt lat="48.687535" lon="16.554313">
        <ele>323.246830</ele>
        <time>2020-08-20T07:25:54.586Z</time>
      </trkpt>
      <trkpt lat="48.687435" lon="16.554377">
        <ele>323.708916</ele>
        <time>2020-08-20T07:25:57.565Z</time>
      </trkpt>
      <trkpt lat="48.687315" lon="16.554457">
        <ele>324.266980</ele>
        <time>2020-08-20T07:26:00.568Z</time>
      </trkpt>
      <trkpt lat="48.687220" lon="16.554515">
        <ele>324.702960</ele>
        <time>2020-08-20T07:26:02.567Z</time>
      </trkpt>
      <trkpt lat="48.687120" lon="16.554595">
        <ele>325.184330</ele>
        <time>2020-08-20T07:26:04.572Z</time>
      </trkpt>
      <trkpt lat="48.687037" lon="16.554678">
        <ele>325.607666</ele>
        <time>2020-08-20T07:26:06.555Z</time>
      </trkpt>
      <trkpt lat="48.686932" lon="16.554779">
        <ele>326.137102</ele>
        <time>2020-08-20T07:26:08.570Z</time>
      </trkpt>
      <trkpt lat="48.686824" lon="16.554899">
        <ele>326.707222</ele>
        <time>2020-08-20T07:26:10.586Z</time>
      </trkpt>
      <trkpt lat="48.686720" lon="16.555036">
        <ele>327.293884</ele>
        <time>2020-08-20T07:26:12.599Z</time>
      </trkpt>
      <trkpt lat="48.686616" lon="16.555172">
        <ele>327.878707</ele>
        <time>2020-08-20T07:26:14.592Z</time>
      </trkpt>
      <trkpt lat="48.686516" lon="16.555312">
        <ele>328.458320</ele>
        <time>2020-08-20T07:26:16.563Z</time>
      </trkpt>
      <trkpt lat="48.686421" lon="16.555446">
        <ele>329.010865</ele>
        <time>2020-08-20T07:26:18.560Z</time>
      </trkpt>
      <trkpt lat="48.686326" lon="16.555572">
        <ele>329.548341</ele>
        <time>2020-08-20T07:26:20.587Z</time>
      </trkpt>
      <trkpt lat="48.686239" lon="16.555693">
        <ele>330.051083</ele>
        <time>2020-08-20T07:26:22.586Z</time>
      </trkpt>
      <trkpt lat="48.686161" lon="16.555797">
        <ele>330.493395</ele>
        <time>2020-08-20T07:26:24.574Z</time>
      </trkpt>
      <trkpt lat="48.686089" lon="16.555896">
        <ele>330.883565</ele>
        <time>2020-08-20T07:26:26.574Z</time>
      </trkpt>
      <trkpt lat="48.686012" lon="16.555995">
        <ele>331.286424</ele>
        <time>2020-08-20T07:26:28.572Z</time>
      </trkpt>
      <trkpt lat="48.685912" lon="16.556122">
        <ele>331.806950</ele>
        <time>2020-08-20T07:26:31.579Z</time>
      </trkpt>
      <trkpt lat="48.685826" lon="16.556215">
        <ele>332.228434</ele>
        <time>2020-08-20T07:26:34.577Z</time>
      </trkpt>
      <trkpt lat="48.685737" lon="16.556313">
        <ele>332.667323</ele>
        <time>2020-08-20T07:26:38.562Z</time>
      </trkpt>
      <trkpt lat="48.685657" lon="16.556402">
        <ele>333.063244</ele>
        <time>2020-08-20T07:26:42.561Z</time>
      </trkpt>
      <trkpt lat="48.685570" lon="16.556506">
        <ele>333.505317</ele>
        <time>2020-08-20T07:26:47.572Z</time>
      </trkpt>
      <trkpt lat="48.685499" lon="16.556601">
        <ele>333.883189</ele>
        <time>2020-08-20T07:26:53.568Z</time>
      </trkpt>
      <trkpt lat="48.685426" lon="16.556684">
        <ele>334.247274</ele>
        <time>2020-08-20T07:26:58.574Z</time>
      </trkpt>
      <trkpt lat="48.685339" lon="16.556780">
        <ele>334.676615</ele>
        <time>2020-08-20T07:27:04.576Z</time>
      </trkpt>
      <trkpt lat="48.685249" lon="16.556855">
        <ele>335.086347</ele>
        <time>2020-08-20T07:27:10.559Z</time>
      </trkpt>
      <trkpt lat="48.685165" lon="16.556924">
        <ele>335.467501</ele>
        <time>2020-08-20T07:27:15.594Z</time>
      </trkpt>
      <trkpt lat="48.685138" lon="16.556941">
        <ele>335.584131</ele>
        <time>2020-08-20T07:27:36.946Z</time>
      </trkpt>
      <trkpt lat="48.685061" lon="16.557012">
        <ele>335.943700</ele>
        <time>2020-08-20T07:28:16.584Z</time>
      </trkpt>
      <trkpt lat="48.684955" lon="16.557070">
        <ele>336.393250</ele>
        <time>2020-08-20T07:28:22.555Z</time>
      </trkpt>
      <trkpt lat="48.684849" lon="16.557141">
        <ele>336.855555</ele>
        <time>2020-08-20T07:28:25.576Z</time>
      </trkpt>
      <trkpt lat="48.684762" lon="16.557200">
        <ele>337.235771</ele>
        <time>2020-08-20T07:28:27.556Z</time>
      </trkpt>
      <trkpt lat="48.684659" lon="16.557267">
        <ele>337.682897</ele>
        <time>2020-08-20T07:28:29.599Z</time>
      </trkpt>
      <trkpt lat="48.684556" lon="16.557330">
        <ele>337.820172</ele>
        <time>2020-08-20T07:28:31.579Z</time>
      </trkpt>
      <trkpt lat="48.684433" lon="16.557408">
        <ele>337.966294</ele>
        <time>2020-08-20T07:28:33.566Z</time>
      </trkpt>
      <trkpt lat="48.684291" lon="16.557499">
        <ele>338.135254</ele>
        <time>2020-08-20T07:28:35.575Z</time>
      </trkpt>
      <trkpt lat="48.684134" lon="16.557606">
        <ele>338.323911</ele>
        <time>2020-08-20T07:28:37.564Z</time>
      </trkpt>
      <trkpt lat="48.684050" lon="16.557658">
        <ele>338.423350</ele>
        <time>2020-08-20T07:28:38.575Z</time>
      </trkpt>
      <trkpt lat="48.683965" lon="16.557713">
        <ele>338.524638</ele>
        <time>2020-08-20T07:28:39.567Z</time>
      </trkpt>
      <trkpt lat="48.683877" lon="16.557765">
        <ele>338.628148</ele>
        <time>2020-08-20T07:28:40.561Z</time>
      </trkpt>
      <trkpt lat="48.683787" lon="16.557820">
        <ele>338.734497</ele>
        <time>2020-08-20T07:28:41.578Z</time>
      </trkpt>
      <trkpt lat="48.683695" lon="16.557881">
        <ele>338.844548</ele>
        <time>2020-08-20T07:28:42.558Z</time>
      </trkpt>
      <trkpt lat="48.683593" lon="16.557921">
        <ele>338.960007</ele>
        <time>2020-08-20T07:28:43.572Z</time>
      </trkpt>
      <trkpt lat="48.683497" lon="16.557987">
        <ele>339.075535</ele>
        <time>2020-08-20T07:28:44.564Z</time>
      </trkpt>
      <trkpt lat="48.683395" lon="16.558040">
        <ele>339.193702</ele>
        <time>2020-08-20T07:28:45.579Z</time>
      </trkpt>
      <trkpt lat="48.683291" lon="16.558095">
        <ele>339.314414</ele>
        <time>2020-08-20T07:28:46.572Z</time>
      </trkpt>
      <trkpt lat="48.683186" lon="16.558156">
        <ele>339.437648</ele>
        <time>2020-08-20T07:28:47.570Z</time>
      </trkpt>
      <trkpt lat="48.683083" lon="16.558215">
        <ele>339.558319</ele>
        <time>2020-08-20T07:28:48.557Z</time>
      </trkpt>
      <trkpt lat="48.682989" lon="16.558294">
        <ele>339.675591</ele>
        <time>2020-08-20T07:28:49.567Z</time>
      </trkpt>
      <trkpt lat="48.682906" lon="16.558398">
        <ele>339.715331</ele>
        <time>2020-08-20T07:28:50.565Z</time>
      </trkpt>
      <trkpt lat="48.682834" lon="16.558519">
        <ele>339.755006</ele>
        <time>2020-08-20T07:28:51.588Z</time>
      </trkpt>
      <trkpt lat="48.682774" lon="16.558629">
        <ele>339.789760</ele>
        <time>2020-08-20T07:28:52.570Z</time>
      </trkpt>
      <trkpt lat="48.682665" lon="16.558824">
        <ele>339.851992</ele>
        <time>2020-08-20T07:28:54.577Z</time>
      </trkpt>
      <trkpt lat="48.682595" lon="16.559050">
        <ele>339.912795</ele>
        <time>2020-08-20T07:28:56.578Z</time>
      </trkpt>
      <trkpt lat="48.682506" lon="16.559253">
        <ele>339.972149</ele>
        <time>2020-08-20T07:28:58.580Z</time>
      </trkpt>
      <trkpt lat="48.682397" lon="16.559423">
        <ele>340.029869</ele>
        <time>2020-08-20T07:29:00.578Z</time>
      </trkpt>
      <trkpt lat="48.682293" lon="16.559598">
        <ele>340.087218</ele>
        <time>2020-08-20T07:29:02.559Z</time>
      </trkpt>
      <trkpt lat="48.682189" lon="16.559738">
        <ele>340.138549</ele>
        <time>2020-08-20T07:29:04.569Z</time>
      </trkpt>
      <trkpt lat="48.682117" lon="16.559872">
        <ele>340.180630</ele>
        <time>2020-08-20T07:29:06.551Z</time>
      </trkpt>
      <trkpt lat="48.682053" lon="16.560013">
        <ele>340.222307</ele>
        <time>2020-08-20T07:29:08.567Z</time>
      </trkpt>
      <trkpt lat="48.681989" lon="16.560143">
        <ele>340.261805</ele>
        <time>2020-08-20T07:29:10.559Z</time>
      </trkpt>
      <trkpt lat="48.681926" lon="16.560257">
        <ele>340.298016</ele>
        <time>2020-08-20T07:29:12.565Z</time>
      </trkpt>
      <trkpt lat="48.681859" lon="16.560370">
        <ele>340.335009</ele>
        <time>2020-08-20T07:29:14.576Z</time>
      </trkpt>
      <trkpt lat="48.681751" lon="16.560486">
        <ele>340.326174</ele>
        <time>2020-08-20T07:29:17.565Z</time>
      </trkpt>
      <trkpt lat="48.681645" lon="16.560576">
        <ele>340.313518</ele>
        <time>2020-08-20T07:29:20.590Z</time>
      </trkpt>
      <trkpt lat="48.681524" lon="16.560651">
        <ele>340.299902</ele>
        <time>2020-08-20T07:29:23.589Z</time>
      </trkpt>
      <trkpt lat="48.681438" lon="16.560692">
        <ele>340.290512</ele>
        <time>2020-08-20T07:29:25.579Z</time>
      </trkpt>
      <trkpt lat="48.681355" lon="16.560755">
        <ele>340.280842</ele>
        <time>2020-08-20T07:29:28.574Z</time>
      </trkpt>
      <trkpt lat="48.681330" lon="16.560923">
        <ele>340.269000</ele>
        <time>2020-08-20T07:30:13.561Z</time>
      </trkpt>
      <trkpt lat="48.681298" lon="16.561051">
        <ele>340.259589</ele>
        <time>2020-08-20T07:30:17.588Z</time>
      </trkpt>
      <trkpt lat="48.681268" lon="16.561207">
        <ele>340.248416</ele>
        <time>2020-08-20T07:30:21.567Z</time>
      </trkpt>
      <trkpt lat="48.681249" lon="16.561350">
        <ele>340.238385</ele>
        <time>2020-08-20T07:30:25.569Z</time>
      </trkpt>
      <trkpt lat="48.681190" lon="16.561480">
        <ele>340.227538</ele>
        <time>2020-08-20T07:30:29.586Z</time>
      </trkpt>
      <trkpt lat="48.681114" lon="16.561618">
        <ele>340.215180</ele>
        <time>2020-08-20T07:30:33.592Z</time>
      </trkpt>
      <trkpt lat="48.681053" lon="16.561733">
        <ele>340.205036</ele>
        <time>2020-08-20T07:30:36.594Z</time>
      </trkpt>
      <trkpt lat="48.680994" lon="16.561856">
        <ele>340.194582</ele>
        <time>2020-08-20T07:30:39.554Z</time>
      </trkpt>
      <trkpt lat="48.680921" lon="16.561988">
        <ele>340.182742</ele>
        <time>2020-08-20T07:30:42.558Z</time>
      </trkpt>
      <trkpt lat="48.680848" lon="16.562125">
        <ele>340.170636</ele>
        <time>2020-08-20T07:30:45.590Z</time>
      </trkpt>
      <trkpt lat="48.680779" lon="16.562266">
        <ele>340.158567</ele>
        <time>2020-08-20T07:30:48.541Z</time>
      </trkpt>
      <trkpt lat="48.680706" lon="16.562406">
        <ele>340.232809</ele>
        <time>2020-08-20T07:30:51.561Z</time>
      </trkpt>
      <trkpt lat="48.680631" lon="16.562550">
        <ele>340.428182</ele>
        <time>2020-08-20T07:30:54.557Z</time>
      </trkpt>
      <trkpt lat="48.680557" lon="16.562669">
        <ele>340.602314</ele>
        <time>2020-08-20T07:30:57.575Z</time>
      </trkpt>
      <trkpt lat="48.680497" lon="16.562777">
        <ele>340.752666</ele>
        <time>2020-08-20T07:31:00.562Z</time>
      </trkpt>
      <trkpt lat="48.680428" lon="16.562895">
        <ele>340.920571</ele>
        <time>2020-08-20T07:31:04.568Z</time>
      </trkpt>
      <trkpt lat="48.680374" lon="16.563006">
        <ele>341.067441</ele>
        <time>2020-08-20T07:31:08.583Z</time>
      </trkpt>
      <trkpt lat="48.680328" lon="16.563126">
        <ele>341.215251</ele>
        <time>2020-08-20T07:31:12.560Z</time>
      </trkpt>
      <trkpt lat="48.680260" lon="16.563250">
        <ele>341.386958</ele>
        <time>2020-08-20T07:31:17.579Z</time>
      </trkpt>
      <trkpt lat="48.680202" lon="16.563367">
        <ele>341.542808</ele>
        <time>2020-08-20T07:31:21.567Z</time>
      </trkpt>
      <trkpt lat="48.680136" lon="16.563477">
        <ele>341.701138</ele>
        <time>2020-08-20T07:31:25.591Z</time>
      </trkpt>
      <trkpt lat="48.680061" lon="16.563601">
        <ele>341.880272</ele>
        <time>2020-08-20T07:31:30.550Z</time>
      </trkpt>
      <trkpt lat="48.680001" lon="16.563730">
        <ele>342.048360</ele>
        <time>2020-08-20T07:31:35.564Z</time>
      </trkpt>
      <trkpt lat="48.679947" lon="16.563858">
        <ele>342.210167</ele>
        <time>2020-08-20T07:31:40.568Z</time>
      </trkpt>
      <trkpt lat="48.679870" lon="16.563975">
        <ele>342.386139</ele>
        <time>2020-08-20T07:31:46.594Z</time>
      </trkpt>
      <trkpt lat="48.679814" lon="16.564083">
        <ele>342.532420</ele>
        <time>2020-08-20T07:31:51.560Z</time>
      </trkpt>
      <trkpt lat="48.679752" lon="16.564209">
        <ele>342.699814</ele>
        <time>2020-08-20T07:31:57.569Z</time>
      </trkpt>
      <trkpt lat="48.679690" lon="16.564339">
        <ele>342.870644</ele>
        <time>2020-08-20T07:32:02.585Z</time>
      </trkpt>
      <trkpt lat="48.679602" lon="16.564475">
        <ele>343.059487</ele>
        <time>2020-08-20T07:32:06.576Z</time>
      </trkpt>
      <trkpt lat="48.679516" lon="16.564615">
        <ele>343.121285</ele>
        <time>2020-08-20T07:32:09.548Z</time>
      </trkpt>
      <trkpt lat="48.679447" lon="16.564730">
        <ele>343.171503</ele>
        <time>2020-08-20T07:32:11.565Z</time>
      </trkpt>
      <trkpt lat="48.679376" lon="16.564857">
        <ele>343.225283</ele>
        <time>2020-08-20T07:32:13.554Z</time>
      </trkpt>
      <trkpt lat="48.679310" lon="16.565005">
        <ele>343.283001</ele>
        <time>2020-08-20T07:32:15.559Z</time>
      </trkpt>
      <trkpt lat="48.679254" lon="16.565168">
        <ele>343.342384</ele>
        <time>2020-08-20T07:32:17.577Z</time>
      </trkpt>
      <trkpt lat="48.679194" lon="16.565331">
        <ele>343.402696</ele>
        <time>2020-08-20T07:32:19.575Z</time>
      </trkpt>
      <trkpt lat="48.679124" lon="16.565496">
        <ele>343.466079</ele>
        <time>2020-08-20T07:32:21.556Z</time>
      </trkpt>
      <trkpt lat="48.679046" lon="16.565686">
        <ele>343.538385</ele>
        <time>2020-08-20T07:32:23.576Z</time>
      </trkpt>
      <trkpt lat="48.678947" lon="16.565913">
        <ele>343.626306</ele>
        <time>2020-08-20T07:32:25.556Z</time>
      </trkpt>
      <trkpt lat="48.678900" lon="16.566041">
        <ele>343.673640</ele>
        <time>2020-08-20T07:32:26.603Z</time>
      </trkpt>
      <trkpt lat="48.678860" lon="16.566179">
        <ele>343.722347</ele>
        <time>2020-08-20T07:32:27.568Z</time>
      </trkpt>
      <trkpt lat="48.678831" lon="16.566323">
        <ele>343.771002</ele>
        <time>2020-08-20T07:32:28.586Z</time>
      </trkpt>
      <trkpt lat="48.678806" lon="16.566467">
        <ele>343.819122</ele>
        <time>2020-08-20T07:32:29.571Z</time>
      </trkpt>
      <trkpt lat="48.678784" lon="16.566609">
        <ele>343.866261</ele>
        <time>2020-08-20T07:32:30.571Z</time>
      </trkpt>
      <trkpt lat="48.678769" lon="16.566746">
        <ele>343.911141</ele>
        <time>2020-08-20T07:32:31.554Z</time>
      </trkpt>
      <trkpt lat="48.678759" lon="16.567010">
        <ele>343.921972</ele>
        <time>2020-08-20T07:32:33.547Z</time>
      </trkpt>
      <trkpt lat="48.678772" lon="16.567254">
        <ele>343.907129</ele>
        <time>2020-08-20T07:32:35.555Z</time>
      </trkpt>
      <trkpt lat="48.678802" lon="16.567468">
        <ele>343.893864</ele>
        <time>2020-08-20T07:32:37.549Z</time>
      </trkpt>
      <trkpt lat="48.678849" lon="16.567656">
        <ele>343.881674</ele>
        <time>2020-08-20T07:32:39.569Z</time>
      </trkpt>
      <trkpt lat="48.678890" lon="16.567827">
        <ele>343.870643</ele>
        <time>2020-08-20T07:32:41.553Z</time>
      </trkpt>
      <trkpt lat="48.678931" lon="16.567991">
        <ele>343.860010</ele>
        <time>2020-08-20T07:32:43.566Z</time>
      </trkpt>
      <trkpt lat="48.678965" lon="16.568152">
        <ele>343.849761</ele>
        <time>2020-08-20T07:32:45.589Z</time>
      </trkpt>
      <trkpt lat="48.678993" lon="16.568307">
        <ele>343.840017</ele>
        <time>2020-08-20T07:32:47.554Z</time>
      </trkpt>
      <trkpt lat="48.679005" lon="16.568458">
        <ele>343.830795</ele>
        <time>2020-08-20T07:32:49.566Z</time>
      </trkpt>
      <trkpt lat="48.679019" lon="16.568604">
        <ele>343.821850</ele>
        <time>2020-08-20T07:32:51.560Z</time>
      </trkpt>
      <trkpt lat="48.679031" lon="16.568743">
        <ele>343.813350</ele>
        <time>2020-08-20T07:32:53.565Z</time>
      </trkpt>
      <trkpt lat="48.679032" lon="16.568946">
        <ele>343.801041</ele>
        <time>2020-08-20T07:32:56.549Z</time>
      </trkpt>
      <trkpt lat="48.679030" lon="16.569140">
        <ele>343.789276</ele>
        <time>2020-08-20T07:32:59.568Z</time>
      </trkpt>
      <trkpt lat="48.679010" lon="16.569324">
        <ele>343.777969</ele>
        <time>2020-08-20T07:33:02.586Z</time>
      </trkpt>
      <trkpt lat="48.678964" lon="16.569503">
        <ele>343.697152</ele>
        <time>2020-08-20T07:33:05.573Z</time>
      </trkpt>
      <trkpt lat="48.678923" lon="16.569640">
        <ele>343.409604</ele>
        <time>2020-08-20T07:33:07.557Z</time>
      </trkpt>
      <trkpt lat="48.678867" lon="16.569840">
        <ele>342.994308</ele>
        <time>2020-08-20T07:33:09.568Z</time>
      </trkpt>
      <trkpt lat="48.678799" lon="16.570073">
        <ele>342.507312</ele>
        <time>2020-08-20T07:33:11.571Z</time>
      </trkpt>
      <trkpt lat="48.678656" lon="16.570215">
        <ele>342.012228</ele>
        <time>2020-08-20T07:33:13.564Z</time>
      </trkpt>
      <trkpt lat="48.678565" lon="16.570243">
        <ele>341.743374</ele>
        <time>2020-08-20T07:33:14.549Z</time>
      </trkpt>
      <trkpt lat="48.678469" lon="16.570270">
        <ele>341.460675</ele>
        <time>2020-08-20T07:33:15.583Z</time>
      </trkpt>
      <trkpt lat="48.678368" lon="16.570294">
        <ele>341.164674</ele>
        <time>2020-08-20T07:33:16.558Z</time>
      </trkpt>
      <trkpt lat="48.678259" lon="16.570313">
        <ele>340.847004</ele>
        <time>2020-08-20T07:33:17.565Z</time>
      </trkpt>
      <trkpt lat="48.678150" lon="16.570350">
        <ele>340.523588</ele>
        <time>2020-08-20T07:33:18.558Z</time>
      </trkpt>
      <trkpt lat="48.678038" lon="16.570388">
        <ele>340.191279</ele>
        <time>2020-08-20T07:33:19.563Z</time>
      </trkpt>
      <trkpt lat="48.677930" lon="16.570422">
        <ele>339.871904</ele>
        <time>2020-08-20T07:33:20.586Z</time>
      </trkpt>
      <trkpt lat="48.677837" lon="16.570455">
        <ele>339.595350</ele>
        <time>2020-08-20T07:33:21.574Z</time>
      </trkpt>
      <trkpt lat="48.677705" lon="16.570503">
        <ele>339.202311</ele>
        <time>2020-08-20T07:33:23.559Z</time>
      </trkpt>
      <trkpt lat="48.677601" lon="16.570586">
        <ele>338.861951</ele>
        <time>2020-08-20T07:33:26.548Z</time>
      </trkpt>
      <trkpt lat="48.677489" lon="16.570805">
        <ele>338.339485</ele>
        <time>2020-08-20T07:34:15.574Z</time>
      </trkpt>
      <trkpt lat="48.677434" lon="16.570993">
        <ele>337.958585</ele>
        <time>2020-08-20T07:34:18.556Z</time>
      </trkpt>
      <trkpt lat="48.677379" lon="16.571149">
        <ele>337.630998</ele>
        <time>2020-08-20T07:34:20.557Z</time>
      </trkpt>
      <trkpt lat="48.677300" lon="16.571327">
        <ele>337.233710</ele>
        <time>2020-08-20T07:34:22.568Z</time>
      </trkpt>
      <trkpt lat="48.677208" lon="16.571544">
        <ele>336.756014</ele>
        <time>2020-08-20T07:34:24.585Z</time>
      </trkpt>
      <trkpt lat="48.677164" lon="16.571669">
        <ele>336.493617</ele>
        <time>2020-08-20T07:34:25.573Z</time>
      </trkpt>
      <trkpt lat="48.677130" lon="16.571804">
        <ele>336.225969</ele>
        <time>2020-08-20T07:34:26.589Z</time>
      </trkpt>
      <trkpt lat="48.677094" lon="16.571940">
        <ele>335.954553</ele>
        <time>2020-08-20T07:34:27.595Z</time>
      </trkpt>
      <trkpt lat="48.677056" lon="16.572073">
        <ele>335.686108</ele>
        <time>2020-08-20T07:34:28.578Z</time>
      </trkpt>
      <trkpt lat="48.677013" lon="16.572203">
        <ele>335.416770</ele>
        <time>2020-08-20T07:34:29.564Z</time>
      </trkpt>
      <trkpt lat="48.676972" lon="16.572337">
        <ele>335.143193</ele>
        <time>2020-08-20T07:34:30.559Z</time>
      </trkpt>
      <trkpt lat="48.676931" lon="16.572467">
        <ele>334.876321</ele>
        <time>2020-08-20T07:34:31.574Z</time>
      </trkpt>
      <trkpt lat="48.676880" lon="16.572591">
        <ele>334.605707</ele>
        <time>2020-08-20T07:34:32.577Z</time>
      </trkpt>
      <trkpt lat="48.676824" lon="16.572711">
        <ele>334.333505</ele>
        <time>2020-08-20T07:34:33.586Z</time>
      </trkpt>
      <trkpt lat="48.676768" lon="16.572826">
        <ele>334.068813</ele>
        <time>2020-08-20T07:34:34.555Z</time>
      </trkpt>
      <trkpt lat="48.676715" lon="16.572941">
        <ele>333.809028</ele>
        <time>2020-08-20T07:34:35.585Z</time>
      </trkpt>
      <trkpt lat="48.676651" lon="16.573050">
        <ele>333.538832</ele>
        <time>2020-08-20T07:34:36.553Z</time>
      </trkpt>
      <trkpt lat="48.676598" lon="16.573174">
        <ele>333.257849</ele>
        <time>2020-08-20T07:34:37.568Z</time>
      </trkpt>
      <trkpt lat="48.676549" lon="16.573302">
        <ele>332.975700</ele>
        <time>2020-08-20T07:34:38.596Z</time>
      </trkpt>
      <trkpt lat="48.676499" lon="16.573427">
        <ele>332.697001</ele>
        <time>2020-08-20T07:34:39.566Z</time>
      </trkpt>
      <trkpt lat="48.676444" lon="16.573553">
        <ele>332.408964</ele>
        <time>2020-08-20T07:34:40.577Z</time>
      </trkpt>
      <trkpt lat="48.676382" lon="16.573678">
        <ele>332.110830</ele>
        <time>2020-08-20T07:34:41.571Z</time>
      </trkpt>
      <trkpt lat="48.676320" lon="16.573803">
        <ele>331.812697</ele>
        <time>2020-08-20T07:34:42.607Z</time>
      </trkpt>
      <trkpt lat="48.676250" lon="16.573923">
        <ele>331.507350</ele>
        <time>2020-08-20T07:34:43.591Z</time>
      </trkpt>
      <trkpt lat="48.676175" lon="16.574036">
        <ele>331.201814</ele>
        <time>2020-08-20T07:34:44.572Z</time>
      </trkpt>
      <trkpt lat="48.676100" lon="16.574149">
        <ele>330.896277</ele>
        <time>2020-08-20T07:34:45.568Z</time>
      </trkpt>
      <trkpt lat="48.676026" lon="16.574266">
        <ele>330.587318</ele>
        <time>2020-08-20T07:34:46.601Z</time>
      </trkpt>
      <trkpt lat="48.675952" lon="16.574383">
        <ele>330.278359</ele>
        <time>2020-08-20T07:34:47.589Z</time>
      </trkpt>
      <trkpt lat="48.675877" lon="16.574500">
        <ele>329.967395</ele>
        <time>2020-08-20T07:34:48.568Z</time>
      </trkpt>
      <trkpt lat="48.675800" lon="16.574621">
        <ele>329.646931</ele>
        <time>2020-08-20T07:34:49.584Z</time>
      </trkpt>
      <trkpt lat="48.675722" lon="16.574742">
        <ele>329.324457</ele>
        <time>2020-08-20T07:34:50.568Z</time>
      </trkpt>
      <trkpt lat="48.675640" lon="16.574867">
        <ele>328.988442</ele>
        <time>2020-08-20T07:34:51.574Z</time>
      </trkpt>
      <trkpt lat="48.675558" lon="16.575000">
        <ele>328.641437</ele>
        <time>2020-08-20T07:34:52.593Z</time>
      </trkpt>
      <trkpt lat="48.675479" lon="16.575144">
        <ele>328.287220</ele>
        <time>2020-08-20T07:34:53.589Z</time>
      </trkpt>
      <trkpt lat="48.675406" lon="16.575294">
        <ele>327.959435</ele>
        <time>2020-08-20T07:34:54.585Z</time>
      </trkpt>
      <trkpt lat="48.675340" lon="16.575451">
        <ele>327.632039</ele>
        <time>2020-08-20T07:34:55.568Z</time>
      </trkpt>
      <trkpt lat="48.675283" lon="16.575615">
        <ele>327.306024</ele>
        <time>2020-08-20T07:34:56.563Z</time>
      </trkpt>
      <trkpt lat="48.675229" lon="16.575780">
        <ele>326.982079</ele>
        <time>2020-08-20T07:34:57.568Z</time>
      </trkpt>
      <trkpt lat="48.675182" lon="16.575946">
        <ele>326.664357</ele>
        <time>2020-08-20T07:34:58.563Z</time>
      </trkpt>
      <trkpt lat="48.675146" lon="16.576114">
        <ele>326.353656</ele>
        <time>2020-08-20T07:34:59.584Z</time>
      </trkpt>
      <trkpt lat="48.675123" lon="16.576287">
        <ele>326.043224</ele>
        <time>2020-08-20T07:35:00.559Z</time>
      </trkpt>
      <trkpt lat="48.675103" lon="16.576460">
        <ele>325.734270</ele>
        <time>2020-08-20T07:35:01.570Z</time>
      </trkpt>
      <trkpt lat="48.675085" lon="16.576631">
        <ele>325.429665</ele>
        <time>2020-08-20T07:35:02.548Z</time>
      </trkpt>
      <trkpt lat="48.675060" lon="16.576800">
        <ele>325.125007</ele>
        <time>2020-08-20T07:35:03.572Z</time>
      </trkpt>
      <trkpt lat="48.675039" lon="16.576969">
        <ele>324.822500</ele>
        <time>2020-08-20T07:35:04.543Z</time>
      </trkpt>
      <trkpt lat="48.675019" lon="16.577138">
        <ele>324.520474</ele>
        <time>2020-08-20T07:35:05.550Z</time>
      </trkpt>
      <trkpt lat="48.675005" lon="16.577308">
        <ele>324.219108</ele>
        <time>2020-08-20T07:35:06.557Z</time>
      </trkpt>
      <trkpt lat="48.674982" lon="16.577474">
        <ele>323.920737</ele>
        <time>2020-08-20T07:35:07.562Z</time>
      </trkpt>
      <trkpt lat="48.674955" lon="16.577639">
        <ele>323.621705</ele>
        <time>2020-08-20T07:35:08.580Z</time>
      </trkpt>
      <trkpt lat="48.674922" lon="16.577803">
        <ele>323.387803</ele>
        <time>2020-08-20T07:35:09.571Z</time>
      </trkpt>
      <trkpt lat="48.674890" lon="16.577968">
        <ele>323.183305</ele>
        <time>2020-08-20T07:35:10.571Z</time>
      </trkpt>
      <trkpt lat="48.674848" lon="16.578131">
        <ele>322.975240</ele>
        <time>2020-08-20T07:35:11.584Z</time>
      </trkpt>
      <trkpt lat="48.674808" lon="16.578297">
        <ele>322.765108</ele>
        <time>2020-08-20T07:35:12.567Z</time>
      </trkpt>
      <trkpt lat="48.674773" lon="16.578466">
        <ele>322.554489</ele>
        <time>2020-08-20T07:35:13.563Z</time>
      </trkpt>
      <trkpt lat="48.674737" lon="16.578635">
        <ele>322.343324</ele>
        <time>2020-08-20T07:35:14.590Z</time>
      </trkpt>
      <trkpt lat="48.674703" lon="16.578803">
        <ele>322.134373</ele>
        <time>2020-08-20T07:35:15.552Z</time>
      </trkpt>
      <trkpt lat="48.674669" lon="16.578970">
        <ele>321.926560</ele>
        <time>2020-08-20T07:35:16.583Z</time>
      </trkpt>
      <trkpt lat="48.674635" lon="16.579135">
        <ele>321.721017</ele>
        <time>2020-08-20T07:35:17.573Z</time>
      </trkpt>
      <trkpt lat="48.674599" lon="16.579297">
        <ele>321.517758</ele>
        <time>2020-08-20T07:35:18.604Z</time>
      </trkpt>
      <trkpt lat="48.674566" lon="16.579454">
        <ele>321.321830</ele>
        <time>2020-08-20T07:35:19.545Z</time>
      </trkpt>
      <trkpt lat="48.674532" lon="16.579608">
        <ele>321.128735</ele>
        <time>2020-08-20T07:35:20.548Z</time>
      </trkpt>
      <trkpt lat="48.674500" lon="16.579760">
        <ele>320.939019</ele>
        <time>2020-08-20T07:35:21.559Z</time>
      </trkpt>
      <trkpt lat="48.674468" lon="16.579911">
        <ele>320.750435</ele>
        <time>2020-08-20T07:35:22.562Z</time>
      </trkpt>
      <trkpt lat="48.674437" lon="16.580060">
        <ele>320.564663</ele>
        <time>2020-08-20T07:35:23.548Z</time>
      </trkpt>
      <trkpt lat="48.674406" lon="16.580206">
        <ele>320.382291</ele>
        <time>2020-08-20T07:35:24.554Z</time>
      </trkpt>
      <trkpt lat="48.674369" lon="16.580350">
        <ele>320.201744</ele>
        <time>2020-08-20T07:35:25.564Z</time>
      </trkpt>
      <trkpt lat="48.674333" lon="16.580493">
        <ele>320.026122</ele>
        <time>2020-08-20T07:35:26.579Z</time>
      </trkpt>
      <trkpt lat="48.674296" lon="16.580636">
        <ele>319.849874</ele>
        <time>2020-08-20T07:35:27.582Z</time>
      </trkpt>
      <trkpt lat="48.674261" lon="16.580778">
        <ele>319.675939</ele>
        <time>2020-08-20T07:35:28.587Z</time>
      </trkpt>
      <trkpt lat="48.674229" lon="16.580920">
        <ele>319.503759</ele>
        <time>2020-08-20T07:35:29.580Z</time>
      </trkpt>
      <trkpt lat="48.674194" lon="16.581061">
        <ele>319.330898</ele>
        <time>2020-08-20T07:35:30.560Z</time>
      </trkpt>
      <trkpt lat="48.674158" lon="16.581201">
        <ele>319.158489</ele>
        <time>2020-08-20T07:35:31.565Z</time>
      </trkpt>
      <trkpt lat="48.674122" lon="16.581341">
        <ele>318.986079</ele>
        <time>2020-08-20T07:35:32.617Z</time>
      </trkpt>
      <trkpt lat="48.674087" lon="16.581479">
        <ele>318.816437</ele>
        <time>2020-08-20T07:35:33.550Z</time>
      </trkpt>
      <trkpt lat="48.674056" lon="16.581616">
        <ele>318.650247</ele>
        <time>2020-08-20T07:35:34.591Z</time>
      </trkpt>
      <trkpt lat="48.674026" lon="16.581754">
        <ele>318.483523</ele>
        <time>2020-08-20T07:35:35.560Z</time>
      </trkpt>
      <trkpt lat="48.673999" lon="16.581891">
        <ele>318.319454</ele>
        <time>2020-08-20T07:35:36.565Z</time>
      </trkpt>
      <trkpt lat="48.673980" lon="16.582028">
        <ele>318.158808</ele>
        <time>2020-08-20T07:35:37.600Z</time>
      </trkpt>
      <trkpt lat="48.673958" lon="16.582163">
        <ele>317.999239</ele>
        <time>2020-08-20T07:35:38.557Z</time>
      </trkpt>
      <trkpt lat="48.673935" lon="16.582297">
        <ele>317.840356</ele>
        <time>2020-08-20T07:35:39.583Z</time>
      </trkpt>
      <trkpt lat="48.673914" lon="16.582430">
        <ele>317.683427</ele>
        <time>2020-08-20T07:35:40.561Z</time>
      </trkpt>
      <trkpt lat="48.673865" lon="16.582688">
        <ele>317.375353</ele>
        <time>2020-08-20T07:35:42.562Z</time>
      </trkpt>
      <trkpt lat="48.673814" lon="16.582936">
        <ele>316.973908</ele>
        <time>2020-08-20T07:35:44.576Z</time>
      </trkpt>
      <trkpt lat="48.673768" lon="16.583185">
        <ele>316.324441</ele>
        <time>2020-08-20T07:35:46.578Z</time>
      </trkpt>
      <trkpt lat="48.673728" lon="16.583435">
        <ele>315.678307</ele>
        <time>2020-08-20T07:35:48.575Z</time>
      </trkpt>
      <trkpt lat="48.673678" lon="16.583681">
        <ele>315.031781</ele>
        <time>2020-08-20T07:35:50.587Z</time>
      </trkpt>
      <trkpt lat="48.673603" lon="16.583913">
        <ele>314.382944</ele>
        <time>2020-08-20T07:35:52.577Z</time>
      </trkpt>
      <trkpt lat="48.673498" lon="16.584117">
        <ele>313.733253</ele>
        <time>2020-08-20T07:35:54.558Z</time>
      </trkpt>
      <trkpt lat="48.673369" lon="16.584287">
        <ele>313.082770</ele>
        <time>2020-08-20T07:35:56.574Z</time>
      </trkpt>
      <trkpt lat="48.673243" lon="16.584464">
        <ele>312.429022</ele>
        <time>2020-08-20T07:35:58.586Z</time>
      </trkpt>
      <trkpt lat="48.673123" lon="16.584647">
        <ele>311.781212</ele>
        <time>2020-08-20T07:36:00.559Z</time>
      </trkpt>
      <trkpt lat="48.673002" lon="16.584820">
        <ele>311.148215</ele>
        <time>2020-08-20T07:36:02.567Z</time>
      </trkpt>
      <trkpt lat="48.672910" lon="16.584994">
        <ele>310.588306</ele>
        <time>2020-08-20T07:36:04.566Z</time>
      </trkpt>
      <trkpt lat="48.672825" lon="16.585161">
        <ele>310.206665</ele>
        <time>2020-08-20T07:36:06.573Z</time>
      </trkpt>
      <trkpt lat="48.672745" lon="16.585338">
        <ele>309.970167</ele>
        <time>2020-08-20T07:36:08.555Z</time>
      </trkpt>
      <trkpt lat="48.672670" lon="16.585528">
        <ele>309.726094</ele>
        <time>2020-08-20T07:36:10.568Z</time>
      </trkpt>
      <trkpt lat="48.672608" lon="16.585738">
        <ele>309.472456</ele>
        <time>2020-08-20T07:36:12.571Z</time>
      </trkpt>
      <trkpt lat="48.672546" lon="16.585955">
        <ele>309.211753</ele>
        <time>2020-08-20T07:36:14.559Z</time>
      </trkpt>
      <trkpt lat="48.672476" lon="16.586170">
        <ele>308.947442</ele>
        <time>2020-08-20T07:36:16.579Z</time>
      </trkpt>
      <trkpt lat="48.672405" lon="16.586382">
        <ele>308.685343</ele>
        <time>2020-08-20T07:36:18.575Z</time>
      </trkpt>
      <trkpt lat="48.672334" lon="16.586599">
        <ele>308.418315</ele>
        <time>2020-08-20T07:36:20.613Z</time>
      </trkpt>
      <trkpt lat="48.672257" lon="16.586821">
        <ele>308.141821</ele>
        <time>2020-08-20T07:36:22.569Z</time>
      </trkpt>
      <trkpt lat="48.672179" lon="16.587045">
        <ele>307.862599</ele>
        <time>2020-08-20T07:36:24.582Z</time>
      </trkpt>
      <trkpt lat="48.672086" lon="16.587259">
        <ele>307.580125</ele>
        <time>2020-08-20T07:36:26.589Z</time>
      </trkpt>
      <trkpt lat="48.671988" lon="16.587472">
        <ele>307.302416</ele>
        <time>2020-08-20T07:36:28.565Z</time>
      </trkpt>
      <trkpt lat="48.671893" lon="16.587687">
        <ele>307.113252</ele>
        <time>2020-08-20T07:36:30.567Z</time>
      </trkpt>
      <trkpt lat="48.671795" lon="16.587900">
        <ele>306.923423</ele>
        <time>2020-08-20T07:36:32.556Z</time>
      </trkpt>
      <trkpt lat="48.671688" lon="16.588097">
        <ele>306.736902</ele>
        <time>2020-08-20T07:36:34.553Z</time>
      </trkpt>
      <trkpt lat="48.671580" lon="16.588295">
        <ele>306.549113</ele>
        <time>2020-08-20T07:36:36.557Z</time>
      </trkpt>
      <trkpt lat="48.671460" lon="16.588479">
        <ele>306.360010</ele>
        <time>2020-08-20T07:36:38.570Z</time>
      </trkpt>
      <trkpt lat="48.671350" lon="16.588682">
        <ele>306.167991</ele>
        <time>2020-08-20T07:36:40.562Z</time>
      </trkpt>
      <trkpt lat="48.671240" lon="16.588882">
        <ele>305.977661</ele>
        <time>2020-08-20T07:36:42.564Z</time>
      </trkpt>
      <trkpt lat="48.671128" lon="16.589068">
        <ele>305.793596</ele>
        <time>2020-08-20T07:36:44.574Z</time>
      </trkpt>
      <trkpt lat="48.671008" lon="16.589240">
        <ele>305.610631</ele>
        <time>2020-08-20T07:36:46.576Z</time>
      </trkpt>
      <trkpt lat="48.670879" lon="16.589393">
        <ele>305.429188</ele>
        <time>2020-08-20T07:36:48.594Z</time>
      </trkpt>
      <trkpt lat="48.670755" lon="16.589545">
        <ele>304.892267</ele>
        <time>2020-08-20T07:36:50.562Z</time>
      </trkpt>
      <trkpt lat="48.670632" lon="16.589694">
        <ele>303.880273</ele>
        <time>2020-08-20T07:36:52.561Z</time>
      </trkpt>
      <trkpt lat="48.670510" lon="16.589844">
        <ele>302.870617</ele>
        <time>2020-08-20T07:36:54.559Z</time>
      </trkpt>
      <trkpt lat="48.670394" lon="16.589997">
        <ele>301.882272</ele>
        <time>2020-08-20T07:36:56.567Z</time>
      </trkpt>
      <trkpt lat="48.670269" lon="16.590096">
        <ele>300.975965</ele>
        <time>2020-08-20T07:36:58.589Z</time>
      </trkpt>
      <trkpt lat="48.670139" lon="16.590084">
        <ele>300.139199</ele>
        <time>2020-08-20T07:37:00.564Z</time>
      </trkpt>
      <trkpt lat="48.670011" lon="16.589996">
        <ele>299.236041</ele>
        <time>2020-08-20T07:37:02.563Z</time>
      </trkpt>
      <trkpt lat="48.669872" lon="16.589995">
        <ele>298.342992</ele>
        <time>2020-08-20T07:37:04.567Z</time>
      </trkpt>
      <trkpt lat="48.669749" lon="16.590033">
        <ele>297.536470</ele>
        <time>2020-08-20T07:37:06.562Z</time>
      </trkpt>
      <trkpt lat="48.669480" lon="16.590108">
        <ele>295.779163</ele>
        <time>2020-08-20T07:37:42.557Z</time>
      </trkpt>
      <trkpt lat="48.669349" lon="16.590157">
        <ele>294.912224</ele>
        <time>2020-08-20T07:37:45.563Z</time>
      </trkpt>
      <trkpt lat="48.669249" lon="16.590200">
        <ele>294.244347</ele>
        <time>2020-08-20T07:37:47.563Z</time>
      </trkpt>
      <trkpt lat="48.669144" lon="16.590247">
        <ele>293.589538</ele>
        <time>2020-08-20T07:37:49.586Z</time>
      </trkpt>
      <trkpt lat="48.669033" lon="16.590297">
        <ele>293.002294</ele>
        <time>2020-08-20T07:37:51.590Z</time>
      </trkpt>
      <trkpt lat="48.668920" lon="16.590340">
        <ele>292.411468</ele>
        <time>2020-08-20T07:37:53.605Z</time>
      </trkpt>
      <trkpt lat="48.668799" lon="16.590391">
        <ele>291.774566</ele>
        <time>2020-08-20T07:37:55.595Z</time>
      </trkpt>
      <trkpt lat="48.668673" lon="16.590442">
        <ele>291.113203</ele>
        <time>2020-08-20T07:37:57.569Z</time>
      </trkpt>
      <trkpt lat="48.668548" lon="16.590496">
        <ele>290.454052</ele>
        <time>2020-08-20T07:37:59.554Z</time>
      </trkpt>
      <trkpt lat="48.668435" lon="16.590546">
        <ele>289.857080</ele>
        <time>2020-08-20T07:38:01.555Z</time>
      </trkpt>
      <trkpt lat="48.668328" lon="16.590588">
        <ele>289.296563</ele>
        <time>2020-08-20T07:38:03.610Z</time>
      </trkpt>
      <trkpt lat="48.668219" lon="16.590655">
        <ele>288.700032</ele>
        <time>2020-08-20T07:38:05.596Z</time>
      </trkpt>
      <trkpt lat="48.668104" lon="16.590740">
        <ele>288.051115</ele>
        <time>2020-08-20T07:38:07.575Z</time>
      </trkpt>
      <trkpt lat="48.667988" lon="16.590855">
        <ele>287.348032</ele>
        <time>2020-08-20T07:38:09.601Z</time>
      </trkpt>
      <trkpt lat="48.667871" lon="16.590976">
        <ele>286.629564</ele>
        <time>2020-08-20T07:38:11.562Z</time>
      </trkpt>
      <trkpt lat="48.667746" lon="16.591083">
        <ele>285.901429</ele>
        <time>2020-08-20T07:38:13.569Z</time>
      </trkpt>
      <trkpt lat="48.667610" lon="16.591152">
        <ele>285.174107</ele>
        <time>2020-08-20T07:38:15.571Z</time>
      </trkpt>
      <trkpt lat="48.667462" lon="16.591186">
        <ele>284.537973</ele>
        <time>2020-08-20T07:38:17.582Z</time>
      </trkpt>
      <trkpt lat="48.667310" lon="16.591198">
        <ele>284.168191</ele>
        <time>2020-08-20T07:38:19.572Z</time>
      </trkpt>
      <trkpt lat="48.667161" lon="16.591210">
        <ele>283.805687</ele>
        <time>2020-08-20T07:38:21.583Z</time>
      </trkpt>
      <trkpt lat="48.667016" lon="16.591206">
        <ele>283.453355</ele>
        <time>2020-08-20T07:38:23.577Z</time>
      </trkpt>
      <trkpt lat="48.666875" lon="16.591172">
        <ele>283.106482</ele>
        <time>2020-08-20T07:38:25.580Z</time>
      </trkpt>
      <trkpt lat="48.666748" lon="16.591136">
        <ele>282.792578</ele>
        <time>2020-08-20T07:38:27.568Z</time>
      </trkpt>
      <trkpt lat="48.666639" lon="16.591180">
        <ele>282.518516</ele>
        <time>2020-08-20T07:38:29.572Z</time>
      </trkpt>
      <trkpt lat="48.666592" lon="16.591360">
        <ele>282.207950</ele>
        <time>2020-08-20T07:38:31.565Z</time>
      </trkpt>
      <trkpt lat="48.666551" lon="16.591563">
        <ele>281.867341</ele>
        <time>2020-08-20T07:38:33.569Z</time>
      </trkpt>
      <trkpt lat="48.666492" lon="16.591753">
        <ele>281.530465</ele>
        <time>2020-08-20T07:38:35.569Z</time>
      </trkpt>
      <trkpt lat="48.666437" lon="16.591944">
        <ele>281.196137</ele>
        <time>2020-08-20T07:38:37.569Z</time>
      </trkpt>
      <trkpt lat="48.666385" lon="16.592139">
        <ele>280.858712</ele>
        <time>2020-08-20T07:38:39.591Z</time>
      </trkpt>
      <trkpt lat="48.666340" lon="16.592338">
        <ele>280.521213</ele>
        <time>2020-08-20T07:38:41.573Z</time>
      </trkpt>
      <trkpt lat="48.666302" lon="16.592532">
        <ele>280.198722</ele>
        <time>2020-08-20T07:38:43.584Z</time>
      </trkpt>
      <trkpt lat="48.666278" lon="16.592729">
        <ele>279.885601</ele>
        <time>2020-08-20T07:38:45.564Z</time>
      </trkpt>
      <trkpt lat="48.666256" lon="16.592919">
        <ele>279.584086</ele>
        <time>2020-08-20T07:38:47.572Z</time>
      </trkpt>
      <trkpt lat="48.666242" lon="16.593104">
        <ele>279.293023</ele>
        <time>2020-08-20T07:38:49.588Z</time>
      </trkpt>
      <trkpt lat="48.666236" lon="16.593288">
        <ele>279.005066</ele>
        <time>2020-08-20T07:38:51.575Z</time>
      </trkpt>
      <trkpt lat="48.666226" lon="16.593474">
        <ele>278.713371</ele>
        <time>2020-08-20T07:38:53.582Z</time>
      </trkpt>
      <trkpt lat="48.666220" lon="16.593659">
        <ele>278.423852</ele>
        <time>2020-08-20T07:38:55.570Z</time>
      </trkpt>
      <trkpt lat="48.666214" lon="16.593847">
        <ele>278.129650</ele>
        <time>2020-08-20T07:38:57.551Z</time>
      </trkpt>
      <trkpt lat="48.666207" lon="16.594035">
        <ele>277.835324</ele>
        <time>2020-08-20T07:38:59.560Z</time>
      </trkpt>
      <trkpt lat="48.666201" lon="16.594223">
        <ele>277.541122</ele>
        <time>2020-08-20T07:39:01.576Z</time>
      </trkpt>
      <trkpt lat="48.666196" lon="16.594413">
        <ele>277.243900</ele>
        <time>2020-08-20T07:39:03.612Z</time>
      </trkpt>
      <trkpt lat="48.666194" lon="16.594603">
        <ele>276.946877</ele>
        <time>2020-08-20T07:39:05.567Z</time>
      </trkpt>
      <trkpt lat="48.666191" lon="16.594789">
        <ele>276.656057</ele>
        <time>2020-08-20T07:39:07.585Z</time>
      </trkpt>
      <trkpt lat="48.666187" lon="16.594973">
        <ele>276.368293</ele>
        <time>2020-08-20T07:39:09.571Z</time>
      </trkpt>
      <trkpt lat="48.666179" lon="16.595156">
        <ele>276.081623</ele>
        <time>2020-08-20T07:39:11.558Z</time>
      </trkpt>
      <trkpt lat="48.666169" lon="16.595337">
        <ele>275.871863</ele>
        <time>2020-08-20T07:39:13.582Z</time>
      </trkpt>
      <trkpt lat="48.666164" lon="16.595511">
        <ele>275.688665</ele>
        <time>2020-08-20T07:39:15.561Z</time>
      </trkpt>
      <trkpt lat="48.666162" lon="16.595687">
        <ele>275.503510</ele>
        <time>2020-08-20T07:39:17.559Z</time>
      </trkpt>
      <trkpt lat="48.666160" lon="16.595865">
        <ele>275.316251</ele>
        <time>2020-08-20T07:39:19.549Z</time>
      </trkpt>
      <trkpt lat="48.666154" lon="16.596035">
        <ele>275.137179</ele>
        <time>2020-08-20T07:39:21.560Z</time>
      </trkpt>
      <trkpt lat="48.666147" lon="16.596206">
        <ele>274.956965</ele>
        <time>2020-08-20T07:39:23.570Z</time>
      </trkpt>
      <trkpt lat="48.666142" lon="16.596376">
        <ele>274.777970</ele>
        <time>2020-08-20T07:39:25.575Z</time>
      </trkpt>
      <trkpt lat="48.666137" lon="16.596544">
        <ele>274.601078</ele>
        <time>2020-08-20T07:39:27.575Z</time>
      </trkpt>
      <trkpt lat="48.666134" lon="16.596709">
        <ele>274.427454</ele>
        <time>2020-08-20T07:39:29.574Z</time>
      </trkpt>
      <trkpt lat="48.666135" lon="16.596879">
        <ele>274.248630</ele>
        <time>2020-08-20T07:39:31.569Z</time>
      </trkpt>
      <trkpt lat="48.666139" lon="16.597052">
        <ele>274.066546</ele>
        <time>2020-08-20T07:39:33.574Z</time>
      </trkpt>
      <trkpt lat="48.666145" lon="16.597232">
        <ele>273.876970</ele>
        <time>2020-08-20T07:39:35.572Z</time>
      </trkpt>
      <trkpt lat="48.666148" lon="16.597418">
        <ele>273.681264</ele>
        <time>2020-08-20T07:39:37.583Z</time>
      </trkpt>
      <trkpt lat="48.666156" lon="16.597603">
        <ele>273.486253</ele>
        <time>2020-08-20T07:39:39.572Z</time>
      </trkpt>
      <trkpt lat="48.666164" lon="16.597781">
        <ele>273.298588</ele>
        <time>2020-08-20T07:39:41.576Z</time>
      </trkpt>
      <trkpt lat="48.666172" lon="16.597958">
        <ele>273.124378</ele>
        <time>2020-08-20T07:39:43.582Z</time>
      </trkpt>
      <trkpt lat="48.666179" lon="16.598136">
        <ele>272.985469</ele>
        <time>2020-08-20T07:39:45.578Z</time>
      </trkpt>
      <trkpt lat="48.666185" lon="16.598305">
        <ele>272.853627</ele>
        <time>2020-08-20T07:39:47.588Z</time>
      </trkpt>
      <trkpt lat="48.666188" lon="16.598478">
        <ele>272.718813</ele>
        <time>2020-08-20T07:39:49.568Z</time>
      </trkpt>
      <trkpt lat="48.666190" lon="16.598658">
        <ele>272.578572</ele>
        <time>2020-08-20T07:39:51.558Z</time>
      </trkpt>
      <trkpt lat="48.666191" lon="16.598834">
        <ele>272.441462</ele>
        <time>2020-08-20T07:39:53.611Z</time>
      </trkpt>
      <trkpt lat="48.666197" lon="16.599018">
        <ele>272.297950</ele>
        <time>2020-08-20T07:39:55.556Z</time>
      </trkpt>
      <trkpt lat="48.666204" lon="16.599204">
        <ele>272.152820</ele>
        <time>2020-08-20T07:39:57.568Z</time>
      </trkpt>
      <trkpt lat="48.666211" lon="16.599392">
        <ele>272.006134</ele>
        <time>2020-08-20T07:39:59.570Z</time>
      </trkpt>
      <trkpt lat="48.666221" lon="16.599581">
        <ele>271.858430</ele>
        <time>2020-08-20T07:40:01.566Z</time>
      </trkpt>
      <trkpt lat="48.666233" lon="16.599776">
        <ele>271.705866</ele>
        <time>2020-08-20T07:40:03.578Z</time>
      </trkpt>
      <trkpt lat="48.666241" lon="16.599973">
        <ele>271.552113</ele>
        <time>2020-08-20T07:40:05.552Z</time>
      </trkpt>
      <trkpt lat="48.666239" lon="16.600169">
        <ele>271.399409</ele>
        <time>2020-08-20T07:40:07.562Z</time>
      </trkpt>
      <trkpt lat="48.666241" lon="16.600363">
        <ele>271.248264</ele>
        <time>2020-08-20T07:40:09.594Z</time>
      </trkpt>
      <trkpt lat="48.666275" lon="16.600544">
        <ele>271.101672</ele>
        <time>2020-08-20T07:40:11.567Z</time>
      </trkpt>
      <trkpt lat="48.666347" lon="16.600708">
        <ele>270.989929</ele>
        <time>2020-08-20T07:40:13.586Z</time>
      </trkpt>
      <trkpt lat="48.666407" lon="16.600881">
        <ele>270.908178</ele>
        <time>2020-08-20T07:40:15.564Z</time>
      </trkpt>
      <trkpt lat="48.666482" lon="16.601036">
        <ele>270.827790</ele>
        <time>2020-08-20T07:40:17.556Z</time>
      </trkpt>
      <trkpt lat="48.666555" lon="16.601195">
        <ele>270.746775</ele>
        <time>2020-08-20T07:40:19.548Z</time>
      </trkpt>
      <trkpt lat="48.666626" lon="16.601360">
        <ele>270.664385</ele>
        <time>2020-08-20T07:40:21.581Z</time>
      </trkpt>
      <trkpt lat="48.666699" lon="16.601526">
        <ele>270.580949</ele>
        <time>2020-08-20T07:40:23.583Z</time>
      </trkpt>
      <trkpt lat="48.666773" lon="16.601685">
        <ele>270.499571</ele>
        <time>2020-08-20T07:40:25.577Z</time>
      </trkpt>
      <trkpt lat="48.666844" lon="16.601844">
        <ele>270.419272</ele>
        <time>2020-08-20T07:40:27.586Z</time>
      </trkpt>
      <trkpt lat="48.666915" lon="16.601997">
        <ele>270.341041</ele>
        <time>2020-08-20T07:40:29.569Z</time>
      </trkpt>
      <trkpt lat="48.666982" lon="16.602148">
        <ele>270.264935</ele>
        <time>2020-08-20T07:40:31.601Z</time>
      </trkpt>
      <trkpt lat="48.667046" lon="16.602296">
        <ele>270.190925</ele>
        <time>2020-08-20T07:40:33.558Z</time>
      </trkpt>
      <trkpt lat="48.667104" lon="16.602440">
        <ele>270.120360</ele>
        <time>2020-08-20T07:40:35.557Z</time>
      </trkpt>
      <trkpt lat="48.667155" lon="16.602584">
        <ele>270.052000</ele>
        <time>2020-08-20T07:40:37.581Z</time>
      </trkpt>
      <trkpt lat="48.667199" lon="16.602722">
        <ele>269.987890</ele>
        <time>2020-08-20T07:40:39.557Z</time>
      </trkpt>
      <trkpt lat="48.667235" lon="16.602855">
        <ele>269.927756</ele>
        <time>2020-08-20T07:40:41.583Z</time>
      </trkpt>
      <trkpt lat="48.667285" lon="16.603041">
        <ele>269.825623</ele>
        <time>2020-08-20T07:40:44.589Z</time>
      </trkpt>
      <trkpt lat="48.667335" lon="16.603224">
        <ele>269.715546</ele>
        <time>2020-08-20T07:40:47.552Z</time>
      </trkpt>
      <trkpt lat="48.667388" lon="16.603413">
        <ele>269.601417</ele>
        <time>2020-08-20T07:40:50.551Z</time>
      </trkpt>
      <trkpt lat="48.667418" lon="16.603546">
        <ele>269.523299</ele>
        <time>2020-08-20T07:40:52.573Z</time>
      </trkpt>
      <trkpt lat="48.667451" lon="16.603678">
        <ele>269.444849</ele>
        <time>2020-08-20T07:40:54.588Z</time>
      </trkpt>
      <trkpt lat="48.667483" lon="16.603811">
        <ele>269.366172</ele>
        <time>2020-08-20T07:40:56.568Z</time>
      </trkpt>
      <trkpt lat="48.667520" lon="16.603940">
        <ele>269.288000</ele>
        <time>2020-08-20T07:40:58.572Z</time>
      </trkpt>
      <trkpt lat="48.667566" lon="16.604079">
        <ele>269.201583</ele>
        <time>2020-08-20T07:41:00.558Z</time>
      </trkpt>
      <trkpt lat="48.667597" lon="16.604229">
        <ele>269.114223</ele>
        <time>2020-08-20T07:41:02.556Z</time>
      </trkpt>
      <trkpt lat="48.667630" lon="16.604392">
        <ele>269.019462</ele>
        <time>2020-08-20T07:41:04.569Z</time>
      </trkpt>
      <trkpt lat="48.667665" lon="16.604565">
        <ele>268.918894</ele>
        <time>2020-08-20T07:41:06.571Z</time>
      </trkpt>
      <trkpt lat="48.667703" lon="16.604746">
        <ele>268.813329</ele>
        <time>2020-08-20T07:41:08.565Z</time>
      </trkpt>
      <trkpt lat="48.667741" lon="16.604921">
        <ele>268.710937</ele>
        <time>2020-08-20T07:41:10.565Z</time>
      </trkpt>
      <trkpt lat="48.667774" lon="16.605091">
        <ele>268.612450</ele>
        <time>2020-08-20T07:41:12.578Z</time>
      </trkpt>
      <trkpt lat="48.667809" lon="16.605253">
        <ele>268.517711</ele>
        <time>2020-08-20T07:41:14.554Z</time>
      </trkpt>
      <trkpt lat="48.667846" lon="16.605429">
        <ele>268.415050</ele>
        <time>2020-08-20T07:41:16.578Z</time>
      </trkpt>
      <trkpt lat="48.667888" lon="16.605602">
        <ele>268.317109</ele>
        <time>2020-08-20T07:41:18.557Z</time>
      </trkpt>
      <trkpt lat="48.667934" lon="16.605773">
        <ele>268.220860</ele>
        <time>2020-08-20T07:41:20.550Z</time>
      </trkpt>
      <trkpt lat="48.667967" lon="16.605922">
        <ele>268.138939</ele>
        <time>2020-08-20T07:41:22.579Z</time>
      </trkpt>
      <trkpt lat="48.668000" lon="16.606083">
        <ele>268.051066</ele>
        <time>2020-08-20T07:41:24.590Z</time>
      </trkpt>
      <trkpt lat="48.668041" lon="16.606244">
        <ele>267.961118</ele>
        <time>2020-08-20T07:41:26.558Z</time>
      </trkpt>
      <trkpt lat="48.668085" lon="16.606420">
        <ele>267.863021</ele>
        <time>2020-08-20T07:41:28.582Z</time>
      </trkpt>
      <trkpt lat="48.668138" lon="16.606599">
        <ele>267.760765</ele>
        <time>2020-08-20T07:41:30.574Z</time>
      </trkpt>
      <trkpt lat="48.668185" lon="16.606786">
        <ele>267.656466</ele>
        <time>2020-08-20T07:41:32.589Z</time>
      </trkpt>
      <trkpt lat="48.668219" lon="16.606991">
        <ele>267.546288</ele>
        <time>2020-08-20T07:41:34.569Z</time>
      </trkpt>
      <trkpt lat="48.668252" lon="16.607200">
        <ele>267.434272</ele>
        <time>2020-08-20T07:41:36.575Z</time>
      </trkpt>
      <trkpt lat="48.668276" lon="16.607411">
        <ele>267.322665</ele>
        <time>2020-08-20T07:41:38.588Z</time>
      </trkpt>
      <trkpt lat="48.668291" lon="16.607616">
        <ele>267.215151</ele>
        <time>2020-08-20T07:41:40.560Z</time>
      </trkpt>
      <trkpt lat="48.668295" lon="16.607808">
        <ele>267.115017</ele>
        <time>2020-08-20T07:41:42.565Z</time>
      </trkpt>
      <trkpt lat="48.668301" lon="16.607984">
        <ele>267.023152</ele>
        <time>2020-08-20T07:41:44.556Z</time>
      </trkpt>
      <trkpt lat="48.668293" lon="16.608152">
        <ele>266.923461</ele>
        <time>2020-08-20T07:41:46.594Z</time>
      </trkpt>
      <trkpt lat="48.668280" lon="16.608321">
        <ele>266.799728</ele>
        <time>2020-08-20T07:41:48.611Z</time>
      </trkpt>
      <trkpt lat="48.668276" lon="16.608489">
        <ele>266.677473</ele>
        <time>2020-08-20T07:41:50.565Z</time>
      </trkpt>
      <trkpt lat="48.668272" lon="16.608659">
        <ele>266.553765</ele>
        <time>2020-08-20T07:41:52.559Z</time>
      </trkpt>
      <trkpt lat="48.668272" lon="16.608835">
        <ele>266.425771</ele>
        <time>2020-08-20T07:41:54.559Z</time>
      </trkpt>
      <trkpt lat="48.668276" lon="16.609019">
        <ele>266.291888</ele>
        <time>2020-08-20T07:41:56.588Z</time>
      </trkpt>
      <trkpt lat="48.668296" lon="16.609211">
        <ele>266.150532</ele>
        <time>2020-08-20T07:41:58.601Z</time>
      </trkpt>
      <trkpt lat="48.668329" lon="16.609404">
        <ele>266.005548</ele>
        <time>2020-08-20T07:42:00.599Z</time>
      </trkpt>
      <trkpt lat="48.668373" lon="16.609596">
        <ele>265.857752</ele>
        <time>2020-08-20T07:42:02.555Z</time>
      </trkpt>
      <trkpt lat="48.668427" lon="16.609782">
        <ele>265.709993</ele>
        <time>2020-08-20T07:42:04.570Z</time>
      </trkpt>
      <trkpt lat="48.668483" lon="16.609960">
        <ele>265.566608</ele>
        <time>2020-08-20T07:42:06.552Z</time>
      </trkpt>
      <trkpt lat="48.668551" lon="16.610124">
        <ele>265.425784</ele>
        <time>2020-08-20T07:42:08.590Z</time>
      </trkpt>
      <trkpt lat="48.668598" lon="16.610304">
        <ele>265.285023</ele>
        <time>2020-08-20T07:42:10.574Z</time>
      </trkpt>
      <trkpt lat="48.668635" lon="16.610489">
        <ele>265.144451</ele>
        <time>2020-08-20T07:42:12.549Z</time>
      </trkpt>
      <trkpt lat="48.668667" lon="16.610689">
        <ele>264.994798</ele>
        <time>2020-08-20T07:42:14.567Z</time>
      </trkpt>
      <trkpt lat="48.668699" lon="16.610902">
        <ele>264.939405</ele>
        <time>2020-08-20T07:42:16.558Z</time>
      </trkpt>
      <trkpt lat="48.668725" lon="16.611132">
        <ele>264.887637</ele>
        <time>2020-08-20T07:42:18.579Z</time>
      </trkpt>
      <trkpt lat="48.668747" lon="16.611371">
        <ele>264.834101</ele>
        <time>2020-08-20T07:42:20.556Z</time>
      </trkpt>
      <trkpt lat="48.668755" lon="16.611618">
        <ele>264.779238</ele>
        <time>2020-08-20T07:42:22.559Z</time>
      </trkpt>
      <trkpt lat="48.668759" lon="16.611864">
        <ele>264.724646</ele>
        <time>2020-08-20T07:42:24.575Z</time>
      </trkpt>
      <trkpt lat="48.668763" lon="16.612107">
        <ele>264.670719</ele>
        <time>2020-08-20T07:42:26.558Z</time>
      </trkpt>
      <trkpt lat="48.668770" lon="16.612345">
        <ele>264.617866</ele>
        <time>2020-08-20T07:42:28.567Z</time>
      </trkpt>
      <trkpt lat="48.668774" lon="16.612579">
        <ele>264.565935</ele>
        <time>2020-08-20T07:42:30.561Z</time>
      </trkpt>
      <trkpt lat="48.668783" lon="16.612809">
        <ele>264.514819</ele>
        <time>2020-08-20T07:42:32.588Z</time>
      </trkpt>
      <trkpt lat="48.668795" lon="16.613035">
        <ele>264.464519</ele>
        <time>2020-08-20T07:42:34.563Z</time>
      </trkpt>
      <trkpt lat="48.668814" lon="16.613254">
        <ele>264.415516</ele>
        <time>2020-08-20T07:42:36.583Z</time>
      </trkpt>
      <trkpt lat="48.668838" lon="16.613465">
        <ele>264.362349</ele>
        <time>2020-08-20T07:42:38.567Z</time>
      </trkpt>
      <trkpt lat="48.668876" lon="16.613665">
        <ele>264.295393</ele>
        <time>2020-08-20T07:42:40.570Z</time>
      </trkpt>
      <trkpt lat="48.668912" lon="16.613863">
        <ele>264.229321</ele>
        <time>2020-08-20T07:42:42.560Z</time>
      </trkpt>
      <trkpt lat="48.668945" lon="16.614059">
        <ele>264.164245</ele>
        <time>2020-08-20T07:42:44.559Z</time>
      </trkpt>
      <trkpt lat="48.668972" lon="16.614253">
        <ele>264.100459</ele>
        <time>2020-08-20T07:42:46.556Z</time>
      </trkpt>
      <trkpt lat="48.668992" lon="16.614447">
        <ele>264.037288</ele>
        <time>2020-08-20T07:42:48.565Z</time>
      </trkpt>
      <trkpt lat="48.669014" lon="16.614639">
        <ele>263.974594</ele>
        <time>2020-08-20T07:42:50.568Z</time>
      </trkpt>
      <trkpt lat="48.669033" lon="16.614835">
        <ele>263.910859</ele>
        <time>2020-08-20T07:42:52.561Z</time>
      </trkpt>
      <trkpt lat="48.669055" lon="16.615035">
        <ele>263.845628</ele>
        <time>2020-08-20T07:42:54.579Z</time>
      </trkpt>
      <trkpt lat="48.669084" lon="16.615236">
        <ele>263.779435</ele>
        <time>2020-08-20T07:42:56.582Z</time>
      </trkpt>
      <trkpt lat="48.669112" lon="16.615440">
        <ele>263.712400</ele>
        <time>2020-08-20T07:42:58.573Z</time>
      </trkpt>
      <trkpt lat="48.669122" lon="16.615640">
        <ele>263.647871</ele>
        <time>2020-08-20T07:43:00.570Z</time>
      </trkpt>
      <trkpt lat="48.669134" lon="16.615837">
        <ele>263.584222</ele>
        <time>2020-08-20T07:43:02.554Z</time>
      </trkpt>
      <trkpt lat="48.669148" lon="16.616037">
        <ele>263.519516</ele>
        <time>2020-08-20T07:43:04.577Z</time>
      </trkpt>
      <trkpt lat="48.669146" lon="16.616237">
        <ele>263.451082</ele>
        <time>2020-08-20T07:43:06.557Z</time>
      </trkpt>
      <trkpt lat="48.669138" lon="16.616438">
        <ele>263.380923</ele>
        <time>2020-08-20T07:43:08.568Z</time>
      </trkpt>
      <trkpt lat="48.669125" lon="16.616638">
        <ele>263.310903</ele>
        <time>2020-08-20T07:43:10.563Z</time>
      </trkpt>
      <trkpt lat="48.669108" lon="16.616835">
        <ele>263.241682</ele>
        <time>2020-08-20T07:43:12.563Z</time>
      </trkpt>
      <trkpt lat="48.669094" lon="16.617031">
        <ele>263.172995</ele>
        <time>2020-08-20T07:43:14.561Z</time>
      </trkpt>
      <trkpt lat="48.669076" lon="16.617223">
        <ele>263.105428</ele>
        <time>2020-08-20T07:43:16.566Z</time>
      </trkpt>
      <trkpt lat="48.669061" lon="16.617422">
        <ele>263.035643</ele>
        <time>2020-08-20T07:43:18.566Z</time>
      </trkpt>
      <trkpt lat="48.669050" lon="16.617630">
        <ele>262.962941</ele>
        <time>2020-08-20T07:43:20.574Z</time>
      </trkpt>
      <trkpt lat="48.669040" lon="16.617850">
        <ele>262.886108</ele>
        <time>2020-08-20T07:43:22.563Z</time>
      </trkpt>
      <trkpt lat="48.669031" lon="16.618079">
        <ele>262.806180</ele>
        <time>2020-08-20T07:43:24.598Z</time>
      </trkpt>
      <trkpt lat="48.669019" lon="16.618315">
        <ele>262.723710</ele>
        <time>2020-08-20T07:43:26.571Z</time>
      </trkpt>
      <trkpt lat="48.669018" lon="16.618559">
        <ele>262.638695</ele>
        <time>2020-08-20T07:43:28.568Z</time>
      </trkpt>
      <trkpt lat="48.669021" lon="16.618793">
        <ele>262.557151</ele>
        <time>2020-08-20T07:43:30.581Z</time>
      </trkpt>
      <trkpt lat="48.669023" lon="16.619014">
        <ele>262.412105</ele>
        <time>2020-08-20T07:43:32.580Z</time>
      </trkpt>
      <trkpt lat="48.669016" lon="16.619230">
        <ele>262.268678</ele>
        <time>2020-08-20T07:43:34.554Z</time>
      </trkpt>
      <trkpt lat="48.669016" lon="16.619443">
        <ele>262.127414</ele>
        <time>2020-08-20T07:43:36.557Z</time>
      </trkpt>
      <trkpt lat="48.669008" lon="16.619653">
        <ele>261.987907</ele>
        <time>2020-08-20T07:43:38.591Z</time>
      </trkpt>
      <trkpt lat="48.669000" lon="16.619862">
        <ele>261.849063</ele>
        <time>2020-08-20T07:43:40.563Z</time>
      </trkpt>
      <trkpt lat="48.668999" lon="16.620070">
        <ele>261.711111</ele>
        <time>2020-08-20T07:43:42.588Z</time>
      </trkpt>
      <trkpt lat="48.669000" lon="16.620277">
        <ele>261.573822</ele>
        <time>2020-08-20T07:43:44.578Z</time>
      </trkpt>
      <trkpt lat="48.668989" lon="16.620485">
        <ele>261.435431</ele>
        <time>2020-08-20T07:43:46.565Z</time>
      </trkpt>
      <trkpt lat="48.668965" lon="16.620690">
        <ele>261.297353</ele>
        <time>2020-08-20T07:43:48.576Z</time>
      </trkpt>
      <trkpt lat="48.668940" lon="16.620893">
        <ele>261.160399</ele>
        <time>2020-08-20T07:43:50.562Z</time>
      </trkpt>
      <trkpt lat="48.668911" lon="16.621095">
        <ele>261.023301</ele>
        <time>2020-08-20T07:43:52.565Z</time>
      </trkpt>
      <trkpt lat="48.668880" lon="16.621301">
        <ele>260.883176</ele>
        <time>2020-08-20T07:43:54.562Z</time>
      </trkpt>
      <trkpt lat="48.668849" lon="16.621507">
        <ele>260.741716</ele>
        <time>2020-08-20T07:43:56.564Z</time>
      </trkpt>
      <trkpt lat="48.668798" lon="16.621704">
        <ele>260.570709</ele>
        <time>2020-08-20T07:43:58.568Z</time>
      </trkpt>
      <trkpt lat="48.668714" lon="16.621857">
        <ele>260.409910</ele>
        <time>2020-08-20T07:44:00.555Z</time>
      </trkpt>
      <trkpt lat="48.668581" lon="16.621945">
        <ele>260.232291</ele>
        <time>2020-08-20T07:44:02.559Z</time>
      </trkpt>
      <trkpt lat="48.668442" lon="16.622000">
        <ele>260.056478</ele>
        <time>2020-08-20T07:44:04.549Z</time>
      </trkpt>
      <trkpt lat="48.668311" lon="16.622056">
        <ele>259.889901</ele>
        <time>2020-08-20T07:44:06.559Z</time>
      </trkpt>
      <trkpt lat="48.668191" lon="16.622112">
        <ele>259.736235</ele>
        <time>2020-08-20T07:44:08.574Z</time>
      </trkpt>
      <trkpt lat="48.668079" lon="16.622181">
        <ele>259.588265</ele>
        <time>2020-08-20T07:44:10.553Z</time>
      </trkpt>
      <trkpt lat="48.667986" lon="16.622250">
        <ele>259.461528</ele>
        <time>2020-08-20T07:44:12.552Z</time>
      </trkpt>
      <trkpt lat="48.667902" lon="16.622309">
        <ele>259.348212</ele>
        <time>2020-08-20T07:44:16.570Z</time>
      </trkpt>
      <trkpt lat="48.667899" lon="16.622492">
        <ele>259.200267</ele>
        <time>2020-08-20T07:44:23.575Z</time>
      </trkpt>
      <trkpt lat="48.667938" lon="16.622614">
        <ele>259.090724</ele>
        <time>2020-08-20T07:44:25.570Z</time>
      </trkpt>
      <trkpt lat="48.667981" lon="16.622754">
        <ele>258.965940</ele>
        <time>2020-08-20T07:44:27.567Z</time>
      </trkpt>
      <trkpt lat="48.668001" lon="16.622922">
        <ele>258.827976</ele>
        <time>2020-08-20T07:44:29.560Z</time>
      </trkpt>
      <trkpt lat="48.668010" lon="16.623095">
        <ele>258.687726</ele>
        <time>2020-08-20T07:44:31.555Z</time>
      </trkpt>
      <trkpt lat="48.668004" lon="16.623267">
        <ele>258.548523</ele>
        <time>2020-08-20T07:44:33.551Z</time>
      </trkpt>
      <trkpt lat="48.667984" lon="16.623435">
        <ele>258.559306</ele>
        <time>2020-08-20T07:44:35.547Z</time>
      </trkpt>
      <trkpt lat="48.667975" lon="16.623611">
        <ele>258.570960</ele>
        <time>2020-08-20T07:44:37.564Z</time>
      </trkpt>
      <trkpt lat="48.667962" lon="16.623784">
        <ele>258.582455</ele>
        <time>2020-08-20T07:44:39.555Z</time>
      </trkpt>
      <trkpt lat="48.667952" lon="16.623950">
        <ele>258.593459</ele>
        <time>2020-08-20T07:44:41.589Z</time>
      </trkpt>
      <trkpt lat="48.667954" lon="16.624120">
        <ele>258.604684</ele>
        <time>2020-08-20T07:44:43.574Z</time>
      </trkpt>
      <trkpt lat="48.667961" lon="16.624293">
        <ele>258.616127</ele>
        <time>2020-08-20T07:44:45.576Z</time>
      </trkpt>
      <trkpt lat="48.667967" lon="16.624460">
        <ele>258.627168</ele>
        <time>2020-08-20T07:44:47.575Z</time>
      </trkpt>
      <trkpt lat="48.667977" lon="16.624624">
        <ele>258.638041</ele>
        <time>2020-08-20T07:44:49.560Z</time>
      </trkpt>
      <trkpt lat="48.667988" lon="16.624777">
        <ele>258.648202</ele>
        <time>2020-08-20T07:44:51.567Z</time>
      </trkpt>
      <trkpt lat="48.668003" lon="16.624920">
        <ele>258.657760</ele>
        <time>2020-08-20T07:44:53.572Z</time>
      </trkpt>
      <trkpt lat="48.668016" lon="16.625056">
        <ele>258.666832</ele>
        <time>2020-08-20T07:44:55.560Z</time>
      </trkpt>
      <trkpt lat="48.668028" lon="16.625202">
        <ele>258.676546</ele>
        <time>2020-08-20T07:44:57.567Z</time>
      </trkpt>
      <trkpt lat="48.668046" lon="16.625349">
        <ele>258.686416</ele>
        <time>2020-08-20T07:44:59.572Z</time>
      </trkpt>
      <trkpt lat="48.668075" lon="16.625489">
        <ele>258.696102</ele>
        <time>2020-08-20T07:45:01.600Z</time>
      </trkpt>
      <trkpt lat="48.668122" lon="16.625618">
        <ele>258.705828</ele>
        <time>2020-08-20T07:45:03.589Z</time>
      </trkpt>
      <trkpt lat="48.668167" lon="16.625746">
        <ele>258.715401</ele>
        <time>2020-08-20T07:45:05.571Z</time>
      </trkpt>
      <trkpt lat="48.668207" lon="16.625879">
        <ele>258.725049</ele>
        <time>2020-08-20T07:45:07.553Z</time>
      </trkpt>
      <trkpt lat="48.668258" lon="16.626003">
        <ele>258.660071</ele>
        <time>2020-08-20T07:45:09.585Z</time>
      </trkpt>
      <trkpt lat="48.668304" lon="16.626135">
        <ele>258.562136</ele>
        <time>2020-08-20T07:45:11.566Z</time>
      </trkpt>
      <trkpt lat="48.668347" lon="16.626258">
        <ele>258.470816</ele>
        <time>2020-08-20T07:45:13.579Z</time>
      </trkpt>
      <trkpt lat="48.668381" lon="16.626386">
        <ele>258.380285</ele>
        <time>2020-08-20T07:45:15.583Z</time>
      </trkpt>
      <trkpt lat="48.668396" lon="16.626522">
        <ele>258.289809</ele>
        <time>2020-08-20T07:45:17.561Z</time>
      </trkpt>
      <trkpt lat="48.668410" lon="16.626718">
        <ele>258.160448</ele>
        <time>2020-08-20T07:45:20.567Z</time>
      </trkpt>
      <trkpt lat="48.668409" lon="16.626861">
        <ele>258.066609</ele>
        <time>2020-08-20T07:45:22.600Z</time>
      </trkpt>
      <trkpt lat="48.668409" lon="16.627001">
        <ele>257.974744</ele>
        <time>2020-08-20T07:45:24.556Z</time>
      </trkpt>
      <trkpt lat="48.668407" lon="16.627140">
        <ele>257.883513</ele>
        <time>2020-08-20T07:45:26.575Z</time>
      </trkpt>
      <trkpt lat="48.668411" lon="16.627278">
        <ele>257.792873</ele>
        <time>2020-08-20T07:45:28.569Z</time>
      </trkpt>
      <trkpt lat="48.668415" lon="16.627428">
        <ele>257.694366</ele>
        <time>2020-08-20T07:45:30.555Z</time>
      </trkpt>
      <trkpt lat="48.668410" lon="16.627583">
        <ele>257.592537</ele>
        <time>2020-08-20T07:45:32.563Z</time>
      </trkpt>
      <trkpt lat="48.668410" lon="16.627734">
        <ele>257.493454</ele>
        <time>2020-08-20T07:45:34.564Z</time>
      </trkpt>
      <trkpt lat="48.668410" lon="16.627877">
        <ele>257.399621</ele>
        <time>2020-08-20T07:45:36.555Z</time>
      </trkpt>
      <trkpt lat="48.668412" lon="16.628025">
        <ele>257.302486</ele>
        <time>2020-08-20T07:45:38.555Z</time>
      </trkpt>
      <trkpt lat="48.668419" lon="16.628172">
        <ele>257.205777</ele>
        <time>2020-08-20T07:45:40.589Z</time>
      </trkpt>
      <trkpt lat="48.668440" lon="16.628320">
        <ele>257.106446</ele>
        <time>2020-08-20T07:45:42.555Z</time>
      </trkpt>
      <trkpt lat="48.668464" lon="16.628460">
        <ele>257.011537</ele>
        <time>2020-08-20T07:45:44.564Z</time>
      </trkpt>
      <trkpt lat="48.668486" lon="16.628602">
        <ele>256.916279</ele>
        <time>2020-08-20T07:45:46.595Z</time>
      </trkpt>
      <trkpt lat="48.668502" lon="16.628744">
        <ele>256.823456</ele>
        <time>2020-08-20T07:45:48.576Z</time>
      </trkpt>
      <trkpt lat="48.668515" lon="16.628893">
        <ele>256.726611</ele>
        <time>2020-08-20T07:45:50.556Z</time>
      </trkpt>
      <trkpt lat="48.668521" lon="16.629030">
        <ele>256.638138</ele>
        <time>2020-08-20T07:45:52.552Z</time>
      </trkpt>
      <trkpt lat="48.668526" lon="16.629217">
        <ele>256.517543</ele>
        <time>2020-08-20T07:45:55.555Z</time>
      </trkpt>
      <trkpt lat="48.668506" lon="16.629376">
        <ele>256.413246</ele>
        <time>2020-08-20T07:45:58.556Z</time>
      </trkpt>
      <trkpt lat="48.668480" lon="16.629508">
        <ele>256.324487</ele>
        <time>2020-08-20T07:46:10.558Z</time>
      </trkpt>
      <trkpt lat="48.668493" lon="16.629671">
        <ele>256.218692</ele>
        <time>2020-08-20T07:46:14.576Z</time>
      </trkpt>
      <trkpt lat="48.668488" lon="16.629835">
        <ele>256.112903</ele>
        <time>2020-08-20T07:46:17.556Z</time>
      </trkpt>
      <trkpt lat="48.668454" lon="16.630016">
        <ele>255.991646</ele>
        <time>2020-08-20T07:46:20.564Z</time>
      </trkpt>
      <trkpt lat="48.668369" lon="16.630160">
        <ele>255.867195</ele>
        <time>2020-08-20T07:46:23.567Z</time>
      </trkpt>
      <trkpt lat="48.668325" lon="16.630355">
        <ele>255.734411</ele>
        <time>2020-08-20T07:46:26.561Z</time>
      </trkpt>
      <trkpt lat="48.668301" lon="16.630499">
        <ele>255.638712</ele>
        <time>2020-08-20T07:46:28.561Z</time>
      </trkpt>
      <trkpt lat="48.668276" lon="16.630646">
        <ele>255.540899</ele>
        <time>2020-08-20T07:46:30.565Z</time>
      </trkpt>
      <trkpt lat="48.668244" lon="16.630802">
        <ele>255.435640</ele>
        <time>2020-08-20T07:46:32.567Z</time>
      </trkpt>
      <trkpt lat="48.668213" lon="16.630956">
        <ele>255.331899</ele>
        <time>2020-08-20T07:46:34.580Z</time>
      </trkpt>
      <trkpt lat="48.668183" lon="16.631105">
        <ele>255.231525</ele>
        <time>2020-08-20T07:46:36.603Z</time>
      </trkpt>
      <trkpt lat="48.668156" lon="16.631257">
        <ele>255.145848</ele>
        <time>2020-08-20T07:46:38.562Z</time>
      </trkpt>
      <trkpt lat="48.668132" lon="16.631413">
        <ele>255.071803</ele>
        <time>2020-08-20T07:46:40.567Z</time>
      </trkpt>
      <trkpt lat="48.668115" lon="16.631564">
        <ele>255.000994</ele>
        <time>2020-08-20T07:46:42.574Z</time>
      </trkpt>
      <trkpt lat="48.668104" lon="16.631729">
        <ele>254.924333</ele>
        <time>2020-08-20T07:46:44.566Z</time>
      </trkpt>
      <trkpt lat="48.668091" lon="16.631880">
        <ele>254.853940</ele>
        <time>2020-08-20T07:46:46.572Z</time>
      </trkpt>
      <trkpt lat="48.668101" lon="16.632035">
        <ele>254.781948</ele>
        <time>2020-08-20T07:46:48.555Z</time>
      </trkpt>
      <trkpt lat="48.668100" lon="16.632193">
        <ele>254.708907</ele>
        <time>2020-08-20T07:46:50.559Z</time>
      </trkpt>
      <trkpt lat="48.668081" lon="16.632349">
        <ele>254.635577</ele>
        <time>2020-08-20T07:46:52.571Z</time>
      </trkpt>
      <trkpt lat="48.668065" lon="16.632508">
        <ele>254.561228</ele>
        <time>2020-08-20T07:46:54.588Z</time>
      </trkpt>
      <trkpt lat="48.668067" lon="16.632670">
        <ele>254.486328</ele>
        <time>2020-08-20T07:46:56.587Z</time>
      </trkpt>
      <trkpt lat="48.668078" lon="16.632836">
        <ele>254.409207</ele>
        <time>2020-08-20T07:46:58.546Z</time>
      </trkpt>
      <trkpt lat="48.668093" lon="16.633002">
        <ele>254.331756</ele>
        <time>2020-08-20T07:47:00.574Z</time>
      </trkpt>
      <trkpt lat="48.668101" lon="16.633171">
        <ele>254.253432</ele>
        <time>2020-08-20T07:47:02.562Z</time>
      </trkpt>
      <trkpt lat="48.668100" lon="16.633345">
        <ele>254.172995</ele>
        <time>2020-08-20T07:47:04.554Z</time>
      </trkpt>
      <trkpt lat="48.668064" lon="16.633506">
        <ele>254.094420</ele>
        <time>2020-08-20T07:47:06.563Z</time>
      </trkpt>
      <trkpt lat="48.668023" lon="16.633675">
        <ele>254.011193</ele>
        <time>2020-08-20T07:47:08.569Z</time>
      </trkpt>
      <trkpt lat="48.667980" lon="16.633839">
        <ele>253.929625</ele>
        <time>2020-08-20T07:47:10.593Z</time>
      </trkpt>
      <trkpt lat="48.667921" lon="16.633987">
        <ele>253.888109</ele>
        <time>2020-08-20T07:47:12.575Z</time>
      </trkpt>
      <trkpt lat="48.667868" lon="16.634148">
        <ele>253.846345</ele>
        <time>2020-08-20T07:47:14.555Z</time>
      </trkpt>
      <trkpt lat="48.667820" lon="16.634303">
        <ele>253.806600</ele>
        <time>2020-08-20T07:47:16.575Z</time>
      </trkpt>
      <trkpt lat="48.667771" lon="16.634462">
        <ele>253.765864</ele>
        <time>2020-08-20T07:47:18.552Z</time>
      </trkpt>
      <trkpt lat="48.667717" lon="16.634622">
        <ele>253.724149</ele>
        <time>2020-08-20T07:47:20.548Z</time>
      </trkpt>
      <trkpt lat="48.667676" lon="16.634791">
        <ele>253.682349</ele>
        <time>2020-08-20T07:47:22.556Z</time>
      </trkpt>
      <trkpt lat="48.667643" lon="16.634948">
        <ele>253.644098</ele>
        <time>2020-08-20T07:47:24.566Z</time>
      </trkpt>
      <trkpt lat="48.667620" lon="16.635107">
        <ele>253.606308</ele>
        <time>2020-08-20T07:47:26.562Z</time>
      </trkpt>
      <trkpt lat="48.667593" lon="16.635252">
        <ele>253.571332</ele>
        <time>2020-08-20T07:47:28.552Z</time>
      </trkpt>
      <trkpt lat="48.667570" lon="16.635406">
        <ele>253.534676</ele>
        <time>2020-08-20T07:47:30.564Z</time>
      </trkpt>
      <trkpt lat="48.667565" lon="16.635562">
        <ele>253.498415</ele>
        <time>2020-08-20T07:47:32.557Z</time>
      </trkpt>
      <trkpt lat="48.667579" lon="16.635709">
        <ele>253.463934</ele>
        <time>2020-08-20T07:47:34.581Z</time>
      </trkpt>
      <trkpt lat="48.667595" lon="16.635858">
        <ele>253.428887</ele>
        <time>2020-08-20T07:47:36.567Z</time>
      </trkpt>
      <trkpt lat="48.667617" lon="16.636005">
        <ele>253.393893</ele>
        <time>2020-08-20T07:47:38.554Z</time>
      </trkpt>
      <trkpt lat="48.667631" lon="16.636164">
        <ele>253.356653</ele>
        <time>2020-08-20T07:47:40.556Z</time>
      </trkpt>
      <trkpt lat="48.667638" lon="16.636328">
        <ele>253.318498</ele>
        <time>2020-08-20T07:47:42.578Z</time>
      </trkpt>
      <trkpt lat="48.667651" lon="16.636497">
        <ele>253.271001</ele>
        <time>2020-08-20T07:47:44.546Z</time>
      </trkpt>
      <trkpt lat="48.667664" lon="16.636676">
        <ele>253.207713</ele>
        <time>2020-08-20T07:47:46.549Z</time>
      </trkpt>
      <trkpt lat="48.667683" lon="16.636847">
        <ele>253.146770</ele>
        <time>2020-08-20T07:47:48.561Z</time>
      </trkpt>
      <trkpt lat="48.667704" lon="16.637032">
        <ele>253.080799</ele>
        <time>2020-08-20T07:47:50.558Z</time>
      </trkpt>
      <trkpt lat="48.667728" lon="16.637212">
        <ele>253.016262</ele>
        <time>2020-08-20T07:47:52.568Z</time>
      </trkpt>
      <trkpt lat="48.667754" lon="16.637382">
        <ele>252.954934</ele>
        <time>2020-08-20T07:47:54.579Z</time>
      </trkpt>
      <trkpt lat="48.667780" lon="16.637569">
        <ele>252.887773</ele>
        <time>2020-08-20T07:47:56.553Z</time>
      </trkpt>
      <trkpt lat="48.667803" lon="16.637757">
        <ele>252.820577</ele>
        <time>2020-08-20T07:47:58.565Z</time>
      </trkpt>
      <trkpt lat="48.667831" lon="16.637936">
        <ele>252.755927</ele>
        <time>2020-08-20T07:48:00.572Z</time>
      </trkpt>
      <trkpt lat="48.667859" lon="16.638107">
        <ele>252.694010</ele>
        <time>2020-08-20T07:48:02.562Z</time>
      </trkpt>
      <trkpt lat="48.667888" lon="16.638281">
        <ele>252.630941</ele>
        <time>2020-08-20T07:48:04.557Z</time>
      </trkpt>
      <trkpt lat="48.667916" lon="16.638455">
        <ele>252.568000</ele>
        <time>2020-08-20T07:48:06.571Z</time>
      </trkpt>
      <trkpt lat="48.667939" lon="16.638626">
        <ele>252.506668</ele>
        <time>2020-08-20T07:48:08.567Z</time>
      </trkpt>
      <trkpt lat="48.667969" lon="16.638796">
        <ele>252.444826</ele>
        <time>2020-08-20T07:48:10.585Z</time>
      </trkpt>
      <trkpt lat="48.667996" lon="16.638966">
        <ele>252.383377</ele>
        <time>2020-08-20T07:48:12.555Z</time>
      </trkpt>
      <trkpt lat="48.668020" lon="16.639140">
        <ele>252.310487</ele>
        <time>2020-08-20T07:48:14.597Z</time>
      </trkpt>
      <trkpt lat="48.668044" lon="16.639312">
        <ele>252.209682</ele>
        <time>2020-08-20T07:48:16.568Z</time>
      </trkpt>
      <trkpt lat="48.668068" lon="16.639486">
        <ele>252.107754</ele>
        <time>2020-08-20T07:48:18.570Z</time>
      </trkpt>
      <trkpt lat="48.668094" lon="16.639662">
        <ele>252.004339</ele>
        <time>2020-08-20T07:48:20.563Z</time>
      </trkpt>
      <trkpt lat="48.668120" lon="16.639827">
        <ele>251.907069</ele>
        <time>2020-08-20T07:48:22.581Z</time>
      </trkpt>
      <trkpt lat="48.668148" lon="16.640000">
        <ele>251.804932</ele>
        <time>2020-08-20T07:48:24.563Z</time>
      </trkpt>
      <trkpt lat="48.668174" lon="16.640176">
        <ele>251.701517</ele>
        <time>2020-08-20T07:48:26.586Z</time>
      </trkpt>
      <trkpt lat="48.668199" lon="16.640344">
        <ele>251.602767</ele>
        <time>2020-08-20T07:48:28.577Z</time>
      </trkpt>
      <trkpt lat="48.668227" lon="16.640513">
        <ele>251.502857</ele>
        <time>2020-08-20T07:48:30.559Z</time>
      </trkpt>
      <trkpt lat="48.668253" lon="16.640687">
        <ele>251.400560</ele>
        <time>2020-08-20T07:48:32.563Z</time>
      </trkpt>
      <trkpt lat="48.668282" lon="16.640849">
        <ele>251.304315</ele>
        <time>2020-08-20T07:48:34.576Z</time>
      </trkpt>
      <trkpt lat="48.668309" lon="16.641014">
        <ele>251.206840</ele>
        <time>2020-08-20T07:48:36.581Z</time>
      </trkpt>
      <trkpt lat="48.668334" lon="16.641181">
        <ele>251.108651</ele>
        <time>2020-08-20T07:48:38.578Z</time>
      </trkpt>
      <trkpt lat="48.668357" lon="16.641336">
        <ele>251.017555</ele>
        <time>2020-08-20T07:48:40.551Z</time>
      </trkpt>
      <trkpt lat="48.668376" lon="16.641481">
        <ele>250.932789</ele>
        <time>2020-08-20T07:48:42.585Z</time>
      </trkpt>
      <trkpt lat="48.668395" lon="16.641620">
        <ele>250.851395</ele>
        <time>2020-08-20T07:48:44.570Z</time>
      </trkpt>
      <trkpt lat="48.668424" lon="16.641763">
        <ele>250.744327</ele>
        <time>2020-08-20T07:48:46.552Z</time>
      </trkpt>
      <trkpt lat="48.668538" lon="16.641853">
        <ele>250.397105</ele>
        <time>2020-08-20T07:48:49.573Z</time>
      </trkpt>
      <trkpt lat="48.668627" lon="16.641882">
        <ele>250.151234</ele>
        <time>2020-08-20T07:48:51.584Z</time>
      </trkpt>
      <trkpt lat="48.668751" lon="16.641921">
        <ele>249.809191</ele>
        <time>2020-08-20T07:48:54.567Z</time>
      </trkpt>
      <trkpt lat="48.668847" lon="16.641946">
        <ele>249.546112</ele>
        <time>2020-08-20T07:48:57.584Z</time>
      </trkpt>
      <trkpt lat="48.668864" lon="16.642052">
        <ele>249.351554</ele>
        <time>2020-08-20T07:49:15.675Z</time>
      </trkpt>
      <trkpt lat="48.668836" lon="16.642184">
        <ele>249.104270</ele>
        <time>2020-08-20T07:50:53.552Z</time>
      </trkpt>
      <trkpt lat="48.668793" lon="16.642311">
        <ele>248.849716</ele>
        <time>2020-08-20T07:50:57.569Z</time>
      </trkpt>
      <trkpt lat="48.668746" lon="16.642463">
        <ele>248.550362</ele>
        <time>2020-08-20T07:51:00.556Z</time>
      </trkpt>
      <trkpt lat="48.668687" lon="16.642646">
        <ele>248.187142</ele>
        <time>2020-08-20T07:51:03.588Z</time>
      </trkpt>
      <trkpt lat="48.668642" lon="16.642780">
        <ele>247.919011</ele>
        <time>2020-08-20T07:51:05.570Z</time>
      </trkpt>
      <trkpt lat="48.668596" lon="16.642928">
        <ele>247.627262</ele>
        <time>2020-08-20T07:51:07.577Z</time>
      </trkpt>
      <trkpt lat="48.668550" lon="16.643075">
        <ele>247.337125</ele>
        <time>2020-08-20T07:51:09.576Z</time>
      </trkpt>
      <trkpt lat="48.668502" lon="16.643229">
        <ele>247.033393</ele>
        <time>2020-08-20T07:51:11.579Z</time>
      </trkpt>
      <trkpt lat="48.668453" lon="16.643380">
        <ele>246.733308</ele>
        <time>2020-08-20T07:51:13.559Z</time>
      </trkpt>
      <trkpt lat="48.668405" lon="16.643533">
        <ele>246.431187</ele>
        <time>2020-08-20T07:51:15.583Z</time>
      </trkpt>
      <trkpt lat="48.668360" lon="16.643699">
        <ele>246.111132</ele>
        <time>2020-08-20T07:51:17.583Z</time>
      </trkpt>
      <trkpt lat="48.668318" lon="16.643875">
        <ele>245.835227</ele>
        <time>2020-08-20T07:51:19.571Z</time>
      </trkpt>
      <trkpt lat="48.668287" lon="16.644051">
        <ele>245.644036</ele>
        <time>2020-08-20T07:51:21.572Z</time>
      </trkpt>
      <trkpt lat="48.668263" lon="16.644229">
        <ele>245.453348</ele>
        <time>2020-08-20T07:51:23.573Z</time>
      </trkpt>
      <trkpt lat="48.668237" lon="16.644407">
        <ele>245.261999</ele>
        <time>2020-08-20T07:51:25.571Z</time>
      </trkpt>
      <trkpt lat="48.668220" lon="16.644669">
        <ele>244.985673</ele>
        <time>2020-08-20T07:51:28.575Z</time>
      </trkpt>
      <trkpt lat="48.668211" lon="16.644841">
        <ele>244.804571</ele>
        <time>2020-08-20T07:51:30.571Z</time>
      </trkpt>
      <trkpt lat="48.668195" lon="16.645014">
        <ele>244.621213</ele>
        <time>2020-08-20T07:51:32.556Z</time>
      </trkpt>
      <trkpt lat="48.668180" lon="16.645182">
        <ele>244.443271</ele>
        <time>2020-08-20T07:51:34.567Z</time>
      </trkpt>
      <trkpt lat="48.668171" lon="16.645361">
        <ele>244.254844</ele>
        <time>2020-08-20T07:51:36.560Z</time>
      </trkpt>
      <trkpt lat="48.668156" lon="16.645539">
        <ele>244.066495</ele>
        <time>2020-08-20T07:51:38.576Z</time>
      </trkpt>
      <trkpt lat="48.668140" lon="16.645708">
        <ele>243.887294</ele>
        <time>2020-08-20T07:51:40.591Z</time>
      </trkpt>
      <trkpt lat="48.668125" lon="16.645870">
        <ele>243.715591</ele>
        <time>2020-08-20T07:51:42.609Z</time>
      </trkpt>
      <trkpt lat="48.668114" lon="16.646030">
        <ele>243.546743</ele>
        <time>2020-08-20T07:51:44.562Z</time>
      </trkpt>
      <trkpt lat="48.668101" lon="16.646195">
        <ele>243.372326</ele>
        <time>2020-08-20T07:51:46.586Z</time>
      </trkpt>
      <trkpt lat="48.668084" lon="16.646355">
        <ele>243.202225</ele>
        <time>2020-08-20T07:51:48.610Z</time>
      </trkpt>
      <trkpt lat="48.668067" lon="16.646508">
        <ele>243.052614</ele>
        <time>2020-08-20T07:51:50.575Z</time>
      </trkpt>
      <trkpt lat="48.668053" lon="16.646660">
        <ele>242.998331</ele>
        <time>2020-08-20T07:51:52.601Z</time>
      </trkpt>
      <trkpt lat="48.668031" lon="16.646811">
        <ele>242.943638</ele>
        <time>2020-08-20T07:51:54.579Z</time>
      </trkpt>
      <trkpt lat="48.668010" lon="16.646964">
        <ele>242.888365</ele>
        <time>2020-08-20T07:51:56.585Z</time>
      </trkpt>
      <trkpt lat="48.667984" lon="16.647110">
        <ele>242.834880</ele>
        <time>2020-08-20T07:51:58.585Z</time>
      </trkpt>
      <trkpt lat="48.667956" lon="16.647256">
        <ele>242.781107</ele>
        <time>2020-08-20T07:52:00.560Z</time>
      </trkpt>
      <trkpt lat="48.667928" lon="16.647398">
        <ele>242.728690</ele>
        <time>2020-08-20T07:52:02.566Z</time>
      </trkpt>
      <trkpt lat="48.667901" lon="16.647536">
        <ele>242.677782</ele>
        <time>2020-08-20T07:52:04.581Z</time>
      </trkpt>
      <trkpt lat="48.667863" lon="16.647669">
        <ele>242.626526</ele>
        <time>2020-08-20T07:52:06.597Z</time>
      </trkpt>
      <trkpt lat="48.667824" lon="16.647797">
        <ele>242.576667</ele>
        <time>2020-08-20T07:52:08.567Z</time>
      </trkpt>
      <trkpt lat="48.667791" lon="16.647928">
        <ele>242.527075</ele>
        <time>2020-08-20T07:52:10.580Z</time>
      </trkpt>
      <trkpt lat="48.667739" lon="16.648114">
        <ele>242.455635</ele>
        <time>2020-08-20T07:52:13.599Z</time>
      </trkpt>
      <trkpt lat="48.667688" lon="16.648295">
        <ele>242.386031</ele>
        <time>2020-08-20T07:52:16.574Z</time>
      </trkpt>
      <trkpt lat="48.667632" lon="16.648473">
        <ele>242.316293</ele>
        <time>2020-08-20T07:52:19.596Z</time>
      </trkpt>
      <trkpt lat="48.667581" lon="16.648646">
        <ele>242.249283</ele>
        <time>2020-08-20T07:52:22.582Z</time>
      </trkpt>
      <trkpt lat="48.667533" lon="16.648824">
        <ele>242.181277</ele>
        <time>2020-08-20T07:52:25.576Z</time>
      </trkpt>
      <trkpt lat="48.667483" lon="16.649006">
        <ele>242.111555</ele>
        <time>2020-08-20T07:52:28.575Z</time>
      </trkpt>
      <trkpt lat="48.667437" lon="16.649189">
        <ele>242.110439</ele>
        <time>2020-08-20T07:52:31.585Z</time>
      </trkpt>
      <trkpt lat="48.667402" lon="16.649360">
        <ele>242.127398</ele>
        <time>2020-08-20T07:52:34.608Z</time>
      </trkpt>
      <trkpt lat="48.667362" lon="16.649520">
        <ele>242.143604</ele>
        <time>2020-08-20T07:52:37.576Z</time>
      </trkpt>
      <trkpt lat="48.667315" lon="16.649686">
        <ele>242.160714</ele>
        <time>2020-08-20T07:52:40.570Z</time>
      </trkpt>
      <trkpt lat="48.667276" lon="16.649842">
        <ele>242.176515</ele>
        <time>2020-08-20T07:52:43.566Z</time>
      </trkpt>
      <trkpt lat="48.667249" lon="16.650000">
        <ele>242.191976</ele>
        <time>2020-08-20T07:52:46.553Z</time>
      </trkpt>
      <trkpt lat="48.667222" lon="16.650168">
        <ele>242.208355</ele>
        <time>2020-08-20T07:52:49.566Z</time>
      </trkpt>
      <trkpt lat="48.667197" lon="16.650343">
        <ele>242.225316</ele>
        <time>2020-08-20T07:52:52.559Z</time>
      </trkpt>
      <trkpt lat="48.667168" lon="16.650521">
        <ele>242.242684</ele>
        <time>2020-08-20T07:52:55.569Z</time>
      </trkpt>
      <trkpt lat="48.667139" lon="16.650709">
        <ele>242.260973</ele>
        <time>2020-08-20T07:52:58.565Z</time>
      </trkpt>
      <trkpt lat="48.667120" lon="16.650890">
        <ele>242.278334</ele>
        <time>2020-08-20T07:53:01.569Z</time>
      </trkpt>
      <trkpt lat="48.667110" lon="16.651079">
        <ele>242.296296</ele>
        <time>2020-08-20T07:53:04.572Z</time>
      </trkpt>
      <trkpt lat="48.667098" lon="16.651284">
        <ele>242.315792</ele>
        <time>2020-08-20T07:53:07.566Z</time>
      </trkpt>
      <trkpt lat="48.667073" lon="16.651476">
        <ele>242.334330</ele>
        <time>2020-08-20T07:53:10.585Z</time>
      </trkpt>
      <trkpt lat="48.667047" lon="16.651655">
        <ele>242.351692</ele>
        <time>2020-08-20T07:53:13.598Z</time>
      </trkpt>
      <trkpt lat="48.667032" lon="16.651829">
        <ele>242.466298</ele>
        <time>2020-08-20T07:53:16.589Z</time>
      </trkpt>
      <trkpt lat="48.667011" lon="16.651995">
        <ele>242.592191</ele>
        <time>2020-08-20T07:53:19.580Z</time>
      </trkpt>
      <trkpt lat="48.666983" lon="16.652161">
        <ele>242.719804</ele>
        <time>2020-08-20T07:53:22.571Z</time>
      </trkpt>
      <trkpt lat="48.666958" lon="16.652333">
        <ele>242.850984</ele>
        <time>2020-08-20T07:53:25.571Z</time>
      </trkpt>
      <trkpt lat="48.666931" lon="16.652510">
        <ele>242.986293</ele>
        <time>2020-08-20T07:53:28.598Z</time>
      </trkpt>
      <trkpt lat="48.666906" lon="16.652684">
        <ele>243.118928</ele>
        <time>2020-08-20T07:53:31.589Z</time>
      </trkpt>
      <trkpt lat="48.666864" lon="16.652867">
        <ele>243.263231</ele>
        <time>2020-08-20T07:53:34.574Z</time>
      </trkpt>
      <trkpt lat="48.666832" lon="16.652995">
        <ele>243.365174</ele>
        <time>2020-08-20T07:53:36.585Z</time>
      </trkpt>
      <trkpt lat="48.666808" lon="16.653140">
        <ele>243.476518</ele>
        <time>2020-08-20T07:53:38.572Z</time>
      </trkpt>
      <trkpt lat="48.666776" lon="16.653345">
        <ele>243.633419</ele>
        <time>2020-08-20T07:53:41.560Z</time>
      </trkpt>
      <trkpt lat="48.666746" lon="16.653501">
        <ele>243.754441</ele>
        <time>2020-08-20T07:53:43.574Z</time>
      </trkpt>
      <trkpt lat="48.666720" lon="16.653660">
        <ele>243.876449</ele>
        <time>2020-08-20T07:53:45.584Z</time>
      </trkpt>
      <trkpt lat="48.666687" lon="16.653815">
        <ele>243.997752</ele>
        <time>2020-08-20T07:53:47.571Z</time>
      </trkpt>
      <trkpt lat="48.666655" lon="16.653968">
        <ele>244.117292</ele>
        <time>2020-08-20T07:53:49.587Z</time>
      </trkpt>
      <trkpt lat="48.666624" lon="16.654129">
        <ele>244.242206</ele>
        <time>2020-08-20T07:53:51.600Z</time>
      </trkpt>
      <trkpt lat="48.666590" lon="16.654300">
        <ele>244.375223</ele>
        <time>2020-08-20T07:53:53.577Z</time>
      </trkpt>
      <trkpt lat="48.666552" lon="16.654460">
        <ele>244.503837</ele>
        <time>2020-08-20T07:53:55.570Z</time>
      </trkpt>
      <trkpt lat="48.666501" lon="16.654624">
        <ele>244.641083</ele>
        <time>2020-08-20T07:53:57.577Z</time>
      </trkpt>
      <trkpt lat="48.666442" lon="16.654771">
        <ele>244.771322</ele>
        <time>2020-08-20T07:53:59.587Z</time>
      </trkpt>
      <trkpt lat="48.666375" lon="16.654926">
        <ele>244.911578</ele>
        <time>2020-08-20T07:54:01.581Z</time>
      </trkpt>
      <trkpt lat="48.666309" lon="16.655081">
        <ele>245.051210</ele>
        <time>2020-08-20T07:54:03.584Z</time>
      </trkpt>
      <trkpt lat="48.666245" lon="16.655216">
        <ele>245.177030</ele>
        <time>2020-08-20T07:54:05.587Z</time>
      </trkpt>
      <trkpt lat="48.666182" lon="16.655359">
        <ele>245.307179</ele>
        <time>2020-08-20T07:54:07.564Z</time>
      </trkpt>
      <trkpt lat="48.666126" lon="16.655476">
        <ele>245.416581</ele>
        <time>2020-08-20T07:54:09.614Z</time>
      </trkpt>
      <trkpt lat="48.666073" lon="16.655592">
        <ele>245.523377</ele>
        <time>2020-08-20T07:54:11.565Z</time>
      </trkpt>
      <trkpt lat="48.666021" lon="16.655714">
        <ele>245.633313</ele>
        <time>2020-08-20T07:54:13.567Z</time>
      </trkpt>
      <trkpt lat="48.665971" lon="16.655838">
        <ele>245.743313</ele>
        <time>2020-08-20T07:54:15.565Z</time>
      </trkpt>
      <trkpt lat="48.665921" lon="16.655970">
        <ele>245.858526</ele>
        <time>2020-08-20T07:54:17.582Z</time>
      </trkpt>
      <trkpt lat="48.665877" lon="16.656108">
        <ele>245.974550</ele>
        <time>2020-08-20T07:54:19.575Z</time>
      </trkpt>
      <trkpt lat="48.665836" lon="16.656249">
        <ele>246.091196</ele>
        <time>2020-08-20T07:54:21.576Z</time>
      </trkpt>
      <trkpt lat="48.665808" lon="16.656392">
        <ele>246.204125</ele>
        <time>2020-08-20T07:54:23.577Z</time>
      </trkpt>
      <trkpt lat="48.665786" lon="16.656533">
        <ele>246.313821</ele>
        <time>2020-08-20T07:54:25.557Z</time>
      </trkpt>
      <trkpt lat="48.665763" lon="16.656673">
        <ele>246.423051</ele>
        <time>2020-08-20T07:54:27.579Z</time>
      </trkpt>
      <trkpt lat="48.665739" lon="16.656815">
        <ele>246.484380</ele>
        <time>2020-08-20T07:54:29.596Z</time>
      </trkpt>
      <trkpt lat="48.665712" lon="16.656967">
        <ele>246.537435</ele>
        <time>2020-08-20T07:54:31.571Z</time>
      </trkpt>
      <trkpt lat="48.665683" lon="16.657110">
        <ele>246.587857</ele>
        <time>2020-08-20T07:54:33.601Z</time>
      </trkpt>
      <trkpt lat="48.665658" lon="16.657250">
        <ele>246.636741</ele>
        <time>2020-08-20T07:54:35.620Z</time>
      </trkpt>
      <trkpt lat="48.665635" lon="16.657385">
        <ele>246.683735</ele>
        <time>2020-08-20T07:54:37.580Z</time>
      </trkpt>
      <trkpt lat="48.665612" lon="16.657518">
        <ele>246.730076</ele>
        <time>2020-08-20T07:54:39.587Z</time>
      </trkpt>
      <trkpt lat="48.665583" lon="16.657651">
        <ele>246.777287</ele>
        <time>2020-08-20T07:54:41.555Z</time>
      </trkpt>
      <trkpt lat="48.665553" lon="16.657792">
        <ele>246.827219</ele>
        <time>2020-08-20T07:54:43.584Z</time>
      </trkpt>
      <trkpt lat="48.665519" lon="16.657930">
        <ele>246.876865</ele>
        <time>2020-08-20T07:54:45.598Z</time>
      </trkpt>
      <trkpt lat="48.665486" lon="16.658070">
        <ele>246.926970</ele>
        <time>2020-08-20T07:54:47.567Z</time>
      </trkpt>
      <trkpt lat="48.665453" lon="16.658214">
        <ele>246.978347</ele>
        <time>2020-08-20T07:54:49.571Z</time>
      </trkpt>
      <trkpt lat="48.665429" lon="16.658352">
        <ele>247.026449</ele>
        <time>2020-08-20T07:54:51.558Z</time>
      </trkpt>
      <trkpt lat="48.665402" lon="16.658507">
        <ele>247.080481</ele>
        <time>2020-08-20T07:54:53.552Z</time>
      </trkpt>
      <trkpt lat="48.665370" lon="16.658666">
        <ele>247.136508</ele>
        <time>2020-08-20T07:54:55.578Z</time>
      </trkpt>
      <trkpt lat="48.665334" lon="16.658825">
        <ele>247.193164</ele>
        <time>2020-08-20T07:54:57.570Z</time>
      </trkpt>
      <trkpt lat="48.665300" lon="16.658985">
        <ele>247.249818</ele>
        <time>2020-08-20T07:54:59.580Z</time>
      </trkpt>
      <trkpt lat="48.665276" lon="16.659149">
        <ele>247.306439</ele>
        <time>2020-08-20T07:55:01.572Z</time>
      </trkpt>
      <trkpt lat="48.665260" lon="16.659311">
        <ele>247.361651</ele>
        <time>2020-08-20T07:55:03.565Z</time>
      </trkpt>
      <trkpt lat="48.665243" lon="16.659470">
        <ele>247.376532</ele>
        <time>2020-08-20T07:55:05.586Z</time>
      </trkpt>
      <trkpt lat="48.665225" lon="16.659627">
        <ele>247.390637</ele>
        <time>2020-08-20T07:55:07.559Z</time>
      </trkpt>
      <trkpt lat="48.665208" lon="16.659784">
        <ele>247.404719</ele>
        <time>2020-08-20T07:55:09.573Z</time>
      </trkpt>
      <trkpt lat="48.665188" lon="16.659941">
        <ele>247.418872</ele>
        <time>2020-08-20T07:55:11.560Z</time>
      </trkpt>
      <trkpt lat="48.665157" lon="16.660098">
        <ele>247.433377</ele>
        <time>2020-08-20T07:55:13.574Z</time>
      </trkpt>
      <trkpt lat="48.665130" lon="16.660255">
        <ele>247.447737</ele>
        <time>2020-08-20T07:55:15.565Z</time>
      </trkpt>
      <trkpt lat="48.665108" lon="16.660416">
        <ele>247.462290</ele>
        <time>2020-08-20T07:55:17.559Z</time>
      </trkpt>
      <trkpt lat="48.665093" lon="16.660571">
        <ele>247.476156</ele>
        <time>2020-08-20T07:55:19.568Z</time>
      </trkpt>
      <trkpt lat="48.665074" lon="16.660728">
        <ele>247.490284</ele>
        <time>2020-08-20T07:55:21.596Z</time>
      </trkpt>
      <trkpt lat="48.665045" lon="16.660895">
        <ele>247.505568</ele>
        <time>2020-08-20T07:55:23.569Z</time>
      </trkpt>
      <trkpt lat="48.665010" lon="16.661059">
        <ele>247.520824</ele>
        <time>2020-08-20T07:55:25.558Z</time>
      </trkpt>
      <trkpt lat="48.664962" lon="16.661222">
        <ele>247.536621</ele>
        <time>2020-08-20T07:55:27.554Z</time>
      </trkpt>
      <trkpt lat="48.664908" lon="16.661392">
        <ele>247.553318</ele>
        <time>2020-08-20T07:55:29.563Z</time>
      </trkpt>
      <trkpt lat="48.664858" lon="16.661571">
        <ele>247.570521</ele>
        <time>2020-08-20T07:55:31.566Z</time>
      </trkpt>
      <trkpt lat="48.664830" lon="16.661770">
        <ele>247.588531</ele>
        <time>2020-08-20T07:55:33.559Z</time>
      </trkpt>
      <trkpt lat="48.664810" lon="16.661977">
        <ele>247.596099</ele>
        <time>2020-08-20T07:55:35.584Z</time>
      </trkpt>
      <trkpt lat="48.664757" lon="16.662173">
        <ele>247.556146</ele>
        <time>2020-08-20T07:55:37.555Z</time>
      </trkpt>
      <trkpt lat="48.664679" lon="16.662319">
        <ele>247.520722</ele>
        <time>2020-08-20T07:55:39.571Z</time>
      </trkpt>
      <trkpt lat="48.664604" lon="16.662475">
        <ele>247.484324</ele>
        <time>2020-08-20T07:55:41.561Z</time>
      </trkpt>
      <trkpt lat="48.664531" lon="16.662654">
        <ele>247.444639</ele>
        <time>2020-08-20T07:55:43.584Z</time>
      </trkpt>
      <trkpt lat="48.664452" lon="16.662846">
        <ele>247.401966</ele>
        <time>2020-08-20T07:55:45.552Z</time>
      </trkpt>
      <trkpt lat="48.664366" lon="16.663055">
        <ele>247.355514</ele>
        <time>2020-08-20T07:55:47.576Z</time>
      </trkpt>
      <trkpt lat="48.664268" lon="16.663275">
        <ele>247.305456</ele>
        <time>2020-08-20T07:55:49.589Z</time>
      </trkpt>
      <trkpt lat="48.664217" lon="16.663387">
        <ele>247.279794</ele>
        <time>2020-08-20T07:55:50.557Z</time>
      </trkpt>
      <trkpt lat="48.664162" lon="16.663497">
        <ele>247.253768</ele>
        <time>2020-08-20T07:55:51.564Z</time>
      </trkpt>
      <trkpt lat="48.664112" lon="16.663611">
        <ele>247.227953</ele>
        <time>2020-08-20T07:55:52.571Z</time>
      </trkpt>
      <trkpt lat="48.663997" lon="16.663800">
        <ele>247.179476</ele>
        <time>2020-08-20T07:55:54.604Z</time>
      </trkpt>
      <trkpt lat="48.663889" lon="16.663972">
        <ele>247.134706</ele>
        <time>2020-08-20T07:55:56.571Z</time>
      </trkpt>
      <trkpt lat="48.663784" lon="16.664119">
        <ele>247.093860</ele>
        <time>2020-08-20T07:55:58.577Z</time>
      </trkpt>
      <trkpt lat="48.663699" lon="16.664257">
        <ele>247.060608</ele>
        <time>2020-08-20T07:56:00.563Z</time>
      </trkpt>
      <trkpt lat="48.663625" lon="16.664379">
        <ele>247.031681</ele>
        <time>2020-08-20T07:56:02.587Z</time>
      </trkpt>
      <trkpt lat="48.663562" lon="16.664490">
        <ele>247.006123</ele>
        <time>2020-08-20T07:56:04.578Z</time>
      </trkpt>
      <trkpt lat="48.663505" lon="16.664600">
        <ele>246.981706</ele>
        <time>2020-08-20T07:56:06.566Z</time>
      </trkpt>
      <trkpt lat="48.663435" lon="16.664764">
        <ele>246.947606</ele>
        <time>2020-08-20T07:56:09.578Z</time>
      </trkpt>
      <trkpt lat="48.663371" lon="16.664917">
        <ele>246.915979</ele>
        <time>2020-08-20T07:56:12.584Z</time>
      </trkpt>
      <trkpt lat="48.663310" lon="16.665074">
        <ele>246.884169</ele>
        <time>2020-08-20T07:56:15.573Z</time>
      </trkpt>
      <trkpt lat="48.663249" lon="16.665240">
        <ele>246.850994</ele>
        <time>2020-08-20T07:56:18.579Z</time>
      </trkpt>
      <trkpt lat="48.663208" lon="16.665409">
        <ele>246.819553</ele>
        <time>2020-08-20T07:56:21.561Z</time>
      </trkpt>
      <trkpt lat="48.663169" lon="16.665572">
        <ele>246.789276</ele>
        <time>2020-08-20T07:56:24.590Z</time>
      </trkpt>
      <trkpt lat="48.663131" lon="16.665728">
        <ele>246.760239</ele>
        <time>2020-08-20T07:56:27.584Z</time>
      </trkpt>
      <trkpt lat="48.663103" lon="16.665879">
        <ele>246.732850</ele>
        <time>2020-08-20T07:56:30.567Z</time>
      </trkpt>
      <trkpt lat="48.663070" lon="16.666041">
        <ele>246.703243</ele>
        <time>2020-08-20T07:56:33.589Z</time>
      </trkpt>
      <trkpt lat="48.663046" lon="16.666194">
        <ele>246.675781</ele>
        <time>2020-08-20T07:56:36.562Z</time>
      </trkpt>
      <trkpt lat="48.663025" lon="16.666341">
        <ele>246.649515</ele>
        <time>2020-08-20T07:56:39.580Z</time>
      </trkpt>
      <trkpt lat="48.663006" lon="16.666495">
        <ele>246.622156</ele>
        <time>2020-08-20T07:56:42.557Z</time>
      </trkpt>
      <trkpt lat="48.662988" lon="16.666652">
        <ele>246.618593</ele>
        <time>2020-08-20T07:56:45.560Z</time>
      </trkpt>
      <trkpt lat="48.662968" lon="16.666817">
        <ele>246.624973</ele>
        <time>2020-08-20T07:56:48.579Z</time>
      </trkpt>
      <trkpt lat="48.662927" lon="16.666987">
        <ele>246.631856</ele>
        <time>2020-08-20T07:56:51.573Z</time>
      </trkpt>
      <trkpt lat="48.662901" lon="16.667161">
        <ele>246.638641</ele>
        <time>2020-08-20T07:56:54.567Z</time>
      </trkpt>
      <trkpt lat="48.662866" lon="16.667325">
        <ele>246.645196</ele>
        <time>2020-08-20T07:56:57.584Z</time>
      </trkpt>
      <trkpt lat="48.662822" lon="16.667494">
        <ele>246.652105</ele>
        <time>2020-08-20T07:57:00.560Z</time>
      </trkpt>
      <trkpt lat="48.662773" lon="16.667658">
        <ele>246.658951</ele>
        <time>2020-08-20T07:57:03.573Z</time>
      </trkpt>
      <trkpt lat="48.662728" lon="16.667820">
        <ele>246.665635</ele>
        <time>2020-08-20T07:57:06.555Z</time>
      </trkpt>
      <trkpt lat="48.662702" lon="16.667991">
        <ele>246.672309</ele>
        <time>2020-08-20T07:57:09.557Z</time>
      </trkpt>
      <trkpt lat="48.662677" lon="16.668160">
        <ele>246.678896</ele>
        <time>2020-08-20T07:57:12.585Z</time>
      </trkpt>
      <trkpt lat="48.662650" lon="16.668335">
        <ele>246.685731</ele>
        <time>2020-08-20T07:57:15.574Z</time>
      </trkpt>
      <trkpt lat="48.662617" lon="16.668516">
        <ele>246.692872</ele>
        <time>2020-08-20T07:57:18.561Z</time>
      </trkpt>
      <trkpt lat="48.662579" lon="16.668691">
        <ele>246.699879</ele>
        <time>2020-08-20T07:57:21.590Z</time>
      </trkpt>
      <trkpt lat="48.662543" lon="16.668873">
        <ele>246.707104</ele>
        <time>2020-08-20T07:57:24.615Z</time>
      </trkpt>
      <trkpt lat="48.662503" lon="16.669057">
        <ele>246.714472</ele>
        <time>2020-08-20T07:57:27.593Z</time>
      </trkpt>
      <trkpt lat="48.662463" lon="16.669191">
        <ele>246.639522</ele>
        <time>2020-08-20T07:57:29.578Z</time>
      </trkpt>
      <trkpt lat="48.662415" lon="16.669328">
        <ele>246.433285</ele>
        <time>2020-08-20T07:57:31.585Z</time>
      </trkpt>
      <trkpt lat="48.662367" lon="16.669481">
        <ele>246.208030</ele>
        <time>2020-08-20T07:57:33.582Z</time>
      </trkpt>
      <trkpt lat="48.662317" lon="16.669638">
        <ele>245.976239</ele>
        <time>2020-08-20T07:57:35.556Z</time>
      </trkpt>
      <trkpt lat="48.662262" lon="16.669807">
        <ele>245.725692</ele>
        <time>2020-08-20T07:57:37.573Z</time>
      </trkpt>
      <trkpt lat="48.662190" lon="16.669969">
        <ele>245.466021</ele>
        <time>2020-08-20T07:57:39.557Z</time>
      </trkpt>
      <trkpt lat="48.662128" lon="16.670140">
        <ele>245.206604</ele>
        <time>2020-08-20T07:57:41.559Z</time>
      </trkpt>
      <trkpt lat="48.662067" lon="16.670306">
        <ele>244.953981</ele>
        <time>2020-08-20T07:57:43.561Z</time>
      </trkpt>
      <trkpt lat="48.661989" lon="16.670455">
        <ele>244.701142</ele>
        <time>2020-08-20T07:57:45.563Z</time>
      </trkpt>
      <trkpt lat="48.661894" lon="16.670586">
        <ele>244.442421</ele>
        <time>2020-08-20T07:57:47.553Z</time>
      </trkpt>
      <trkpt lat="48.661795" lon="16.670711">
        <ele>244.182871</ele>
        <time>2020-08-20T07:57:49.585Z</time>
      </trkpt>
      <trkpt lat="48.661690" lon="16.670831">
        <ele>243.917990</ele>
        <time>2020-08-20T07:57:51.557Z</time>
      </trkpt>
      <trkpt lat="48.661580" lon="16.670952">
        <ele>243.644228</ele>
        <time>2020-08-20T07:57:53.578Z</time>
      </trkpt>
      <trkpt lat="48.661462" lon="16.671074">
        <ele>243.356530</ele>
        <time>2020-08-20T07:57:55.599Z</time>
      </trkpt>
      <trkpt lat="48.661341" lon="16.671206">
        <ele>243.018575</ele>
        <time>2020-08-20T07:57:57.576Z</time>
      </trkpt>
      <trkpt lat="48.661224" lon="16.671344">
        <ele>242.439660</ele>
        <time>2020-08-20T07:57:59.574Z</time>
      </trkpt>
      <trkpt lat="48.661129" lon="16.671449">
        <ele>241.980549</ele>
        <time>2020-08-20T07:58:01.581Z</time>
      </trkpt>
      <trkpt lat="48.661049" lon="16.671543">
        <ele>241.585277</ele>
        <time>2020-08-20T07:58:04.566Z</time>
      </trkpt>
      <trkpt lat="48.661033" lon="16.671563">
        <ele>241.504289</ele>
        <time>2020-08-20T07:58:25.700Z</time>
      </trkpt>
      <trkpt lat="48.660950" lon="16.671649">
        <ele>241.111709</ele>
        <time>2020-08-20T08:00:46.567Z</time>
      </trkpt>
      <trkpt lat="48.660865" lon="16.671743">
        <ele>240.700845</ele>
        <time>2020-08-20T08:00:49.585Z</time>
      </trkpt>
      <trkpt lat="48.660766" lon="16.671862">
        <ele>240.207436</ele>
        <time>2020-08-20T08:00:52.565Z</time>
      </trkpt>
      <trkpt lat="48.660697" lon="16.671958">
        <ele>239.841655</ele>
        <time>2020-08-20T08:00:54.590Z</time>
      </trkpt>
      <trkpt lat="48.660604" lon="16.672044">
        <ele>239.416292</ele>
        <time>2020-08-20T08:00:57.630Z</time>
      </trkpt>
      <trkpt lat="48.660499" lon="16.672099">
        <ele>238.982611</ele>
        <time>2020-08-20T08:01:00.582Z</time>
      </trkpt>
      <trkpt lat="48.660364" lon="16.672122">
        <ele>238.452342</ele>
        <time>2020-08-20T08:01:03.614Z</time>
      </trkpt>
      <trkpt lat="48.660268" lon="16.672153">
        <ele>238.069198</ele>
        <time>2020-08-20T08:01:05.574Z</time>
      </trkpt>
      <trkpt lat="48.660164" lon="16.672204">
        <ele>237.642493</ele>
        <time>2020-08-20T08:01:07.572Z</time>
      </trkpt>
      <trkpt lat="48.660048" lon="16.672247">
        <ele>237.176338</ele>
        <time>2020-08-20T08:01:09.600Z</time>
      </trkpt>
      <trkpt lat="48.659925" lon="16.672294">
        <ele>236.681178</ele>
        <time>2020-08-20T08:01:11.597Z</time>
      </trkpt>
      <trkpt lat="48.659802" lon="16.672348">
        <ele>236.181296</ele>
        <time>2020-08-20T08:01:13.594Z</time>
      </trkpt>
      <trkpt lat="48.659679" lon="16.672402">
        <ele>236.037790</ele>
        <time>2020-08-20T08:01:15.573Z</time>
      </trkpt>
      <trkpt lat="48.659556" lon="16.672453">
        <ele>235.989839</ele>
        <time>2020-08-20T08:01:17.584Z</time>
      </trkpt>
      <trkpt lat="48.659434" lon="16.672510">
        <ele>235.941832</ele>
        <time>2020-08-20T08:01:19.569Z</time>
      </trkpt>
      <trkpt lat="48.659313" lon="16.672573">
        <ele>235.893721</ele>
        <time>2020-08-20T08:01:21.570Z</time>
      </trkpt>
      <trkpt lat="48.659194" lon="16.672638">
        <ele>235.846154</ele>
        <time>2020-08-20T08:01:23.578Z</time>
      </trkpt>
      <trkpt lat="48.659073" lon="16.672698">
        <ele>235.798280</ele>
        <time>2020-08-20T08:01:25.570Z</time>
      </trkpt>
      <trkpt lat="48.658953" lon="16.672763">
        <ele>235.750360</ele>
        <time>2020-08-20T08:01:27.571Z</time>
      </trkpt>
      <trkpt lat="48.658833" lon="16.672827">
        <ele>235.702522</ele>
        <time>2020-08-20T08:01:29.612Z</time>
      </trkpt>
      <trkpt lat="48.658712" lon="16.672885">
        <ele>235.654800</ele>
        <time>2020-08-20T08:01:31.582Z</time>
      </trkpt>
      <trkpt lat="48.658592" lon="16.672944">
        <ele>235.607360</ele>
        <time>2020-08-20T08:01:33.559Z</time>
      </trkpt>
      <trkpt lat="48.658478" lon="16.673005">
        <ele>235.561898</ele>
        <time>2020-08-20T08:01:35.555Z</time>
      </trkpt>
      <trkpt lat="48.658357" lon="16.673037">
        <ele>235.515713</ele>
        <time>2020-08-20T08:01:37.567Z</time>
      </trkpt>
      <trkpt lat="48.658236" lon="16.673059">
        <ele>235.469891</ele>
        <time>2020-08-20T08:01:39.571Z</time>
      </trkpt>
      <trkpt lat="48.658118" lon="16.673097">
        <ele>235.424530</ele>
        <time>2020-08-20T08:01:41.586Z</time>
      </trkpt>
      <trkpt lat="48.657999" lon="16.673153">
        <ele>235.305313</ele>
        <time>2020-08-20T08:01:43.584Z</time>
      </trkpt>
      <trkpt lat="48.657879" lon="16.673209">
        <ele>235.101505</ele>
        <time>2020-08-20T08:01:45.562Z</time>
      </trkpt>
      <trkpt lat="48.657767" lon="16.673259">
        <ele>234.911985</ele>
        <time>2020-08-20T08:01:47.608Z</time>
      </trkpt>
      <trkpt lat="48.657661" lon="16.673327">
        <ele>234.725134</ele>
        <time>2020-08-20T08:01:50.556Z</time>
      </trkpt>
      <trkpt lat="48.657554" lon="16.673405">
        <ele>234.532383</ele>
        <time>2020-08-20T08:01:53.574Z</time>
      </trkpt>
      <trkpt lat="48.657469" lon="16.673449">
        <ele>234.386582</ele>
        <time>2020-08-20T08:01:55.589Z</time>
      </trkpt>
      <trkpt lat="48.657382" lon="16.673502">
        <ele>234.234374</ele>
        <time>2020-08-20T08:01:57.567Z</time>
      </trkpt>
      <trkpt lat="48.657294" lon="16.673556">
        <ele>234.080259</ele>
        <time>2020-08-20T08:01:59.573Z</time>
      </trkpt>
      <trkpt lat="48.657199" lon="16.673613">
        <ele>233.914401</ele>
        <time>2020-08-20T08:02:01.561Z</time>
      </trkpt>
      <trkpt lat="48.657102" lon="16.673671">
        <ele>233.745131</ele>
        <time>2020-08-20T08:02:03.573Z</time>
      </trkpt>
      <trkpt lat="48.657008" lon="16.673731">
        <ele>233.579558</ele>
        <time>2020-08-20T08:02:05.563Z</time>
      </trkpt>
      <trkpt lat="48.656914" lon="16.673784">
        <ele>233.416754</ele>
        <time>2020-08-20T08:02:07.591Z</time>
      </trkpt>
      <trkpt lat="48.656825" lon="16.673841">
        <ele>233.259908</ele>
        <time>2020-08-20T08:02:09.588Z</time>
      </trkpt>
      <trkpt lat="48.656711" lon="16.673907">
        <ele>233.061813</ele>
        <time>2020-08-20T08:02:12.602Z</time>
      </trkpt>
      <trkpt lat="48.656587" lon="16.673981">
        <ele>232.845482</ele>
        <time>2020-08-20T08:02:15.592Z</time>
      </trkpt>
      <trkpt lat="48.656493" lon="16.674003">
        <ele>232.691104</ele>
        <time>2020-08-20T08:02:17.573Z</time>
      </trkpt>
      <trkpt lat="48.656396" lon="16.673973">
        <ele>232.530417</ele>
        <time>2020-08-20T08:02:19.555Z</time>
      </trkpt>
      <trkpt lat="48.656297" lon="16.673940">
        <ele>232.440095</ele>
        <time>2020-08-20T08:02:21.560Z</time>
      </trkpt>
      <trkpt lat="48.656194" lon="16.673914">
        <ele>232.380613</ele>
        <time>2020-08-20T08:02:23.564Z</time>
      </trkpt>
      <trkpt lat="48.656086" lon="16.673893">
        <ele>232.318588</ele>
        <time>2020-08-20T08:02:25.588Z</time>
      </trkpt>
      <trkpt lat="48.655976" lon="16.673875">
        <ele>232.255564</ele>
        <time>2020-08-20T08:02:27.571Z</time>
      </trkpt>
      <trkpt lat="48.655864" lon="16.673852">
        <ele>232.191182</ele>
        <time>2020-08-20T08:02:29.607Z</time>
      </trkpt>
      <trkpt lat="48.655746" lon="16.673820">
        <ele>232.122896</ele>
        <time>2020-08-20T08:02:31.589Z</time>
      </trkpt>
      <trkpt lat="48.655618" lon="16.673788">
        <ele>232.048996</ele>
        <time>2020-08-20T08:02:33.565Z</time>
      </trkpt>
      <trkpt lat="48.655488" lon="16.673755">
        <ele>231.973911</ele>
        <time>2020-08-20T08:02:35.574Z</time>
      </trkpt>
      <trkpt lat="48.655356" lon="16.673717">
        <ele>231.897373</ele>
        <time>2020-08-20T08:02:37.585Z</time>
      </trkpt>
      <trkpt lat="48.655223" lon="16.673675">
        <ele>231.819982</ele>
        <time>2020-08-20T08:02:39.599Z</time>
      </trkpt>
      <trkpt lat="48.655098" lon="16.673625">
        <ele>231.746335</ele>
        <time>2020-08-20T08:02:41.568Z</time>
      </trkpt>
      <trkpt lat="48.655005" lon="16.673587">
        <ele>231.691464</ele>
        <time>2020-08-20T08:02:43.576Z</time>
      </trkpt>
      <trkpt lat="48.654801" lon="16.673452">
        <ele>231.564641</ele>
        <time>2020-08-20T08:03:26.563Z</time>
      </trkpt>
      <trkpt lat="48.654700" lon="16.673407">
        <ele>231.504669</ele>
        <time>2020-08-20T08:03:29.577Z</time>
      </trkpt>
      <trkpt lat="48.654613" lon="16.673360">
        <ele>231.454193</ele>
        <time>2020-08-20T08:03:31.568Z</time>
      </trkpt>
      <trkpt lat="48.654514" lon="16.673297">
        <ele>231.429246</ele>
        <time>2020-08-20T08:03:33.581Z</time>
      </trkpt>
      <trkpt lat="48.654424" lon="16.673248">
        <ele>231.407029</ele>
        <time>2020-08-20T08:03:35.562Z</time>
      </trkpt>
      <trkpt lat="48.654326" lon="16.673189">
        <ele>231.382530</ele>
        <time>2020-08-20T08:03:37.574Z</time>
      </trkpt>
      <trkpt lat="48.654228" lon="16.673129">
        <ele>231.357973</ele>
        <time>2020-08-20T08:03:39.581Z</time>
      </trkpt>
      <trkpt lat="48.654136" lon="16.673069">
        <ele>231.334703</ele>
        <time>2020-08-20T08:03:41.576Z</time>
      </trkpt>
      <trkpt lat="48.654050" lon="16.673009">
        <ele>231.312707</ele>
        <time>2020-08-20T08:03:43.570Z</time>
      </trkpt>
      <trkpt lat="48.653961" lon="16.672945">
        <ele>231.289818</ele>
        <time>2020-08-20T08:03:45.556Z</time>
      </trkpt>
      <trkpt lat="48.653869" lon="16.672877">
        <ele>231.266036</ele>
        <time>2020-08-20T08:03:47.572Z</time>
      </trkpt>
      <trkpt lat="48.653783" lon="16.672798">
        <ele>231.242668</ele>
        <time>2020-08-20T08:03:49.574Z</time>
      </trkpt>
      <trkpt lat="48.653702" lon="16.672723">
        <ele>231.220611</ele>
        <time>2020-08-20T08:03:51.581Z</time>
      </trkpt>
      <trkpt lat="48.653623" lon="16.672639">
        <ele>231.198185</ele>
        <time>2020-08-20T08:03:53.588Z</time>
      </trkpt>
      <trkpt lat="48.653536" lon="16.672544">
        <ele>231.173266</ele>
        <time>2020-08-20T08:03:55.589Z</time>
      </trkpt>
      <trkpt lat="48.653447" lon="16.672426">
        <ele>231.145783</ele>
        <time>2020-08-20T08:03:57.570Z</time>
      </trkpt>
      <trkpt lat="48.653357" lon="16.672296">
        <ele>231.116886</ele>
        <time>2020-08-20T08:03:59.588Z</time>
      </trkpt>
      <trkpt lat="48.653285" lon="16.672159">
        <ele>231.090021</ele>
        <time>2020-08-20T08:04:01.573Z</time>
      </trkpt>
      <trkpt lat="48.653214" lon="16.672029">
        <ele>231.064137</ele>
        <time>2020-08-20T08:04:03.568Z</time>
      </trkpt>
      <trkpt lat="48.653144" lon="16.671913">
        <ele>231.040027</ele>
        <time>2020-08-20T08:04:05.575Z</time>
      </trkpt>
      <trkpt lat="48.653082" lon="16.671806">
        <ele>230.992349</ele>
        <time>2020-08-20T08:04:07.586Z</time>
      </trkpt>
      <trkpt lat="48.653021" lon="16.671699">
        <ele>230.942169</ele>
        <time>2020-08-20T08:04:09.565Z</time>
      </trkpt>
      <trkpt lat="48.652934" lon="16.671556">
        <ele>230.873148</ele>
        <time>2020-08-20T08:04:12.556Z</time>
      </trkpt>
      <trkpt lat="48.652847" lon="16.671483">
        <ele>230.819687</ele>
        <time>2020-08-20T08:04:15.561Z</time>
      </trkpt>
      <trkpt lat="48.652768" lon="16.671619">
        <ele>230.755390</ele>
        <time>2020-08-20T08:04:19.556Z</time>
      </trkpt>
      <trkpt lat="48.652715" lon="16.671810">
        <ele>230.681836</ele>
        <time>2020-08-20T08:04:22.559Z</time>
      </trkpt>
      <trkpt lat="48.652676" lon="16.671950">
        <ele>230.627891</ele>
        <time>2020-08-20T08:04:24.578Z</time>
      </trkpt>
      <trkpt lat="48.652637" lon="16.672098">
        <ele>230.571318</ele>
        <time>2020-08-20T08:04:26.575Z</time>
      </trkpt>
      <trkpt lat="48.652608" lon="16.672252">
        <ele>230.514463</ele>
        <time>2020-08-20T08:04:28.556Z</time>
      </trkpt>
      <trkpt lat="48.652583" lon="16.672427">
        <ele>230.450894</ele>
        <time>2020-08-20T08:04:30.574Z</time>
      </trkpt>
      <trkpt lat="48.652551" lon="16.672602">
        <ele>230.386425</ele>
        <time>2020-08-20T08:04:32.569Z</time>
      </trkpt>
      <trkpt lat="48.652520" lon="16.672768">
        <ele>230.325177</ele>
        <time>2020-08-20T08:04:34.570Z</time>
      </trkpt>
      <trkpt lat="48.652487" lon="16.672950">
        <ele>230.258169</ele>
        <time>2020-08-20T08:04:36.581Z</time>
      </trkpt>
      <trkpt lat="48.652458" lon="16.673129">
        <ele>230.192732</ele>
        <time>2020-08-20T08:04:38.567Z</time>
      </trkpt>
      <trkpt lat="48.652426" lon="16.673313">
        <ele>230.125178</ele>
        <time>2020-08-20T08:04:40.580Z</time>
      </trkpt>
      <trkpt lat="48.652385" lon="16.673474">
        <ele>230.060293</ele>
        <time>2020-08-20T08:04:42.589Z</time>
      </trkpt>
      <trkpt lat="48.652336" lon="16.673649">
        <ele>229.959200</ele>
        <time>2020-08-20T08:04:44.603Z</time>
      </trkpt>
      <trkpt lat="48.652281" lon="16.673814">
        <ele>229.860902</ele>
        <time>2020-08-20T08:04:46.576Z</time>
      </trkpt>
      <trkpt lat="48.652225" lon="16.673980">
        <ele>229.761765</ele>
        <time>2020-08-20T08:04:48.600Z</time>
      </trkpt>
      <trkpt lat="48.652174" lon="16.674148">
        <ele>229.663428</ele>
        <time>2020-08-20T08:04:50.554Z</time>
      </trkpt>
      <trkpt lat="48.652128" lon="16.674312">
        <ele>229.568664</ele>
        <time>2020-08-20T08:04:52.573Z</time>
      </trkpt>
      <trkpt lat="48.652077" lon="16.674465">
        <ele>229.477514</ele>
        <time>2020-08-20T08:04:54.570Z</time>
      </trkpt>
      <trkpt lat="48.652030" lon="16.674614">
        <ele>229.389694</ele>
        <time>2020-08-20T08:04:56.569Z</time>
      </trkpt>
      <trkpt lat="48.651966" lon="16.674742">
        <ele>229.304313</ele>
        <time>2020-08-20T08:04:58.564Z</time>
      </trkpt>
      <trkpt lat="48.651872" lon="16.674828">
        <ele>229.215884</ele>
        <time>2020-08-20T08:05:00.561Z</time>
      </trkpt>
      <trkpt lat="48.651792" lon="16.674938">
        <ele>229.128870</ele>
        <time>2020-08-20T08:05:02.570Z</time>
      </trkpt>
      <trkpt lat="48.651713" lon="16.675058">
        <ele>229.038764</ele>
        <time>2020-08-20T08:05:04.569Z</time>
      </trkpt>
      <trkpt lat="48.651640" lon="16.675178">
        <ele>228.952000</ele>
        <time>2020-08-20T08:05:06.557Z</time>
      </trkpt>
      <trkpt lat="48.651559" lon="16.675291">
        <ele>228.863315</ele>
        <time>2020-08-20T08:05:08.573Z</time>
      </trkpt>
      <trkpt lat="48.651471" lon="16.675394">
        <ele>228.773755</ele>
        <time>2020-08-20T08:05:10.562Z</time>
      </trkpt>
      <trkpt lat="48.651380" lon="16.675483">
        <ele>228.686528</ele>
        <time>2020-08-20T08:05:12.585Z</time>
      </trkpt>
      <trkpt lat="48.651292" lon="16.675567">
        <ele>228.610105</ele>
        <time>2020-08-20T08:05:14.559Z</time>
      </trkpt>
      <trkpt lat="48.651199" lon="16.675638">
        <ele>228.556519</ele>
        <time>2020-08-20T08:05:16.559Z</time>
      </trkpt>
      <trkpt lat="48.651109" lon="16.675707">
        <ele>228.504617</ele>
        <time>2020-08-20T08:05:18.560Z</time>
      </trkpt>
      <trkpt lat="48.651014" lon="16.675762">
        <ele>228.452291</ele>
        <time>2020-08-20T08:05:20.567Z</time>
      </trkpt>
      <trkpt lat="48.650914" lon="16.675760">
        <ele>228.400840</ele>
        <time>2020-08-20T08:05:22.597Z</time>
      </trkpt>
      <trkpt lat="48.650810" lon="16.675750">
        <ele>228.347228</ele>
        <time>2020-08-20T08:05:24.546Z</time>
      </trkpt>
      <trkpt lat="48.650704" lon="16.675731">
        <ele>228.292314</ele>
        <time>2020-08-20T08:05:26.553Z</time>
      </trkpt>
      <trkpt lat="48.650604" lon="16.675708">
        <ele>228.240277</ele>
        <time>2020-08-20T08:05:28.564Z</time>
      </trkpt>
      <trkpt lat="48.650497" lon="16.675682">
        <ele>228.184525</ele>
        <time>2020-08-20T08:05:30.566Z</time>
      </trkpt>
      <trkpt lat="48.650394" lon="16.675665">
        <ele>228.131222</ele>
        <time>2020-08-20T08:05:32.562Z</time>
      </trkpt>
      <trkpt lat="48.650294" lon="16.675649">
        <ele>228.079489</ele>
        <time>2020-08-20T08:05:34.565Z</time>
      </trkpt>
      <trkpt lat="48.650194" lon="16.675626">
        <ele>228.027452</ele>
        <time>2020-08-20T08:05:36.589Z</time>
      </trkpt>
      <trkpt lat="48.650093" lon="16.675602">
        <ele>227.974855</ele>
        <time>2020-08-20T08:05:38.580Z</time>
      </trkpt>
      <trkpt lat="48.649997" lon="16.675582">
        <ele>227.925001</ele>
        <time>2020-08-20T08:05:40.561Z</time>
      </trkpt>
      <trkpt lat="48.649905" lon="16.675554">
        <ele>227.876723</ele>
        <time>2020-08-20T08:05:42.588Z</time>
      </trkpt>
      <trkpt lat="48.649814" lon="16.675524">
        <ele>227.828810</ele>
        <time>2020-08-20T08:05:44.569Z</time>
      </trkpt>
      <trkpt lat="48.649683" lon="16.675488">
        <ele>227.760314</ele>
        <time>2020-08-20T08:05:47.575Z</time>
      </trkpt>
      <trkpt lat="48.649560" lon="16.675485">
        <ele>227.696974</ele>
        <time>2020-08-20T08:05:50.561Z</time>
      </trkpt>
      <trkpt lat="48.649438" lon="16.675503">
        <ele>227.629389</ele>
        <time>2020-08-20T08:05:53.584Z</time>
      </trkpt>
      <trkpt lat="48.649309" lon="16.675507">
        <ele>227.558247</ele>
        <time>2020-08-20T08:05:56.588Z</time>
      </trkpt>
      <trkpt lat="48.649178" lon="16.675504">
        <ele>227.486010</ele>
        <time>2020-08-20T08:05:59.572Z</time>
      </trkpt>
      <trkpt lat="48.649051" lon="16.675498">
        <ele>227.415952</ele>
        <time>2020-08-20T08:06:02.577Z</time>
      </trkpt>
      <trkpt lat="48.648956" lon="16.675484">
        <ele>227.363325</ele>
        <time>2020-08-20T08:06:05.557Z</time>
      </trkpt>
      <trkpt lat="48.648799" lon="16.675493">
        <ele>227.276698</ele>
        <time>2020-08-20T08:06:34.557Z</time>
      </trkpt>
      <trkpt lat="48.648693" lon="16.675481">
        <ele>227.218090</ele>
        <time>2020-08-20T08:06:37.588Z</time>
      </trkpt>
      <trkpt lat="48.648588" lon="16.675473">
        <ele>227.160123</ele>
        <time>2020-08-20T08:06:40.562Z</time>
      </trkpt>
      <trkpt lat="48.648485" lon="16.675464">
        <ele>227.103238</ele>
        <time>2020-08-20T08:06:43.555Z</time>
      </trkpt>
      <trkpt lat="48.648387" lon="16.675462">
        <ele>227.049199</ele>
        <time>2020-08-20T08:06:46.583Z</time>
      </trkpt>
      <trkpt lat="48.648296" lon="16.675464">
        <ele>226.999019</ele>
        <time>2020-08-20T08:06:49.557Z</time>
      </trkpt>
      <trkpt lat="48.648205" lon="16.675456">
        <ele>226.948760</ele>
        <time>2020-08-20T08:06:52.574Z</time>
      </trkpt>
      <trkpt lat="48.648114" lon="16.675455">
        <ele>226.898585</ele>
        <time>2020-08-20T08:06:55.594Z</time>
      </trkpt>
      <trkpt lat="48.648022" lon="16.675442">
        <ele>226.847638</ele>
        <time>2020-08-20T08:06:58.600Z</time>
      </trkpt>
      <trkpt lat="48.647928" lon="16.675427">
        <ele>226.795523</ele>
        <time>2020-08-20T08:07:01.579Z</time>
      </trkpt>
      <trkpt lat="48.647835" lon="16.675430">
        <ele>226.744234</ele>
        <time>2020-08-20T08:07:04.589Z</time>
      </trkpt>
      <trkpt lat="48.647732" lon="16.675422">
        <ele>226.698405</ele>
        <time>2020-08-20T08:07:07.566Z</time>
      </trkpt>
      <trkpt lat="48.647631" lon="16.675407">
        <ele>226.675513</ele>
        <time>2020-08-20T08:07:10.579Z</time>
      </trkpt>
      <trkpt lat="48.647531" lon="16.675403">
        <ele>226.652948</ele>
        <time>2020-08-20T08:07:13.588Z</time>
      </trkpt>
      <trkpt lat="48.647428" lon="16.675391">
        <ele>226.629646</ele>
        <time>2020-08-20T08:07:16.577Z</time>
      </trkpt>
      <trkpt lat="48.647321" lon="16.675385">
        <ele>226.605494</ele>
        <time>2020-08-20T08:07:19.564Z</time>
      </trkpt>
      <trkpt lat="48.647211" lon="16.675384">
        <ele>226.580681</ele>
        <time>2020-08-20T08:07:22.594Z</time>
      </trkpt>
      <trkpt lat="48.647101" lon="16.675382">
        <ele>226.555866</ele>
        <time>2020-08-20T08:07:25.560Z</time>
      </trkpt>
      <trkpt lat="48.646989" lon="16.675376">
        <ele>226.530587</ele>
        <time>2020-08-20T08:07:28.563Z</time>
      </trkpt>
      <trkpt lat="48.646878" lon="16.675362">
        <ele>226.505462</ele>
        <time>2020-08-20T08:07:31.560Z</time>
      </trkpt>
      <trkpt lat="48.646787" lon="16.675343">
        <ele>226.484741</ele>
        <time>2020-08-20T08:07:34.569Z</time>
      </trkpt>
      <trkpt lat="48.646673" lon="16.675325">
        <ele>226.458886</ele>
        <time>2020-08-20T08:07:38.565Z</time>
      </trkpt>
      <trkpt lat="48.646582" lon="16.675311">
        <ele>226.438254</ele>
        <time>2020-08-20T08:07:41.580Z</time>
      </trkpt>
      <trkpt lat="48.646481" lon="16.675306">
        <ele>226.415459</ele>
        <time>2020-08-20T08:07:44.564Z</time>
      </trkpt>
      <trkpt lat="48.646384" lon="16.675294">
        <ele>226.393506</ele>
        <time>2020-08-20T08:07:47.597Z</time>
      </trkpt>
      <trkpt lat="48.646287" lon="16.675268">
        <ele>226.371285</ele>
        <time>2020-08-20T08:07:50.598Z</time>
      </trkpt>
      <trkpt lat="48.646186" lon="16.675244">
        <ele>226.348224</ele>
        <time>2020-08-20T08:07:53.564Z</time>
      </trkpt>
      <trkpt lat="48.646086" lon="16.675223">
        <ele>226.325451</ele>
        <time>2020-08-20T08:07:56.561Z</time>
      </trkpt>
      <trkpt lat="48.645993" lon="16.675197">
        <ele>226.304118</ele>
        <time>2020-08-20T08:07:59.568Z</time>
      </trkpt>
      <trkpt lat="48.645900" lon="16.675164">
        <ele>226.337103</ele>
        <time>2020-08-20T08:08:02.579Z</time>
      </trkpt>
      <trkpt lat="48.645783" lon="16.675124">
        <ele>226.393134</ele>
        <time>2020-08-20T08:08:06.574Z</time>
      </trkpt>
      <trkpt lat="48.645694" lon="16.675099">
        <ele>226.435419</ele>
        <time>2020-08-20T08:08:09.570Z</time>
      </trkpt>
      <trkpt lat="48.645605" lon="16.675076">
        <ele>226.477596</ele>
        <time>2020-08-20T08:08:12.566Z</time>
      </trkpt>
      <trkpt lat="48.645509" lon="16.675056">
        <ele>226.522864</ele>
        <time>2020-08-20T08:08:15.550Z</time>
      </trkpt>
      <trkpt lat="48.645403" lon="16.675034">
        <ele>226.572843</ele>
        <time>2020-08-20T08:08:19.572Z</time>
      </trkpt>
      <trkpt lat="48.645313" lon="16.675014">
        <ele>226.615336</ele>
        <time>2020-08-20T08:08:22.590Z</time>
      </trkpt>
      <trkpt lat="48.645210" lon="16.674987">
        <ele>226.664167</ele>
        <time>2020-08-20T08:08:26.577Z</time>
      </trkpt>
      <trkpt lat="48.645114" lon="16.674955">
        <ele>226.710087</ele>
        <time>2020-08-20T08:08:30.586Z</time>
      </trkpt>
      <trkpt lat="48.645015" lon="16.674921">
        <ele>226.757509</ele>
        <time>2020-08-20T08:08:34.557Z</time>
      </trkpt>
      <trkpt lat="48.644912" lon="16.674880">
        <ele>226.807260</ele>
        <time>2020-08-20T08:08:38.590Z</time>
      </trkpt>
      <trkpt lat="48.644798" lon="16.674841">
        <ele>226.861857</ele>
        <time>2020-08-20T08:08:42.589Z</time>
      </trkpt>
      <trkpt lat="48.644691" lon="16.674799">
        <ele>226.913494</ele>
        <time>2020-08-20T08:08:46.575Z</time>
      </trkpt>
      <trkpt lat="48.644599" lon="16.674766">
        <ele>226.957661</ele>
        <time>2020-08-20T08:08:49.566Z</time>
      </trkpt>
      <trkpt lat="48.644497" lon="16.674736">
        <ele>227.006200</ele>
        <time>2020-08-20T08:08:52.578Z</time>
      </trkpt>
      <trkpt lat="48.644393" lon="16.674701">
        <ele>227.055969</ele>
        <time>2020-08-20T08:08:55.574Z</time>
      </trkpt>
      <trkpt lat="48.644285" lon="16.674676">
        <ele>227.107006</ele>
        <time>2020-08-20T08:08:58.579Z</time>
      </trkpt>
      <trkpt lat="48.644174" lon="16.674645">
        <ele>227.234351</ele>
        <time>2020-08-20T08:09:01.547Z</time>
      </trkpt>
      <trkpt lat="48.644081" lon="16.674611">
        <ele>227.452775</ele>
        <time>2020-08-20T08:09:04.583Z</time>
      </trkpt>
      <trkpt lat="48.643988" lon="16.674579">
        <ele>227.670509</ele>
        <time>2020-08-20T08:09:07.556Z</time>
      </trkpt>
      <trkpt lat="48.643900" lon="16.674551">
        <ele>227.875803</ele>
        <time>2020-08-20T08:09:10.555Z</time>
      </trkpt>
      <trkpt lat="48.643795" lon="16.674519">
        <ele>228.120327</ele>
        <time>2020-08-20T08:09:14.597Z</time>
      </trkpt>
      <trkpt lat="48.643703" lon="16.674490">
        <ele>228.334868</ele>
        <time>2020-08-20T08:09:18.565Z</time>
      </trkpt>
      <trkpt lat="48.643595" lon="16.674458">
        <ele>228.586110</ele>
        <time>2020-08-20T08:09:23.600Z</time>
      </trkpt>
      <trkpt lat="48.643488" lon="16.674431">
        <ele>228.833761</ele>
        <time>2020-08-20T08:09:28.572Z</time>
      </trkpt>
      <trkpt lat="48.643391" lon="16.674406">
        <ele>229.058398</ele>
        <time>2020-08-20T08:09:33.598Z</time>
      </trkpt>
      <trkpt lat="48.643304" lon="16.674362">
        <ele>229.267813</ele>
        <time>2020-08-20T08:09:38.584Z</time>
      </trkpt>
      <trkpt lat="48.643215" lon="16.674351">
        <ele>229.471674</ele>
        <time>2020-08-20T08:09:43.567Z</time>
      </trkpt>
      <trkpt lat="48.643111" lon="16.674328">
        <ele>229.711625</ele>
        <time>2020-08-20T08:09:49.562Z</time>
      </trkpt>
      <trkpt lat="48.643016" lon="16.674292">
        <ele>229.935203</ele>
        <time>2020-08-20T08:09:55.592Z</time>
      </trkpt>
      <trkpt lat="48.642917" lon="16.674268">
        <ele>230.164099</ele>
        <time>2020-08-20T08:10:01.569Z</time>
      </trkpt>
      <trkpt lat="48.642817" lon="16.674227">
        <ele>230.400626</ele>
        <time>2020-08-20T08:10:07.574Z</time>
      </trkpt>
      <trkpt lat="48.642728" lon="16.674196">
        <ele>230.609123</ele>
        <time>2020-08-20T08:10:12.554Z</time>
      </trkpt>
      <trkpt lat="48.642637" lon="16.674162">
        <ele>230.823111</ele>
        <time>2020-08-20T08:10:16.588Z</time>
      </trkpt>
      <trkpt lat="48.642545" lon="16.674099">
        <ele>231.053644</ele>
        <time>2020-08-20T08:10:19.588Z</time>
      </trkpt>
      <trkpt lat="48.642416" lon="16.674018">
        <ele>231.306656</ele>
        <time>2020-08-20T08:10:22.582Z</time>
      </trkpt>
      <trkpt lat="48.642314" lon="16.673954">
        <ele>231.426706</ele>
        <time>2020-08-20T08:10:24.569Z</time>
      </trkpt>
      <trkpt lat="48.642193" lon="16.673894">
        <ele>231.565141</ele>
        <time>2020-08-20T08:10:26.564Z</time>
      </trkpt>
      <trkpt lat="48.642066" lon="16.673823">
        <ele>231.712339</ele>
        <time>2020-08-20T08:10:28.582Z</time>
      </trkpt>
      <trkpt lat="48.641925" lon="16.673740">
        <ele>231.876825</ele>
        <time>2020-08-20T08:10:30.579Z</time>
      </trkpt>
      <trkpt lat="48.641773" lon="16.673650">
        <ele>232.054281</ele>
        <time>2020-08-20T08:10:32.555Z</time>
      </trkpt>
      <trkpt lat="48.641612" lon="16.673554">
        <ele>232.242421</ele>
        <time>2020-08-20T08:10:34.554Z</time>
      </trkpt>
      <trkpt lat="48.641447" lon="16.673455">
        <ele>232.435397</ele>
        <time>2020-08-20T08:10:36.554Z</time>
      </trkpt>
      <trkpt lat="48.641364" lon="16.673404">
        <ele>232.532791</ele>
        <time>2020-08-20T08:10:37.560Z</time>
      </trkpt>
      <trkpt lat="48.641279" lon="16.673354">
        <ele>232.631941</ele>
        <time>2020-08-20T08:10:38.567Z</time>
      </trkpt>
      <trkpt lat="48.641193" lon="16.673305">
        <ele>232.731849</ele>
        <time>2020-08-20T08:10:39.585Z</time>
      </trkpt>
      <trkpt lat="48.641107" lon="16.673255">
        <ele>232.832013</ele>
        <time>2020-08-20T08:10:40.570Z</time>
      </trkpt>
      <trkpt lat="48.641021" lon="16.673204">
        <ele>232.932437</ele>
        <time>2020-08-20T08:10:41.564Z</time>
      </trkpt>
      <trkpt lat="48.640935" lon="16.673150">
        <ele>233.033667</ele>
        <time>2020-08-20T08:10:42.570Z</time>
      </trkpt>
      <trkpt lat="48.640848" lon="16.673098">
        <ele>233.135365</ele>
        <time>2020-08-20T08:10:43.563Z</time>
      </trkpt>
      <trkpt lat="48.640759" lon="16.673047">
        <ele>233.195299</ele>
        <time>2020-08-20T08:10:44.560Z</time>
      </trkpt>
      <trkpt lat="48.640671" lon="16.672995">
        <ele>233.175525</ele>
        <time>2020-08-20T08:10:45.559Z</time>
      </trkpt>
      <trkpt lat="48.640583" lon="16.672942">
        <ele>233.155701</ele>
        <time>2020-08-20T08:10:46.569Z</time>
      </trkpt>
      <trkpt lat="48.640495" lon="16.672889">
        <ele>233.135877</ele>
        <time>2020-08-20T08:10:47.597Z</time>
      </trkpt>
      <trkpt lat="48.640405" lon="16.672840">
        <ele>233.115857</ele>
        <time>2020-08-20T08:10:48.548Z</time>
      </trkpt>
      <trkpt lat="48.640317" lon="16.672789">
        <ele>233.096134</ele>
        <time>2020-08-20T08:10:49.586Z</time>
      </trkpt>
      <trkpt lat="48.640229" lon="16.672737">
        <ele>233.076361</ele>
        <time>2020-08-20T08:10:50.570Z</time>
      </trkpt>
      <trkpt lat="48.640144" lon="16.672684">
        <ele>233.057119</ele>
        <time>2020-08-20T08:10:51.590Z</time>
      </trkpt>
      <trkpt lat="48.640059" lon="16.672635">
        <ele>233.038080</ele>
        <time>2020-08-20T08:10:52.559Z</time>
      </trkpt>
      <trkpt lat="48.639976" lon="16.672581">
        <ele>233.019171</ele>
        <time>2020-08-20T08:10:53.580Z</time>
      </trkpt>
      <trkpt lat="48.639809" lon="16.672485">
        <ele>232.981779</ele>
        <time>2020-08-20T08:10:55.600Z</time>
      </trkpt>
      <trkpt lat="48.639646" lon="16.672386">
        <ele>232.945017</ele>
        <time>2020-08-20T08:10:57.576Z</time>
      </trkpt>
      <trkpt lat="48.639486" lon="16.672289">
        <ele>232.908941</ele>
        <time>2020-08-20T08:10:59.560Z</time>
      </trkpt>
      <trkpt lat="48.639332" lon="16.672194">
        <ele>232.874132</ele>
        <time>2020-08-20T08:11:01.590Z</time>
      </trkpt>
      <trkpt lat="48.639184" lon="16.672103">
        <ele>232.840695</ele>
        <time>2020-08-20T08:11:03.560Z</time>
      </trkpt>
      <trkpt lat="48.639045" lon="16.672018">
        <ele>232.833957</ele>
        <time>2020-08-20T08:11:05.576Z</time>
      </trkpt>
      <trkpt lat="48.638903" lon="16.671978">
        <ele>232.848760</ele>
        <time>2020-08-20T08:11:07.573Z</time>
      </trkpt>
      <trkpt lat="48.638770" lon="16.671930">
        <ele>232.862774</ele>
        <time>2020-08-20T08:11:09.594Z</time>
      </trkpt>
      <trkpt lat="48.638643" lon="16.671874">
        <ele>232.876331</ele>
        <time>2020-08-20T08:11:11.574Z</time>
      </trkpt>
      <trkpt lat="48.638521" lon="16.671803">
        <ele>232.889728</ele>
        <time>2020-08-20T08:11:13.582Z</time>
      </trkpt>
      <trkpt lat="48.638405" lon="16.671731">
        <ele>232.902578</ele>
        <time>2020-08-20T08:11:15.559Z</time>
      </trkpt>
      <trkpt lat="48.638293" lon="16.671663">
        <ele>232.914946</ele>
        <time>2020-08-20T08:11:17.569Z</time>
      </trkpt>
      <trkpt lat="48.638189" lon="16.671596">
        <ele>232.926530</ele>
        <time>2020-08-20T08:11:19.568Z</time>
      </trkpt>
      <trkpt lat="48.638089" lon="16.671533">
        <ele>232.937632</ele>
        <time>2020-08-20T08:11:21.583Z</time>
      </trkpt>
      <trkpt lat="48.637991" lon="16.671474">
        <ele>232.948442</ele>
        <time>2020-08-20T08:11:23.559Z</time>
      </trkpt>
      <trkpt lat="48.637897" lon="16.671417">
        <ele>232.958820</ele>
        <time>2020-08-20T08:11:25.588Z</time>
      </trkpt>
      <trkpt lat="48.637804" lon="16.671361">
        <ele>232.969079</ele>
        <time>2020-08-20T08:11:27.604Z</time>
      </trkpt>
      <trkpt lat="48.637712" lon="16.671308">
        <ele>232.979168</ele>
        <time>2020-08-20T08:11:29.573Z</time>
      </trkpt>
      <trkpt lat="48.637623" lon="16.671257">
        <ele>232.988921</ele>
        <time>2020-08-20T08:11:31.554Z</time>
      </trkpt>
      <trkpt lat="48.637536" lon="16.671212">
        <ele>232.998344</ele>
        <time>2020-08-20T08:11:33.567Z</time>
      </trkpt>
      <trkpt lat="48.637410" lon="16.671146">
        <ele>233.029864</ele>
        <time>2020-08-20T08:11:36.561Z</time>
      </trkpt>
      <trkpt lat="48.637286" lon="16.671073">
        <ele>233.177959</ele>
        <time>2020-08-20T08:11:39.580Z</time>
      </trkpt>
      <trkpt lat="48.637173" lon="16.671005">
        <ele>233.313314</ele>
        <time>2020-08-20T08:11:42.558Z</time>
      </trkpt>
      <trkpt lat="48.637069" lon="16.670938">
        <ele>233.439125</ele>
        <time>2020-08-20T08:11:45.572Z</time>
      </trkpt>
      <trkpt lat="48.636970" lon="16.670871">
        <ele>233.559835</ele>
        <time>2020-08-20T08:11:48.562Z</time>
      </trkpt>
      <trkpt lat="48.636876" lon="16.670804">
        <ele>233.675487</ele>
        <time>2020-08-20T08:11:51.572Z</time>
      </trkpt>
      <trkpt lat="48.636782" lon="16.670731">
        <ele>233.793088</ele>
        <time>2020-08-20T08:11:54.580Z</time>
      </trkpt>
      <trkpt lat="48.636691" lon="16.670667">
        <ele>233.904781</ele>
        <time>2020-08-20T08:11:57.560Z</time>
      </trkpt>
      <trkpt lat="48.636602" lon="16.670614">
        <ele>234.011237</ele>
        <time>2020-08-20T08:12:00.569Z</time>
      </trkpt>
      <trkpt lat="48.636495" lon="16.670554">
        <ele>234.138248</ele>
        <time>2020-08-20T08:12:04.578Z</time>
      </trkpt>
      <trkpt lat="48.636405" lon="16.670503">
        <ele>234.245216</ele>
        <time>2020-08-20T08:12:08.586Z</time>
      </trkpt>
      <trkpt lat="48.636305" lon="16.670455">
        <ele>234.361987</ele>
        <time>2020-08-20T08:12:13.601Z</time>
      </trkpt>
      <trkpt lat="48.636197" lon="16.670408">
        <ele>234.487069</ele>
        <time>2020-08-20T08:12:18.597Z</time>
      </trkpt>
      <trkpt lat="48.636105" lon="16.670380">
        <ele>234.591521</ele>
        <time>2020-08-20T08:12:22.568Z</time>
      </trkpt>
      <trkpt lat="48.636016" lon="16.670332">
        <ele>234.696686</ele>
        <time>2020-08-20T08:12:26.596Z</time>
      </trkpt>
      <trkpt lat="48.635920" lon="16.670262">
        <ele>234.815298</ele>
        <time>2020-08-20T08:12:31.570Z</time>
      </trkpt>
      <trkpt lat="48.635822" lon="16.670198">
        <ele>234.934102</ele>
        <time>2020-08-20T08:12:36.599Z</time>
      </trkpt>
      <trkpt lat="48.635729" lon="16.670133">
        <ele>235.082851</ele>
        <time>2020-08-20T08:12:41.555Z</time>
      </trkpt>
      <trkpt lat="48.635638" lon="16.670077">
        <ele>235.297855</ele>
        <time>2020-08-20T08:12:46.546Z</time>
      </trkpt>
      <trkpt lat="48.635551" lon="16.670025">
        <ele>235.502580</ele>
        <time>2020-08-20T08:12:50.583Z</time>
      </trkpt>
      <trkpt lat="48.635447" lon="16.669965">
        <ele>235.746178</ele>
        <time>2020-08-20T08:12:55.580Z</time>
      </trkpt>
      <trkpt lat="48.635351" lon="16.669911">
        <ele>235.970333</ele>
        <time>2020-08-20T08:13:00.582Z</time>
      </trkpt>
      <trkpt lat="48.635244" lon="16.669854">
        <ele>236.218603</ele>
        <time>2020-08-20T08:13:05.567Z</time>
      </trkpt>
      <trkpt lat="48.635162" lon="16.669792">
        <ele>236.419226</ele>
        <time>2020-08-20T08:13:09.552Z</time>
      </trkpt>
      <trkpt lat="48.635056" lon="16.669737">
        <ele>236.664479</ele>
        <time>2020-08-20T08:13:14.576Z</time>
      </trkpt>
      <trkpt lat="48.634967" lon="16.669682">
        <ele>236.874884</ele>
        <time>2020-08-20T08:13:18.569Z</time>
      </trkpt>
      <trkpt lat="48.634880" lon="16.669622">
        <ele>237.084137</ele>
        <time>2020-08-20T08:13:22.564Z</time>
      </trkpt>
      <trkpt lat="48.634783" lon="16.669596">
        <ele>237.299738</ele>
        <time>2020-08-20T08:13:26.569Z</time>
      </trkpt>
      <trkpt lat="48.634694" lon="16.669550">
        <ele>237.505575</ele>
        <time>2020-08-20T08:13:30.582Z</time>
      </trkpt>
      <trkpt lat="48.634610" lon="16.669490">
        <ele>237.708872</ele>
        <time>2020-08-20T08:13:34.566Z</time>
      </trkpt>
      <trkpt lat="48.634509" lon="16.669425">
        <ele>237.949084</ele>
        <time>2020-08-20T08:13:39.608Z</time>
      </trkpt>
      <trkpt lat="48.634423" lon="16.669377">
        <ele>238.149701</ele>
        <time>2020-08-20T08:13:43.569Z</time>
      </trkpt>
      <trkpt lat="48.634336" lon="16.669335">
        <ele>238.349567</ele>
        <time>2020-08-20T08:13:47.557Z</time>
      </trkpt>
      <trkpt lat="48.634237" lon="16.669278">
        <ele>238.581395</ele>
        <time>2020-08-20T08:13:52.589Z</time>
      </trkpt>
      <trkpt lat="48.634152" lon="16.669222">
        <ele>238.784296</ele>
        <time>2020-08-20T08:13:56.559Z</time>
      </trkpt>
      <trkpt lat="48.634066" lon="16.669173">
        <ele>238.988871</ele>
        <time>2020-08-20T08:14:00.559Z</time>
      </trkpt>
      <trkpt lat="48.633976" lon="16.669126">
        <ele>239.216863</ele>
        <time>2020-08-20T08:14:04.585Z</time>
      </trkpt>
      <trkpt lat="48.633881" lon="16.669067">
        <ele>239.462770</ele>
        <time>2020-08-20T08:14:08.593Z</time>
      </trkpt>
      <trkpt lat="48.633788" lon="16.669005">
        <ele>239.706128</ele>
        <time>2020-08-20T08:14:12.561Z</time>
      </trkpt>
      <trkpt lat="48.633687" lon="16.668944">
        <ele>239.966540</ele>
        <time>2020-08-20T08:14:16.601Z</time>
      </trkpt>
      <trkpt lat="48.633579" lon="16.668888">
        <ele>240.239924</ele>
        <time>2020-08-20T08:14:20.588Z</time>
      </trkpt>
      <trkpt lat="48.633479" lon="16.668819">
        <ele>240.503110</ele>
        <time>2020-08-20T08:14:24.618Z</time>
      </trkpt>
      <trkpt lat="48.633379" lon="16.668760">
        <ele>240.760134</ele>
        <time>2020-08-20T08:14:28.570Z</time>
      </trkpt>
      <trkpt lat="48.633282" lon="16.668697">
        <ele>241.012907</ele>
        <time>2020-08-20T08:14:32.570Z</time>
      </trkpt>
      <trkpt lat="48.633175" lon="16.668646">
        <ele>241.281545</ele>
        <time>2020-08-20T08:14:36.556Z</time>
      </trkpt>
      <trkpt lat="48.633066" lon="16.668594">
        <ele>241.555227</ele>
        <time>2020-08-20T08:14:40.579Z</time>
      </trkpt>
      <trkpt lat="48.632961" lon="16.668544">
        <ele>241.818821</ele>
        <time>2020-08-20T08:14:44.558Z</time>
      </trkpt>
      <trkpt lat="48.632862" lon="16.668491">
        <ele>242.070291</ele>
        <time>2020-08-20T08:14:48.573Z</time>
      </trkpt>
      <trkpt lat="48.632758" lon="16.668425">
        <ele>242.340350</ele>
        <time>2020-08-20T08:14:52.550Z</time>
      </trkpt>
      <trkpt lat="48.632660" lon="16.668359">
        <ele>242.597220</ele>
        <time>2020-08-20T08:14:56.562Z</time>
      </trkpt>
      <trkpt lat="48.632563" lon="16.668305">
        <ele>242.844723</ele>
        <time>2020-08-20T08:15:00.595Z</time>
      </trkpt>
      <trkpt lat="48.632471" lon="16.668257">
        <ele>243.077758</ele>
        <time>2020-08-20T08:15:04.566Z</time>
      </trkpt>
      <trkpt lat="48.632375" lon="16.668227">
        <ele>243.327361</ele>
        <time>2020-08-20T08:15:08.568Z</time>
      </trkpt>
      <trkpt lat="48.632282" lon="16.668197">
        <ele>243.614808</ele>
        <time>2020-08-20T08:15:12.554Z</time>
      </trkpt>
      <trkpt lat="48.632193" lon="16.668169">
        <ele>243.889600</ele>
        <time>2020-08-20T08:15:16.565Z</time>
      </trkpt>
      <trkpt lat="48.632094" lon="16.668133">
        <ele>244.197389</ele>
        <time>2020-08-20T08:15:21.567Z</time>
      </trkpt>
      <trkpt lat="48.631994" lon="16.668084">
        <ele>244.515134</ele>
        <time>2020-08-20T08:15:26.580Z</time>
      </trkpt>
      <trkpt lat="48.631902" lon="16.668056">
        <ele>244.798811</ele>
        <time>2020-08-20T08:15:30.577Z</time>
      </trkpt>
      <trkpt lat="48.631804" lon="16.668032">
        <ele>245.098911</ele>
        <time>2020-08-20T08:15:34.586Z</time>
      </trkpt>
      <trkpt lat="48.631715" lon="16.667998">
        <ele>245.376392</ele>
        <time>2020-08-20T08:15:37.555Z</time>
      </trkpt>
      <trkpt lat="48.631611" lon="16.667967">
        <ele>245.696816</ele>
        <time>2020-08-20T08:15:40.556Z</time>
      </trkpt>
      <trkpt lat="48.631487" lon="16.667937">
        <ele>246.076417</ele>
        <time>2020-08-20T08:15:43.569Z</time>
      </trkpt>
      <trkpt lat="48.631393" lon="16.667913">
        <ele>246.364587</ele>
        <time>2020-08-20T08:15:45.575Z</time>
      </trkpt>
      <trkpt lat="48.631295" lon="16.667882">
        <ele>246.667236</ele>
        <time>2020-08-20T08:15:47.591Z</time>
      </trkpt>
      <trkpt lat="48.631192" lon="16.667855">
        <ele>246.983233</ele>
        <time>2020-08-20T08:15:49.561Z</time>
      </trkpt>
      <trkpt lat="48.631089" lon="16.667830">
        <ele>247.298573</ele>
        <time>2020-08-20T08:15:51.575Z</time>
      </trkpt>
      <trkpt lat="48.630986" lon="16.667806">
        <ele>247.613602</ele>
        <time>2020-08-20T08:15:53.566Z</time>
      </trkpt>
      <trkpt lat="48.630891" lon="16.667795">
        <ele>247.901617</ele>
        <time>2020-08-20T08:15:55.572Z</time>
      </trkpt>
      <trkpt lat="48.630785" lon="16.667888">
        <ele>248.272017</ele>
        <time>2020-08-20T08:15:58.554Z</time>
      </trkpt>
      <trkpt lat="48.630762" lon="16.668070">
        <ele>248.642215</ele>
        <time>2020-08-20T08:16:01.568Z</time>
      </trkpt>
      <trkpt lat="48.630754" lon="16.668216">
        <ele>248.743130</ele>
        <time>2020-08-20T08:16:03.567Z</time>
      </trkpt>
      <trkpt lat="48.630757" lon="16.668362">
        <ele>248.803644</ele>
        <time>2020-08-20T08:16:05.571Z</time>
      </trkpt>
      <trkpt lat="48.630775" lon="16.668521">
        <ele>248.870474</ele>
        <time>2020-08-20T08:16:07.575Z</time>
      </trkpt>
      <trkpt lat="48.630790" lon="16.668679">
        <ele>248.936602</ele>
        <time>2020-08-20T08:16:09.556Z</time>
      </trkpt>
      <trkpt lat="48.630808" lon="16.668832">
        <ele>249.000983</ele>
        <time>2020-08-20T08:16:11.570Z</time>
      </trkpt>
      <trkpt lat="48.630826" lon="16.668989">
        <ele>249.066997</ele>
        <time>2020-08-20T08:16:13.569Z</time>
      </trkpt>
      <trkpt lat="48.630834" lon="16.669147">
        <ele>249.132645</ele>
        <time>2020-08-20T08:16:15.571Z</time>
      </trkpt>
      <trkpt lat="48.630785" lon="16.669285">
        <ele>249.197544</ele>
        <time>2020-08-20T08:16:17.556Z</time>
      </trkpt>
      <trkpt lat="48.630700" lon="16.669361">
        <ele>249.259433</ele>
        <time>2020-08-20T08:16:19.565Z</time>
      </trkpt>
      <trkpt lat="48.630605" lon="16.669453">
        <ele>249.330135</ele>
        <time>2020-08-20T08:16:21.568Z</time>
      </trkpt>
      <trkpt lat="48.630509" lon="16.669558">
        <ele>249.404387</ele>
        <time>2020-08-20T08:16:23.591Z</time>
      </trkpt>
      <trkpt lat="48.630412" lon="16.669664">
        <ele>249.479390</ele>
        <time>2020-08-20T08:16:25.575Z</time>
      </trkpt>
      <trkpt lat="48.630311" lon="16.669777">
        <ele>249.558129</ele>
        <time>2020-08-20T08:16:27.561Z</time>
      </trkpt>
      <trkpt lat="48.630206" lon="16.669896">
        <ele>249.640363</ele>
        <time>2020-08-20T08:16:29.569Z</time>
      </trkpt>
      <trkpt lat="48.630094" lon="16.670015">
        <ele>249.726149</ele>
        <time>2020-08-20T08:16:31.586Z</time>
      </trkpt>
      <trkpt lat="48.629983" lon="16.670140">
        <ele>249.812884</ele>
        <time>2020-08-20T08:16:33.572Z</time>
      </trkpt>
      <trkpt lat="48.629866" lon="16.670262">
        <ele>249.807378</ele>
        <time>2020-08-20T08:16:35.565Z</time>
      </trkpt>
      <trkpt lat="48.629748" lon="16.670385">
        <ele>249.793021</ele>
        <time>2020-08-20T08:16:37.582Z</time>
      </trkpt>
      <trkpt lat="48.629630" lon="16.670514">
        <ele>249.778434</ele>
        <time>2020-08-20T08:16:39.571Z</time>
      </trkpt>
      <trkpt lat="48.629510" lon="16.670649">
        <ele>249.763451</ele>
        <time>2020-08-20T08:16:41.564Z</time>
      </trkpt>
      <trkpt lat="48.629388" lon="16.670789">
        <ele>249.748109</ele>
        <time>2020-08-20T08:16:43.588Z</time>
      </trkpt>
      <trkpt lat="48.629265" lon="16.670936">
        <ele>249.732404</ele>
        <time>2020-08-20T08:16:45.576Z</time>
      </trkpt>
      <trkpt lat="48.629136" lon="16.671084">
        <ele>249.716183</ele>
        <time>2020-08-20T08:16:47.560Z</time>
      </trkpt>
      <trkpt lat="48.629002" lon="16.671226">
        <ele>249.699791</ele>
        <time>2020-08-20T08:16:49.577Z</time>
      </trkpt>
      <trkpt lat="48.628865" lon="16.671367">
        <ele>249.683189</ele>
        <time>2020-08-20T08:16:51.583Z</time>
      </trkpt>
      <trkpt lat="48.628732" lon="16.671516">
        <ele>249.666608</ele>
        <time>2020-08-20T08:16:53.564Z</time>
      </trkpt>
      <trkpt lat="48.628601" lon="16.671672">
        <ele>249.649904</ele>
        <time>2020-08-20T08:16:55.586Z</time>
      </trkpt>
      <trkpt lat="48.628469" lon="16.671834">
        <ele>249.612059</ele>
        <time>2020-08-20T08:16:57.566Z</time>
      </trkpt>
      <trkpt lat="48.628336" lon="16.672006">
        <ele>249.544679</ele>
        <time>2020-08-20T08:16:59.556Z</time>
      </trkpt>
      <trkpt lat="48.628201" lon="16.672178">
        <ele>249.476712</ele>
        <time>2020-08-20T08:17:01.574Z</time>
      </trkpt>
      <trkpt lat="48.628065" lon="16.672350">
        <ele>249.408449</ele>
        <time>2020-08-20T08:17:03.571Z</time>
      </trkpt>
      <trkpt lat="48.627996" lon="16.672437">
        <ele>249.373859</ele>
        <time>2020-08-20T08:17:04.584Z</time>
      </trkpt>
      <trkpt lat="48.627865" lon="16.672617">
        <ele>249.305710</ele>
        <time>2020-08-20T08:17:06.568Z</time>
      </trkpt>
      <trkpt lat="48.627728" lon="16.672783">
        <ele>249.238117</ele>
        <time>2020-08-20T08:17:08.566Z</time>
      </trkpt>
      <trkpt lat="48.627631" lon="16.672949">
        <ele>249.181718</ele>
        <time>2020-08-20T08:17:10.559Z</time>
      </trkpt>
      <trkpt lat="48.627586" lon="16.673154">
        <ele>249.126736</ele>
        <time>2020-08-20T08:17:12.580Z</time>
      </trkpt>
      <trkpt lat="48.627526" lon="16.673350">
        <ele>249.071755</ele>
        <time>2020-08-20T08:17:14.571Z</time>
      </trkpt>
      <trkpt lat="48.627463" lon="16.673554">
        <ele>249.014441</ele>
        <time>2020-08-20T08:17:16.562Z</time>
      </trkpt>
      <trkpt lat="48.627397" lon="16.673752">
        <ele>248.957996</ele>
        <time>2020-08-20T08:17:18.568Z</time>
      </trkpt>
      <trkpt lat="48.627326" lon="16.673945">
        <ele>248.919613</ele>
        <time>2020-08-20T08:17:20.564Z</time>
      </trkpt>
      <trkpt lat="48.627254" lon="16.674131">
        <ele>248.886141</ele>
        <time>2020-08-20T08:17:22.572Z</time>
      </trkpt>
      <trkpt lat="48.627184" lon="16.674311">
        <ele>248.853710</ele>
        <time>2020-08-20T08:17:24.581Z</time>
      </trkpt>
      <trkpt lat="48.627115" lon="16.674492">
        <ele>248.821263</ele>
        <time>2020-08-20T08:17:26.568Z</time>
      </trkpt>
      <trkpt lat="48.627051" lon="16.674677">
        <ele>248.788838</ele>
        <time>2020-08-20T08:17:28.561Z</time>
      </trkpt>
      <trkpt lat="48.626989" lon="16.674862">
        <ele>248.756628</ele>
        <time>2020-08-20T08:17:30.575Z</time>
      </trkpt>
      <trkpt lat="48.626921" lon="16.675038">
        <ele>248.724971</ele>
        <time>2020-08-20T08:17:32.588Z</time>
      </trkpt>
      <trkpt lat="48.626853" lon="16.675208">
        <ele>248.694114</ele>
        <time>2020-08-20T08:17:34.589Z</time>
      </trkpt>
      <trkpt lat="48.626783" lon="16.675372">
        <ele>248.663798</ele>
        <time>2020-08-20T08:17:36.583Z</time>
      </trkpt>
      <trkpt lat="48.626712" lon="16.675522">
        <ele>248.635148</ele>
        <time>2020-08-20T08:17:38.582Z</time>
      </trkpt>
      <trkpt lat="48.626641" lon="16.675669">
        <ele>248.606875</ele>
        <time>2020-08-20T08:17:40.578Z</time>
      </trkpt>
      <trkpt lat="48.626568" lon="16.675813">
        <ele>248.578694</ele>
        <time>2020-08-20T08:17:42.570Z</time>
      </trkpt>
      <trkpt lat="48.626497" lon="16.675957">
        <ele>248.550796</ele>
        <time>2020-08-20T08:17:44.572Z</time>
      </trkpt>
      <trkpt lat="48.626431" lon="16.676096">
        <ele>248.522531</ele>
        <time>2020-08-20T08:17:46.591Z</time>
      </trkpt>
      <trkpt lat="48.626377" lon="16.676243">
        <ele>248.435827</ele>
        <time>2020-08-20T08:17:48.586Z</time>
      </trkpt>
      <trkpt lat="48.626357" lon="16.676386">
        <ele>248.360470</ele>
        <time>2020-08-20T08:17:50.578Z</time>
      </trkpt>
      <trkpt lat="48.626331" lon="16.676531">
        <ele>248.283012</ele>
        <time>2020-08-20T08:17:52.580Z</time>
      </trkpt>
      <trkpt lat="48.626254" lon="16.676612">
        <ele>248.209860</ele>
        <time>2020-08-20T08:17:55.572Z</time>
      </trkpt>
      <trkpt lat="48.626154" lon="16.676610">
        <ele>248.131853</ele>
        <time>2020-08-20T08:17:57.564Z</time>
      </trkpt>
      <trkpt lat="48.626048" lon="16.676652">
        <ele>248.046384</ele>
        <time>2020-08-20T08:17:59.566Z</time>
      </trkpt>
      <trkpt lat="48.625945" lon="16.676721">
        <ele>247.958521</ele>
        <time>2020-08-20T08:18:01.564Z</time>
      </trkpt>
      <trkpt lat="48.625848" lon="16.676809">
        <ele>247.870300</ele>
        <time>2020-08-20T08:18:03.571Z</time>
      </trkpt>
      <trkpt lat="48.625760" lon="16.676931">
        <ele>247.777199</ele>
        <time>2020-08-20T08:18:05.557Z</time>
      </trkpt>
      <trkpt lat="48.625657" lon="16.677030">
        <ele>247.682017</ele>
        <time>2020-08-20T08:18:07.594Z</time>
      </trkpt>
      <trkpt lat="48.625554" lon="16.677131">
        <ele>247.586277</ele>
        <time>2020-08-20T08:18:09.571Z</time>
      </trkpt>
      <trkpt lat="48.625448" lon="16.677229">
        <ele>247.489381</ele>
        <time>2020-08-20T08:18:11.562Z</time>
      </trkpt>
      <trkpt lat="48.625344" lon="16.677325">
        <ele>247.394354</ele>
        <time>2020-08-20T08:18:13.562Z</time>
      </trkpt>
      <trkpt lat="48.625239" lon="16.677418">
        <ele>247.299450</ele>
        <time>2020-08-20T08:18:15.586Z</time>
      </trkpt>
      <trkpt lat="48.625134" lon="16.677509">
        <ele>247.205064</ele>
        <time>2020-08-20T08:18:17.569Z</time>
      </trkpt>
      <trkpt lat="48.625032" lon="16.677594">
        <ele>247.106782</ele>
        <time>2020-08-20T08:18:19.603Z</time>
      </trkpt>
      <trkpt lat="48.624933" lon="16.677680">
        <ele>246.932315</ele>
        <time>2020-08-20T08:18:21.576Z</time>
      </trkpt>
      <trkpt lat="48.624832" lon="16.677770">
        <ele>246.753174</ele>
        <time>2020-08-20T08:18:23.559Z</time>
      </trkpt>
      <trkpt lat="48.624735" lon="16.677859">
        <ele>246.579799</ele>
        <time>2020-08-20T08:18:25.582Z</time>
      </trkpt>
      <trkpt lat="48.624640" lon="16.677946">
        <ele>246.410084</ele>
        <time>2020-08-20T08:18:27.577Z</time>
      </trkpt>
      <trkpt lat="48.624550" lon="16.678030">
        <ele>246.248471</ele>
        <time>2020-08-20T08:18:29.579Z</time>
      </trkpt>
      <trkpt lat="48.624458" lon="16.678113">
        <ele>246.084767</ele>
        <time>2020-08-20T08:18:31.557Z</time>
      </trkpt>
      <trkpt lat="48.624367" lon="16.678195">
        <ele>245.922894</ele>
        <time>2020-08-20T08:18:33.582Z</time>
      </trkpt>
      <trkpt lat="48.624269" lon="16.678265">
        <ele>245.757268</ele>
        <time>2020-08-20T08:18:35.579Z</time>
      </trkpt>
      <trkpt lat="48.624171" lon="16.678331">
        <ele>245.593327</ele>
        <time>2020-08-20T08:18:37.576Z</time>
      </trkpt>
      <trkpt lat="48.624064" lon="16.678388">
        <ele>245.419959</ele>
        <time>2020-08-20T08:18:39.565Z</time>
      </trkpt>
      <trkpt lat="48.623950" lon="16.678428">
        <ele>245.241111</ele>
        <time>2020-08-20T08:18:41.596Z</time>
      </trkpt>
      <trkpt lat="48.623836" lon="16.678460">
        <ele>245.063914</ele>
        <time>2020-08-20T08:18:43.569Z</time>
      </trkpt>
      <trkpt lat="48.623723" lon="16.678491">
        <ele>244.888401</ele>
        <time>2020-08-20T08:18:45.589Z</time>
      </trkpt>
      <trkpt lat="48.623609" lon="16.678506">
        <ele>244.713520</ele>
        <time>2020-08-20T08:18:47.576Z</time>
      </trkpt>
      <trkpt lat="48.623498" lon="16.678514">
        <ele>244.543688</ele>
        <time>2020-08-20T08:18:49.571Z</time>
      </trkpt>
      <trkpt lat="48.623387" lon="16.678510">
        <ele>244.374001</ele>
        <time>2020-08-20T08:18:51.598Z</time>
      </trkpt>
      <trkpt lat="48.623277" lon="16.678491">
        <ele>244.261610</ele>
        <time>2020-08-20T08:18:53.557Z</time>
      </trkpt>
      <trkpt lat="48.623161" lon="16.678463">
        <ele>244.142663</ele>
        <time>2020-08-20T08:18:55.560Z</time>
      </trkpt>
      <trkpt lat="48.623044" lon="16.678423">
        <ele>244.021202</ele>
        <time>2020-08-20T08:18:57.557Z</time>
      </trkpt>
      <trkpt lat="48.622926" lon="16.678381">
        <ele>243.898453</ele>
        <time>2020-08-20T08:18:59.569Z</time>
      </trkpt>
      <trkpt lat="48.622805" lon="16.678339">
        <ele>243.772745</ele>
        <time>2020-08-20T08:19:01.580Z</time>
      </trkpt>
      <trkpt lat="48.622680" lon="16.678295">
        <ele>243.642789</ele>
        <time>2020-08-20T08:19:03.557Z</time>
      </trkpt>
      <trkpt lat="48.622556" lon="16.678245">
        <ele>243.512843</ele>
        <time>2020-08-20T08:19:05.592Z</time>
      </trkpt>
      <trkpt lat="48.622429" lon="16.678207">
        <ele>243.381752</ele>
        <time>2020-08-20T08:19:07.577Z</time>
      </trkpt>
      <trkpt lat="48.622302" lon="16.678165">
        <ele>243.250115</ele>
        <time>2020-08-20T08:19:09.566Z</time>
      </trkpt>
      <trkpt lat="48.622173" lon="16.678119">
        <ele>243.115911</ele>
        <time>2020-08-20T08:19:11.571Z</time>
      </trkpt>
      <trkpt lat="48.622042" lon="16.678075">
        <ele>242.980030</ele>
        <time>2020-08-20T08:19:13.558Z</time>
      </trkpt>
      <trkpt lat="48.621915" lon="16.678036">
        <ele>242.848808</ele>
        <time>2020-08-20T08:19:15.582Z</time>
      </trkpt>
      <trkpt lat="48.621792" lon="16.677992">
        <ele>242.720823</ele>
        <time>2020-08-20T08:19:17.575Z</time>
      </trkpt>
      <trkpt lat="48.621666" lon="16.677960">
        <ele>242.591451</ele>
        <time>2020-08-20T08:19:19.555Z</time>
      </trkpt>
      <trkpt lat="48.621546" lon="16.677920">
        <ele>242.473268</ele>
        <time>2020-08-20T08:19:21.570Z</time>
      </trkpt>
      <trkpt lat="48.621428" lon="16.677897">
        <ele>242.361661</ele>
        <time>2020-08-20T08:19:23.580Z</time>
      </trkpt>
      <trkpt lat="48.621308" lon="16.677853">
        <ele>242.245834</ele>
        <time>2020-08-20T08:19:25.584Z</time>
      </trkpt>
      <trkpt lat="48.621190" lon="16.677806">
        <ele>242.131369</ele>
        <time>2020-08-20T08:19:27.560Z</time>
      </trkpt>
      <trkpt lat="48.621072" lon="16.677765">
        <ele>242.017795</ele>
        <time>2020-08-20T08:19:29.584Z</time>
      </trkpt>
      <trkpt lat="48.620951" lon="16.677731">
        <ele>241.902347</ele>
        <time>2020-08-20T08:19:31.569Z</time>
      </trkpt>
      <trkpt lat="48.620832" lon="16.677696">
        <ele>241.788626</ele>
        <time>2020-08-20T08:19:33.587Z</time>
      </trkpt>
      <trkpt lat="48.620711" lon="16.677658">
        <ele>241.672700</ele>
        <time>2020-08-20T08:19:35.569Z</time>
      </trkpt>
      <trkpt lat="48.620591" lon="16.677617">
        <ele>241.557296</ele>
        <time>2020-08-20T08:19:37.580Z</time>
      </trkpt>
      <trkpt lat="48.620470" lon="16.677577">
        <ele>241.441111</ele>
        <time>2020-08-20T08:19:39.583Z</time>
      </trkpt>
      <trkpt lat="48.620347" lon="16.677538">
        <ele>241.323222</ele>
        <time>2020-08-20T08:19:41.573Z</time>
      </trkpt>
      <trkpt lat="48.620223" lon="16.677506">
        <ele>241.205221</ele>
        <time>2020-08-20T08:19:43.560Z</time>
      </trkpt>
      <trkpt lat="48.620103" lon="16.677473">
        <ele>241.090807</ele>
        <time>2020-08-20T08:19:45.601Z</time>
      </trkpt>
      <trkpt lat="48.619980" lon="16.677449">
        <ele>240.974469</ele>
        <time>2020-08-20T08:19:47.562Z</time>
      </trkpt>
      <trkpt lat="48.619856" lon="16.677438">
        <ele>240.855793</ele>
        <time>2020-08-20T08:19:49.563Z</time>
      </trkpt>
      <trkpt lat="48.619734" lon="16.677440">
        <ele>240.704321</ele>
        <time>2020-08-20T08:19:51.570Z</time>
      </trkpt>
      <trkpt lat="48.619611" lon="16.677445">
        <ele>240.551561</ele>
        <time>2020-08-20T08:19:53.568Z</time>
      </trkpt>
      <trkpt lat="48.619486" lon="16.677450">
        <ele>240.396319</ele>
        <time>2020-08-20T08:19:55.581Z</time>
      </trkpt>
      <trkpt lat="48.619361" lon="16.677459">
        <ele>240.240955</ele>
        <time>2020-08-20T08:19:57.585Z</time>
      </trkpt>
      <trkpt lat="48.619235" lon="16.677479">
        <ele>240.083667</ele>
        <time>2020-08-20T08:19:59.573Z</time>
      </trkpt>
      <trkpt lat="48.619111" lon="16.677519">
        <ele>239.926260</ele>
        <time>2020-08-20T08:20:01.574Z</time>
      </trkpt>
      <trkpt lat="48.618987" lon="16.677560">
        <ele>239.768679</ele>
        <time>2020-08-20T08:20:03.564Z</time>
      </trkpt>
      <trkpt lat="48.618866" lon="16.677619">
        <ele>239.610846</ele>
        <time>2020-08-20T08:20:05.558Z</time>
      </trkpt>
      <trkpt lat="48.618750" lon="16.677704">
        <ele>239.450825</ele>
        <time>2020-08-20T08:20:07.567Z</time>
      </trkpt>
      <trkpt lat="48.618640" lon="16.677800">
        <ele>239.293162</ele>
        <time>2020-08-20T08:20:09.569Z</time>
      </trkpt>
      <trkpt lat="48.618526" lon="16.677874">
        <ele>239.139151</ele>
        <time>2020-08-20T08:20:11.564Z</time>
      </trkpt>
      <trkpt lat="48.618408" lon="16.677934">
        <ele>238.984599</ele>
        <time>2020-08-20T08:20:13.590Z</time>
      </trkpt>
      <trkpt lat="48.618290" lon="16.677983">
        <ele>238.832682</ele>
        <time>2020-08-20T08:20:15.562Z</time>
      </trkpt>
      <trkpt lat="48.618171" lon="16.678027">
        <ele>238.680594</ele>
        <time>2020-08-20T08:20:17.591Z</time>
      </trkpt>
      <trkpt lat="48.618048" lon="16.678061">
        <ele>238.536504</ele>
        <time>2020-08-20T08:20:19.590Z</time>
      </trkpt>
      <trkpt lat="48.617923" lon="16.678107">
        <ele>238.393544</ele>
        <time>2020-08-20T08:20:21.565Z</time>
      </trkpt>
      <trkpt lat="48.617797" lon="16.678155">
        <ele>238.249152</ele>
        <time>2020-08-20T08:20:23.566Z</time>
      </trkpt>
      <trkpt lat="48.617671" lon="16.678203">
        <ele>238.104760</ele>
        <time>2020-08-20T08:20:25.569Z</time>
      </trkpt>
      <trkpt lat="48.617545" lon="16.678254">
        <ele>237.959813</ele>
        <time>2020-08-20T08:20:27.577Z</time>
      </trkpt>
      <trkpt lat="48.617418" lon="16.678298">
        <ele>237.815028</ele>
        <time>2020-08-20T08:20:29.566Z</time>
      </trkpt>
      <trkpt lat="48.617291" lon="16.678322">
        <ele>237.672799</ele>
        <time>2020-08-20T08:20:31.554Z</time>
      </trkpt>
      <trkpt lat="48.617164" lon="16.678327">
        <ele>237.531620</ele>
        <time>2020-08-20T08:20:33.553Z</time>
      </trkpt>
      <trkpt lat="48.617034" lon="16.678334">
        <ele>237.387063</ele>
        <time>2020-08-20T08:20:35.556Z</time>
      </trkpt>
      <trkpt lat="48.616903" lon="16.678357">
        <ele>237.240509</ele>
        <time>2020-08-20T08:20:37.570Z</time>
      </trkpt>
      <trkpt lat="48.616775" lon="16.678401">
        <ele>237.094640</ele>
        <time>2020-08-20T08:20:39.588Z</time>
      </trkpt>
      <trkpt lat="48.616651" lon="16.678455">
        <ele>236.951246</ele>
        <time>2020-08-20T08:20:41.557Z</time>
      </trkpt>
      <trkpt lat="48.616525" lon="16.678503">
        <ele>236.806853</ele>
        <time>2020-08-20T08:20:43.596Z</time>
      </trkpt>
      <trkpt lat="48.616397" lon="16.678547">
        <ele>236.660984</ele>
        <time>2020-08-20T08:20:45.568Z</time>
      </trkpt>
      <trkpt lat="48.616266" lon="16.678566">
        <ele>236.486605</ele>
        <time>2020-08-20T08:20:47.602Z</time>
      </trkpt>
      <trkpt lat="48.616138" lon="16.678588">
        <ele>236.309337</ele>
        <time>2020-08-20T08:20:49.556Z</time>
      </trkpt>
      <trkpt lat="48.616013" lon="16.678614">
        <ele>236.135711</ele>
        <time>2020-08-20T08:20:51.591Z</time>
      </trkpt>
      <trkpt lat="48.615891" lon="16.678647">
        <ele>235.965169</ele>
        <time>2020-08-20T08:20:53.554Z</time>
      </trkpt>
      <trkpt lat="48.615775" lon="16.678687">
        <ele>235.801452</ele>
        <time>2020-08-20T08:20:55.578Z</time>
      </trkpt>
      <trkpt lat="48.615662" lon="16.678728">
        <ele>235.641547</ele>
        <time>2020-08-20T08:20:57.573Z</time>
      </trkpt>
      <trkpt lat="48.615551" lon="16.678771">
        <ele>235.483875</ele>
        <time>2020-08-20T08:20:59.598Z</time>
      </trkpt>
      <trkpt lat="48.615439" lon="16.678814">
        <ele>235.324870</ele>
        <time>2020-08-20T08:21:01.561Z</time>
      </trkpt>
      <trkpt lat="48.615327" lon="16.678854">
        <ele>235.166514</ele>
        <time>2020-08-20T08:21:03.550Z</time>
      </trkpt>
      <trkpt lat="48.615214" lon="16.678896">
        <ele>235.006394</ele>
        <time>2020-08-20T08:21:05.564Z</time>
      </trkpt>
      <trkpt lat="48.615101" lon="16.678935">
        <ele>234.846903</ele>
        <time>2020-08-20T08:21:07.571Z</time>
      </trkpt>
      <trkpt lat="48.614987" lon="16.678977">
        <ele>234.685446</ele>
        <time>2020-08-20T08:21:09.566Z</time>
      </trkpt>
      <trkpt lat="48.614872" lon="16.679027">
        <ele>234.520792</ele>
        <time>2020-08-20T08:21:11.597Z</time>
      </trkpt>
      <trkpt lat="48.614755" lon="16.679079">
        <ele>234.352988</ele>
        <time>2020-08-20T08:21:13.562Z</time>
      </trkpt>
      <trkpt lat="48.614630" lon="16.679130">
        <ele>234.174833</ele>
        <time>2020-08-20T08:21:15.561Z</time>
      </trkpt>
      <trkpt lat="48.614496" lon="16.679184">
        <ele>233.976813</ele>
        <time>2020-08-20T08:21:17.577Z</time>
      </trkpt>
      <trkpt lat="48.614366" lon="16.679266">
        <ele>233.774969</ele>
        <time>2020-08-20T08:21:19.568Z</time>
      </trkpt>
      <trkpt lat="48.614239" lon="16.679368">
        <ele>233.568907</ele>
        <time>2020-08-20T08:21:21.597Z</time>
      </trkpt>
      <trkpt lat="48.614115" lon="16.679479">
        <ele>233.362423</ele>
        <time>2020-08-20T08:21:23.567Z</time>
      </trkpt>
      <trkpt lat="48.613992" lon="16.679589">
        <ele>233.157655</ele>
        <time>2020-08-20T08:21:25.562Z</time>
      </trkpt>
      <trkpt lat="48.613874" lon="16.679704">
        <ele>232.956495</ele>
        <time>2020-08-20T08:21:27.562Z</time>
      </trkpt>
      <trkpt lat="48.613753" lon="16.679811">
        <ele>232.755637</ele>
        <time>2020-08-20T08:21:29.565Z</time>
      </trkpt>
      <trkpt lat="48.613634" lon="16.679920">
        <ele>232.556274</ele>
        <time>2020-08-20T08:21:31.569Z</time>
      </trkpt>
      <trkpt lat="48.613526" lon="16.680044">
        <ele>232.361967</ele>
        <time>2020-08-20T08:21:33.558Z</time>
      </trkpt>
      <trkpt lat="48.613422" lon="16.680176">
        <ele>232.167411</ele>
        <time>2020-08-20T08:21:35.569Z</time>
      </trkpt>
      <trkpt lat="48.613318" lon="16.680304">
        <ele>231.975268</ele>
        <time>2020-08-20T08:21:37.564Z</time>
      </trkpt>
      <trkpt lat="48.613217" lon="16.680427">
        <ele>231.789448</ele>
        <time>2020-08-20T08:21:39.594Z</time>
      </trkpt>
      <trkpt lat="48.613118" lon="16.680549">
        <ele>231.606451</ele>
        <time>2020-08-20T08:21:41.565Z</time>
      </trkpt>
      <trkpt lat="48.613018" lon="16.680669">
        <ele>231.435845</ele>
        <time>2020-08-20T08:21:43.563Z</time>
      </trkpt>
      <trkpt lat="48.612912" lon="16.680782">
        <ele>231.264615</ele>
        <time>2020-08-20T08:21:45.584Z</time>
      </trkpt>
      <trkpt lat="48.612807" lon="16.680895">
        <ele>231.094462</ele>
        <time>2020-08-20T08:21:47.566Z</time>
      </trkpt>
      <trkpt lat="48.612701" lon="16.681003">
        <ele>230.925708</ele>
        <time>2020-08-20T08:21:49.571Z</time>
      </trkpt>
      <trkpt lat="48.612595" lon="16.681115">
        <ele>230.754979</ele>
        <time>2020-08-20T08:21:51.576Z</time>
      </trkpt>
      <trkpt lat="48.612490" lon="16.681225">
        <ele>230.586331</ele>
        <time>2020-08-20T08:21:53.560Z</time>
      </trkpt>
      <trkpt lat="48.612384" lon="16.681325">
        <ele>230.421377</ele>
        <time>2020-08-20T08:21:55.564Z</time>
      </trkpt>
      <trkpt lat="48.612286" lon="16.681433">
        <ele>230.261274</ele>
        <time>2020-08-20T08:21:57.587Z</time>
      </trkpt>
      <trkpt lat="48.612186" lon="16.681541">
        <ele>230.099030</ele>
        <time>2020-08-20T08:21:59.580Z</time>
      </trkpt>
      <trkpt lat="48.612088" lon="16.681645">
        <ele>229.940959</ele>
        <time>2020-08-20T08:22:01.552Z</time>
      </trkpt>
      <trkpt lat="48.611993" lon="16.681749">
        <ele>229.786114</ele>
        <time>2020-08-20T08:22:03.566Z</time>
      </trkpt>
      <trkpt lat="48.611900" lon="16.681849">
        <ele>229.635449</ele>
        <time>2020-08-20T08:22:05.591Z</time>
      </trkpt>
      <trkpt lat="48.611811" lon="16.681946">
        <ele>229.490604</ele>
        <time>2020-08-20T08:22:07.564Z</time>
      </trkpt>
      <trkpt lat="48.611723" lon="16.682044">
        <ele>229.346312</ele>
        <time>2020-08-20T08:22:09.561Z</time>
      </trkpt>
      <trkpt lat="48.611630" lon="16.682139">
        <ele>229.201909</ele>
        <time>2020-08-20T08:22:11.573Z</time>
      </trkpt>
      <trkpt lat="48.611537" lon="16.682234">
        <ele>229.131252</ele>
        <time>2020-08-20T08:22:13.566Z</time>
      </trkpt>
      <trkpt lat="48.611445" lon="16.682332">
        <ele>229.060404</ele>
        <time>2020-08-20T08:22:15.587Z</time>
      </trkpt>
      <trkpt lat="48.611353" lon="16.682433">
        <ele>228.988830</ele>
        <time>2020-08-20T08:22:17.575Z</time>
      </trkpt>
      <trkpt lat="48.611261" lon="16.682531">
        <ele>228.917982</ele>
        <time>2020-08-20T08:22:19.558Z</time>
      </trkpt>
      <trkpt lat="48.611164" lon="16.682634">
        <ele>228.843361</ele>
        <time>2020-08-20T08:22:21.579Z</time>
      </trkpt>
      <trkpt lat="48.611064" lon="16.682735">
        <ele>228.767653</ele>
        <time>2020-08-20T08:22:23.554Z</time>
      </trkpt>
      <trkpt lat="48.610963" lon="16.682838">
        <ele>228.690957</ele>
        <time>2020-08-20T08:22:25.562Z</time>
      </trkpt>
      <trkpt lat="48.610862" lon="16.682952">
        <ele>228.611611</ele>
        <time>2020-08-20T08:22:27.569Z</time>
      </trkpt>
      <trkpt lat="48.610759" lon="16.683066">
        <ele>228.531252</ele>
        <time>2020-08-20T08:22:29.563Z</time>
      </trkpt>
      <trkpt lat="48.610656" lon="16.683182">
        <ele>228.450398</ele>
        <time>2020-08-20T08:22:31.568Z</time>
      </trkpt>
      <trkpt lat="48.610550" lon="16.683295">
        <ele>228.368748</ele>
        <time>2020-08-20T08:22:33.564Z</time>
      </trkpt>
      <trkpt lat="48.610443" lon="16.683405">
        <ele>228.287290</ele>
        <time>2020-08-20T08:22:35.573Z</time>
      </trkpt>
      <trkpt lat="48.610339" lon="16.683518">
        <ele>228.206665</ele>
        <time>2020-08-20T08:22:37.556Z</time>
      </trkpt>
      <trkpt lat="48.610238" lon="16.683618">
        <ele>228.130661</ele>
        <time>2020-08-20T08:22:39.577Z</time>
      </trkpt>
      <trkpt lat="48.610139" lon="16.683709">
        <ele>228.034373</ele>
        <time>2020-08-20T08:22:41.581Z</time>
      </trkpt>
      <trkpt lat="48.610045" lon="16.683802">
        <ele>227.854908</ele>
        <time>2020-08-20T08:22:43.556Z</time>
      </trkpt>
      <trkpt lat="48.609967" lon="16.683889">
        <ele>227.700062</ele>
        <time>2020-08-20T08:22:45.560Z</time>
      </trkpt>
      <trkpt lat="48.609801" lon="16.683886">
        <ele>227.434822</ele>
        <time>2020-08-20T08:23:06.555Z</time>
      </trkpt>
      <trkpt lat="48.609709" lon="16.683841">
        <ele>227.280336</ele>
        <time>2020-08-20T08:23:09.582Z</time>
      </trkpt>
      <trkpt lat="48.609627" lon="16.683747">
        <ele>227.115943</ele>
        <time>2020-08-20T08:23:12.559Z</time>
      </trkpt>
      <trkpt lat="48.609533" lon="16.683650">
        <ele>226.934131</ele>
        <time>2020-08-20T08:23:15.574Z</time>
      </trkpt>
      <trkpt lat="48.609429" lon="16.683550">
        <ele>226.737230</ele>
        <time>2020-08-20T08:23:18.559Z</time>
      </trkpt>
      <trkpt lat="48.609322" lon="16.683438">
        <ele>226.529325</ele>
        <time>2020-08-20T08:23:21.577Z</time>
      </trkpt>
      <trkpt lat="48.609218" lon="16.683326">
        <ele>226.325342</ele>
        <time>2020-08-20T08:23:24.564Z</time>
      </trkpt>
      <trkpt lat="48.609088" lon="16.683284">
        <ele>226.112953</ele>
        <time>2020-08-20T08:23:27.572Z</time>
      </trkpt>
      <trkpt lat="48.608997" lon="16.683335">
        <ele>225.957899</ele>
        <time>2020-08-20T08:23:29.557Z</time>
      </trkpt>
      <trkpt lat="48.608912" lon="16.683414">
        <ele>225.798499</ele>
        <time>2020-08-20T08:23:31.578Z</time>
      </trkpt>
      <trkpt lat="48.608823" lon="16.683484">
        <ele>225.638224</ele>
        <time>2020-08-20T08:23:33.580Z</time>
      </trkpt>
      <trkpt lat="48.608729" lon="16.683548">
        <ele>225.473521</ele>
        <time>2020-08-20T08:23:35.562Z</time>
      </trkpt>
      <trkpt lat="48.608637" lon="16.683614">
        <ele>225.310833</ele>
        <time>2020-08-20T08:23:37.574Z</time>
      </trkpt>
      <trkpt lat="48.608542" lon="16.683683">
        <ele>225.180900</ele>
        <time>2020-08-20T08:23:39.564Z</time>
      </trkpt>
      <trkpt lat="48.608449" lon="16.683754">
        <ele>225.127269</ele>
        <time>2020-08-20T08:23:41.576Z</time>
      </trkpt>
      <trkpt lat="48.608354" lon="16.683827">
        <ele>225.072411</ele>
        <time>2020-08-20T08:23:43.577Z</time>
      </trkpt>
      <trkpt lat="48.608259" lon="16.683897">
        <ele>225.018008</ele>
        <time>2020-08-20T08:23:45.557Z</time>
      </trkpt>
      <trkpt lat="48.608162" lon="16.683962">
        <ele>224.963389</ele>
        <time>2020-08-20T08:23:47.597Z</time>
      </trkpt>
      <trkpt lat="48.608067" lon="16.684032">
        <ele>224.908986</ele>
        <time>2020-08-20T08:23:49.599Z</time>
      </trkpt>
      <trkpt lat="48.607970" lon="16.684104">
        <ele>224.853360</ele>
        <time>2020-08-20T08:23:51.564Z</time>
      </trkpt>
      <trkpt lat="48.607871" lon="16.684176">
        <ele>224.796806</ele>
        <time>2020-08-20T08:23:53.569Z</time>
      </trkpt>
      <trkpt lat="48.607766" lon="16.684249">
        <ele>224.737313</ele>
        <time>2020-08-20T08:23:55.553Z</time>
      </trkpt>
      <trkpt lat="48.607660" lon="16.684318">
        <ele>224.677903</ele>
        <time>2020-08-20T08:23:57.564Z</time>
      </trkpt>
      <trkpt lat="48.607559" lon="16.684387">
        <ele>224.620848</ele>
        <time>2020-08-20T08:23:59.551Z</time>
      </trkpt>
      <trkpt lat="48.607456" lon="16.684461">
        <ele>224.562144</ele>
        <time>2020-08-20T08:24:01.585Z</time>
      </trkpt>
      <trkpt lat="48.607350" lon="16.684538">
        <ele>224.501605</ele>
        <time>2020-08-20T08:24:03.566Z</time>
      </trkpt>
      <trkpt lat="48.607244" lon="16.684619">
        <ele>224.440465</ele>
        <time>2020-08-20T08:24:05.576Z</time>
      </trkpt>
      <trkpt lat="48.607137" lon="16.684697">
        <ele>224.379315</ele>
        <time>2020-08-20T08:24:07.575Z</time>
      </trkpt>
      <trkpt lat="48.607025" lon="16.684772">
        <ele>224.316257</ele>
        <time>2020-08-20T08:24:09.570Z</time>
      </trkpt>
      <trkpt lat="48.606917" lon="16.684843">
        <ele>224.266907</ele>
        <time>2020-08-20T08:24:11.556Z</time>
      </trkpt>
      <trkpt lat="48.606815" lon="16.684903">
        <ele>224.246698</ele>
        <time>2020-08-20T08:24:13.571Z</time>
      </trkpt>
      <trkpt lat="48.606720" lon="16.684965">
        <ele>224.227592</ele>
        <time>2020-08-20T08:24:15.556Z</time>
      </trkpt>
      <trkpt lat="48.606678" lon="16.685106">
        <ele>224.208709</ele>
        <time>2020-08-20T08:24:17.564Z</time>
      </trkpt>
      <trkpt lat="48.606707" lon="16.685255">
        <ele>224.189744</ele>
        <time>2020-08-20T08:24:19.556Z</time>
      </trkpt>
      <trkpt lat="48.606747" lon="16.685383">
        <ele>224.172458</ele>
        <time>2020-08-20T08:24:21.576Z</time>
      </trkpt>
      <trkpt lat="48.606797" lon="16.685538">
        <ele>224.151400</ele>
        <time>2020-08-20T08:24:24.571Z</time>
      </trkpt>
      <trkpt lat="48.606855" lon="16.685683">
        <ele>224.130708</ele>
        <time>2020-08-20T08:24:28.585Z</time>
      </trkpt>
      <trkpt lat="48.606907" lon="16.685822">
        <ele>224.111209</ele>
        <time>2020-08-20T08:24:34.562Z</time>
      </trkpt>
      <trkpt lat="48.606956" lon="16.685961">
        <ele>224.091975</ele>
        <time>2020-08-20T08:24:40.590Z</time>
      </trkpt>
      <trkpt lat="48.606990" lon="16.686091">
        <ele>224.074906</ele>
        <time>2020-08-20T08:24:46.580Z</time>
      </trkpt>
      <trkpt lat="48.607026" lon="16.686245">
        <ele>224.054962</ele>
        <time>2020-08-20T08:24:52.569Z</time>
      </trkpt>
      <trkpt lat="48.607057" lon="16.686403">
        <ele>224.034839</ele>
        <time>2020-08-20T08:24:57.584Z</time>
      </trkpt>
      <trkpt lat="48.607084" lon="16.686544">
        <ele>224.016915</ele>
        <time>2020-08-20T08:25:00.560Z</time>
      </trkpt>
      <trkpt lat="48.607119" lon="16.686669">
        <ele>224.000341</ele>
        <time>2020-08-20T08:25:02.581Z</time>
      </trkpt>
      <trkpt lat="48.607154" lon="16.686807">
        <ele>223.982294</ele>
        <time>2020-08-20T08:25:04.562Z</time>
      </trkpt>
      <trkpt lat="48.607193" lon="16.686967">
        <ele>223.961473</ele>
        <time>2020-08-20T08:25:06.570Z</time>
      </trkpt>
      <trkpt lat="48.607241" lon="16.687136">
        <ele>223.932408</ele>
        <time>2020-08-20T08:25:08.569Z</time>
      </trkpt>
      <trkpt lat="48.607288" lon="16.687305">
        <ele>223.838400</ele>
        <time>2020-08-20T08:25:10.567Z</time>
      </trkpt>
      <trkpt lat="48.607337" lon="16.687477">
        <ele>223.742368</ele>
        <time>2020-08-20T08:25:12.570Z</time>
      </trkpt>
      <trkpt lat="48.607385" lon="16.687643">
        <ele>223.649468</ele>
        <time>2020-08-20T08:25:14.571Z</time>
      </trkpt>
      <trkpt lat="48.607426" lon="16.687808">
        <ele>223.559087</ele>
        <time>2020-08-20T08:25:16.590Z</time>
      </trkpt>
      <trkpt lat="48.607466" lon="16.687956">
        <ele>223.477104</ele>
        <time>2020-08-20T08:25:18.610Z</time>
      </trkpt>
      <trkpt lat="48.607511" lon="16.688093">
        <ele>223.398667</ele>
        <time>2020-08-20T08:25:20.561Z</time>
      </trkpt>
      <trkpt lat="48.607555" lon="16.688220">
        <ele>223.325150</ele>
        <time>2020-08-20T08:25:22.571Z</time>
      </trkpt>
      <trkpt lat="48.607613" lon="16.688394">
        <ele>223.225235</ele>
        <time>2020-08-20T08:25:25.567Z</time>
      </trkpt>
      <trkpt lat="48.607658" lon="16.688562">
        <ele>223.132293</ele>
        <time>2020-08-20T08:25:28.589Z</time>
      </trkpt>
      <trkpt lat="48.607707" lon="16.688728">
        <ele>223.039080</ele>
        <time>2020-08-20T08:25:31.564Z</time>
      </trkpt>
      <trkpt lat="48.607759" lon="16.688907">
        <ele>222.938830</ele>
        <time>2020-08-20T08:25:34.577Z</time>
      </trkpt>
      <trkpt lat="48.607816" lon="16.689086">
        <ele>222.836958</ele>
        <time>2020-08-20T08:25:37.569Z</time>
      </trkpt>
      <trkpt lat="48.607867" lon="16.689261">
        <ele>222.738898</ele>
        <time>2020-08-20T08:25:40.583Z</time>
      </trkpt>
      <trkpt lat="48.607911" lon="16.689432">
        <ele>222.644813</ele>
        <time>2020-08-20T08:25:43.567Z</time>
      </trkpt>
      <trkpt lat="48.607966" lon="16.689610">
        <ele>222.545593</ele>
        <time>2020-08-20T08:25:46.567Z</time>
      </trkpt>
      <trkpt lat="48.608014" lon="16.689791">
        <ele>222.514434</ele>
        <time>2020-08-20T08:25:49.566Z</time>
      </trkpt>
      <trkpt lat="48.608067" lon="16.689964">
        <ele>222.483970</ele>
        <time>2020-08-20T08:25:52.576Z</time>
      </trkpt>
      <trkpt lat="48.608093" lon="16.690144">
        <ele>222.454532</ele>
        <time>2020-08-20T08:25:55.575Z</time>
      </trkpt>
      <trkpt lat="48.608009" lon="16.690197">
        <ele>222.432538</ele>
        <time>2020-08-20T08:25:58.575Z</time>
      </trkpt>
      <trkpt lat="48.607916" lon="16.690208">
        <ele>222.409997</ele>
        <time>2020-08-20T08:26:01.584Z</time>
      </trkpt>
      <trkpt lat="48.607803" lon="16.690227">
        <ele>222.382523</ele>
        <time>2020-08-20T08:26:05.569Z</time>
      </trkpt>
      <trkpt lat="48.607690" lon="16.690242">
        <ele>222.355112</ele>
        <time>2020-08-20T08:26:09.588Z</time>
      </trkpt>
      <trkpt lat="48.607572" lon="16.690259">
        <ele>222.326469</ele>
        <time>2020-08-20T08:26:13.570Z</time>
      </trkpt>
      <trkpt lat="48.607475" lon="16.690287">
        <ele>222.302606</ele>
        <time>2020-08-20T08:26:16.591Z</time>
      </trkpt>
      <trkpt lat="48.607371" lon="16.690314">
        <ele>222.277108</ele>
        <time>2020-08-20T08:26:19.553Z</time>
      </trkpt>
      <trkpt lat="48.607245" lon="16.690333">
        <ele>222.246510</ele>
        <time>2020-08-20T08:26:22.579Z</time>
      </trkpt>
      <trkpt lat="48.607148" lon="16.690349">
        <ele>222.222931</ele>
        <time>2020-08-20T08:26:24.585Z</time>
      </trkpt>
      <trkpt lat="48.607041" lon="16.690371">
        <ele>222.196837</ele>
        <time>2020-08-20T08:26:26.573Z</time>
      </trkpt>
      <trkpt lat="48.606926" lon="16.690391">
        <ele>222.168865</ele>
        <time>2020-08-20T08:26:28.562Z</time>
      </trkpt>
      <trkpt lat="48.606799" lon="16.690413">
        <ele>222.137976</ele>
        <time>2020-08-20T08:26:30.565Z</time>
      </trkpt>
      <trkpt lat="48.606661" lon="16.690431">
        <ele>222.095880</ele>
        <time>2020-08-20T08:26:32.567Z</time>
      </trkpt>
      <trkpt lat="48.606512" lon="16.690456">
        <ele>222.015928</ele>
        <time>2020-08-20T08:26:34.558Z</time>
      </trkpt>
      <trkpt lat="48.606362" lon="16.690486">
        <ele>221.935234</ele>
        <time>2020-08-20T08:26:36.585Z</time>
      </trkpt>
      <trkpt lat="48.606208" lon="16.690499">
        <ele>221.852976</ele>
        <time>2020-08-20T08:26:38.561Z</time>
      </trkpt>
      <trkpt lat="48.606053" lon="16.690524">
        <ele>221.769843</ele>
        <time>2020-08-20T08:26:40.587Z</time>
      </trkpt>
      <trkpt lat="48.605897" lon="16.690552">
        <ele>221.686062</ele>
        <time>2020-08-20T08:26:42.571Z</time>
      </trkpt>
      <trkpt lat="48.605745" lon="16.690570">
        <ele>221.604750</ele>
        <time>2020-08-20T08:26:44.564Z</time>
      </trkpt>
      <trkpt lat="48.605592" lon="16.690597">
        <ele>221.522600</ele>
        <time>2020-08-20T08:26:46.571Z</time>
      </trkpt>
      <trkpt lat="48.605440" lon="16.690627">
        <ele>221.440848</ele>
        <time>2020-08-20T08:26:48.555Z</time>
      </trkpt>
      <trkpt lat="48.605290" lon="16.690650">
        <ele>221.360441</ele>
        <time>2020-08-20T08:26:50.584Z</time>
      </trkpt>
      <trkpt lat="48.605141" lon="16.690681">
        <ele>221.280229</ele>
        <time>2020-08-20T08:26:52.586Z</time>
      </trkpt>
      <trkpt lat="48.604997" lon="16.690711">
        <ele>221.202706</ele>
        <time>2020-08-20T08:26:54.578Z</time>
      </trkpt>
      <trkpt lat="48.604854" lon="16.690748">
        <ele>221.106493</ele>
        <time>2020-08-20T08:26:56.569Z</time>
      </trkpt>
      <trkpt lat="48.604713" lon="16.690782">
        <ele>220.977356</ele>
        <time>2020-08-20T08:26:58.569Z</time>
      </trkpt>
      <trkpt lat="48.604571" lon="16.690805">
        <ele>220.848192</ele>
        <time>2020-08-20T08:27:00.581Z</time>
      </trkpt>
      <trkpt lat="48.604432" lon="16.690841">
        <ele>220.720644</ele>
        <time>2020-08-20T08:27:02.554Z</time>
      </trkpt>
      <trkpt lat="48.604290" lon="16.690859">
        <ele>220.591764</ele>
        <time>2020-08-20T08:27:04.587Z</time>
      </trkpt>
      <trkpt lat="48.604152" lon="16.690864">
        <ele>220.466915</ele>
        <time>2020-08-20T08:27:06.577Z</time>
      </trkpt>
      <trkpt lat="48.604020" lon="16.690868">
        <ele>220.347505</ele>
        <time>2020-08-20T08:27:08.593Z</time>
      </trkpt>
      <trkpt lat="48.603897" lon="16.690897">
        <ele>220.234916</ele>
        <time>2020-08-20T08:27:10.555Z</time>
      </trkpt>
      <trkpt lat="48.603785" lon="16.690918">
        <ele>220.132843</ele>
        <time>2020-08-20T08:27:12.579Z</time>
      </trkpt>
      <trkpt lat="48.603676" lon="16.690934">
        <ele>220.033796</ele>
        <time>2020-08-20T08:27:14.561Z</time>
      </trkpt>
      <trkpt lat="48.603571" lon="16.690944">
        <ele>219.938642</ele>
        <time>2020-08-20T08:27:16.557Z</time>
      </trkpt>
      <trkpt lat="48.603467" lon="16.690957">
        <ele>219.844259</ele>
        <time>2020-08-20T08:27:18.553Z</time>
      </trkpt>
      <trkpt lat="48.603367" lon="16.690979">
        <ele>219.752863</ele>
        <time>2020-08-20T08:27:20.550Z</time>
      </trkpt>
      <trkpt lat="48.603273" lon="16.691001">
        <ele>219.666834</ele>
        <time>2020-08-20T08:27:22.573Z</time>
      </trkpt>
      <trkpt lat="48.603181" lon="16.691022">
        <ele>219.582683</ele>
        <time>2020-08-20T08:27:24.560Z</time>
      </trkpt>
      <trkpt lat="48.603070" lon="16.691039">
        <ele>219.501435</ele>
        <time>2020-08-20T08:27:27.571Z</time>
      </trkpt>
      <trkpt lat="48.602982" lon="16.691125">
        <ele>219.449135</ele>
        <time>2020-08-20T08:27:33.555Z</time>
      </trkpt>
      <trkpt lat="48.602899" lon="16.691243">
        <ele>219.392272</ele>
        <time>2020-08-20T08:27:37.572Z</time>
      </trkpt>
      <trkpt lat="48.602787" lon="16.691299">
        <ele>219.333390</ele>
        <time>2020-08-20T08:27:40.559Z</time>
      </trkpt>
      <trkpt lat="48.602673" lon="16.691353">
        <ele>219.273761</ele>
        <time>2020-08-20T08:27:43.564Z</time>
      </trkpt>
      <trkpt lat="48.602555" lon="16.691423">
        <ele>219.210491</ele>
        <time>2020-08-20T08:27:46.560Z</time>
      </trkpt>
      <trkpt lat="48.602474" lon="16.691484">
        <ele>219.165323</ele>
        <time>2020-08-20T08:27:48.560Z</time>
      </trkpt>
      <trkpt lat="48.602385" lon="16.691554">
        <ele>219.115249</ele>
        <time>2020-08-20T08:27:50.572Z</time>
      </trkpt>
      <trkpt lat="48.602291" lon="16.691628">
        <ele>219.062351</ele>
        <time>2020-08-20T08:27:52.581Z</time>
      </trkpt>
      <trkpt lat="48.602205" lon="16.691708">
        <ele>219.011952</ele>
        <time>2020-08-20T08:27:54.578Z</time>
      </trkpt>
      <trkpt lat="48.602136" lon="16.691805">
        <ele>218.964927</ele>
        <time>2020-08-20T08:27:56.559Z</time>
      </trkpt>
      <trkpt lat="48.602116" lon="16.691945">
        <ele>218.917650</ele>
        <time>2020-08-20T08:27:58.567Z</time>
      </trkpt>
      <trkpt lat="48.602123" lon="16.692108">
        <ele>218.863733</ele>
        <time>2020-08-20T08:28:00.570Z</time>
      </trkpt>
      <trkpt lat="48.602135" lon="16.692265">
        <ele>218.811565</ele>
        <time>2020-08-20T08:28:02.562Z</time>
      </trkpt>
      <trkpt lat="48.602153" lon="16.692461">
        <ele>218.746248</ele>
        <time>2020-08-20T08:28:05.572Z</time>
      </trkpt>
      <trkpt lat="48.602168" lon="16.692632">
        <ele>218.689310</ele>
        <time>2020-08-20T08:28:08.562Z</time>
      </trkpt>
      <trkpt lat="48.602215" lon="16.692925">
        <ele>218.609502</ele>
        <time>2020-08-20T08:29:25.565Z</time>
      </trkpt>
      <trkpt lat="48.602235" lon="16.693096">
        <ele>218.581869</ele>
        <time>2020-08-20T08:29:28.574Z</time>
      </trkpt>
      <trkpt lat="48.602253" lon="16.693233">
        <ele>218.559643</ele>
        <time>2020-08-20T08:29:30.561Z</time>
      </trkpt>
      <trkpt lat="48.602262" lon="16.693372">
        <ele>218.537419</ele>
        <time>2020-08-20T08:29:32.574Z</time>
      </trkpt>
      <trkpt lat="48.602268" lon="16.693515">
        <ele>218.514619</ele>
        <time>2020-08-20T08:29:34.556Z</time>
      </trkpt>
      <trkpt lat="48.602277" lon="16.693659">
        <ele>218.491603</ele>
        <time>2020-08-20T08:29:36.580Z</time>
      </trkpt>
      <trkpt lat="48.602283" lon="16.693804">
        <ele>218.468485</ele>
        <time>2020-08-20T08:29:38.570Z</time>
      </trkpt>
      <trkpt lat="48.602284" lon="16.693952">
        <ele>218.444933</ele>
        <time>2020-08-20T08:29:40.574Z</time>
      </trkpt>
      <trkpt lat="48.602285" lon="16.694098">
        <ele>218.421700</ele>
        <time>2020-08-20T08:29:42.561Z</time>
      </trkpt>
      <trkpt lat="48.602294" lon="16.694243">
        <ele>218.398526</ele>
        <time>2020-08-20T08:29:44.563Z</time>
      </trkpt>
      <trkpt lat="48.602311" lon="16.694388">
        <ele>218.375093</ele>
        <time>2020-08-20T08:29:46.560Z</time>
      </trkpt>
      <trkpt lat="48.602328" lon="16.694529">
        <ele>218.352287</ele>
        <time>2020-08-20T08:29:48.568Z</time>
      </trkpt>
      <trkpt lat="48.602348" lon="16.694681">
        <ele>218.327626</ele>
        <time>2020-08-20T08:29:50.586Z</time>
      </trkpt>
      <trkpt lat="48.602366" lon="16.694822">
        <ele>218.304775</ele>
        <time>2020-08-20T08:29:52.555Z</time>
      </trkpt>
      <trkpt lat="48.602389" lon="16.694965">
        <ele>218.281357</ele>
        <time>2020-08-20T08:29:54.583Z</time>
      </trkpt>
      <trkpt lat="48.602416" lon="16.695113">
        <ele>218.256927</ele>
        <time>2020-08-20T08:29:56.596Z</time>
      </trkpt>
      <trkpt lat="48.602443" lon="16.695264">
        <ele>218.232037</ele>
        <time>2020-08-20T08:29:58.581Z</time>
      </trkpt>
      <trkpt lat="48.602468" lon="16.695413">
        <ele>218.207576</ele>
        <time>2020-08-20T08:30:00.607Z</time>
      </trkpt>
      <trkpt lat="48.602495" lon="16.695565">
        <ele>218.128678</ele>
        <time>2020-08-20T08:30:02.594Z</time>
      </trkpt>
      <trkpt lat="48.602523" lon="16.695713">
        <ele>217.998736</ele>
        <time>2020-08-20T08:30:04.575Z</time>
      </trkpt>
      <trkpt lat="48.602558" lon="16.695865">
        <ele>217.862875</ele>
        <time>2020-08-20T08:30:06.571Z</time>
      </trkpt>
      <trkpt lat="48.602593" lon="16.696018">
        <ele>217.726216</ele>
        <time>2020-08-20T08:30:08.582Z</time>
      </trkpt>
      <trkpt lat="48.602628" lon="16.696166">
        <ele>217.593538</ele>
        <time>2020-08-20T08:30:10.577Z</time>
      </trkpt>
      <trkpt lat="48.602664" lon="16.696306">
        <ele>217.466742</ele>
        <time>2020-08-20T08:30:12.569Z</time>
      </trkpt>
      <trkpt lat="48.602695" lon="16.696496">
        <ele>217.301551</ele>
        <time>2020-08-20T08:30:15.551Z</time>
      </trkpt>
      <trkpt lat="48.602628" lon="16.696608">
        <ele>217.174065</ele>
        <time>2020-08-20T08:30:18.568Z</time>
      </trkpt>
      <trkpt lat="48.602542" lon="16.696679">
        <ele>217.048993</ele>
        <time>2020-08-20T08:30:21.572Z</time>
      </trkpt>
      <trkpt lat="48.602447" lon="16.696730">
        <ele>216.920312</ele>
        <time>2020-08-20T08:30:24.576Z</time>
      </trkpt>
      <trkpt lat="48.602346" lon="16.696805">
        <ele>216.776681</ele>
        <time>2020-08-20T08:30:27.565Z</time>
      </trkpt>
      <trkpt lat="48.602229" lon="16.696835">
        <ele>216.625200</ele>
        <time>2020-08-20T08:30:30.579Z</time>
      </trkpt>
      <trkpt lat="48.602138" lon="16.696836">
        <ele>216.509036</ele>
        <time>2020-08-20T08:30:32.587Z</time>
      </trkpt>
      <trkpt lat="48.602041" lon="16.696821">
        <ele>216.384571</ele>
        <time>2020-08-20T08:30:34.565Z</time>
      </trkpt>
      <trkpt lat="48.601937" lon="16.696807">
        <ele>216.251291</ele>
        <time>2020-08-20T08:30:36.586Z</time>
      </trkpt>
      <trkpt lat="48.601839" lon="16.696808">
        <ele>216.126192</ele>
        <time>2020-08-20T08:30:38.574Z</time>
      </trkpt>
      <trkpt lat="48.601747" lon="16.696817">
        <ele>216.008509</ele>
        <time>2020-08-20T08:30:40.559Z</time>
      </trkpt>
      <trkpt lat="48.601620" lon="16.696821">
        <ele>215.883893</ele>
        <time>2020-08-20T08:30:43.572Z</time>
      </trkpt>
      <trkpt lat="48.601495" lon="16.696823">
        <ele>215.837903</ele>
        <time>2020-08-20T08:30:46.557Z</time>
      </trkpt>
      <trkpt lat="48.601364" lon="16.696810">
        <ele>215.789604</ele>
        <time>2020-08-20T08:30:49.555Z</time>
      </trkpt>
      <trkpt lat="48.601271" lon="16.696821">
        <ele>215.755285</ele>
        <time>2020-08-20T08:30:51.569Z</time>
      </trkpt>
      <trkpt lat="48.601179" lon="16.696836">
        <ele>215.721242</ele>
        <time>2020-08-20T08:30:53.561Z</time>
      </trkpt>
      <trkpt lat="48.601085" lon="16.696850">
        <ele>215.686492</ele>
        <time>2020-08-20T08:30:55.573Z</time>
      </trkpt>
      <trkpt lat="48.600980" lon="16.696850">
        <ele>215.647863</ele>
        <time>2020-08-20T08:30:57.572Z</time>
      </trkpt>
      <trkpt lat="48.600881" lon="16.696853">
        <ele>215.611433</ele>
        <time>2020-08-20T08:30:59.584Z</time>
      </trkpt>
      <trkpt lat="48.600784" lon="16.696871">
        <ele>215.575479</ele>
        <time>2020-08-20T08:31:01.571Z</time>
      </trkpt>
      <trkpt lat="48.600693" lon="16.696889">
        <ele>215.541715</ele>
        <time>2020-08-20T08:31:03.559Z</time>
      </trkpt>
      <trkpt lat="48.600562" lon="16.696896">
        <ele>215.493490</ele>
        <time>2020-08-20T08:31:06.581Z</time>
      </trkpt>
      <trkpt lat="48.600444" lon="16.696913">
        <ele>215.449881</ele>
        <time>2020-08-20T08:31:09.629Z</time>
      </trkpt>
      <trkpt lat="48.600330" lon="16.696927">
        <ele>215.407803</ele>
        <time>2020-08-20T08:31:12.579Z</time>
      </trkpt>
      <trkpt lat="48.600214" lon="16.696933">
        <ele>215.365101</ele>
        <time>2020-08-20T08:31:15.585Z</time>
      </trkpt>
      <trkpt lat="48.600094" lon="16.696929">
        <ele>215.320943</ele>
        <time>2020-08-20T08:31:18.585Z</time>
      </trkpt>
      <trkpt lat="48.599971" lon="16.696921">
        <ele>215.275649</ele>
        <time>2020-08-20T08:31:21.583Z</time>
      </trkpt>
      <trkpt lat="48.599842" lon="16.696917">
        <ele>215.249741</ele>
        <time>2020-08-20T08:31:24.573Z</time>
      </trkpt>
      <trkpt lat="48.599710" lon="16.696903">
        <ele>215.315274</ele>
        <time>2020-08-20T08:31:27.564Z</time>
      </trkpt>
      <trkpt lat="48.599600" lon="16.696917">
        <ele>215.369943</ele>
        <time>2020-08-20T08:31:30.567Z</time>
      </trkpt>
      <trkpt lat="48.599434" lon="16.696897">
        <ele>215.452414</ele>
        <time>2020-08-20T08:32:19.570Z</time>
      </trkpt>
      <trkpt lat="48.599339" lon="16.696902">
        <ele>215.499491</ele>
        <time>2020-08-20T08:32:22.575Z</time>
      </trkpt>
      <trkpt lat="48.599239" lon="16.696888">
        <ele>215.549228</ele>
        <time>2020-08-20T08:32:25.558Z</time>
      </trkpt>
      <trkpt lat="48.599128" lon="16.696856">
        <ele>215.605190</ele>
        <time>2020-08-20T08:32:28.566Z</time>
      </trkpt>
      <trkpt lat="48.599014" lon="16.696817">
        <ele>215.663075</ele>
        <time>2020-08-20T08:32:31.581Z</time>
      </trkpt>
      <trkpt lat="48.598889" lon="16.696760">
        <ele>215.727734</ele>
        <time>2020-08-20T08:32:34.570Z</time>
      </trkpt>
      <trkpt lat="48.598766" lon="16.696697">
        <ele>215.792049</ele>
        <time>2020-08-20T08:32:37.555Z</time>
      </trkpt>
      <trkpt lat="48.598638" lon="16.696651">
        <ele>215.857206</ele>
        <time>2020-08-20T08:32:40.587Z</time>
      </trkpt>
      <trkpt lat="48.598547" lon="16.696538">
        <ele>215.915522</ele>
        <time>2020-08-20T08:32:43.562Z</time>
      </trkpt>
      <trkpt lat="48.598476" lon="16.696398">
        <ele>215.973305</ele>
        <time>2020-08-20T08:32:46.571Z</time>
      </trkpt>
      <trkpt lat="48.598404" lon="16.696249">
        <ele>216.033745</ele>
        <time>2020-08-20T08:32:49.571Z</time>
      </trkpt>
      <trkpt lat="48.598343" lon="16.696082">
        <ele>216.096230</ele>
        <time>2020-08-20T08:32:52.580Z</time>
      </trkpt>
      <trkpt lat="48.598291" lon="16.695908">
        <ele>216.155142</ele>
        <time>2020-08-20T08:32:55.561Z</time>
      </trkpt>
      <trkpt lat="48.598246" lon="16.695736">
        <ele>216.208555</ele>
        <time>2020-08-20T08:32:58.571Z</time>
      </trkpt>
      <trkpt lat="48.598202" lon="16.695575">
        <ele>216.258858</ele>
        <time>2020-08-20T08:33:01.581Z</time>
      </trkpt>
      <trkpt lat="48.598159" lon="16.695405">
        <ele>216.311416</ele>
        <time>2020-08-20T08:33:04.570Z</time>
      </trkpt>
      <trkpt lat="48.598118" lon="16.695242">
        <ele>216.361773</ele>
        <time>2020-08-20T08:33:07.566Z</time>
      </trkpt>
      <trkpt lat="48.598070" lon="16.695080">
        <ele>216.413033</ele>
        <time>2020-08-20T08:33:10.582Z</time>
      </trkpt>
      <trkpt lat="48.598027" lon="16.694914">
        <ele>216.464514</ele>
        <time>2020-08-20T08:33:13.571Z</time>
      </trkpt>
      <trkpt lat="48.597987" lon="16.694764">
        <ele>216.511217</ele>
        <time>2020-08-20T08:33:16.579Z</time>
      </trkpt>
      <trkpt lat="48.597943" lon="16.694583">
        <ele>216.566902</ele>
        <time>2020-08-20T08:33:19.577Z</time>
      </trkpt>
      <trkpt lat="48.597910" lon="16.694440">
        <ele>216.610637</ele>
        <time>2020-08-20T08:33:21.597Z</time>
      </trkpt>
      <trkpt lat="48.597879" lon="16.694306">
        <ele>216.651630</ele>
        <time>2020-08-20T08:33:23.555Z</time>
      </trkpt>
      <trkpt lat="48.597835" lon="16.694169">
        <ele>216.695609</ele>
        <time>2020-08-20T08:33:25.574Z</time>
      </trkpt>
      <trkpt lat="48.597775" lon="16.694048">
        <ele>216.739280</ele>
        <time>2020-08-20T08:33:27.568Z</time>
      </trkpt>
      <trkpt lat="48.597691" lon="16.693929">
        <ele>216.789540</ele>
        <time>2020-08-20T08:33:29.562Z</time>
      </trkpt>
      <trkpt lat="48.597596" lon="16.693819">
        <ele>216.841785</ele>
        <time>2020-08-20T08:33:31.561Z</time>
      </trkpt>
      <trkpt lat="48.597488" lon="16.693702">
        <ele>216.899795</ele>
        <time>2020-08-20T08:33:33.588Z</time>
      </trkpt>
      <trkpt lat="48.597388" lon="16.693580">
        <ele>216.970165</ele>
        <time>2020-08-20T08:33:35.595Z</time>
      </trkpt>
      <trkpt lat="48.597294" lon="16.693450">
        <ele>217.044497</ele>
        <time>2020-08-20T08:33:37.559Z</time>
      </trkpt>
      <trkpt lat="48.597197" lon="16.693345">
        <ele>217.114106</ele>
        <time>2020-08-20T08:33:39.562Z</time>
      </trkpt>
      <trkpt lat="48.597091" lon="16.693273">
        <ele>217.181912</ele>
        <time>2020-08-20T08:33:41.578Z</time>
      </trkpt>
      <trkpt lat="48.596990" lon="16.693218">
        <ele>217.244551</ele>
        <time>2020-08-20T08:33:43.566Z</time>
      </trkpt>
      <trkpt lat="48.596893" lon="16.693180">
        <ele>217.303020</ele>
        <time>2020-08-20T08:33:45.559Z</time>
      </trkpt>
      <trkpt lat="48.596793" lon="16.693146">
        <ele>217.362828</ele>
        <time>2020-08-20T08:33:47.557Z</time>
      </trkpt>
      <trkpt lat="48.596693" lon="16.693096">
        <ele>217.424286</ele>
        <time>2020-08-20T08:33:49.567Z</time>
      </trkpt>
      <trkpt lat="48.596604" lon="16.693023">
        <ele>217.483367</ele>
        <time>2020-08-20T08:33:51.577Z</time>
      </trkpt>
      <trkpt lat="48.596528" lon="16.692917">
        <ele>217.543699</ele>
        <time>2020-08-20T08:33:53.566Z</time>
      </trkpt>
      <trkpt lat="48.596478" lon="16.692785">
        <ele>217.602402</ele>
        <time>2020-08-20T08:33:55.573Z</time>
      </trkpt>
      <trkpt lat="48.596448" lon="16.692644">
        <ele>217.659561</ele>
        <time>2020-08-20T08:33:57.579Z</time>
      </trkpt>
      <trkpt lat="48.596432" lon="16.692497">
        <ele>217.717053</ele>
        <time>2020-08-20T08:33:59.553Z</time>
      </trkpt>
      <trkpt lat="48.596435" lon="16.692349">
        <ele>217.774194</ele>
        <time>2020-08-20T08:34:01.566Z</time>
      </trkpt>
      <trkpt lat="48.596434" lon="16.692194">
        <ele>217.834012</ele>
        <time>2020-08-20T08:34:03.601Z</time>
      </trkpt>
      <trkpt lat="48.596435" lon="16.692037">
        <ele>217.894602</ele>
        <time>2020-08-20T08:34:05.570Z</time>
      </trkpt>
      <trkpt lat="48.596436" lon="16.691875">
        <ele>217.957122</ele>
        <time>2020-08-20T08:34:07.568Z</time>
      </trkpt>
      <trkpt lat="48.596441" lon="16.691721">
        <ele>217.962329</ele>
        <time>2020-08-20T08:34:09.571Z</time>
      </trkpt>
      <trkpt lat="48.596451" lon="16.691577">
        <ele>217.961622</ele>
        <time>2020-08-20T08:34:11.567Z</time>
      </trkpt>
      <trkpt lat="48.596479" lon="16.691414">
        <ele>217.960799</ele>
        <time>2020-08-20T08:34:13.562Z</time>
      </trkpt>
      <trkpt lat="48.596507" lon="16.691240">
        <ele>217.959924</ele>
        <time>2020-08-20T08:34:15.569Z</time>
      </trkpt>
      <trkpt lat="48.596533" lon="16.691072">
        <ele>217.959081</ele>
        <time>2020-08-20T08:34:17.575Z</time>
      </trkpt>
      <trkpt lat="48.596557" lon="16.690899">
        <ele>217.958218</ele>
        <time>2020-08-20T08:34:19.569Z</time>
      </trkpt>
      <trkpt lat="48.596583" lon="16.690716">
        <ele>217.957303</ele>
        <time>2020-08-20T08:34:21.563Z</time>
      </trkpt>
      <trkpt lat="48.596583" lon="16.690529">
        <ele>217.956390</ele>
        <time>2020-08-20T08:34:23.558Z</time>
      </trkpt>
      <trkpt lat="48.596568" lon="16.690339">
        <ele>217.955455</ele>
        <time>2020-08-20T08:34:25.554Z</time>
      </trkpt>
      <trkpt lat="48.596553" lon="16.690147">
        <ele>217.954510</ele>
        <time>2020-08-20T08:34:27.572Z</time>
      </trkpt>
      <trkpt lat="48.596531" lon="16.689953">
        <ele>217.953549</ele>
        <time>2020-08-20T08:34:29.584Z</time>
      </trkpt>
      <trkpt lat="48.596509" lon="16.689763">
        <ele>217.952606</ele>
        <time>2020-08-20T08:34:31.588Z</time>
      </trkpt>
      <trkpt lat="48.596488" lon="16.689580">
        <ele>217.951699</ele>
        <time>2020-08-20T08:34:33.556Z</time>
      </trkpt>
      <trkpt lat="48.596449" lon="16.689413">
        <ele>217.950834</ele>
        <time>2020-08-20T08:34:35.558Z</time>
      </trkpt>
      <trkpt lat="48.596405" lon="16.689252">
        <ele>217.949983</ele>
        <time>2020-08-20T08:34:37.553Z</time>
      </trkpt>
      <trkpt lat="48.596357" lon="16.689098">
        <ele>217.970639</ele>
        <time>2020-08-20T08:34:39.567Z</time>
      </trkpt>
      <trkpt lat="48.596313" lon="16.688941">
        <ele>218.001186</ele>
        <time>2020-08-20T08:34:41.579Z</time>
      </trkpt>
      <trkpt lat="48.596267" lon="16.688788">
        <ele>218.031295</ele>
        <time>2020-08-20T08:34:43.601Z</time>
      </trkpt>
      <trkpt lat="48.596219" lon="16.688647">
        <ele>218.059705</ele>
        <time>2020-08-20T08:34:45.555Z</time>
      </trkpt>
      <trkpt lat="48.596169" lon="16.688513">
        <ele>218.087268</ele>
        <time>2020-08-20T08:34:47.602Z</time>
      </trkpt>
      <trkpt lat="48.596120" lon="16.688379">
        <ele>218.114699</ele>
        <time>2020-08-20T08:34:49.569Z</time>
      </trkpt>
      <trkpt lat="48.596070" lon="16.688252">
        <ele>218.141177</ele>
        <time>2020-08-20T08:34:51.569Z</time>
      </trkpt>
      <trkpt lat="48.596017" lon="16.688126">
        <ele>218.167928</ele>
        <time>2020-08-20T08:34:53.562Z</time>
      </trkpt>
      <trkpt lat="48.595967" lon="16.688001">
        <ele>218.194099</ele>
        <time>2020-08-20T08:34:55.596Z</time>
      </trkpt>
      <trkpt lat="48.595921" lon="16.687882">
        <ele>218.218792</ele>
        <time>2020-08-20T08:34:57.570Z</time>
      </trkpt>
      <trkpt lat="48.595877" lon="16.687763">
        <ele>218.243216</ele>
        <time>2020-08-20T08:34:59.563Z</time>
      </trkpt>
      <trkpt lat="48.595808" lon="16.687592">
        <ele>218.279102</ele>
        <time>2020-08-20T08:35:02.579Z</time>
      </trkpt>
      <trkpt lat="48.595744" lon="16.687420">
        <ele>218.314458</ele>
        <time>2020-08-20T08:35:05.592Z</time>
      </trkpt>
      <trkpt lat="48.595679" lon="16.687249">
        <ele>218.349792</ele>
        <time>2020-08-20T08:35:08.568Z</time>
      </trkpt>
      <trkpt lat="48.595607" lon="16.687077">
        <ele>218.386259</ele>
        <time>2020-08-20T08:35:11.573Z</time>
      </trkpt>
      <trkpt lat="48.595560" lon="16.686956">
        <ele>218.411399</ele>
        <time>2020-08-20T08:35:13.590Z</time>
      </trkpt>
      <trkpt lat="48.595511" lon="16.686824">
        <ele>218.438713</ele>
        <time>2020-08-20T08:35:15.553Z</time>
      </trkpt>
      <trkpt lat="48.595460" lon="16.686684">
        <ele>218.470891</ele>
        <time>2020-08-20T08:35:17.573Z</time>
      </trkpt>
      <trkpt lat="48.595414" lon="16.686541">
        <ele>218.502904</ele>
        <time>2020-08-20T08:35:19.561Z</time>
      </trkpt>
      <trkpt lat="48.595373" lon="16.686386">
        <ele>218.536513</ele>
        <time>2020-08-20T08:35:21.564Z</time>
      </trkpt>
      <trkpt lat="48.595332" lon="16.686220">
        <ele>218.572187</ele>
        <time>2020-08-20T08:35:23.574Z</time>
      </trkpt>
      <trkpt lat="48.595299" lon="16.686063">
        <ele>218.605352</ele>
        <time>2020-08-20T08:35:25.606Z</time>
      </trkpt>
      <trkpt lat="48.595265" lon="16.685914">
        <ele>218.637085</ele>
        <time>2020-08-20T08:35:27.563Z</time>
      </trkpt>
      <trkpt lat="48.595230" lon="16.685768">
        <ele>218.668350</ele>
        <time>2020-08-20T08:35:29.583Z</time>
      </trkpt>
      <trkpt lat="48.595207" lon="16.685621">
        <ele>218.698761</ele>
        <time>2020-08-20T08:35:31.561Z</time>
      </trkpt>
      <trkpt lat="48.595199" lon="16.685476">
        <ele>218.728054</ele>
        <time>2020-08-20T08:35:33.567Z</time>
      </trkpt>
      <trkpt lat="48.595199" lon="16.685321">
        <ele>218.759260</ele>
        <time>2020-08-20T08:35:35.561Z</time>
      </trkpt>
      <trkpt lat="48.595200" lon="16.685152">
        <ele>218.793285</ele>
        <time>2020-08-20T08:35:37.557Z</time>
      </trkpt>
      <trkpt lat="48.595207" lon="16.684988">
        <ele>218.826371</ele>
        <time>2020-08-20T08:35:39.582Z</time>
      </trkpt>
      <trkpt lat="48.595213" lon="16.684818">
        <ele>218.860644</ele>
        <time>2020-08-20T08:35:41.560Z</time>
      </trkpt>
      <trkpt lat="48.595218" lon="16.684652">
        <ele>218.894099</ele>
        <time>2020-08-20T08:35:43.584Z</time>
      </trkpt>
      <trkpt lat="48.595222" lon="16.684477">
        <ele>218.929352</ele>
        <time>2020-08-20T08:35:45.583Z</time>
      </trkpt>
      <trkpt lat="48.595224" lon="16.684297">
        <ele>218.965595</ele>
        <time>2020-08-20T08:35:47.576Z</time>
      </trkpt>
      <trkpt lat="48.595224" lon="16.684111">
        <ele>219.029688</ele>
        <time>2020-08-20T08:35:49.585Z</time>
      </trkpt>
      <trkpt lat="48.595226" lon="16.683950">
        <ele>219.108559</ele>
        <time>2020-08-20T08:35:51.574Z</time>
      </trkpt>
      <trkpt lat="48.595231" lon="16.683791">
        <ele>219.186524</ele>
        <time>2020-08-20T08:35:53.594Z</time>
      </trkpt>
      <trkpt lat="48.595238" lon="16.683646">
        <ele>219.257734</ele>
        <time>2020-08-20T08:35:55.602Z</time>
      </trkpt>
      <trkpt lat="48.595245" lon="16.683495">
        <ele>219.331874</ele>
        <time>2020-08-20T08:35:57.559Z</time>
      </trkpt>
      <trkpt lat="48.595246" lon="16.683355">
        <ele>219.400450</ele>
        <time>2020-08-20T08:35:59.560Z</time>
      </trkpt>
      <trkpt lat="48.595238" lon="16.683211">
        <ele>219.471229</ele>
        <time>2020-08-20T08:36:01.577Z</time>
      </trkpt>
      <trkpt lat="48.595226" lon="16.683063">
        <ele>219.544262</ele>
        <time>2020-08-20T08:36:03.582Z</time>
      </trkpt>
      <trkpt lat="48.595204" lon="16.682902">
        <ele>219.624784</ele>
        <time>2020-08-20T08:36:05.573Z</time>
      </trkpt>
      <trkpt lat="48.595178" lon="16.682751">
        <ele>219.701209</ele>
        <time>2020-08-20T08:36:07.584Z</time>
      </trkpt>
      <trkpt lat="48.595142" lon="16.682597">
        <ele>219.781211</ele>
        <time>2020-08-20T08:36:09.570Z</time>
      </trkpt>
      <trkpt lat="48.595107" lon="16.682449">
        <ele>219.858196</ele>
        <time>2020-08-20T08:36:11.565Z</time>
      </trkpt>
      <trkpt lat="48.595061" lon="16.682311">
        <ele>219.933887</ele>
        <time>2020-08-20T08:36:13.552Z</time>
      </trkpt>
      <trkpt lat="48.595014" lon="16.682162">
        <ele>220.014743</ele>
        <time>2020-08-20T08:36:15.572Z</time>
      </trkpt>
      <trkpt lat="48.594964" lon="16.682033">
        <ele>220.087978</ele>
        <time>2020-08-20T08:36:17.563Z</time>
      </trkpt>
      <trkpt lat="48.594925" lon="16.681910">
        <ele>220.154788</ele>
        <time>2020-08-20T08:36:19.581Z</time>
      </trkpt>
      <trkpt lat="48.594896" lon="16.681777">
        <ele>220.223381</ele>
        <time>2020-08-20T08:36:21.612Z</time>
      </trkpt>
      <trkpt lat="48.594874" lon="16.681625">
        <ele>220.299592</ele>
        <time>2020-08-20T08:36:23.559Z</time>
      </trkpt>
      <trkpt lat="48.594864" lon="16.681457">
        <ele>220.344681</ele>
        <time>2020-08-20T08:36:25.568Z</time>
      </trkpt>
      <trkpt lat="48.594854" lon="16.681260">
        <ele>220.386205</ele>
        <time>2020-08-20T08:36:27.580Z</time>
      </trkpt>
      <trkpt lat="48.594841" lon="16.681069">
        <ele>220.426559</ele>
        <time>2020-08-20T08:36:29.563Z</time>
      </trkpt>
      <trkpt lat="48.594834" lon="16.680893">
        <ele>220.463615</ele>
        <time>2020-08-20T08:36:31.564Z</time>
      </trkpt>
      <trkpt lat="48.594829" lon="16.680705">
        <ele>220.503159</ele>
        <time>2020-08-20T08:36:33.582Z</time>
      </trkpt>
      <trkpt lat="48.594816" lon="16.680499">
        <ele>220.546650</ele>
        <time>2020-08-20T08:36:35.580Z</time>
      </trkpt>
      <trkpt lat="48.594793" lon="16.680295">
        <ele>220.590143</ele>
        <time>2020-08-20T08:36:37.574Z</time>
      </trkpt>
      <trkpt lat="48.594783" lon="16.680097">
        <ele>220.631877</ele>
        <time>2020-08-20T08:36:39.560Z</time>
      </trkpt>
      <trkpt lat="48.594753" lon="16.679907">
        <ele>220.672931</ele>
        <time>2020-08-20T08:36:41.579Z</time>
      </trkpt>
      <trkpt lat="48.594708" lon="16.679727">
        <ele>220.713373</ele>
        <time>2020-08-20T08:36:43.565Z</time>
      </trkpt>
      <trkpt lat="48.594661" lon="16.679553">
        <ele>220.752875</ele>
        <time>2020-08-20T08:36:45.557Z</time>
      </trkpt>
      <trkpt lat="48.594621" lon="16.679382">
        <ele>220.790995</ele>
        <time>2020-08-20T08:36:47.570Z</time>
      </trkpt>
      <trkpt lat="48.594580" lon="16.679225">
        <ele>220.826471</ele>
        <time>2020-08-20T08:36:49.568Z</time>
      </trkpt>
      <trkpt lat="48.594539" lon="16.679063">
        <ele>220.862926</ele>
        <time>2020-08-20T08:36:51.554Z</time>
      </trkpt>
      <trkpt lat="48.594504" lon="16.678912">
        <ele>220.898056</ele>
        <time>2020-08-20T08:36:53.588Z</time>
      </trkpt>
      <trkpt lat="48.594474" lon="16.678771">
        <ele>220.934672</ele>
        <time>2020-08-20T08:36:55.561Z</time>
      </trkpt>
      <trkpt lat="48.594455" lon="16.678624">
        <ele>220.971699</ele>
        <time>2020-08-20T08:36:57.564Z</time>
      </trkpt>
      <trkpt lat="48.594446" lon="16.678466">
        <ele>221.010903</ele>
        <time>2020-08-20T08:36:59.574Z</time>
      </trkpt>
      <trkpt lat="48.594422" lon="16.678308">
        <ele>221.050979</ele>
        <time>2020-08-20T08:37:01.564Z</time>
      </trkpt>
      <trkpt lat="48.594399" lon="16.678141">
        <ele>221.093148</ele>
        <time>2020-08-20T08:37:03.565Z</time>
      </trkpt>
      <trkpt lat="48.594387" lon="16.677988">
        <ele>221.131237</ele>
        <time>2020-08-20T08:37:05.591Z</time>
      </trkpt>
      <trkpt lat="48.594389" lon="16.677844">
        <ele>221.166843</ele>
        <time>2020-08-20T08:37:07.572Z</time>
      </trkpt>
      <trkpt lat="48.594383" lon="16.677690">
        <ele>221.204979</ele>
        <time>2020-08-20T08:37:09.568Z</time>
      </trkpt>
      <trkpt lat="48.594380" lon="16.677519">
        <ele>221.247267</ele>
        <time>2020-08-20T08:37:11.561Z</time>
      </trkpt>
      <trkpt lat="48.594378" lon="16.677366">
        <ele>221.285098</ele>
        <time>2020-08-20T08:37:13.574Z</time>
      </trkpt>
      <trkpt lat="48.594378" lon="16.677201">
        <ele>221.325887</ele>
        <time>2020-08-20T08:37:15.575Z</time>
      </trkpt>
      <trkpt lat="48.594372" lon="16.677008">
        <ele>221.373651</ele>
        <time>2020-08-20T08:37:17.571Z</time>
      </trkpt>
      <trkpt lat="48.594367" lon="16.676844">
        <ele>221.414237</ele>
        <time>2020-08-20T08:37:19.572Z</time>
      </trkpt>
      <trkpt lat="48.594354" lon="16.676661">
        <ele>221.459737</ele>
        <time>2020-08-20T08:37:21.567Z</time>
      </trkpt>
      <trkpt lat="48.594327" lon="16.676476">
        <ele>221.506571</ele>
        <time>2020-08-20T08:37:23.558Z</time>
      </trkpt>
      <trkpt lat="48.594305" lon="16.676305">
        <ele>221.549636</ele>
        <time>2020-08-20T08:37:25.561Z</time>
      </trkpt>
      <trkpt lat="48.594293" lon="16.676136">
        <ele>221.611895</ele>
        <time>2020-08-20T08:37:27.560Z</time>
      </trkpt>
      <trkpt lat="48.594278" lon="16.675972">
        <ele>221.679261</ele>
        <time>2020-08-20T08:37:29.574Z</time>
      </trkpt>
      <trkpt lat="48.594259" lon="16.675806">
        <ele>221.747810</ele>
        <time>2020-08-20T08:37:31.583Z</time>
      </trkpt>
      <trkpt lat="48.594236" lon="16.675617">
        <ele>221.826004</ele>
        <time>2020-08-20T08:37:33.584Z</time>
      </trkpt>
      <trkpt lat="48.594213" lon="16.675439">
        <ele>221.899801</ele>
        <time>2020-08-20T08:37:35.559Z</time>
      </trkpt>
      <trkpt lat="48.594187" lon="16.675249">
        <ele>221.978749</ele>
        <time>2020-08-20T08:37:37.584Z</time>
      </trkpt>
      <trkpt lat="48.594168" lon="16.675053">
        <ele>222.059352</ele>
        <time>2020-08-20T08:37:39.588Z</time>
      </trkpt>
      <trkpt lat="48.594144" lon="16.674858">
        <ele>222.140059</ele>
        <time>2020-08-20T08:37:41.592Z</time>
      </trkpt>
      <trkpt lat="48.594106" lon="16.674661">
        <ele>222.223558</ele>
        <time>2020-08-20T08:37:43.572Z</time>
      </trkpt>
      <trkpt lat="48.594067" lon="16.674472">
        <ele>222.304117</ele>
        <time>2020-08-20T08:37:45.572Z</time>
      </trkpt>
      <trkpt lat="48.594032" lon="16.674283">
        <ele>222.383978</ele>
        <time>2020-08-20T08:37:47.563Z</time>
      </trkpt>
      <trkpt lat="48.593995" lon="16.674101">
        <ele>222.461453</ele>
        <time>2020-08-20T08:37:49.567Z</time>
      </trkpt>
      <trkpt lat="48.593956" lon="16.673918">
        <ele>222.539686</ele>
        <time>2020-08-20T08:37:51.577Z</time>
      </trkpt>
      <trkpt lat="48.593926" lon="16.673735">
        <ele>222.616401</ele>
        <time>2020-08-20T08:37:53.558Z</time>
      </trkpt>
      <trkpt lat="48.593890" lon="16.673558">
        <ele>222.704126</ele>
        <time>2020-08-20T08:37:55.576Z</time>
      </trkpt>
      <trkpt lat="48.593860" lon="16.673378">
        <ele>222.817230</ele>
        <time>2020-08-20T08:37:57.576Z</time>
      </trkpt>
      <trkpt lat="48.593829" lon="16.673198">
        <ele>222.930564</ele>
        <time>2020-08-20T08:37:59.566Z</time>
      </trkpt>
      <trkpt lat="48.593806" lon="16.673018">
        <ele>223.042268</ele>
        <time>2020-08-20T08:38:01.591Z</time>
      </trkpt>
      <trkpt lat="48.593789" lon="16.672840">
        <ele>223.151850</ele>
        <time>2020-08-20T08:38:03.576Z</time>
      </trkpt>
      <trkpt lat="48.593785" lon="16.672664">
        <ele>223.259152</ele>
        <time>2020-08-20T08:38:05.579Z</time>
      </trkpt>
      <trkpt lat="48.593819" lon="16.672477">
        <ele>223.377320</ele>
        <time>2020-08-20T08:38:07.557Z</time>
      </trkpt>
      <trkpt lat="48.593864" lon="16.672310">
        <ele>223.487196</ele>
        <time>2020-08-20T08:38:09.565Z</time>
      </trkpt>
      <trkpt lat="48.593849" lon="16.672139">
        <ele>223.592300</ele>
        <time>2020-08-20T08:38:11.567Z</time>
      </trkpt>
      <trkpt lat="48.593826" lon="16.671970">
        <ele>223.697431</ele>
        <time>2020-08-20T08:38:13.571Z</time>
      </trkpt>
      <trkpt lat="48.593793" lon="16.671787">
        <ele>223.813005</ele>
        <time>2020-08-20T08:38:15.563Z</time>
      </trkpt>
      <trkpt lat="48.593755" lon="16.671590">
        <ele>223.938040</ele>
        <time>2020-08-20T08:38:17.563Z</time>
      </trkpt>
      <trkpt lat="48.593711" lon="16.671401">
        <ele>224.060126</ele>
        <time>2020-08-20T08:38:19.582Z</time>
      </trkpt>
      <trkpt lat="48.593671" lon="16.671222">
        <ele>224.175250</ele>
        <time>2020-08-20T08:38:21.564Z</time>
      </trkpt>
      <trkpt lat="48.593647" lon="16.671043">
        <ele>224.286535</ele>
        <time>2020-08-20T08:38:23.569Z</time>
      </trkpt>
      <trkpt lat="48.593622" lon="16.670847">
        <ele>224.378352</ele>
        <time>2020-08-20T08:38:25.562Z</time>
      </trkpt>
      <trkpt lat="48.593595" lon="16.670659">
        <ele>224.454113</ele>
        <time>2020-08-20T08:38:27.582Z</time>
      </trkpt>
      <trkpt lat="48.593552" lon="16.670482">
        <ele>224.528370</ele>
        <time>2020-08-20T08:38:29.567Z</time>
      </trkpt>
      <trkpt lat="48.593489" lon="16.670322">
        <ele>224.601699</ele>
        <time>2020-08-20T08:38:31.581Z</time>
      </trkpt>
      <trkpt lat="48.593412" lon="16.670177">
        <ele>224.674928</ele>
        <time>2020-08-20T08:38:33.571Z</time>
      </trkpt>
      <trkpt lat="48.593346" lon="16.670036">
        <ele>224.742954</ele>
        <time>2020-08-20T08:38:35.597Z</time>
      </trkpt>
      <trkpt lat="48.593288" lon="16.669902">
        <ele>224.806020</ele>
        <time>2020-08-20T08:38:37.569Z</time>
      </trkpt>
      <trkpt lat="48.593233" lon="16.669767">
        <ele>224.868461</ele>
        <time>2020-08-20T08:38:39.557Z</time>
      </trkpt>
      <trkpt lat="48.593177" lon="16.669626">
        <ele>224.933229</ele>
        <time>2020-08-20T08:38:41.574Z</time>
      </trkpt>
      <trkpt lat="48.593125" lon="16.669496">
        <ele>224.993059</ele>
        <time>2020-08-20T08:38:43.588Z</time>
      </trkpt>
      <trkpt lat="48.593080" lon="16.669360">
        <ele>225.052945</ele>
        <time>2020-08-20T08:38:45.553Z</time>
      </trkpt>
      <trkpt lat="48.593030" lon="16.669169">
        <ele>225.133840</ele>
        <time>2020-08-20T08:38:48.569Z</time>
      </trkpt>
      <trkpt lat="48.592973" lon="16.668987">
        <ele>225.213142</ele>
        <time>2020-08-20T08:38:51.565Z</time>
      </trkpt>
      <trkpt lat="48.592911" lon="16.668812">
        <ele>225.291323</ele>
        <time>2020-08-20T08:38:54.564Z</time>
      </trkpt>
      <trkpt lat="48.592848" lon="16.668643">
        <ele>225.367721</ele>
        <time>2020-08-20T08:38:57.573Z</time>
      </trkpt>
      <trkpt lat="48.592797" lon="16.668529">
        <ele>225.390385</ele>
        <time>2020-08-20T08:38:59.565Z</time>
      </trkpt>
      <trkpt lat="48.592747" lon="16.668410">
        <ele>225.381298</ele>
        <time>2020-08-20T08:39:01.569Z</time>
      </trkpt>
      <trkpt lat="48.592698" lon="16.668291">
        <ele>225.372264</ele>
        <time>2020-08-20T08:39:03.564Z</time>
      </trkpt>
      <trkpt lat="48.592641" lon="16.668159">
        <ele>225.362104</ele>
        <time>2020-08-20T08:39:05.564Z</time>
      </trkpt>
      <trkpt lat="48.592580" lon="16.668022">
        <ele>225.351460</ele>
        <time>2020-08-20T08:39:07.584Z</time>
      </trkpt>
      <trkpt lat="48.592502" lon="16.667887">
        <ele>225.339907</ele>
        <time>2020-08-20T08:39:09.591Z</time>
      </trkpt>
      <trkpt lat="48.592407" lon="16.667749">
        <ele>225.327070</ele>
        <time>2020-08-20T08:39:11.559Z</time>
      </trkpt>
      <trkpt lat="48.592300" lon="16.667615">
        <ele>225.313531</ele>
        <time>2020-08-20T08:39:13.564Z</time>
      </trkpt>
      <trkpt lat="48.592180" lon="16.667506">
        <ele>225.299890</ele>
        <time>2020-08-20T08:39:15.564Z</time>
      </trkpt>
      <trkpt lat="48.592075" lon="16.667410">
        <ele>225.287933</ele>
        <time>2020-08-20T08:39:17.563Z</time>
      </trkpt>
      <trkpt lat="48.591983" lon="16.667322">
        <ele>225.277325</ele>
        <time>2020-08-20T08:39:19.560Z</time>
      </trkpt>
      <trkpt lat="48.591899" lon="16.667236">
        <ele>225.267439</ele>
        <time>2020-08-20T08:39:21.569Z</time>
      </trkpt>
      <trkpt lat="48.591822" lon="16.667158">
        <ele>225.258408</ele>
        <time>2020-08-20T08:39:23.580Z</time>
      </trkpt>
      <trkpt lat="48.591713" lon="16.667062">
        <ele>225.246116</ele>
        <time>2020-08-20T08:39:26.579Z</time>
      </trkpt>
      <trkpt lat="48.591602" lon="16.666969">
        <ele>225.233750</ele>
        <time>2020-08-20T08:39:29.561Z</time>
      </trkpt>
      <trkpt lat="48.591519" lon="16.666897">
        <ele>225.224425</ele>
        <time>2020-08-20T08:39:31.556Z</time>
      </trkpt>
      <trkpt lat="48.591432" lon="16.666823">
        <ele>225.191462</ele>
        <time>2020-08-20T08:39:33.560Z</time>
      </trkpt>
      <trkpt lat="48.591341" lon="16.666742">
        <ele>225.131935</ele>
        <time>2020-08-20T08:39:35.591Z</time>
      </trkpt>
      <trkpt lat="48.591256" lon="16.666636">
        <ele>225.069824</ele>
        <time>2020-08-20T08:39:37.554Z</time>
      </trkpt>
      <trkpt lat="48.591178" lon="16.666501">
        <ele>225.002989</ele>
        <time>2020-08-20T08:39:39.567Z</time>
      </trkpt>
      <trkpt lat="48.591114" lon="16.666347">
        <ele>224.935177</ele>
        <time>2020-08-20T08:39:41.570Z</time>
      </trkpt>
      <trkpt lat="48.591060" lon="16.666173">
        <ele>224.863514</ele>
        <time>2020-08-20T08:39:43.567Z</time>
      </trkpt>
      <trkpt lat="48.591006" lon="16.666002">
        <ele>224.792863</ele>
        <time>2020-08-20T08:39:45.569Z</time>
      </trkpt>
      <trkpt lat="48.590958" lon="16.665833">
        <ele>224.724287</ele>
        <time>2020-08-20T08:39:47.577Z</time>
      </trkpt>
      <trkpt lat="48.590906" lon="16.665663">
        <ele>224.654452</ele>
        <time>2020-08-20T08:39:49.560Z</time>
      </trkpt>
      <trkpt lat="48.590852" lon="16.665489">
        <ele>224.582789</ele>
        <time>2020-08-20T08:39:51.591Z</time>
      </trkpt>
      <trkpt lat="48.590792" lon="16.665320">
        <ele>224.511274</ele>
        <time>2020-08-20T08:39:53.553Z</time>
      </trkpt>
      <trkpt lat="48.590736" lon="16.665149">
        <ele>224.440129</ele>
        <time>2020-08-20T08:39:55.597Z</time>
      </trkpt>
      <trkpt lat="48.590686" lon="16.664976">
        <ele>224.369736</ele>
        <time>2020-08-20T08:39:57.572Z</time>
      </trkpt>
      <trkpt lat="48.590635" lon="16.664809">
        <ele>224.301153</ele>
        <time>2020-08-20T08:39:59.577Z</time>
      </trkpt>
      <trkpt lat="48.590589" lon="16.664648">
        <ele>224.235762</ele>
        <time>2020-08-20T08:40:01.563Z</time>
      </trkpt>
      <trkpt lat="48.590546" lon="16.664496">
        <ele>224.223918</ele>
        <time>2020-08-20T08:40:03.566Z</time>
      </trkpt>
      <trkpt lat="48.590502" lon="16.664347">
        <ele>224.259177</ele>
        <time>2020-08-20T08:40:05.560Z</time>
      </trkpt>
      <trkpt lat="48.590454" lon="16.664201">
        <ele>224.294408</ele>
        <time>2020-08-20T08:40:07.589Z</time>
      </trkpt>
      <trkpt lat="48.590408" lon="16.664054">
        <ele>224.329548</ele>
        <time>2020-08-20T08:40:09.590Z</time>
      </trkpt>
      <trkpt lat="48.590367" lon="16.663904">
        <ele>224.364619</ele>
        <time>2020-08-20T08:40:11.611Z</time>
      </trkpt>
      <trkpt lat="48.590325" lon="16.663757">
        <ele>224.399220</ele>
        <time>2020-08-20T08:40:13.578Z</time>
      </trkpt>
      <trkpt lat="48.590285" lon="16.663608">
        <ele>224.433967</ele>
        <time>2020-08-20T08:40:15.579Z</time>
      </trkpt>
      <trkpt lat="48.590243" lon="16.663450">
        <ele>224.470763</ele>
        <time>2020-08-20T08:40:17.574Z</time>
      </trkpt>
      <trkpt lat="48.590199" lon="16.663297">
        <ele>224.506813</ele>
        <time>2020-08-20T08:40:19.559Z</time>
      </trkpt>
      <trkpt lat="48.590156" lon="16.663155">
        <ele>224.540560</ele>
        <time>2020-08-20T08:40:21.572Z</time>
      </trkpt>
      <trkpt lat="48.590112" lon="16.663017">
        <ele>224.573663</ele>
        <time>2020-08-20T08:40:23.567Z</time>
      </trkpt>
      <trkpt lat="48.590068" lon="16.662872">
        <ele>224.608136</ele>
        <time>2020-08-20T08:40:25.589Z</time>
      </trkpt>
      <trkpt lat="48.590023" lon="16.662727">
        <ele>224.642745</ele>
        <time>2020-08-20T08:40:27.565Z</time>
      </trkpt>
      <trkpt lat="48.589978" lon="16.662582">
        <ele>224.677355</ele>
        <time>2020-08-20T08:40:29.561Z</time>
      </trkpt>
      <trkpt lat="48.589936" lon="16.662437">
        <ele>224.711560</ele>
        <time>2020-08-20T08:40:31.640Z</time>
      </trkpt>
      <trkpt lat="48.589898" lon="16.662290">
        <ele>224.745665</ele>
        <time>2020-08-20T08:40:33.586Z</time>
      </trkpt>
      <trkpt lat="48.589863" lon="16.662145">
        <ele>224.779018</ele>
        <time>2020-08-20T08:40:35.571Z</time>
      </trkpt>
      <trkpt lat="48.589834" lon="16.662005">
        <ele>224.800226</ele>
        <time>2020-08-20T08:40:37.560Z</time>
      </trkpt>
      <trkpt lat="48.589815" lon="16.661865">
        <ele>224.812566</ele>
        <time>2020-08-20T08:40:39.561Z</time>
      </trkpt>
      <trkpt lat="48.589801" lon="16.661724">
        <ele>224.824877</ele>
        <time>2020-08-20T08:40:41.563Z</time>
      </trkpt>
      <trkpt lat="48.589797" lon="16.661525">
        <ele>224.842067</ele>
        <time>2020-08-20T08:40:44.571Z</time>
      </trkpt>
      <trkpt lat="48.589802" lon="16.661387">
        <ele>224.854001</ele>
        <time>2020-08-20T08:40:46.563Z</time>
      </trkpt>
      <trkpt lat="48.589823" lon="16.661189">
        <ele>224.871315</ele>
        <time>2020-08-20T08:40:49.577Z</time>
      </trkpt>
      <trkpt lat="48.589841" lon="16.661051">
        <ele>224.883460</ele>
        <time>2020-08-20T08:40:51.554Z</time>
      </trkpt>
      <trkpt lat="48.589838" lon="16.660914">
        <ele>224.895296</ele>
        <time>2020-08-20T08:40:53.550Z</time>
      </trkpt>
      <trkpt lat="48.589783" lon="16.660739">
        <ele>224.912025</ele>
        <time>2020-08-20T08:40:56.565Z</time>
      </trkpt>
      <trkpt lat="48.589708" lon="16.660622">
        <ele>224.926092</ele>
        <time>2020-08-20T08:40:59.563Z</time>
      </trkpt>
      <trkpt lat="48.589616" lon="16.660495">
        <ele>224.942355</ele>
        <time>2020-08-20T08:41:02.561Z</time>
      </trkpt>
      <trkpt lat="48.589542" lon="16.660385">
        <ele>224.955902</ele>
        <time>2020-08-20T08:41:04.562Z</time>
      </trkpt>
      <trkpt lat="48.589468" lon="16.660262">
        <ele>224.970258</ele>
        <time>2020-08-20T08:41:06.568Z</time>
      </trkpt>
      <trkpt lat="48.589400" lon="16.660135">
        <ele>224.984367</ele>
        <time>2020-08-20T08:41:08.560Z</time>
      </trkpt>
      <trkpt lat="48.589337" lon="16.660002">
        <ele>224.998491</ele>
        <time>2020-08-20T08:41:10.557Z</time>
      </trkpt>
      <trkpt lat="48.589281" lon="16.659863">
        <ele>225.012544</ele>
        <time>2020-08-20T08:41:12.565Z</time>
      </trkpt>
      <trkpt lat="48.589223" lon="16.659723">
        <ele>225.026808</ele>
        <time>2020-08-20T08:41:14.573Z</time>
      </trkpt>
      <trkpt lat="48.589163" lon="16.659586">
        <ele>225.003065</ele>
        <time>2020-08-20T08:41:16.561Z</time>
      </trkpt>
      <trkpt lat="48.589110" lon="16.659441">
        <ele>224.975506</ele>
        <time>2020-08-20T08:41:18.571Z</time>
      </trkpt>
      <trkpt lat="48.589056" lon="16.659299">
        <ele>224.948258</ele>
        <time>2020-08-20T08:41:20.567Z</time>
      </trkpt>
      <trkpt lat="48.589008" lon="16.659148">
        <ele>224.920389</ele>
        <time>2020-08-20T08:41:22.570Z</time>
      </trkpt>
      <trkpt lat="48.588966" lon="16.658996">
        <ele>224.892986</ele>
        <time>2020-08-20T08:41:24.560Z</time>
      </trkpt>
      <trkpt lat="48.588928" lon="16.658840">
        <ele>224.865332</ele>
        <time>2020-08-20T08:41:26.575Z</time>
      </trkpt>
      <trkpt lat="48.588896" lon="16.658685">
        <ele>224.838320</ele>
        <time>2020-08-20T08:41:28.577Z</time>
      </trkpt>
      <trkpt lat="48.588864" lon="16.658529">
        <ele>224.811150</ele>
        <time>2020-08-20T08:41:30.580Z</time>
      </trkpt>
      <trkpt lat="48.588834" lon="16.658375">
        <ele>224.784444</ele>
        <time>2020-08-20T08:41:32.565Z</time>
      </trkpt>
      <trkpt lat="48.588800" lon="16.658219">
        <ele>224.757121</ele>
        <time>2020-08-20T08:41:34.559Z</time>
      </trkpt>
      <trkpt lat="48.588768" lon="16.658063">
        <ele>224.729951</ele>
        <time>2020-08-20T08:41:36.586Z</time>
      </trkpt>
      <trkpt lat="48.588741" lon="16.657909">
        <ele>224.703448</ele>
        <time>2020-08-20T08:41:38.584Z</time>
      </trkpt>
      <trkpt lat="48.588717" lon="16.657754">
        <ele>224.676966</ele>
        <time>2020-08-20T08:41:40.573Z</time>
      </trkpt>
      <trkpt lat="48.588699" lon="16.657590">
        <ele>224.649311</ele>
        <time>2020-08-20T08:41:42.563Z</time>
      </trkpt>
      <trkpt lat="48.588690" lon="16.657428">
        <ele>224.622267</ele>
        <time>2020-08-20T08:41:44.569Z</time>
      </trkpt>
      <trkpt lat="48.588685" lon="16.657263">
        <ele>224.594790</ele>
        <time>2020-08-20T08:41:46.582Z</time>
      </trkpt>
      <trkpt lat="48.588680" lon="16.657099">
        <ele>224.570769</ele>
        <time>2020-08-20T08:41:48.591Z</time>
      </trkpt>
      <trkpt lat="48.588674" lon="16.656933">
        <ele>224.554196</ele>
        <time>2020-08-20T08:41:50.575Z</time>
      </trkpt>
      <trkpt lat="48.588661" lon="16.656773">
        <ele>224.538126</ele>
        <time>2020-08-20T08:41:52.596Z</time>
      </trkpt>
      <trkpt lat="48.588652" lon="16.656612">
        <ele>224.522019</ele>
        <time>2020-08-20T08:41:54.588Z</time>
      </trkpt>
      <trkpt lat="48.588644" lon="16.656450">
        <ele>224.505825</ele>
        <time>2020-08-20T08:41:56.561Z</time>
      </trkpt>
      <trkpt lat="48.588633" lon="16.656289">
        <ele>224.489690</ele>
        <time>2020-08-20T08:41:58.581Z</time>
      </trkpt>
      <trkpt lat="48.588626" lon="16.656125">
        <ele>224.473307</ele>
        <time>2020-08-20T08:42:00.564Z</time>
      </trkpt>
      <trkpt lat="48.588620" lon="16.655964">
        <ele>224.457231</ele>
        <time>2020-08-20T08:42:02.600Z</time>
      </trkpt>
      <trkpt lat="48.588614" lon="16.655803">
        <ele>224.441156</ele>
        <time>2020-08-20T08:42:04.562Z</time>
      </trkpt>
      <trkpt lat="48.588608" lon="16.655642">
        <ele>224.425081</ele>
        <time>2020-08-20T08:42:06.573Z</time>
      </trkpt>
      <trkpt lat="48.588601" lon="16.655482">
        <ele>224.409096</ele>
        <time>2020-08-20T08:42:08.567Z</time>
      </trkpt>
      <trkpt lat="48.588590" lon="16.655326">
        <ele>224.393456</ele>
        <time>2020-08-20T08:42:10.547Z</time>
      </trkpt>
      <trkpt lat="48.588581" lon="16.655172">
        <ele>224.378044</ele>
        <time>2020-08-20T08:42:12.560Z</time>
      </trkpt>
      <trkpt lat="48.588575" lon="16.655016">
        <ele>224.362467</ele>
        <time>2020-08-20T08:42:14.578Z</time>
      </trkpt>
      <trkpt lat="48.588562" lon="16.654857">
        <ele>224.346496</ele>
        <time>2020-08-20T08:42:16.552Z</time>
      </trkpt>
      <trkpt lat="48.588545" lon="16.654695">
        <ele>224.330144</ele>
        <time>2020-08-20T08:42:18.582Z</time>
      </trkpt>
      <trkpt lat="48.588523" lon="16.654530">
        <ele>224.313365</ele>
        <time>2020-08-20T08:42:20.580Z</time>
      </trkpt>
      <trkpt lat="48.588498" lon="16.654364">
        <ele>224.308276</ele>
        <time>2020-08-20T08:42:22.563Z</time>
      </trkpt>
      <trkpt lat="48.588464" lon="16.654199">
        <ele>224.315945</ele>
        <time>2020-08-20T08:42:24.580Z</time>
      </trkpt>
      <trkpt lat="48.588423" lon="16.654031">
        <ele>224.323892</ele>
        <time>2020-08-20T08:42:26.564Z</time>
      </trkpt>
      <trkpt lat="48.588379" lon="16.653862">
        <ele>224.331951</ele>
        <time>2020-08-20T08:42:28.580Z</time>
      </trkpt>
      <trkpt lat="48.588331" lon="16.653709">
        <ele>224.339466</ele>
        <time>2020-08-20T08:42:30.574Z</time>
      </trkpt>
      <trkpt lat="48.588281" lon="16.653565">
        <ele>224.346683</ele>
        <time>2020-08-20T08:42:32.592Z</time>
      </trkpt>
      <trkpt lat="48.588231" lon="16.653428">
        <ele>224.353627</ele>
        <time>2020-08-20T08:42:34.582Z</time>
      </trkpt>
      <trkpt lat="48.588177" lon="16.653271">
        <ele>224.361479</ele>
        <time>2020-08-20T08:42:36.553Z</time>
      </trkpt>
      <trkpt lat="48.588117" lon="16.653104">
        <ele>224.369913</ele>
        <time>2020-08-20T08:42:38.575Z</time>
      </trkpt>
      <trkpt lat="48.588048" lon="16.652940">
        <ele>224.378538</ele>
        <time>2020-08-20T08:42:41.573Z</time>
      </trkpt>
      <trkpt lat="48.587975" lon="16.652833">
        <ele>224.385360</ele>
        <time>2020-08-20T08:42:43.556Z</time>
      </trkpt>
      <trkpt lat="48.587897" lon="16.652729">
        <ele>224.392337</ele>
        <time>2020-08-20T08:42:45.552Z</time>
      </trkpt>
      <trkpt lat="48.587823" lon="16.652615">
        <ele>224.399425</ele>
        <time>2020-08-20T08:42:47.596Z</time>
      </trkpt>
      <trkpt lat="48.587751" lon="16.652507">
        <ele>224.406230</ele>
        <time>2020-08-20T08:42:49.574Z</time>
      </trkpt>
      <trkpt lat="48.587678" lon="16.652397">
        <ele>224.413144</ele>
        <time>2020-08-20T08:42:51.569Z</time>
      </trkpt>
      <trkpt lat="48.587604" lon="16.652286">
        <ele>224.420138</ele>
        <time>2020-08-20T08:42:53.586Z</time>
      </trkpt>
      <trkpt lat="48.587530" lon="16.652175">
        <ele>224.428023</ele>
        <time>2020-08-20T08:42:55.567Z</time>
      </trkpt>
      <trkpt lat="48.587456" lon="16.652062">
        <ele>224.438483</ele>
        <time>2020-08-20T08:42:57.570Z</time>
      </trkpt>
      <trkpt lat="48.587383" lon="16.651942">
        <ele>224.449208</ele>
        <time>2020-08-20T08:42:59.595Z</time>
      </trkpt>
      <trkpt lat="48.587313" lon="16.651820">
        <ele>224.459833</ele>
        <time>2020-08-20T08:43:01.587Z</time>
      </trkpt>
      <trkpt lat="48.587243" lon="16.651701">
        <ele>224.470309</ele>
        <time>2020-08-20T08:43:03.569Z</time>
      </trkpt>
      <trkpt lat="48.587165" lon="16.651580">
        <ele>224.481423</ele>
        <time>2020-08-20T08:43:05.594Z</time>
      </trkpt>
      <trkpt lat="48.587082" lon="16.651456">
        <ele>224.493028</ele>
        <time>2020-08-20T08:43:07.572Z</time>
      </trkpt>
      <trkpt lat="48.587003" lon="16.651331">
        <ele>224.504402</ele>
        <time>2020-08-20T08:43:09.569Z</time>
      </trkpt>
      <trkpt lat="48.586928" lon="16.651217">
        <ele>224.514979</ele>
        <time>2020-08-20T08:43:11.576Z</time>
      </trkpt>
      <trkpt lat="48.586850" lon="16.651105">
        <ele>224.525677</ele>
        <time>2020-08-20T08:43:13.565Z</time>
      </trkpt>
      <trkpt lat="48.586770" lon="16.650999">
        <ele>224.536257</ele>
        <time>2020-08-20T08:43:15.582Z</time>
      </trkpt>
      <trkpt lat="48.586687" lon="16.650899">
        <ele>224.546812</ele>
        <time>2020-08-20T08:43:17.596Z</time>
      </trkpt>
      <trkpt lat="48.586601" lon="16.650804">
        <ele>224.557405</ele>
        <time>2020-08-20T08:43:19.570Z</time>
      </trkpt>
      <trkpt lat="48.586512" lon="16.650714">
        <ele>224.568054</ele>
        <time>2020-08-20T08:43:21.579Z</time>
      </trkpt>
      <trkpt lat="48.586420" lon="16.650627">
        <ele>224.578846</ele>
        <time>2020-08-20T08:43:23.578Z</time>
      </trkpt>
      <trkpt lat="48.586328" lon="16.650542">
        <ele>224.589569</ele>
        <time>2020-08-20T08:43:25.564Z</time>
      </trkpt>
      <trkpt lat="48.586233" lon="16.650457">
        <ele>224.600548</ele>
        <time>2020-08-20T08:43:27.596Z</time>
      </trkpt>
      <trkpt lat="48.586133" lon="16.650389">
        <ele>224.622326</ele>
        <time>2020-08-20T08:43:29.565Z</time>
      </trkpt>
      <trkpt lat="48.586035" lon="16.650312">
        <ele>224.649689</ele>
        <time>2020-08-20T08:43:31.580Z</time>
      </trkpt>
      <trkpt lat="48.585935" lon="16.650238">
        <ele>224.677273</ele>
        <time>2020-08-20T08:43:33.563Z</time>
      </trkpt>
      <trkpt lat="48.585831" lon="16.650165">
        <ele>224.705681</ele>
        <time>2020-08-20T08:43:35.562Z</time>
      </trkpt>
      <trkpt lat="48.585727" lon="16.650094">
        <ele>224.733953</ele>
        <time>2020-08-20T08:43:37.561Z</time>
      </trkpt>
      <trkpt lat="48.585628" lon="16.650026">
        <ele>224.760893</ele>
        <time>2020-08-20T08:43:39.580Z</time>
      </trkpt>
      <trkpt lat="48.585529" lon="16.649949">
        <ele>224.788476</ele>
        <time>2020-08-20T08:43:41.556Z</time>
      </trkpt>
      <trkpt lat="48.585436" lon="16.649869">
        <ele>224.814986</ele>
        <time>2020-08-20T08:43:43.583Z</time>
      </trkpt>
      <trkpt lat="48.585344" lon="16.649788">
        <ele>224.841364</ele>
        <time>2020-08-20T08:43:45.590Z</time>
      </trkpt>
      <trkpt lat="48.585254" lon="16.649705">
        <ele>224.867483</ele>
        <time>2020-08-20T08:43:47.587Z</time>
      </trkpt>
      <trkpt lat="48.585169" lon="16.649612">
        <ele>224.893479</ele>
        <time>2020-08-20T08:43:49.581Z</time>
      </trkpt>
      <trkpt lat="48.585087" lon="16.649516">
        <ele>224.919174</ele>
        <time>2020-08-20T08:43:51.569Z</time>
      </trkpt>
      <trkpt lat="48.585009" lon="16.649414">
        <ele>224.944726</ele>
        <time>2020-08-20T08:43:53.567Z</time>
      </trkpt>
      <trkpt lat="48.584931" lon="16.649310">
        <ele>224.970493</ele>
        <time>2020-08-20T08:43:55.572Z</time>
      </trkpt>
      <trkpt lat="48.584852" lon="16.649202">
        <ele>224.996882</ele>
        <time>2020-08-20T08:43:57.592Z</time>
      </trkpt>
      <trkpt lat="48.584775" lon="16.649092">
        <ele>225.023129</ele>
        <time>2020-08-20T08:43:59.565Z</time>
      </trkpt>
      <trkpt lat="48.584704" lon="16.648976">
        <ele>225.049030</ele>
        <time>2020-08-20T08:44:01.565Z</time>
      </trkpt>
      <trkpt lat="48.584633" lon="16.648863">
        <ele>225.049776</ele>
        <time>2020-08-20T08:44:03.595Z</time>
      </trkpt>
      <trkpt lat="48.584543" lon="16.648771">
        <ele>225.049776</ele>
        <time>2020-08-20T08:44:05.569Z</time>
      </trkpt>
      <trkpt lat="48.584427" lon="16.648792">
        <ele>225.049776</ele>
        <time>2020-08-20T08:44:07.560Z</time>
      </trkpt>
      <trkpt lat="48.584310" lon="16.648849">
        <ele>225.049776</ele>
        <time>2020-08-20T08:44:09.569Z</time>
      </trkpt>
      <trkpt lat="48.584209" lon="16.648936">
        <ele>225.049776</ele>
        <time>2020-08-20T08:44:11.555Z</time>
      </trkpt>
      <trkpt lat="48.584111" lon="16.649018">
        <ele>225.049776</ele>
        <time>2020-08-20T08:44:13.558Z</time>
      </trkpt>
      <trkpt lat="48.584008" lon="16.649094">
        <ele>225.049776</ele>
        <time>2020-08-20T08:44:15.563Z</time>
      </trkpt>
      <trkpt lat="48.583914" lon="16.649047">
        <ele>225.049776</ele>
        <time>2020-08-20T08:44:18.562Z</time>
      </trkpt>
      <trkpt lat="48.583904" lon="16.649025">
        <ele>225.049776</ele>
        <time>2020-08-20T08:44:34.529Z</time>
      </trkpt>
    </trkseg>
  </trk>
</gpx>